<?xml version="1.0" encoding="UTF-8" standalone="no" ?>
<gpx xmlns="http://www.topografix.com/GPX/1/1" xmlns:xsi="http://www.w3.org/2001/XMLSchema-instance" xsi:schemaLocation="http://www.topografix.com/GPX/1/1 http://www.topografix.com/GPX/1/1/gpx.xsd" version="1.1" creator="VisuGPX - https://www.visugpx.com">
  <metadata>
    <name>Estenc ---&gt; Cime de Pal ---&gt; Cime de Bolofré</name>
    <desc><![CDATA[Cime de Pal: F/AM-178
Cime de Bolofré: F/AM-160]]></desc>
  </metadata>
  <trk>
    <name><![CDATA[2012-07-30-01]]></name>
    <trkseg>
      <trkpt lat="44.23514" lon="6.7519">
        <ele>1741.8</ele>
        <time>2012-07-30T04:10:47Z</time>
      </trkpt>
      <trkpt lat="44.23516" lon="6.75184">
        <ele>1779.1</ele>
        <time>2012-07-30T04:11:08Z</time>
      </trkpt>
      <trkpt lat="44.23516" lon="6.75184">
        <ele>1780.3</ele>
        <time>2012-07-30T04:11:09Z</time>
      </trkpt>
      <trkpt lat="44.23516" lon="6.75184">
        <ele>1780.9</ele>
        <time>2012-07-30T04:11:10Z</time>
      </trkpt>
      <trkpt lat="44.23516" lon="6.75184">
        <ele>1781.3</ele>
        <time>2012-07-30T04:11:11Z</time>
      </trkpt>
      <trkpt lat="44.23516" lon="6.75184">
        <ele>1781.5</ele>
        <time>2012-07-30T04:11:12Z</time>
      </trkpt>
      <trkpt lat="44.23515" lon="6.75184">
        <ele>1781.5</ele>
        <time>2012-07-30T04:11:13Z</time>
      </trkpt>
      <trkpt lat="44.23515" lon="6.75184">
        <ele>1781.4</ele>
        <time>2012-07-30T04:11:14Z</time>
      </trkpt>
      <trkpt lat="44.23514" lon="6.75184">
        <ele>1781</ele>
        <time>2012-07-30T04:11:15Z</time>
      </trkpt>
      <trkpt lat="44.23514" lon="6.75184">
        <ele>1781</ele>
        <time>2012-07-30T04:11:16Z</time>
      </trkpt>
      <trkpt lat="44.23514" lon="6.75183">
        <ele>1781.4</ele>
        <time>2012-07-30T04:11:17Z</time>
      </trkpt>
      <trkpt lat="44.23513" lon="6.75183">
        <ele>1781</ele>
        <time>2012-07-30T04:11:18Z</time>
      </trkpt>
      <trkpt lat="44.23512" lon="6.75183">
        <ele>1781</ele>
        <time>2012-07-30T04:11:19Z</time>
      </trkpt>
      <trkpt lat="44.23512" lon="6.75183">
        <ele>1781.3</ele>
        <time>2012-07-30T04:11:20Z</time>
      </trkpt>
      <trkpt lat="44.23512" lon="6.75183">
        <ele>1781.4</ele>
        <time>2012-07-30T04:11:21Z</time>
      </trkpt>
      <trkpt lat="44.23513" lon="6.75183">
        <ele>1781.3</ele>
        <time>2012-07-30T04:11:22Z</time>
      </trkpt>
      <trkpt lat="44.23513" lon="6.75184">
        <ele>1781</ele>
        <time>2012-07-30T04:11:23Z</time>
      </trkpt>
      <trkpt lat="44.23513" lon="6.75185">
        <ele>1781.4</ele>
        <time>2012-07-30T04:11:24Z</time>
      </trkpt>
      <trkpt lat="44.23513" lon="6.75185">
        <ele>1781.5</ele>
        <time>2012-07-30T04:11:25Z</time>
      </trkpt>
      <trkpt lat="44.23513" lon="6.75186">
        <ele>1781.8</ele>
        <time>2012-07-30T04:11:26Z</time>
      </trkpt>
      <trkpt lat="44.23513" lon="6.75186">
        <ele>1782</ele>
        <time>2012-07-30T04:11:27Z</time>
      </trkpt>
      <trkpt lat="44.23513" lon="6.75186">
        <ele>1782</ele>
        <time>2012-07-30T04:11:28Z</time>
      </trkpt>
      <trkpt lat="44.23513" lon="6.75187">
        <ele>1782.4</ele>
        <time>2012-07-30T04:11:29Z</time>
      </trkpt>
      <trkpt lat="44.23513" lon="6.75188">
        <ele>1782.3</ele>
        <time>2012-07-30T04:11:30Z</time>
      </trkpt>
      <trkpt lat="44.23514" lon="6.75189">
        <ele>1782</ele>
        <time>2012-07-30T04:11:31Z</time>
      </trkpt>
      <trkpt lat="44.23519" lon="6.75192">
        <ele>1784.5</ele>
        <time>2012-07-30T04:11:37Z</time>
      </trkpt>
      <trkpt lat="44.2352" lon="6.75193">
        <ele>1784.5</ele>
        <time>2012-07-30T04:11:39Z</time>
      </trkpt>
      <trkpt lat="44.23524" lon="6.75196">
        <ele>1784.9</ele>
        <time>2012-07-30T04:11:42Z</time>
      </trkpt>
      <trkpt lat="44.23526" lon="6.75198">
        <ele>1785.5</ele>
        <time>2012-07-30T04:11:45Z</time>
      </trkpt>
      <trkpt lat="44.23527" lon="6.75199">
        <ele>1786.5</ele>
        <time>2012-07-30T04:11:46Z</time>
      </trkpt>
      <trkpt lat="44.23528" lon="6.75201">
        <ele>1788.3</ele>
        <time>2012-07-30T04:11:47Z</time>
      </trkpt>
      <trkpt lat="44.23528" lon="6.75202">
        <ele>1788.5</ele>
        <time>2012-07-30T04:11:48Z</time>
      </trkpt>
      <trkpt lat="44.23529" lon="6.75203">
        <ele>1789.3</ele>
        <time>2012-07-30T04:11:49Z</time>
      </trkpt>
      <trkpt lat="44.2353" lon="6.75204">
        <ele>1789.4</ele>
        <time>2012-07-30T04:11:50Z</time>
      </trkpt>
      <trkpt lat="44.23531" lon="6.75205">
        <ele>1789</ele>
        <time>2012-07-30T04:11:51Z</time>
      </trkpt>
      <trkpt lat="44.23531" lon="6.75206">
        <ele>1788.9</ele>
        <time>2012-07-30T04:11:52Z</time>
      </trkpt>
      <trkpt lat="44.23531" lon="6.75207">
        <ele>1788.5</ele>
        <time>2012-07-30T04:11:53Z</time>
      </trkpt>
      <trkpt lat="44.23533" lon="6.75206">
        <ele>1788.5</ele>
        <time>2012-07-30T04:11:54Z</time>
      </trkpt>
      <trkpt lat="44.23535" lon="6.75203">
        <ele>1789</ele>
        <time>2012-07-30T04:11:56Z</time>
      </trkpt>
      <trkpt lat="44.23536" lon="6.75203">
        <ele>1788.4</ele>
        <time>2012-07-30T04:11:57Z</time>
      </trkpt>
      <trkpt lat="44.23542" lon="6.752">
        <ele>1787</ele>
        <time>2012-07-30T04:12:13Z</time>
      </trkpt>
      <trkpt lat="44.23543" lon="6.75199">
        <ele>1788</ele>
        <time>2012-07-30T04:12:14Z</time>
      </trkpt>
      <trkpt lat="44.23548" lon="6.75195">
        <ele>1791</ele>
        <time>2012-07-30T04:12:22Z</time>
      </trkpt>
      <trkpt lat="44.23552" lon="6.75196">
        <ele>1790.3</ele>
        <time>2012-07-30T04:12:26Z</time>
      </trkpt>
      <trkpt lat="44.23553" lon="6.75196">
        <ele>1790</ele>
        <time>2012-07-30T04:12:27Z</time>
      </trkpt>
      <trkpt lat="44.23554" lon="6.75196">
        <ele>1790</ele>
        <time>2012-07-30T04:12:28Z</time>
      </trkpt>
      <trkpt lat="44.23555" lon="6.75196">
        <ele>1789.5</ele>
        <time>2012-07-30T04:12:29Z</time>
      </trkpt>
      <trkpt lat="44.23556" lon="6.75196">
        <ele>1789</ele>
        <time>2012-07-30T04:12:30Z</time>
      </trkpt>
      <trkpt lat="44.23557" lon="6.75196">
        <ele>1788.9</ele>
        <time>2012-07-30T04:12:31Z</time>
      </trkpt>
      <trkpt lat="44.23564" lon="6.75199">
        <ele>1788</ele>
        <time>2012-07-30T04:12:37Z</time>
      </trkpt>
      <trkpt lat="44.23565" lon="6.75199">
        <ele>1788</ele>
        <time>2012-07-30T04:12:38Z</time>
      </trkpt>
      <trkpt lat="44.23566" lon="6.752">
        <ele>1788</ele>
        <time>2012-07-30T04:12:39Z</time>
      </trkpt>
      <trkpt lat="44.23569" lon="6.75201">
        <ele>1788</ele>
        <time>2012-07-30T04:12:41Z</time>
      </trkpt>
      <trkpt lat="44.23571" lon="6.75203">
        <ele>1787.8</ele>
        <time>2012-07-30T04:12:43Z</time>
      </trkpt>
      <trkpt lat="44.23571" lon="6.75204">
        <ele>1787.5</ele>
        <time>2012-07-30T04:12:44Z</time>
      </trkpt>
      <trkpt lat="44.23573" lon="6.75205">
        <ele>1787.4</ele>
        <time>2012-07-30T04:12:46Z</time>
      </trkpt>
      <trkpt lat="44.23575" lon="6.75206">
        <ele>1788</ele>
        <time>2012-07-30T04:12:47Z</time>
      </trkpt>
      <trkpt lat="44.23576" lon="6.75207">
        <ele>1789</ele>
        <time>2012-07-30T04:12:48Z</time>
      </trkpt>
      <trkpt lat="44.23577" lon="6.75208">
        <ele>1787.5</ele>
        <time>2012-07-30T04:12:50Z</time>
      </trkpt>
      <trkpt lat="44.23578" lon="6.7521">
        <ele>1787.5</ele>
        <time>2012-07-30T04:12:51Z</time>
      </trkpt>
      <trkpt lat="44.23579" lon="6.75211">
        <ele>1787</ele>
        <time>2012-07-30T04:12:52Z</time>
      </trkpt>
      <trkpt lat="44.23581" lon="6.75214">
        <ele>1787.3</ele>
        <time>2012-07-30T04:12:55Z</time>
      </trkpt>
      <trkpt lat="44.23582" lon="6.75214">
        <ele>1787.4</ele>
        <time>2012-07-30T04:12:56Z</time>
      </trkpt>
      <trkpt lat="44.23588" lon="6.75219">
        <ele>1786.9</ele>
        <time>2012-07-30T04:13:02Z</time>
      </trkpt>
      <trkpt lat="44.23589" lon="6.75221">
        <ele>1786.3</ele>
        <time>2012-07-30T04:13:05Z</time>
      </trkpt>
      <trkpt lat="44.2359" lon="6.75222">
        <ele>1786</ele>
        <time>2012-07-30T04:13:06Z</time>
      </trkpt>
      <trkpt lat="44.23592" lon="6.75224">
        <ele>1786.3</ele>
        <time>2012-07-30T04:13:08Z</time>
      </trkpt>
      <trkpt lat="44.23592" lon="6.75225">
        <ele>1785.9</ele>
        <time>2012-07-30T04:13:09Z</time>
      </trkpt>
      <trkpt lat="44.23592" lon="6.75226">
        <ele>1785.4</ele>
        <time>2012-07-30T04:13:10Z</time>
      </trkpt>
      <trkpt lat="44.23593" lon="6.75227">
        <ele>1785.5</ele>
        <time>2012-07-30T04:13:11Z</time>
      </trkpt>
      <trkpt lat="44.23593" lon="6.75229">
        <ele>1785.5</ele>
        <time>2012-07-30T04:13:12Z</time>
      </trkpt>
      <trkpt lat="44.23594" lon="6.7523">
        <ele>1785.8</ele>
        <time>2012-07-30T04:13:13Z</time>
      </trkpt>
      <trkpt lat="44.23595" lon="6.75235">
        <ele>1786.5</ele>
        <time>2012-07-30T04:13:16Z</time>
      </trkpt>
      <trkpt lat="44.23595" lon="6.75237">
        <ele>1786.5</ele>
        <time>2012-07-30T04:13:17Z</time>
      </trkpt>
      <trkpt lat="44.23595" lon="6.75241">
        <ele>1786</ele>
        <time>2012-07-30T04:13:20Z</time>
      </trkpt>
      <trkpt lat="44.23595" lon="6.75244">
        <ele>1785.5</ele>
        <time>2012-07-30T04:13:22Z</time>
      </trkpt>
      <trkpt lat="44.23594" lon="6.75251">
        <ele>1785.8</ele>
        <time>2012-07-30T04:13:29Z</time>
      </trkpt>
      <trkpt lat="44.23593" lon="6.75252">
        <ele>1786.5</ele>
        <time>2012-07-30T04:13:30Z</time>
      </trkpt>
      <trkpt lat="44.23592" lon="6.75252">
        <ele>1786.8</ele>
        <time>2012-07-30T04:13:31Z</time>
      </trkpt>
      <trkpt lat="44.23592" lon="6.75254">
        <ele>1786.5</ele>
        <time>2012-07-30T04:13:32Z</time>
      </trkpt>
      <trkpt lat="44.2359" lon="6.75256">
        <ele>1786.4</ele>
        <time>2012-07-30T04:13:34Z</time>
      </trkpt>
      <trkpt lat="44.23581" lon="6.75265">
        <ele>1785.9</ele>
        <time>2012-07-30T04:13:43Z</time>
      </trkpt>
      <trkpt lat="44.23579" lon="6.75268">
        <ele>1785</ele>
        <time>2012-07-30T04:13:45Z</time>
      </trkpt>
      <trkpt lat="44.23575" lon="6.75272">
        <ele>1784.5</ele>
        <time>2012-07-30T04:13:49Z</time>
      </trkpt>
      <trkpt lat="44.23573" lon="6.75274">
        <ele>1784.5</ele>
        <time>2012-07-30T04:13:51Z</time>
      </trkpt>
      <trkpt lat="44.23555" lon="6.75287">
        <ele>1783.5</ele>
        <time>2012-07-30T04:14:07Z</time>
      </trkpt>
      <trkpt lat="44.23548" lon="6.75291">
        <ele>1782.9</ele>
        <time>2012-07-30T04:14:13Z</time>
      </trkpt>
      <trkpt lat="44.23531" lon="6.75302">
        <ele>1783.5</ele>
        <time>2012-07-30T04:14:29Z</time>
      </trkpt>
      <trkpt lat="44.23531" lon="6.75302">
        <ele>1783.4</ele>
        <time>2012-07-30T04:14:30Z</time>
      </trkpt>
      <trkpt lat="44.23528" lon="6.75303">
        <ele>1783.5</ele>
        <time>2012-07-30T04:14:32Z</time>
      </trkpt>
      <trkpt lat="44.23527" lon="6.75304">
        <ele>1783.5</ele>
        <time>2012-07-30T04:14:33Z</time>
      </trkpt>
      <trkpt lat="44.23517" lon="6.7531">
        <ele>1783.5</ele>
        <time>2012-07-30T04:14:41Z</time>
      </trkpt>
      <trkpt lat="44.23495" lon="6.75322">
        <ele>1782.9</ele>
        <time>2012-07-30T04:14:59Z</time>
      </trkpt>
      <trkpt lat="44.23493" lon="6.75324">
        <ele>1782.9</ele>
        <time>2012-07-30T04:15:01Z</time>
      </trkpt>
      <trkpt lat="44.23487" lon="6.75328">
        <ele>1782.5</ele>
        <time>2012-07-30T04:15:07Z</time>
      </trkpt>
      <trkpt lat="44.23486" lon="6.75329">
        <ele>1782.5</ele>
        <time>2012-07-30T04:15:08Z</time>
      </trkpt>
      <trkpt lat="44.23485" lon="6.7533">
        <ele>1782.4</ele>
        <time>2012-07-30T04:15:09Z</time>
      </trkpt>
      <trkpt lat="44.23483" lon="6.75332">
        <ele>1782.4</ele>
        <time>2012-07-30T04:15:11Z</time>
      </trkpt>
      <trkpt lat="44.23481" lon="6.75334">
        <ele>1782</ele>
        <time>2012-07-30T04:15:13Z</time>
      </trkpt>
      <trkpt lat="44.23454" lon="6.75378">
        <ele>1784</ele>
        <time>2012-07-30T04:15:51Z</time>
      </trkpt>
      <trkpt lat="44.23453" lon="6.7538">
        <ele>1784</ele>
        <time>2012-07-30T04:15:52Z</time>
      </trkpt>
      <trkpt lat="44.23448" lon="6.75389">
        <ele>1785</ele>
        <time>2012-07-30T04:15:58Z</time>
      </trkpt>
      <trkpt lat="44.23448" lon="6.75391">
        <ele>1785.3</ele>
        <time>2012-07-30T04:15:59Z</time>
      </trkpt>
      <trkpt lat="44.23444" lon="6.75407">
        <ele>1785.5</ele>
        <time>2012-07-30T04:16:08Z</time>
      </trkpt>
      <trkpt lat="44.23444" lon="6.75409">
        <ele>1786</ele>
        <time>2012-07-30T04:16:09Z</time>
      </trkpt>
      <trkpt lat="44.23442" lon="6.75411">
        <ele>1786.5</ele>
        <time>2012-07-30T04:16:10Z</time>
      </trkpt>
      <trkpt lat="44.23441" lon="6.75413">
        <ele>1787</ele>
        <time>2012-07-30T04:16:11Z</time>
      </trkpt>
      <trkpt lat="44.23441" lon="6.75414">
        <ele>1786.8</ele>
        <time>2012-07-30T04:16:12Z</time>
      </trkpt>
      <trkpt lat="44.23441" lon="6.75415">
        <ele>1787</ele>
        <time>2012-07-30T04:16:13Z</time>
      </trkpt>
      <trkpt lat="44.2344" lon="6.75417">
        <ele>1787.3</ele>
        <time>2012-07-30T04:16:14Z</time>
      </trkpt>
      <trkpt lat="44.2344" lon="6.75418">
        <ele>1787.9</ele>
        <time>2012-07-30T04:16:15Z</time>
      </trkpt>
      <trkpt lat="44.2344" lon="6.75419">
        <ele>1788</ele>
        <time>2012-07-30T04:16:16Z</time>
      </trkpt>
      <trkpt lat="44.23439" lon="6.75421">
        <ele>1787.9</ele>
        <time>2012-07-30T04:16:17Z</time>
      </trkpt>
      <trkpt lat="44.23439" lon="6.75423">
        <ele>1787.3</ele>
        <time>2012-07-30T04:16:18Z</time>
      </trkpt>
      <trkpt lat="44.23439" lon="6.75424">
        <ele>1786.9</ele>
        <time>2012-07-30T04:16:19Z</time>
      </trkpt>
      <trkpt lat="44.23438" lon="6.75425">
        <ele>1786.9</ele>
        <time>2012-07-30T04:16:20Z</time>
      </trkpt>
      <trkpt lat="44.23438" lon="6.75426">
        <ele>1786.9</ele>
        <time>2012-07-30T04:16:21Z</time>
      </trkpt>
      <trkpt lat="44.23431" lon="6.75439">
        <ele>1788.5</ele>
        <time>2012-07-30T04:16:28Z</time>
      </trkpt>
      <trkpt lat="44.2343" lon="6.75441">
        <ele>1788.5</ele>
        <time>2012-07-30T04:16:29Z</time>
      </trkpt>
      <trkpt lat="44.23428" lon="6.75443">
        <ele>1788.5</ele>
        <time>2012-07-30T04:16:30Z</time>
      </trkpt>
      <trkpt lat="44.23426" lon="6.75453">
        <ele>1787.4</ele>
        <time>2012-07-30T04:16:35Z</time>
      </trkpt>
      <trkpt lat="44.23426" lon="6.75454">
        <ele>1786.9</ele>
        <time>2012-07-30T04:16:36Z</time>
      </trkpt>
      <trkpt lat="44.23427" lon="6.75455">
        <ele>1786.4</ele>
        <time>2012-07-30T04:16:37Z</time>
      </trkpt>
      <trkpt lat="44.23427" lon="6.75456">
        <ele>1785.9</ele>
        <time>2012-07-30T04:16:38Z</time>
      </trkpt>
      <trkpt lat="44.23434" lon="6.75456">
        <ele>1782</ele>
        <time>2012-07-30T04:16:46Z</time>
      </trkpt>
      <trkpt lat="44.23441" lon="6.75457">
        <ele>1784.5</ele>
        <time>2012-07-30T04:16:50Z</time>
      </trkpt>
      <trkpt lat="44.23443" lon="6.75457">
        <ele>1785.9</ele>
        <time>2012-07-30T04:16:51Z</time>
      </trkpt>
      <trkpt lat="44.23443" lon="6.75457">
        <ele>1785</ele>
        <time>2012-07-30T04:16:52Z</time>
      </trkpt>
      <trkpt lat="44.23444" lon="6.75457">
        <ele>1785</ele>
        <time>2012-07-30T04:16:53Z</time>
      </trkpt>
      <trkpt lat="44.23445" lon="6.75457">
        <ele>1785</ele>
        <time>2012-07-30T04:16:54Z</time>
      </trkpt>
      <trkpt lat="44.23446" lon="6.75458">
        <ele>1786.3</ele>
        <time>2012-07-30T04:16:55Z</time>
      </trkpt>
      <trkpt lat="44.23447" lon="6.75458">
        <ele>1787</ele>
        <time>2012-07-30T04:16:56Z</time>
      </trkpt>
      <trkpt lat="44.23448" lon="6.75458">
        <ele>1787</ele>
        <time>2012-07-30T04:16:57Z</time>
      </trkpt>
      <trkpt lat="44.23449" lon="6.75458">
        <ele>1787.9</ele>
        <time>2012-07-30T04:16:58Z</time>
      </trkpt>
      <trkpt lat="44.23451" lon="6.75458">
        <ele>1788.8</ele>
        <time>2012-07-30T04:16:59Z</time>
      </trkpt>
      <trkpt lat="44.23452" lon="6.75458">
        <ele>1789.3</ele>
        <time>2012-07-30T04:17:00Z</time>
      </trkpt>
      <trkpt lat="44.23453" lon="6.75459">
        <ele>1788.5</ele>
        <time>2012-07-30T04:17:01Z</time>
      </trkpt>
      <trkpt lat="44.2346" lon="6.75458">
        <ele>1787.5</ele>
        <time>2012-07-30T04:17:06Z</time>
      </trkpt>
      <trkpt lat="44.23462" lon="6.75457">
        <ele>1790</ele>
        <time>2012-07-30T04:17:08Z</time>
      </trkpt>
      <trkpt lat="44.23464" lon="6.75457">
        <ele>1791</ele>
        <time>2012-07-30T04:17:09Z</time>
      </trkpt>
      <trkpt lat="44.23465" lon="6.75457">
        <ele>1791.3</ele>
        <time>2012-07-30T04:17:10Z</time>
      </trkpt>
      <trkpt lat="44.23468" lon="6.75457">
        <ele>1791.5</ele>
        <time>2012-07-30T04:17:13Z</time>
      </trkpt>
      <trkpt lat="44.23472" lon="6.75456">
        <ele>1792</ele>
        <time>2012-07-30T04:17:16Z</time>
      </trkpt>
      <trkpt lat="44.23473" lon="6.75456">
        <ele>1792.3</ele>
        <time>2012-07-30T04:17:17Z</time>
      </trkpt>
      <trkpt lat="44.23474" lon="6.75455">
        <ele>1792.9</ele>
        <time>2012-07-30T04:17:18Z</time>
      </trkpt>
      <trkpt lat="44.23475" lon="6.75455">
        <ele>1792.9</ele>
        <time>2012-07-30T04:17:19Z</time>
      </trkpt>
      <trkpt lat="44.23477" lon="6.75455">
        <ele>1793</ele>
        <time>2012-07-30T04:17:20Z</time>
      </trkpt>
      <trkpt lat="44.23478" lon="6.75456">
        <ele>1793.5</ele>
        <time>2012-07-30T04:17:21Z</time>
      </trkpt>
      <trkpt lat="44.23479" lon="6.75456">
        <ele>1793.4</ele>
        <time>2012-07-30T04:17:22Z</time>
      </trkpt>
      <trkpt lat="44.2348" lon="6.75461">
        <ele>1792.5</ele>
        <time>2012-07-30T04:17:26Z</time>
      </trkpt>
      <trkpt lat="44.23479" lon="6.75463">
        <ele>1792</ele>
        <time>2012-07-30T04:17:27Z</time>
      </trkpt>
      <trkpt lat="44.23479" lon="6.75464">
        <ele>1792.8</ele>
        <time>2012-07-30T04:17:28Z</time>
      </trkpt>
      <trkpt lat="44.23479" lon="6.75465">
        <ele>1793</ele>
        <time>2012-07-30T04:17:29Z</time>
      </trkpt>
      <trkpt lat="44.23477" lon="6.75468">
        <ele>1794.8</ele>
        <time>2012-07-30T04:17:32Z</time>
      </trkpt>
      <trkpt lat="44.23476" lon="6.75468">
        <ele>1795.3</ele>
        <time>2012-07-30T04:17:33Z</time>
      </trkpt>
      <trkpt lat="44.23476" lon="6.75469">
        <ele>1796.3</ele>
        <time>2012-07-30T04:17:34Z</time>
      </trkpt>
      <trkpt lat="44.23475" lon="6.75469">
        <ele>1796.8</ele>
        <time>2012-07-30T04:17:35Z</time>
      </trkpt>
      <trkpt lat="44.23474" lon="6.7547">
        <ele>1797</ele>
        <time>2012-07-30T04:17:36Z</time>
      </trkpt>
      <trkpt lat="44.23473" lon="6.75469">
        <ele>1797</ele>
        <time>2012-07-30T04:17:37Z</time>
      </trkpt>
      <trkpt lat="44.23472" lon="6.75469">
        <ele>1796.5</ele>
        <time>2012-07-30T04:17:38Z</time>
      </trkpt>
      <trkpt lat="44.23471" lon="6.75469">
        <ele>1796.5</ele>
        <time>2012-07-30T04:17:39Z</time>
      </trkpt>
      <trkpt lat="44.23469" lon="6.7547">
        <ele>1796</ele>
        <time>2012-07-30T04:17:40Z</time>
      </trkpt>
      <trkpt lat="44.23467" lon="6.75471">
        <ele>1796</ele>
        <time>2012-07-30T04:17:42Z</time>
      </trkpt>
      <trkpt lat="44.23464" lon="6.75472">
        <ele>1796</ele>
        <time>2012-07-30T04:17:44Z</time>
      </trkpt>
      <trkpt lat="44.23463" lon="6.75472">
        <ele>1796</ele>
        <time>2012-07-30T04:17:45Z</time>
      </trkpt>
      <trkpt lat="44.23461" lon="6.75474">
        <ele>1796</ele>
        <time>2012-07-30T04:17:47Z</time>
      </trkpt>
      <trkpt lat="44.23457" lon="6.75477">
        <ele>1795.3</ele>
        <time>2012-07-30T04:17:51Z</time>
      </trkpt>
      <trkpt lat="44.23453" lon="6.7548">
        <ele>1793.9</ele>
        <time>2012-07-30T04:17:55Z</time>
      </trkpt>
      <trkpt lat="44.23452" lon="6.75481">
        <ele>1793.5</ele>
        <time>2012-07-30T04:17:56Z</time>
      </trkpt>
      <trkpt lat="44.23451" lon="6.75482">
        <ele>1793.4</ele>
        <time>2012-07-30T04:17:57Z</time>
      </trkpt>
      <trkpt lat="44.2345" lon="6.75482">
        <ele>1793</ele>
        <time>2012-07-30T04:17:58Z</time>
      </trkpt>
      <trkpt lat="44.23447" lon="6.75484">
        <ele>1793</ele>
        <time>2012-07-30T04:18:01Z</time>
      </trkpt>
      <trkpt lat="44.23446" lon="6.75484">
        <ele>1794</ele>
        <time>2012-07-30T04:18:02Z</time>
      </trkpt>
      <trkpt lat="44.23445" lon="6.75485">
        <ele>1794</ele>
        <time>2012-07-30T04:18:03Z</time>
      </trkpt>
      <trkpt lat="44.23438" lon="6.75491">
        <ele>1793.9</ele>
        <time>2012-07-30T04:18:09Z</time>
      </trkpt>
      <trkpt lat="44.23435" lon="6.75493">
        <ele>1793.5</ele>
        <time>2012-07-30T04:18:12Z</time>
      </trkpt>
      <trkpt lat="44.23434" lon="6.75494">
        <ele>1793.5</ele>
        <time>2012-07-30T04:18:13Z</time>
      </trkpt>
      <trkpt lat="44.23429" lon="6.75499">
        <ele>1793.5</ele>
        <time>2012-07-30T04:18:18Z</time>
      </trkpt>
      <trkpt lat="44.23428" lon="6.755">
        <ele>1793.8</ele>
        <time>2012-07-30T04:18:19Z</time>
      </trkpt>
      <trkpt lat="44.23427" lon="6.75501">
        <ele>1794.3</ele>
        <time>2012-07-30T04:18:20Z</time>
      </trkpt>
      <trkpt lat="44.23422" lon="6.75505">
        <ele>1796</ele>
        <time>2012-07-30T04:18:26Z</time>
      </trkpt>
      <trkpt lat="44.23421" lon="6.75506">
        <ele>1796.5</ele>
        <time>2012-07-30T04:18:27Z</time>
      </trkpt>
      <trkpt lat="44.23393" lon="6.75529">
        <ele>1800.4</ele>
        <time>2012-07-30T04:18:52Z</time>
      </trkpt>
      <trkpt lat="44.23391" lon="6.75531">
        <ele>1801</ele>
        <time>2012-07-30T04:18:53Z</time>
      </trkpt>
      <trkpt lat="44.2339" lon="6.75532">
        <ele>1801.5</ele>
        <time>2012-07-30T04:18:54Z</time>
      </trkpt>
      <trkpt lat="44.23377" lon="6.75536">
        <ele>1800.5</ele>
        <time>2012-07-30T04:19:06Z</time>
      </trkpt>
      <trkpt lat="44.23376" lon="6.75536">
        <ele>1801</ele>
        <time>2012-07-30T04:19:07Z</time>
      </trkpt>
      <trkpt lat="44.23354" lon="6.75542">
        <ele>1798</ele>
        <time>2012-07-30T04:19:25Z</time>
      </trkpt>
      <trkpt lat="44.23338" lon="6.75548">
        <ele>1797</ele>
        <time>2012-07-30T04:19:37Z</time>
      </trkpt>
      <trkpt lat="44.23336" lon="6.75549">
        <ele>1797</ele>
        <time>2012-07-30T04:19:39Z</time>
      </trkpt>
      <trkpt lat="44.23335" lon="6.7555">
        <ele>1796.9</ele>
        <time>2012-07-30T04:19:40Z</time>
      </trkpt>
      <trkpt lat="44.23334" lon="6.7555">
        <ele>1796.5</ele>
        <time>2012-07-30T04:19:41Z</time>
      </trkpt>
      <trkpt lat="44.23332" lon="6.7555">
        <ele>1796</ele>
        <time>2012-07-30T04:19:42Z</time>
      </trkpt>
      <trkpt lat="44.23331" lon="6.75551">
        <ele>1796</ele>
        <time>2012-07-30T04:19:43Z</time>
      </trkpt>
      <trkpt lat="44.2333" lon="6.75552">
        <ele>1795.8</ele>
        <time>2012-07-30T04:19:44Z</time>
      </trkpt>
      <trkpt lat="44.23329" lon="6.75553">
        <ele>1796</ele>
        <time>2012-07-30T04:19:45Z</time>
      </trkpt>
      <trkpt lat="44.23327" lon="6.75556">
        <ele>1795.9</ele>
        <time>2012-07-30T04:19:46Z</time>
      </trkpt>
      <trkpt lat="44.23324" lon="6.7556">
        <ele>1796.9</ele>
        <time>2012-07-30T04:19:48Z</time>
      </trkpt>
      <trkpt lat="44.23319" lon="6.75566">
        <ele>1803</ele>
        <time>2012-07-30T04:19:52Z</time>
      </trkpt>
      <trkpt lat="44.23315" lon="6.75574">
        <ele>1807.8</ele>
        <time>2012-07-30T04:19:59Z</time>
      </trkpt>
      <trkpt lat="44.23313" lon="6.75576">
        <ele>1807.5</ele>
        <time>2012-07-30T04:20:00Z</time>
      </trkpt>
      <trkpt lat="44.23311" lon="6.75578">
        <ele>1807</ele>
        <time>2012-07-30T04:20:01Z</time>
      </trkpt>
      <trkpt lat="44.23308" lon="6.75581">
        <ele>1806.8</ele>
        <time>2012-07-30T04:20:03Z</time>
      </trkpt>
      <trkpt lat="44.23307" lon="6.75582">
        <ele>1806.5</ele>
        <time>2012-07-30T04:20:04Z</time>
      </trkpt>
      <trkpt lat="44.23306" lon="6.75583">
        <ele>1806.4</ele>
        <time>2012-07-30T04:20:05Z</time>
      </trkpt>
      <trkpt lat="44.23306" lon="6.75583">
        <ele>1805.9</ele>
        <time>2012-07-30T04:20:06Z</time>
      </trkpt>
      <trkpt lat="44.23305" lon="6.75582">
        <ele>1805.9</ele>
        <time>2012-07-30T04:20:07Z</time>
      </trkpt>
      <trkpt lat="44.23304" lon="6.75582">
        <ele>1805.5</ele>
        <time>2012-07-30T04:20:08Z</time>
      </trkpt>
      <trkpt lat="44.23303" lon="6.75582">
        <ele>1804.8</ele>
        <time>2012-07-30T04:20:09Z</time>
      </trkpt>
      <trkpt lat="44.23302" lon="6.75582">
        <ele>1804.5</ele>
        <time>2012-07-30T04:20:10Z</time>
      </trkpt>
      <trkpt lat="44.23298" lon="6.75583">
        <ele>1804.8</ele>
        <time>2012-07-30T04:20:13Z</time>
      </trkpt>
      <trkpt lat="44.23297" lon="6.75583">
        <ele>1804</ele>
        <time>2012-07-30T04:20:14Z</time>
      </trkpt>
      <trkpt lat="44.23296" lon="6.75583">
        <ele>1803</ele>
        <time>2012-07-30T04:20:15Z</time>
      </trkpt>
      <trkpt lat="44.23291" lon="6.75584">
        <ele>1797.8</ele>
        <time>2012-07-30T04:20:20Z</time>
      </trkpt>
      <trkpt lat="44.23284" lon="6.75581">
        <ele>1799</ele>
        <time>2012-07-30T04:20:24Z</time>
      </trkpt>
      <trkpt lat="44.23281" lon="6.75578">
        <ele>1802</ele>
        <time>2012-07-30T04:20:26Z</time>
      </trkpt>
      <trkpt lat="44.2328" lon="6.75577">
        <ele>1802.9</ele>
        <time>2012-07-30T04:20:27Z</time>
      </trkpt>
      <trkpt lat="44.23278" lon="6.75576">
        <ele>1803.5</ele>
        <time>2012-07-30T04:20:28Z</time>
      </trkpt>
      <trkpt lat="44.23276" lon="6.75576">
        <ele>1803.5</ele>
        <time>2012-07-30T04:20:30Z</time>
      </trkpt>
      <trkpt lat="44.23275" lon="6.75577">
        <ele>1803.5</ele>
        <time>2012-07-30T04:20:31Z</time>
      </trkpt>
      <trkpt lat="44.23273" lon="6.75578">
        <ele>1802.4</ele>
        <time>2012-07-30T04:20:33Z</time>
      </trkpt>
      <trkpt lat="44.23271" lon="6.75578">
        <ele>1802.5</ele>
        <time>2012-07-30T04:20:35Z</time>
      </trkpt>
      <trkpt lat="44.2327" lon="6.75579">
        <ele>1802.4</ele>
        <time>2012-07-30T04:20:36Z</time>
      </trkpt>
      <trkpt lat="44.23268" lon="6.75582">
        <ele>1801.5</ele>
        <time>2012-07-30T04:20:38Z</time>
      </trkpt>
      <trkpt lat="44.23267" lon="6.75584">
        <ele>1801.3</ele>
        <time>2012-07-30T04:20:39Z</time>
      </trkpt>
      <trkpt lat="44.23264" lon="6.7559">
        <ele>1797.4</ele>
        <time>2012-07-30T04:20:44Z</time>
      </trkpt>
      <trkpt lat="44.23264" lon="6.75592">
        <ele>1796.5</ele>
        <time>2012-07-30T04:20:45Z</time>
      </trkpt>
      <trkpt lat="44.23264" lon="6.75602">
        <ele>1791.8</ele>
        <time>2012-07-30T04:20:51Z</time>
      </trkpt>
      <trkpt lat="44.23263" lon="6.75604">
        <ele>1791</ele>
        <time>2012-07-30T04:20:52Z</time>
      </trkpt>
      <trkpt lat="44.23263" lon="6.75605">
        <ele>1790.8</ele>
        <time>2012-07-30T04:20:53Z</time>
      </trkpt>
      <trkpt lat="44.23263" lon="6.75607">
        <ele>1790.8</ele>
        <time>2012-07-30T04:20:54Z</time>
      </trkpt>
      <trkpt lat="44.23261" lon="6.75609">
        <ele>1790.5</ele>
        <time>2012-07-30T04:20:55Z</time>
      </trkpt>
      <trkpt lat="44.2326" lon="6.75613">
        <ele>1789.5</ele>
        <time>2012-07-30T04:20:57Z</time>
      </trkpt>
      <trkpt lat="44.2326" lon="6.75615">
        <ele>1789</ele>
        <time>2012-07-30T04:20:58Z</time>
      </trkpt>
      <trkpt lat="44.23262" lon="6.75619">
        <ele>1788.3</ele>
        <time>2012-07-30T04:21:01Z</time>
      </trkpt>
      <trkpt lat="44.23262" lon="6.75621">
        <ele>1787.9</ele>
        <time>2012-07-30T04:21:02Z</time>
      </trkpt>
      <trkpt lat="44.23261" lon="6.75624">
        <ele>1787.9</ele>
        <time>2012-07-30T04:21:03Z</time>
      </trkpt>
      <trkpt lat="44.23262" lon="6.75625">
        <ele>1787.8</ele>
        <time>2012-07-30T04:21:04Z</time>
      </trkpt>
      <trkpt lat="44.23262" lon="6.75627">
        <ele>1787.9</ele>
        <time>2012-07-30T04:21:05Z</time>
      </trkpt>
      <trkpt lat="44.23262" lon="6.75629">
        <ele>1788</ele>
        <time>2012-07-30T04:21:06Z</time>
      </trkpt>
      <trkpt lat="44.23262" lon="6.7563">
        <ele>1788</ele>
        <time>2012-07-30T04:21:07Z</time>
      </trkpt>
      <trkpt lat="44.23262" lon="6.75634">
        <ele>1790</ele>
        <time>2012-07-30T04:21:08Z</time>
      </trkpt>
      <trkpt lat="44.23262" lon="6.75637">
        <ele>1790.9</ele>
        <time>2012-07-30T04:21:09Z</time>
      </trkpt>
      <trkpt lat="44.23263" lon="6.7564">
        <ele>1794</ele>
        <time>2012-07-30T04:21:10Z</time>
      </trkpt>
      <trkpt lat="44.23263" lon="6.75641">
        <ele>1794.5</ele>
        <time>2012-07-30T04:21:11Z</time>
      </trkpt>
      <trkpt lat="44.23265" lon="6.75648">
        <ele>1797.4</ele>
        <time>2012-07-30T04:21:16Z</time>
      </trkpt>
      <trkpt lat="44.23265" lon="6.7565">
        <ele>1797.8</ele>
        <time>2012-07-30T04:21:17Z</time>
      </trkpt>
      <trkpt lat="44.23265" lon="6.75652">
        <ele>1798.3</ele>
        <time>2012-07-30T04:21:18Z</time>
      </trkpt>
      <trkpt lat="44.23265" lon="6.75653">
        <ele>1798.3</ele>
        <time>2012-07-30T04:21:19Z</time>
      </trkpt>
      <trkpt lat="44.23266" lon="6.75654">
        <ele>1798</ele>
        <time>2012-07-30T04:21:20Z</time>
      </trkpt>
      <trkpt lat="44.23267" lon="6.75654">
        <ele>1797.8</ele>
        <time>2012-07-30T04:21:21Z</time>
      </trkpt>
      <trkpt lat="44.23267" lon="6.75655">
        <ele>1797.5</ele>
        <time>2012-07-30T04:21:22Z</time>
      </trkpt>
      <trkpt lat="44.23268" lon="6.75665">
        <ele>1795.4</ele>
        <time>2012-07-30T04:21:27Z</time>
      </trkpt>
      <trkpt lat="44.23268" lon="6.75666">
        <ele>1795</ele>
        <time>2012-07-30T04:21:28Z</time>
      </trkpt>
      <trkpt lat="44.23269" lon="6.75672">
        <ele>1794</ele>
        <time>2012-07-30T04:21:31Z</time>
      </trkpt>
      <trkpt lat="44.23269" lon="6.75674">
        <ele>1795</ele>
        <time>2012-07-30T04:21:32Z</time>
      </trkpt>
      <trkpt lat="44.2327" lon="6.75674">
        <ele>1792.8</ele>
        <time>2012-07-30T04:21:33Z</time>
      </trkpt>
      <trkpt lat="44.23271" lon="6.75675">
        <ele>1792</ele>
        <time>2012-07-30T04:21:34Z</time>
      </trkpt>
      <trkpt lat="44.23272" lon="6.75677">
        <ele>1790.4</ele>
        <time>2012-07-30T04:21:39Z</time>
      </trkpt>
      <trkpt lat="44.23272" lon="6.75678">
        <ele>1791.8</ele>
        <time>2012-07-30T04:21:40Z</time>
      </trkpt>
      <trkpt lat="44.23271" lon="6.75678">
        <ele>1793.9</ele>
        <time>2012-07-30T04:21:41Z</time>
      </trkpt>
      <trkpt lat="44.2327" lon="6.75678">
        <ele>1794.4</ele>
        <time>2012-07-30T04:21:42Z</time>
      </trkpt>
      <trkpt lat="44.2327" lon="6.75678">
        <ele>1794.9</ele>
        <time>2012-07-30T04:21:43Z</time>
      </trkpt>
      <trkpt lat="44.2327" lon="6.75678">
        <ele>1795.8</ele>
        <time>2012-07-30T04:21:44Z</time>
      </trkpt>
      <trkpt lat="44.23271" lon="6.75678">
        <ele>1794.5</ele>
        <time>2012-07-30T04:21:45Z</time>
      </trkpt>
      <trkpt lat="44.23271" lon="6.75678">
        <ele>1793.4</ele>
        <time>2012-07-30T04:21:46Z</time>
      </trkpt>
      <trkpt lat="44.23271" lon="6.75679">
        <ele>1793</ele>
        <time>2012-07-30T04:21:47Z</time>
      </trkpt>
      <trkpt lat="44.23271" lon="6.75679">
        <ele>1792.8</ele>
        <time>2012-07-30T04:21:48Z</time>
      </trkpt>
      <trkpt lat="44.23271" lon="6.75678">
        <ele>1792.5</ele>
        <time>2012-07-30T04:21:49Z</time>
      </trkpt>
      <trkpt lat="44.2327" lon="6.75678">
        <ele>1792.8</ele>
        <time>2012-07-30T04:21:50Z</time>
      </trkpt>
      <trkpt lat="44.2327" lon="6.75679">
        <ele>1792</ele>
        <time>2012-07-30T04:21:51Z</time>
      </trkpt>
      <trkpt lat="44.2327" lon="6.75679">
        <ele>1791.8</ele>
        <time>2012-07-30T04:21:52Z</time>
      </trkpt>
      <trkpt lat="44.23271" lon="6.7568">
        <ele>1792.5</ele>
        <time>2012-07-30T04:21:53Z</time>
      </trkpt>
      <trkpt lat="44.23271" lon="6.7568">
        <ele>1792.8</ele>
        <time>2012-07-30T04:21:54Z</time>
      </trkpt>
      <trkpt lat="44.23271" lon="6.7568">
        <ele>1792.5</ele>
        <time>2012-07-30T04:21:55Z</time>
      </trkpt>
      <trkpt lat="44.23272" lon="6.75679">
        <ele>1791.5</ele>
        <time>2012-07-30T04:21:56Z</time>
      </trkpt>
      <trkpt lat="44.23272" lon="6.75679">
        <ele>1791</ele>
        <time>2012-07-30T04:21:57Z</time>
      </trkpt>
      <trkpt lat="44.23273" lon="6.75679">
        <ele>1789</ele>
        <time>2012-07-30T04:21:58Z</time>
      </trkpt>
      <trkpt lat="44.23275" lon="6.75678">
        <ele>1786</ele>
        <time>2012-07-30T04:21:59Z</time>
      </trkpt>
      <trkpt lat="44.23277" lon="6.75678">
        <ele>1784.5</ele>
        <time>2012-07-30T04:22:00Z</time>
      </trkpt>
      <trkpt lat="44.23278" lon="6.75677">
        <ele>1784</ele>
        <time>2012-07-30T04:22:01Z</time>
      </trkpt>
      <trkpt lat="44.23279" lon="6.75676">
        <ele>1783.8</ele>
        <time>2012-07-30T04:22:02Z</time>
      </trkpt>
      <trkpt lat="44.23278" lon="6.75677">
        <ele>1783</ele>
        <time>2012-07-30T04:22:03Z</time>
      </trkpt>
      <trkpt lat="44.23277" lon="6.75678">
        <ele>1783</ele>
        <time>2012-07-30T04:22:04Z</time>
      </trkpt>
      <trkpt lat="44.23275" lon="6.75679">
        <ele>1783.5</ele>
        <time>2012-07-30T04:22:05Z</time>
      </trkpt>
      <trkpt lat="44.23273" lon="6.7568">
        <ele>1783</ele>
        <time>2012-07-30T04:22:06Z</time>
      </trkpt>
      <trkpt lat="44.23271" lon="6.7568">
        <ele>1783</ele>
        <time>2012-07-30T04:22:07Z</time>
      </trkpt>
      <trkpt lat="44.2327" lon="6.75679">
        <ele>1784.5</ele>
        <time>2012-07-30T04:22:08Z</time>
      </trkpt>
      <trkpt lat="44.2327" lon="6.7568">
        <ele>1785.9</ele>
        <time>2012-07-30T04:22:09Z</time>
      </trkpt>
      <trkpt lat="44.2327" lon="6.75681">
        <ele>1787.5</ele>
        <time>2012-07-30T04:22:10Z</time>
      </trkpt>
      <trkpt lat="44.23269" lon="6.75681">
        <ele>1791.3</ele>
        <time>2012-07-30T04:22:11Z</time>
      </trkpt>
      <trkpt lat="44.23277" lon="6.75685">
        <ele>1812.5</ele>
        <time>2012-07-30T04:22:27Z</time>
      </trkpt>
      <trkpt lat="44.23278" lon="6.75684">
        <ele>1812</ele>
        <time>2012-07-30T04:22:28Z</time>
      </trkpt>
      <trkpt lat="44.2329" lon="6.75685">
        <ele>1799.5</ele>
        <time>2012-07-30T04:22:37Z</time>
      </trkpt>
      <trkpt lat="44.23291" lon="6.75686">
        <ele>1798.5</ele>
        <time>2012-07-30T04:22:38Z</time>
      </trkpt>
      <trkpt lat="44.23292" lon="6.75687">
        <ele>1796.5</ele>
        <time>2012-07-30T04:22:40Z</time>
      </trkpt>
      <trkpt lat="44.23293" lon="6.75687">
        <ele>1795.5</ele>
        <time>2012-07-30T04:22:41Z</time>
      </trkpt>
      <trkpt lat="44.23293" lon="6.75688">
        <ele>1794.5</ele>
        <time>2012-07-30T04:22:42Z</time>
      </trkpt>
      <trkpt lat="44.23294" lon="6.75688">
        <ele>1794</ele>
        <time>2012-07-30T04:22:43Z</time>
      </trkpt>
      <trkpt lat="44.23295" lon="6.75688">
        <ele>1793.5</ele>
        <time>2012-07-30T04:22:44Z</time>
      </trkpt>
      <trkpt lat="44.23296" lon="6.75689">
        <ele>1792.5</ele>
        <time>2012-07-30T04:22:45Z</time>
      </trkpt>
      <trkpt lat="44.23296" lon="6.75689">
        <ele>1792</ele>
        <time>2012-07-30T04:22:46Z</time>
      </trkpt>
      <trkpt lat="44.23297" lon="6.7569">
        <ele>1791.4</ele>
        <time>2012-07-30T04:22:47Z</time>
      </trkpt>
      <trkpt lat="44.23298" lon="6.75691">
        <ele>1790.4</ele>
        <time>2012-07-30T04:22:48Z</time>
      </trkpt>
      <trkpt lat="44.23299" lon="6.75691">
        <ele>1789.8</ele>
        <time>2012-07-30T04:22:49Z</time>
      </trkpt>
      <trkpt lat="44.233" lon="6.75692">
        <ele>1789.4</ele>
        <time>2012-07-30T04:22:50Z</time>
      </trkpt>
      <trkpt lat="44.23301" lon="6.75693">
        <ele>1788.8</ele>
        <time>2012-07-30T04:22:51Z</time>
      </trkpt>
      <trkpt lat="44.23302" lon="6.75694">
        <ele>1788</ele>
        <time>2012-07-30T04:22:52Z</time>
      </trkpt>
      <trkpt lat="44.23302" lon="6.75694">
        <ele>1787.5</ele>
        <time>2012-07-30T04:22:53Z</time>
      </trkpt>
      <trkpt lat="44.23303" lon="6.75695">
        <ele>1787.5</ele>
        <time>2012-07-30T04:22:54Z</time>
      </trkpt>
      <trkpt lat="44.23303" lon="6.75696">
        <ele>1787.4</ele>
        <time>2012-07-30T04:22:55Z</time>
      </trkpt>
      <trkpt lat="44.23304" lon="6.75697">
        <ele>1787</ele>
        <time>2012-07-30T04:22:56Z</time>
      </trkpt>
      <trkpt lat="44.23305" lon="6.75698">
        <ele>1786.5</ele>
        <time>2012-07-30T04:22:57Z</time>
      </trkpt>
      <trkpt lat="44.23305" lon="6.75699">
        <ele>1786.5</ele>
        <time>2012-07-30T04:22:58Z</time>
      </trkpt>
      <trkpt lat="44.23306" lon="6.75699">
        <ele>1786.8</ele>
        <time>2012-07-30T04:22:59Z</time>
      </trkpt>
      <trkpt lat="44.23306" lon="6.75699">
        <ele>1787</ele>
        <time>2012-07-30T04:23:00Z</time>
      </trkpt>
      <trkpt lat="44.23357" lon="6.75719">
        <ele>1790.5</ele>
        <time>2012-07-30T04:23:53Z</time>
      </trkpt>
      <trkpt lat="44.23358" lon="6.7572">
        <ele>1790.8</ele>
        <time>2012-07-30T04:23:54Z</time>
      </trkpt>
      <trkpt lat="44.2336" lon="6.7572">
        <ele>1790.4</ele>
        <time>2012-07-30T04:23:55Z</time>
      </trkpt>
      <trkpt lat="44.23361" lon="6.75721">
        <ele>1790</ele>
        <time>2012-07-30T04:23:56Z</time>
      </trkpt>
      <trkpt lat="44.23361" lon="6.75722">
        <ele>1791.3</ele>
        <time>2012-07-30T04:23:57Z</time>
      </trkpt>
      <trkpt lat="44.23362" lon="6.75723">
        <ele>1791.8</ele>
        <time>2012-07-30T04:23:58Z</time>
      </trkpt>
      <trkpt lat="44.23363" lon="6.75724">
        <ele>1792</ele>
        <time>2012-07-30T04:23:59Z</time>
      </trkpt>
      <trkpt lat="44.23366" lon="6.75733">
        <ele>1793</ele>
        <time>2012-07-30T04:24:07Z</time>
      </trkpt>
      <trkpt lat="44.23366" lon="6.75734">
        <ele>1793.4</ele>
        <time>2012-07-30T04:24:08Z</time>
      </trkpt>
      <trkpt lat="44.23366" lon="6.75735">
        <ele>1794</ele>
        <time>2012-07-30T04:24:09Z</time>
      </trkpt>
      <trkpt lat="44.23366" lon="6.75736">
        <ele>1794</ele>
        <time>2012-07-30T04:24:10Z</time>
      </trkpt>
      <trkpt lat="44.23355" lon="6.75785">
        <ele>1800</ele>
        <time>2012-07-30T04:24:57Z</time>
      </trkpt>
      <trkpt lat="44.23355" lon="6.75787">
        <ele>1800</ele>
        <time>2012-07-30T04:24:58Z</time>
      </trkpt>
      <trkpt lat="44.23351" lon="6.758">
        <ele>1804</ele>
        <time>2012-07-30T04:25:10Z</time>
      </trkpt>
      <trkpt lat="44.23351" lon="6.75801">
        <ele>1804</ele>
        <time>2012-07-30T04:25:11Z</time>
      </trkpt>
      <trkpt lat="44.23351" lon="6.75802">
        <ele>1804.4</ele>
        <time>2012-07-30T04:25:12Z</time>
      </trkpt>
      <trkpt lat="44.2335" lon="6.75804">
        <ele>1804.4</ele>
        <time>2012-07-30T04:25:13Z</time>
      </trkpt>
      <trkpt lat="44.23347" lon="6.75813">
        <ele>1805</ele>
        <time>2012-07-30T04:25:18Z</time>
      </trkpt>
      <trkpt lat="44.23347" lon="6.75814">
        <ele>1805.5</ele>
        <time>2012-07-30T04:25:19Z</time>
      </trkpt>
      <trkpt lat="44.23347" lon="6.7582">
        <ele>1806</ele>
        <time>2012-07-30T04:25:24Z</time>
      </trkpt>
      <trkpt lat="44.23346" lon="6.75821">
        <ele>1806.3</ele>
        <time>2012-07-30T04:25:25Z</time>
      </trkpt>
      <trkpt lat="44.23346" lon="6.75824">
        <ele>1806</ele>
        <time>2012-07-30T04:25:27Z</time>
      </trkpt>
      <trkpt lat="44.23345" lon="6.7583">
        <ele>1805.5</ele>
        <time>2012-07-30T04:25:31Z</time>
      </trkpt>
      <trkpt lat="44.23344" lon="6.75832">
        <ele>1805.5</ele>
        <time>2012-07-30T04:25:32Z</time>
      </trkpt>
      <trkpt lat="44.23336" lon="6.75864">
        <ele>1804</ele>
        <time>2012-07-30T04:26:00Z</time>
      </trkpt>
      <trkpt lat="44.23335" lon="6.75865">
        <ele>1804</ele>
        <time>2012-07-30T04:26:01Z</time>
      </trkpt>
      <trkpt lat="44.23331" lon="6.75871">
        <ele>1805.3</ele>
        <time>2012-07-30T04:26:07Z</time>
      </trkpt>
      <trkpt lat="44.23294" lon="6.75926">
        <ele>1809</ele>
        <time>2012-07-30T04:27:08Z</time>
      </trkpt>
      <trkpt lat="44.23293" lon="6.75927">
        <ele>1808.9</ele>
        <time>2012-07-30T04:27:09Z</time>
      </trkpt>
      <trkpt lat="44.2328" lon="6.75944">
        <ele>1811.5</ele>
        <time>2012-07-30T04:27:28Z</time>
      </trkpt>
      <trkpt lat="44.23278" lon="6.75946">
        <ele>1812</ele>
        <time>2012-07-30T04:27:30Z</time>
      </trkpt>
      <trkpt lat="44.23277" lon="6.75947">
        <ele>1812.4</ele>
        <time>2012-07-30T04:27:31Z</time>
      </trkpt>
      <trkpt lat="44.23275" lon="6.7595">
        <ele>1812.5</ele>
        <time>2012-07-30T04:27:34Z</time>
      </trkpt>
      <trkpt lat="44.23273" lon="6.75951">
        <ele>1812.8</ele>
        <time>2012-07-30T04:27:36Z</time>
      </trkpt>
      <trkpt lat="44.23271" lon="6.75955">
        <ele>1812.5</ele>
        <time>2012-07-30T04:27:40Z</time>
      </trkpt>
      <trkpt lat="44.2327" lon="6.75955">
        <ele>1812.5</ele>
        <time>2012-07-30T04:27:41Z</time>
      </trkpt>
      <trkpt lat="44.23258" lon="6.75965">
        <ele>1814.5</ele>
        <time>2012-07-30T04:27:56Z</time>
      </trkpt>
      <trkpt lat="44.23238" lon="6.75979">
        <ele>1820</ele>
        <time>2012-07-30T04:28:20Z</time>
      </trkpt>
      <trkpt lat="44.23237" lon="6.7598">
        <ele>1819.9</ele>
        <time>2012-07-30T04:28:21Z</time>
      </trkpt>
      <trkpt lat="44.23232" lon="6.75985">
        <ele>1819</ele>
        <time>2012-07-30T04:28:26Z</time>
      </trkpt>
      <trkpt lat="44.23228" lon="6.75989">
        <ele>1818.5</ele>
        <time>2012-07-30T04:28:35Z</time>
      </trkpt>
      <trkpt lat="44.23228" lon="6.7599">
        <ele>1818</ele>
        <time>2012-07-30T04:28:36Z</time>
      </trkpt>
      <trkpt lat="44.23227" lon="6.7599">
        <ele>1818</ele>
        <time>2012-07-30T04:28:37Z</time>
      </trkpt>
      <trkpt lat="44.23227" lon="6.7599">
        <ele>1818.5</ele>
        <time>2012-07-30T04:28:38Z</time>
      </trkpt>
      <trkpt lat="44.23227" lon="6.7599">
        <ele>1818.3</ele>
        <time>2012-07-30T04:28:39Z</time>
      </trkpt>
      <trkpt lat="44.23227" lon="6.75991">
        <ele>1817.8</ele>
        <time>2012-07-30T04:28:40Z</time>
      </trkpt>
      <trkpt lat="44.23227" lon="6.75991">
        <ele>1817.8</ele>
        <time>2012-07-30T04:28:41Z</time>
      </trkpt>
      <trkpt lat="44.23227" lon="6.75991">
        <ele>1817.8</ele>
        <time>2012-07-30T04:28:42Z</time>
      </trkpt>
      <trkpt lat="44.23226" lon="6.75991">
        <ele>1817.5</ele>
        <time>2012-07-30T04:28:43Z</time>
      </trkpt>
      <trkpt lat="44.23226" lon="6.75991">
        <ele>1817.5</ele>
        <time>2012-07-30T04:28:44Z</time>
      </trkpt>
      <trkpt lat="44.23226" lon="6.75991">
        <ele>1817.5</ele>
        <time>2012-07-30T04:28:45Z</time>
      </trkpt>
      <trkpt lat="44.23226" lon="6.75991">
        <ele>1817</ele>
        <time>2012-07-30T04:28:46Z</time>
      </trkpt>
      <trkpt lat="44.23226" lon="6.75991">
        <ele>1816.9</ele>
        <time>2012-07-30T04:28:47Z</time>
      </trkpt>
      <trkpt lat="44.23226" lon="6.75991">
        <ele>1817</ele>
        <time>2012-07-30T04:28:48Z</time>
      </trkpt>
      <trkpt lat="44.23226" lon="6.75991">
        <ele>1817</ele>
        <time>2012-07-30T04:28:49Z</time>
      </trkpt>
      <trkpt lat="44.23226" lon="6.75991">
        <ele>1817.3</ele>
        <time>2012-07-30T04:28:50Z</time>
      </trkpt>
      <trkpt lat="44.23225" lon="6.75991">
        <ele>1817.4</ele>
        <time>2012-07-30T04:28:51Z</time>
      </trkpt>
      <trkpt lat="44.23225" lon="6.75991">
        <ele>1817.5</ele>
        <time>2012-07-30T04:28:52Z</time>
      </trkpt>
      <trkpt lat="44.23225" lon="6.75991">
        <ele>1817.5</ele>
        <time>2012-07-30T04:28:53Z</time>
      </trkpt>
      <trkpt lat="44.23226" lon="6.75991">
        <ele>1817.5</ele>
        <time>2012-07-30T04:28:54Z</time>
      </trkpt>
      <trkpt lat="44.23226" lon="6.75991">
        <ele>1817.9</ele>
        <time>2012-07-30T04:28:55Z</time>
      </trkpt>
      <trkpt lat="44.23226" lon="6.7599">
        <ele>1818</ele>
        <time>2012-07-30T04:28:56Z</time>
      </trkpt>
      <trkpt lat="44.23226" lon="6.7599">
        <ele>1818</ele>
        <time>2012-07-30T04:28:57Z</time>
      </trkpt>
      <trkpt lat="44.23226" lon="6.75991">
        <ele>1818.3</ele>
        <time>2012-07-30T04:28:58Z</time>
      </trkpt>
      <trkpt lat="44.23225" lon="6.75991">
        <ele>1818</ele>
        <time>2012-07-30T04:28:59Z</time>
      </trkpt>
      <trkpt lat="44.23225" lon="6.75991">
        <ele>1818.5</ele>
        <time>2012-07-30T04:29:00Z</time>
      </trkpt>
      <trkpt lat="44.23224" lon="6.75992">
        <ele>1818.9</ele>
        <time>2012-07-30T04:29:01Z</time>
      </trkpt>
      <trkpt lat="44.23223" lon="6.75992">
        <ele>1819</ele>
        <time>2012-07-30T04:29:02Z</time>
      </trkpt>
      <trkpt lat="44.23223" lon="6.75993">
        <ele>1819.5</ele>
        <time>2012-07-30T04:29:03Z</time>
      </trkpt>
      <trkpt lat="44.23222" lon="6.75994">
        <ele>1819.8</ele>
        <time>2012-07-30T04:29:04Z</time>
      </trkpt>
      <trkpt lat="44.23222" lon="6.75995">
        <ele>1819.4</ele>
        <time>2012-07-30T04:29:05Z</time>
      </trkpt>
      <trkpt lat="44.23221" lon="6.75996">
        <ele>1819.3</ele>
        <time>2012-07-30T04:29:06Z</time>
      </trkpt>
      <trkpt lat="44.23221" lon="6.75996">
        <ele>1819.5</ele>
        <time>2012-07-30T04:29:07Z</time>
      </trkpt>
      <trkpt lat="44.2322" lon="6.75996">
        <ele>1820.8</ele>
        <time>2012-07-30T04:29:08Z</time>
      </trkpt>
      <trkpt lat="44.23219" lon="6.75997">
        <ele>1820.9</ele>
        <time>2012-07-30T04:29:09Z</time>
      </trkpt>
      <trkpt lat="44.23218" lon="6.75997">
        <ele>1821</ele>
        <time>2012-07-30T04:29:10Z</time>
      </trkpt>
      <trkpt lat="44.23218" lon="6.75998">
        <ele>1821</ele>
        <time>2012-07-30T04:29:11Z</time>
      </trkpt>
      <trkpt lat="44.23217" lon="6.75999">
        <ele>1821</ele>
        <time>2012-07-30T04:29:12Z</time>
      </trkpt>
      <trkpt lat="44.23203" lon="6.76011">
        <ele>1822.5</ele>
        <time>2012-07-30T04:29:26Z</time>
      </trkpt>
      <trkpt lat="44.23202" lon="6.76012">
        <ele>1822.5</ele>
        <time>2012-07-30T04:29:27Z</time>
      </trkpt>
      <trkpt lat="44.232" lon="6.76014">
        <ele>1822.5</ele>
        <time>2012-07-30T04:29:29Z</time>
      </trkpt>
      <trkpt lat="44.23199" lon="6.76014">
        <ele>1822.9</ele>
        <time>2012-07-30T04:29:30Z</time>
      </trkpt>
      <trkpt lat="44.23196" lon="6.76017">
        <ele>1822.9</ele>
        <time>2012-07-30T04:29:33Z</time>
      </trkpt>
      <trkpt lat="44.23195" lon="6.76017">
        <ele>1823</ele>
        <time>2012-07-30T04:29:34Z</time>
      </trkpt>
      <trkpt lat="44.23194" lon="6.76018">
        <ele>1823</ele>
        <time>2012-07-30T04:29:35Z</time>
      </trkpt>
      <trkpt lat="44.23189" lon="6.76024">
        <ele>1822.3</ele>
        <time>2012-07-30T04:29:42Z</time>
      </trkpt>
      <trkpt lat="44.23181" lon="6.76038">
        <ele>1824</ele>
        <time>2012-07-30T04:29:54Z</time>
      </trkpt>
      <trkpt lat="44.23168" lon="6.76065">
        <ele>1830.5</ele>
        <time>2012-07-30T04:30:13Z</time>
      </trkpt>
      <trkpt lat="44.23167" lon="6.76066">
        <ele>1830</ele>
        <time>2012-07-30T04:30:14Z</time>
      </trkpt>
      <trkpt lat="44.23167" lon="6.76067">
        <ele>1830</ele>
        <time>2012-07-30T04:30:15Z</time>
      </trkpt>
      <trkpt lat="44.23166" lon="6.76068">
        <ele>1830</ele>
        <time>2012-07-30T04:30:16Z</time>
      </trkpt>
      <trkpt lat="44.23166" lon="6.76069">
        <ele>1830</ele>
        <time>2012-07-30T04:30:17Z</time>
      </trkpt>
      <trkpt lat="44.23165" lon="6.7607">
        <ele>1830.3</ele>
        <time>2012-07-30T04:30:18Z</time>
      </trkpt>
      <trkpt lat="44.23164" lon="6.76071">
        <ele>1830.3</ele>
        <time>2012-07-30T04:30:19Z</time>
      </trkpt>
      <trkpt lat="44.23164" lon="6.76072">
        <ele>1830.3</ele>
        <time>2012-07-30T04:30:20Z</time>
      </trkpt>
      <trkpt lat="44.23163" lon="6.76073">
        <ele>1830.3</ele>
        <time>2012-07-30T04:30:21Z</time>
      </trkpt>
      <trkpt lat="44.23162" lon="6.76074">
        <ele>1830</ele>
        <time>2012-07-30T04:30:22Z</time>
      </trkpt>
      <trkpt lat="44.23161" lon="6.76076">
        <ele>1830.3</ele>
        <time>2012-07-30T04:30:23Z</time>
      </trkpt>
      <trkpt lat="44.23161" lon="6.76077">
        <ele>1830.3</ele>
        <time>2012-07-30T04:30:24Z</time>
      </trkpt>
      <trkpt lat="44.2316" lon="6.76078">
        <ele>1830</ele>
        <time>2012-07-30T04:30:25Z</time>
      </trkpt>
      <trkpt lat="44.2316" lon="6.76079">
        <ele>1830</ele>
        <time>2012-07-30T04:30:26Z</time>
      </trkpt>
      <trkpt lat="44.23158" lon="6.76084">
        <ele>1829.4</ele>
        <time>2012-07-30T04:30:30Z</time>
      </trkpt>
      <trkpt lat="44.23157" lon="6.76085">
        <ele>1829.3</ele>
        <time>2012-07-30T04:30:31Z</time>
      </trkpt>
      <trkpt lat="44.23156" lon="6.76088">
        <ele>1828.9</ele>
        <time>2012-07-30T04:30:33Z</time>
      </trkpt>
      <trkpt lat="44.23155" lon="6.76093">
        <ele>1828</ele>
        <time>2012-07-30T04:30:37Z</time>
      </trkpt>
      <trkpt lat="44.23154" lon="6.76095">
        <ele>1827.9</ele>
        <time>2012-07-30T04:30:39Z</time>
      </trkpt>
      <trkpt lat="44.23153" lon="6.76099">
        <ele>1828</ele>
        <time>2012-07-30T04:30:42Z</time>
      </trkpt>
      <trkpt lat="44.23153" lon="6.76101">
        <ele>1828</ele>
        <time>2012-07-30T04:30:43Z</time>
      </trkpt>
      <trkpt lat="44.23152" lon="6.76103">
        <ele>1828</ele>
        <time>2012-07-30T04:30:44Z</time>
      </trkpt>
      <trkpt lat="44.23152" lon="6.76105">
        <ele>1828</ele>
        <time>2012-07-30T04:30:45Z</time>
      </trkpt>
      <trkpt lat="44.23152" lon="6.76107">
        <ele>1828.3</ele>
        <time>2012-07-30T04:30:46Z</time>
      </trkpt>
      <trkpt lat="44.23153" lon="6.76108">
        <ele>1827.8</ele>
        <time>2012-07-30T04:30:47Z</time>
      </trkpt>
      <trkpt lat="44.23153" lon="6.7611">
        <ele>1828.3</ele>
        <time>2012-07-30T04:30:48Z</time>
      </trkpt>
      <trkpt lat="44.23153" lon="6.76112">
        <ele>1828</ele>
        <time>2012-07-30T04:30:49Z</time>
      </trkpt>
      <trkpt lat="44.23154" lon="6.76115">
        <ele>1826.9</ele>
        <time>2012-07-30T04:30:51Z</time>
      </trkpt>
      <trkpt lat="44.23155" lon="6.76116">
        <ele>1826</ele>
        <time>2012-07-30T04:30:52Z</time>
      </trkpt>
      <trkpt lat="44.23155" lon="6.76117">
        <ele>1825.5</ele>
        <time>2012-07-30T04:30:53Z</time>
      </trkpt>
      <trkpt lat="44.23159" lon="6.76137">
        <ele>1818</ele>
        <time>2012-07-30T04:31:07Z</time>
      </trkpt>
      <trkpt lat="44.23159" lon="6.76138">
        <ele>1817.5</ele>
        <time>2012-07-30T04:31:08Z</time>
      </trkpt>
      <trkpt lat="44.23162" lon="6.76146">
        <ele>1815</ele>
        <time>2012-07-30T04:31:14Z</time>
      </trkpt>
      <trkpt lat="44.23167" lon="6.76157">
        <ele>1811.5</ele>
        <time>2012-07-30T04:31:23Z</time>
      </trkpt>
      <trkpt lat="44.23168" lon="6.76159">
        <ele>1814</ele>
        <time>2012-07-30T04:31:24Z</time>
      </trkpt>
      <trkpt lat="44.23168" lon="6.76161">
        <ele>1815.9</ele>
        <time>2012-07-30T04:31:25Z</time>
      </trkpt>
      <trkpt lat="44.23169" lon="6.76163">
        <ele>1816.8</ele>
        <time>2012-07-30T04:31:26Z</time>
      </trkpt>
      <trkpt lat="44.2317" lon="6.76164">
        <ele>1818</ele>
        <time>2012-07-30T04:31:27Z</time>
      </trkpt>
      <trkpt lat="44.23171" lon="6.76166">
        <ele>1821.3</ele>
        <time>2012-07-30T04:31:28Z</time>
      </trkpt>
      <trkpt lat="44.23172" lon="6.76167">
        <ele>1822</ele>
        <time>2012-07-30T04:31:29Z</time>
      </trkpt>
      <trkpt lat="44.23173" lon="6.76168">
        <ele>1823.5</ele>
        <time>2012-07-30T04:31:30Z</time>
      </trkpt>
      <trkpt lat="44.23173" lon="6.76169">
        <ele>1823.5</ele>
        <time>2012-07-30T04:31:31Z</time>
      </trkpt>
      <trkpt lat="44.23174" lon="6.7617">
        <ele>1824.5</ele>
        <time>2012-07-30T04:31:32Z</time>
      </trkpt>
      <trkpt lat="44.23174" lon="6.76172">
        <ele>1826.5</ele>
        <time>2012-07-30T04:31:33Z</time>
      </trkpt>
      <trkpt lat="44.23175" lon="6.76173">
        <ele>1826.5</ele>
        <time>2012-07-30T04:31:34Z</time>
      </trkpt>
      <trkpt lat="44.23195" lon="6.76202">
        <ele>1833.4</ele>
        <time>2012-07-30T04:31:58Z</time>
      </trkpt>
      <trkpt lat="44.23196" lon="6.76203">
        <ele>1832</ele>
        <time>2012-07-30T04:31:59Z</time>
      </trkpt>
      <trkpt lat="44.23196" lon="6.76205">
        <ele>1832</ele>
        <time>2012-07-30T04:32:00Z</time>
      </trkpt>
      <trkpt lat="44.23197" lon="6.76206">
        <ele>1830.4</ele>
        <time>2012-07-30T04:32:01Z</time>
      </trkpt>
      <trkpt lat="44.23198" lon="6.76208">
        <ele>1828.9</ele>
        <time>2012-07-30T04:32:02Z</time>
      </trkpt>
      <trkpt lat="44.23199" lon="6.76209">
        <ele>1828</ele>
        <time>2012-07-30T04:32:03Z</time>
      </trkpt>
      <trkpt lat="44.23199" lon="6.7621">
        <ele>1828.3</ele>
        <time>2012-07-30T04:32:04Z</time>
      </trkpt>
      <trkpt lat="44.232" lon="6.76211">
        <ele>1828</ele>
        <time>2012-07-30T04:32:05Z</time>
      </trkpt>
      <trkpt lat="44.23202" lon="6.76215">
        <ele>1838.5</ele>
        <time>2012-07-30T04:32:36Z</time>
      </trkpt>
      <trkpt lat="44.23203" lon="6.76216">
        <ele>1838</ele>
        <time>2012-07-30T04:32:37Z</time>
      </trkpt>
      <trkpt lat="44.23186" lon="6.76294">
        <ele>1847</ele>
        <time>2012-07-30T04:33:42Z</time>
      </trkpt>
      <trkpt lat="44.23185" lon="6.76295">
        <ele>1847.9</ele>
        <time>2012-07-30T04:33:43Z</time>
      </trkpt>
      <trkpt lat="44.23184" lon="6.76297">
        <ele>1847.3</ele>
        <time>2012-07-30T04:33:44Z</time>
      </trkpt>
      <trkpt lat="44.23183" lon="6.76299">
        <ele>1847.3</ele>
        <time>2012-07-30T04:33:45Z</time>
      </trkpt>
      <trkpt lat="44.23182" lon="6.76299">
        <ele>1847.3</ele>
        <time>2012-07-30T04:33:46Z</time>
      </trkpt>
      <trkpt lat="44.23181" lon="6.763">
        <ele>1847.8</ele>
        <time>2012-07-30T04:33:47Z</time>
      </trkpt>
      <trkpt lat="44.23179" lon="6.763">
        <ele>1848.5</ele>
        <time>2012-07-30T04:33:48Z</time>
      </trkpt>
      <trkpt lat="44.23178" lon="6.763">
        <ele>1849</ele>
        <time>2012-07-30T04:33:49Z</time>
      </trkpt>
      <trkpt lat="44.23177" lon="6.76301">
        <ele>1849.5</ele>
        <time>2012-07-30T04:33:50Z</time>
      </trkpt>
      <trkpt lat="44.23176" lon="6.76301">
        <ele>1849.5</ele>
        <time>2012-07-30T04:33:51Z</time>
      </trkpt>
      <trkpt lat="44.23175" lon="6.76302">
        <ele>1848.8</ele>
        <time>2012-07-30T04:33:52Z</time>
      </trkpt>
      <trkpt lat="44.23174" lon="6.76303">
        <ele>1847.9</ele>
        <time>2012-07-30T04:33:53Z</time>
      </trkpt>
      <trkpt lat="44.23156" lon="6.7633">
        <ele>1841</ele>
        <time>2012-07-30T04:34:22Z</time>
      </trkpt>
      <trkpt lat="44.23155" lon="6.7633">
        <ele>1841.5</ele>
        <time>2012-07-30T04:34:23Z</time>
      </trkpt>
      <trkpt lat="44.23153" lon="6.76329">
        <ele>1842.9</ele>
        <time>2012-07-30T04:34:24Z</time>
      </trkpt>
      <trkpt lat="44.23152" lon="6.76329">
        <ele>1844</ele>
        <time>2012-07-30T04:34:25Z</time>
      </trkpt>
      <trkpt lat="44.23151" lon="6.7633">
        <ele>1844.4</ele>
        <time>2012-07-30T04:34:26Z</time>
      </trkpt>
      <trkpt lat="44.2315" lon="6.76332">
        <ele>1844</ele>
        <time>2012-07-30T04:34:27Z</time>
      </trkpt>
      <trkpt lat="44.23149" lon="6.76334">
        <ele>1844.5</ele>
        <time>2012-07-30T04:34:28Z</time>
      </trkpt>
      <trkpt lat="44.23148" lon="6.76334">
        <ele>1844.5</ele>
        <time>2012-07-30T04:34:29Z</time>
      </trkpt>
      <trkpt lat="44.23146" lon="6.76335">
        <ele>1844.5</ele>
        <time>2012-07-30T04:34:30Z</time>
      </trkpt>
      <trkpt lat="44.23145" lon="6.76337">
        <ele>1844</ele>
        <time>2012-07-30T04:34:32Z</time>
      </trkpt>
      <trkpt lat="44.23136" lon="6.76362">
        <ele>1839</ele>
        <time>2012-07-30T04:34:49Z</time>
      </trkpt>
      <trkpt lat="44.23136" lon="6.76362">
        <ele>1839</ele>
        <time>2012-07-30T04:34:50Z</time>
      </trkpt>
      <trkpt lat="44.23135" lon="6.76363">
        <ele>1838.5</ele>
        <time>2012-07-30T04:34:51Z</time>
      </trkpt>
      <trkpt lat="44.23134" lon="6.76365">
        <ele>1838</ele>
        <time>2012-07-30T04:34:53Z</time>
      </trkpt>
      <trkpt lat="44.23133" lon="6.76366">
        <ele>1838</ele>
        <time>2012-07-30T04:34:54Z</time>
      </trkpt>
      <trkpt lat="44.23116" lon="6.76355">
        <ele>1843</ele>
        <time>2012-07-30T04:35:18Z</time>
      </trkpt>
      <trkpt lat="44.23115" lon="6.76355">
        <ele>1844</ele>
        <time>2012-07-30T04:35:19Z</time>
      </trkpt>
      <trkpt lat="44.23114" lon="6.76353">
        <ele>1845.5</ele>
        <time>2012-07-30T04:35:20Z</time>
      </trkpt>
      <trkpt lat="44.23113" lon="6.76352">
        <ele>1846.8</ele>
        <time>2012-07-30T04:35:21Z</time>
      </trkpt>
      <trkpt lat="44.23112" lon="6.76351">
        <ele>1847.8</ele>
        <time>2012-07-30T04:35:22Z</time>
      </trkpt>
      <trkpt lat="44.23111" lon="6.76351">
        <ele>1848</ele>
        <time>2012-07-30T04:35:23Z</time>
      </trkpt>
      <trkpt lat="44.2311" lon="6.76351">
        <ele>1848.4</ele>
        <time>2012-07-30T04:35:24Z</time>
      </trkpt>
      <trkpt lat="44.23088" lon="6.76341">
        <ele>1852.4</ele>
        <time>2012-07-30T04:35:50Z</time>
      </trkpt>
      <trkpt lat="44.23087" lon="6.76341">
        <ele>1852.5</ele>
        <time>2012-07-30T04:35:51Z</time>
      </trkpt>
      <trkpt lat="44.23072" lon="6.76339">
        <ele>1855.5</ele>
        <time>2012-07-30T04:36:38Z</time>
      </trkpt>
      <trkpt lat="44.23065" lon="6.76335">
        <ele>1860.5</ele>
        <time>2012-07-30T04:36:44Z</time>
      </trkpt>
      <trkpt lat="44.23064" lon="6.76335">
        <ele>1861</ele>
        <time>2012-07-30T04:36:45Z</time>
      </trkpt>
      <trkpt lat="44.23063" lon="6.76335">
        <ele>1861</ele>
        <time>2012-07-30T04:36:46Z</time>
      </trkpt>
      <trkpt lat="44.23033" lon="6.76332">
        <ele>1863.9</ele>
        <time>2012-07-30T04:37:21Z</time>
      </trkpt>
      <trkpt lat="44.23032" lon="6.76331">
        <ele>1864.5</ele>
        <time>2012-07-30T04:37:22Z</time>
      </trkpt>
      <trkpt lat="44.23031" lon="6.76331">
        <ele>1864.5</ele>
        <time>2012-07-30T04:37:23Z</time>
      </trkpt>
      <trkpt lat="44.2303" lon="6.76331">
        <ele>1865</ele>
        <time>2012-07-30T04:37:24Z</time>
      </trkpt>
      <trkpt lat="44.23028" lon="6.7633">
        <ele>1866.5</ele>
        <time>2012-07-30T04:37:26Z</time>
      </trkpt>
      <trkpt lat="44.23027" lon="6.76329">
        <ele>1866.8</ele>
        <time>2012-07-30T04:37:27Z</time>
      </trkpt>
      <trkpt lat="44.23026" lon="6.76329">
        <ele>1867</ele>
        <time>2012-07-30T04:37:28Z</time>
      </trkpt>
      <trkpt lat="44.22995" lon="6.76326">
        <ele>1867</ele>
        <time>2012-07-30T04:38:07Z</time>
      </trkpt>
      <trkpt lat="44.22994" lon="6.76325">
        <ele>1867</ele>
        <time>2012-07-30T04:38:08Z</time>
      </trkpt>
      <trkpt lat="44.22994" lon="6.76325">
        <ele>1866.9</ele>
        <time>2012-07-30T04:38:09Z</time>
      </trkpt>
      <trkpt lat="44.22993" lon="6.76325">
        <ele>1865.8</ele>
        <time>2012-07-30T04:38:10Z</time>
      </trkpt>
      <trkpt lat="44.22992" lon="6.76324">
        <ele>1865</ele>
        <time>2012-07-30T04:38:11Z</time>
      </trkpt>
      <trkpt lat="44.22982" lon="6.76318">
        <ele>1865</ele>
        <time>2012-07-30T04:38:24Z</time>
      </trkpt>
      <trkpt lat="44.22981" lon="6.76317">
        <ele>1865</ele>
        <time>2012-07-30T04:38:25Z</time>
      </trkpt>
      <trkpt lat="44.22969" lon="6.76308">
        <ele>1867.3</ele>
        <time>2012-07-30T04:38:38Z</time>
      </trkpt>
      <trkpt lat="44.22969" lon="6.76308">
        <ele>1866</ele>
        <time>2012-07-30T04:38:39Z</time>
      </trkpt>
      <trkpt lat="44.22968" lon="6.76308">
        <ele>1866</ele>
        <time>2012-07-30T04:38:40Z</time>
      </trkpt>
      <trkpt lat="44.22959" lon="6.76305">
        <ele>1866.3</ele>
        <time>2012-07-30T04:38:50Z</time>
      </trkpt>
      <trkpt lat="44.22958" lon="6.76305">
        <ele>1866.3</ele>
        <time>2012-07-30T04:38:51Z</time>
      </trkpt>
      <trkpt lat="44.22957" lon="6.76304">
        <ele>1866.5</ele>
        <time>2012-07-30T04:38:52Z</time>
      </trkpt>
      <trkpt lat="44.22956" lon="6.76304">
        <ele>1866</ele>
        <time>2012-07-30T04:38:53Z</time>
      </trkpt>
      <trkpt lat="44.22939" lon="6.763">
        <ele>1869.5</ele>
        <time>2012-07-30T04:39:14Z</time>
      </trkpt>
      <trkpt lat="44.22937" lon="6.76299">
        <ele>1870.5</ele>
        <time>2012-07-30T04:39:15Z</time>
      </trkpt>
      <trkpt lat="44.22936" lon="6.76299">
        <ele>1871</ele>
        <time>2012-07-30T04:39:16Z</time>
      </trkpt>
      <trkpt lat="44.22936" lon="6.76299">
        <ele>1871</ele>
        <time>2012-07-30T04:39:17Z</time>
      </trkpt>
      <trkpt lat="44.2293" lon="6.76294">
        <ele>1876.4</ele>
        <time>2012-07-30T04:39:23Z</time>
      </trkpt>
      <trkpt lat="44.22929" lon="6.76293">
        <ele>1877.3</ele>
        <time>2012-07-30T04:39:24Z</time>
      </trkpt>
      <trkpt lat="44.22928" lon="6.76293">
        <ele>1878</ele>
        <time>2012-07-30T04:39:25Z</time>
      </trkpt>
      <trkpt lat="44.22927" lon="6.76293">
        <ele>1877.5</ele>
        <time>2012-07-30T04:39:26Z</time>
      </trkpt>
      <trkpt lat="44.22924" lon="6.76291">
        <ele>1878.5</ele>
        <time>2012-07-30T04:39:29Z</time>
      </trkpt>
      <trkpt lat="44.22923" lon="6.76291">
        <ele>1879</ele>
        <time>2012-07-30T04:39:30Z</time>
      </trkpt>
      <trkpt lat="44.22918" lon="6.76288">
        <ele>1879</ele>
        <time>2012-07-30T04:39:35Z</time>
      </trkpt>
      <trkpt lat="44.22917" lon="6.76288">
        <ele>1878.5</ele>
        <time>2012-07-30T04:39:36Z</time>
      </trkpt>
      <trkpt lat="44.22916" lon="6.76288">
        <ele>1878.5</ele>
        <time>2012-07-30T04:39:37Z</time>
      </trkpt>
      <trkpt lat="44.22915" lon="6.76288">
        <ele>1878.9</ele>
        <time>2012-07-30T04:39:38Z</time>
      </trkpt>
      <trkpt lat="44.22914" lon="6.76289">
        <ele>1878.5</ele>
        <time>2012-07-30T04:39:39Z</time>
      </trkpt>
      <trkpt lat="44.22913" lon="6.76289">
        <ele>1878.4</ele>
        <time>2012-07-30T04:39:40Z</time>
      </trkpt>
      <trkpt lat="44.22912" lon="6.7629">
        <ele>1877.9</ele>
        <time>2012-07-30T04:39:41Z</time>
      </trkpt>
      <trkpt lat="44.22911" lon="6.7629">
        <ele>1877</ele>
        <time>2012-07-30T04:39:42Z</time>
      </trkpt>
      <trkpt lat="44.22911" lon="6.76291">
        <ele>1876.5</ele>
        <time>2012-07-30T04:39:43Z</time>
      </trkpt>
      <trkpt lat="44.2291" lon="6.76291">
        <ele>1876</ele>
        <time>2012-07-30T04:39:44Z</time>
      </trkpt>
      <trkpt lat="44.22909" lon="6.76291">
        <ele>1876</ele>
        <time>2012-07-30T04:39:45Z</time>
      </trkpt>
      <trkpt lat="44.22908" lon="6.76291">
        <ele>1875.5</ele>
        <time>2012-07-30T04:39:46Z</time>
      </trkpt>
      <trkpt lat="44.22898" lon="6.76287">
        <ele>1877</ele>
        <time>2012-07-30T04:39:57Z</time>
      </trkpt>
      <trkpt lat="44.22895" lon="6.76286">
        <ele>1877.5</ele>
        <time>2012-07-30T04:40:01Z</time>
      </trkpt>
      <trkpt lat="44.22894" lon="6.76286">
        <ele>1877.8</ele>
        <time>2012-07-30T04:40:02Z</time>
      </trkpt>
      <trkpt lat="44.22893" lon="6.76284">
        <ele>1879.5</ele>
        <time>2012-07-30T04:40:03Z</time>
      </trkpt>
      <trkpt lat="44.22892" lon="6.76283">
        <ele>1880.5</ele>
        <time>2012-07-30T04:40:04Z</time>
      </trkpt>
      <trkpt lat="44.22891" lon="6.76282">
        <ele>1881.5</ele>
        <time>2012-07-30T04:40:05Z</time>
      </trkpt>
      <trkpt lat="44.2289" lon="6.7628">
        <ele>1882.5</ele>
        <time>2012-07-30T04:40:06Z</time>
      </trkpt>
      <trkpt lat="44.22889" lon="6.7628">
        <ele>1882.5</ele>
        <time>2012-07-30T04:40:07Z</time>
      </trkpt>
      <trkpt lat="44.22889" lon="6.7628">
        <ele>1882</ele>
        <time>2012-07-30T04:40:08Z</time>
      </trkpt>
      <trkpt lat="44.22888" lon="6.76279">
        <ele>1881.8</ele>
        <time>2012-07-30T04:40:09Z</time>
      </trkpt>
      <trkpt lat="44.22887" lon="6.76279">
        <ele>1881.5</ele>
        <time>2012-07-30T04:40:10Z</time>
      </trkpt>
      <trkpt lat="44.22886" lon="6.76279">
        <ele>1881.9</ele>
        <time>2012-07-30T04:40:11Z</time>
      </trkpt>
      <trkpt lat="44.22885" lon="6.76279">
        <ele>1881.9</ele>
        <time>2012-07-30T04:40:12Z</time>
      </trkpt>
      <trkpt lat="44.22884" lon="6.76278">
        <ele>1882.5</ele>
        <time>2012-07-30T04:40:13Z</time>
      </trkpt>
      <trkpt lat="44.22884" lon="6.76278">
        <ele>1882.3</ele>
        <time>2012-07-30T04:40:14Z</time>
      </trkpt>
      <trkpt lat="44.22883" lon="6.76278">
        <ele>1883</ele>
        <time>2012-07-30T04:40:15Z</time>
      </trkpt>
      <trkpt lat="44.22882" lon="6.76277">
        <ele>1883.4</ele>
        <time>2012-07-30T04:40:16Z</time>
      </trkpt>
      <trkpt lat="44.2288" lon="6.76276">
        <ele>1884.5</ele>
        <time>2012-07-30T04:40:17Z</time>
      </trkpt>
      <trkpt lat="44.2288" lon="6.76276">
        <ele>1884.5</ele>
        <time>2012-07-30T04:40:18Z</time>
      </trkpt>
      <trkpt lat="44.2287" lon="6.76273">
        <ele>1885.5</ele>
        <time>2012-07-30T04:40:28Z</time>
      </trkpt>
      <trkpt lat="44.22869" lon="6.76272">
        <ele>1885.8</ele>
        <time>2012-07-30T04:40:29Z</time>
      </trkpt>
      <trkpt lat="44.22865" lon="6.7627">
        <ele>1887.5</ele>
        <time>2012-07-30T04:40:33Z</time>
      </trkpt>
      <trkpt lat="44.22864" lon="6.76269">
        <ele>1888.4</ele>
        <time>2012-07-30T04:40:34Z</time>
      </trkpt>
      <trkpt lat="44.22863" lon="6.76269">
        <ele>1888.5</ele>
        <time>2012-07-30T04:40:35Z</time>
      </trkpt>
      <trkpt lat="44.22862" lon="6.76269">
        <ele>1888.9</ele>
        <time>2012-07-30T04:40:36Z</time>
      </trkpt>
      <trkpt lat="44.22855" lon="6.76265">
        <ele>1892</ele>
        <time>2012-07-30T04:40:44Z</time>
      </trkpt>
      <trkpt lat="44.22853" lon="6.76265">
        <ele>1891</ele>
        <time>2012-07-30T04:40:46Z</time>
      </trkpt>
      <trkpt lat="44.22849" lon="6.76264">
        <ele>1892</ele>
        <time>2012-07-30T04:40:50Z</time>
      </trkpt>
      <trkpt lat="44.22848" lon="6.76264">
        <ele>1891</ele>
        <time>2012-07-30T04:40:51Z</time>
      </trkpt>
      <trkpt lat="44.22848" lon="6.76264">
        <ele>1890.4</ele>
        <time>2012-07-30T04:40:52Z</time>
      </trkpt>
      <trkpt lat="44.22847" lon="6.76264">
        <ele>1890</ele>
        <time>2012-07-30T04:40:53Z</time>
      </trkpt>
      <trkpt lat="44.22846" lon="6.76264">
        <ele>1889.3</ele>
        <time>2012-07-30T04:40:54Z</time>
      </trkpt>
      <trkpt lat="44.22844" lon="6.76264">
        <ele>1887.4</ele>
        <time>2012-07-30T04:40:57Z</time>
      </trkpt>
      <trkpt lat="44.22843" lon="6.76263">
        <ele>1887</ele>
        <time>2012-07-30T04:40:58Z</time>
      </trkpt>
      <trkpt lat="44.22839" lon="6.76262">
        <ele>1887.5</ele>
        <time>2012-07-30T04:41:03Z</time>
      </trkpt>
      <trkpt lat="44.22824" lon="6.76255">
        <ele>1887.5</ele>
        <time>2012-07-30T04:41:21Z</time>
      </trkpt>
      <trkpt lat="44.228" lon="6.76237">
        <ele>1895</ele>
        <time>2012-07-30T04:41:48Z</time>
      </trkpt>
      <trkpt lat="44.22799" lon="6.76237">
        <ele>1894.5</ele>
        <time>2012-07-30T04:41:49Z</time>
      </trkpt>
      <trkpt lat="44.22792" lon="6.76236">
        <ele>1892.4</ele>
        <time>2012-07-30T04:41:58Z</time>
      </trkpt>
      <trkpt lat="44.22787" lon="6.76233">
        <ele>1894</ele>
        <time>2012-07-30T04:42:04Z</time>
      </trkpt>
      <trkpt lat="44.22784" lon="6.76231">
        <ele>1896</ele>
        <time>2012-07-30T04:42:07Z</time>
      </trkpt>
      <trkpt lat="44.22783" lon="6.76231">
        <ele>1896</ele>
        <time>2012-07-30T04:42:08Z</time>
      </trkpt>
      <trkpt lat="44.22777" lon="6.76237">
        <ele>1912.5</ele>
        <time>2012-07-30T04:43:04Z</time>
      </trkpt>
      <trkpt lat="44.22778" lon="6.76238">
        <ele>1913</ele>
        <time>2012-07-30T04:43:05Z</time>
      </trkpt>
      <trkpt lat="44.22795" lon="6.76263">
        <ele>1906</ele>
        <time>2012-07-30T04:43:33Z</time>
      </trkpt>
      <trkpt lat="44.22811" lon="6.76289">
        <ele>1909.9</ele>
        <time>2012-07-30T04:43:58Z</time>
      </trkpt>
      <trkpt lat="44.22812" lon="6.7629">
        <ele>1910</ele>
        <time>2012-07-30T04:43:59Z</time>
      </trkpt>
      <trkpt lat="44.22821" lon="6.76304">
        <ele>1914</ele>
        <time>2012-07-30T04:44:14Z</time>
      </trkpt>
      <trkpt lat="44.22821" lon="6.76305">
        <ele>1914.3</ele>
        <time>2012-07-30T04:44:15Z</time>
      </trkpt>
      <trkpt lat="44.22827" lon="6.76311">
        <ele>1916.5</ele>
        <time>2012-07-30T04:44:22Z</time>
      </trkpt>
      <trkpt lat="44.22828" lon="6.76313">
        <ele>1917.3</ele>
        <time>2012-07-30T04:44:24Z</time>
      </trkpt>
      <trkpt lat="44.22832" lon="6.76319">
        <ele>1915.3</ele>
        <time>2012-07-30T04:44:30Z</time>
      </trkpt>
      <trkpt lat="44.22846" lon="6.7634">
        <ele>1912.3</ele>
        <time>2012-07-30T04:44:54Z</time>
      </trkpt>
      <trkpt lat="44.22847" lon="6.7634">
        <ele>1911.9</ele>
        <time>2012-07-30T04:44:55Z</time>
      </trkpt>
      <trkpt lat="44.22848" lon="6.76341">
        <ele>1911.5</ele>
        <time>2012-07-30T04:44:56Z</time>
      </trkpt>
      <trkpt lat="44.22874" lon="6.76372">
        <ele>1914.4</ele>
        <time>2012-07-30T04:45:40Z</time>
      </trkpt>
      <trkpt lat="44.22875" lon="6.76372">
        <ele>1914.8</ele>
        <time>2012-07-30T04:45:41Z</time>
      </trkpt>
      <trkpt lat="44.22877" lon="6.76373">
        <ele>1915</ele>
        <time>2012-07-30T04:45:43Z</time>
      </trkpt>
      <trkpt lat="44.22878" lon="6.76374">
        <ele>1915.3</ele>
        <time>2012-07-30T04:45:44Z</time>
      </trkpt>
      <trkpt lat="44.22897" lon="6.76393">
        <ele>1923.8</ele>
        <time>2012-07-30T04:46:11Z</time>
      </trkpt>
      <trkpt lat="44.22897" lon="6.76394">
        <ele>1923.4</ele>
        <time>2012-07-30T04:46:12Z</time>
      </trkpt>
      <trkpt lat="44.22901" lon="6.76402">
        <ele>1924.9</ele>
        <time>2012-07-30T04:46:18Z</time>
      </trkpt>
      <trkpt lat="44.22901" lon="6.76403">
        <ele>1925.3</ele>
        <time>2012-07-30T04:46:19Z</time>
      </trkpt>
      <trkpt lat="44.22919" lon="6.76436">
        <ele>1943.4</ele>
        <time>2012-07-30T04:46:49Z</time>
      </trkpt>
      <trkpt lat="44.2292" lon="6.76437">
        <ele>1943.5</ele>
        <time>2012-07-30T04:46:50Z</time>
      </trkpt>
      <trkpt lat="44.22946" lon="6.76478">
        <ele>1944</ele>
        <time>2012-07-30T04:47:36Z</time>
      </trkpt>
      <trkpt lat="44.22946" lon="6.76479">
        <ele>1944</ele>
        <time>2012-07-30T04:47:37Z</time>
      </trkpt>
      <trkpt lat="44.22958" lon="6.76488">
        <ele>1943.5</ele>
        <time>2012-07-30T04:47:53Z</time>
      </trkpt>
      <trkpt lat="44.22958" lon="6.76488">
        <ele>1943.5</ele>
        <time>2012-07-30T04:47:54Z</time>
      </trkpt>
      <trkpt lat="44.2296" lon="6.76488">
        <ele>1943.8</ele>
        <time>2012-07-30T04:47:55Z</time>
      </trkpt>
      <trkpt lat="44.22961" lon="6.76489">
        <ele>1943.8</ele>
        <time>2012-07-30T04:47:56Z</time>
      </trkpt>
      <trkpt lat="44.22983" lon="6.76508">
        <ele>1940</ele>
        <time>2012-07-30T04:48:29Z</time>
      </trkpt>
      <trkpt lat="44.22984" lon="6.76508">
        <ele>1940</ele>
        <time>2012-07-30T04:48:30Z</time>
      </trkpt>
      <trkpt lat="44.22985" lon="6.76509">
        <ele>1940.5</ele>
        <time>2012-07-30T04:48:31Z</time>
      </trkpt>
      <trkpt lat="44.22989" lon="6.76512">
        <ele>1941.4</ele>
        <time>2012-07-30T04:48:36Z</time>
      </trkpt>
      <trkpt lat="44.2299" lon="6.76512">
        <ele>1941.5</ele>
        <time>2012-07-30T04:48:37Z</time>
      </trkpt>
      <trkpt lat="44.22991" lon="6.76513">
        <ele>1941.8</ele>
        <time>2012-07-30T04:48:38Z</time>
      </trkpt>
      <trkpt lat="44.22992" lon="6.76514">
        <ele>1942</ele>
        <time>2012-07-30T04:48:39Z</time>
      </trkpt>
      <trkpt lat="44.22992" lon="6.76514">
        <ele>1942</ele>
        <time>2012-07-30T04:48:40Z</time>
      </trkpt>
      <trkpt lat="44.22993" lon="6.76515">
        <ele>1942.5</ele>
        <time>2012-07-30T04:48:41Z</time>
      </trkpt>
      <trkpt lat="44.22994" lon="6.76516">
        <ele>1942.9</ele>
        <time>2012-07-30T04:48:42Z</time>
      </trkpt>
      <trkpt lat="44.22997" lon="6.76518">
        <ele>1944.9</ele>
        <time>2012-07-30T04:48:46Z</time>
      </trkpt>
      <trkpt lat="44.22998" lon="6.76519">
        <ele>1945.5</ele>
        <time>2012-07-30T04:48:47Z</time>
      </trkpt>
      <trkpt lat="44.22999" lon="6.76519">
        <ele>1946</ele>
        <time>2012-07-30T04:48:48Z</time>
      </trkpt>
      <trkpt lat="44.23" lon="6.7652">
        <ele>1946.5</ele>
        <time>2012-07-30T04:48:49Z</time>
      </trkpt>
      <trkpt lat="44.23005" lon="6.76525">
        <ele>1951</ele>
        <time>2012-07-30T04:48:56Z</time>
      </trkpt>
      <trkpt lat="44.23006" lon="6.76526">
        <ele>1951.9</ele>
        <time>2012-07-30T04:48:57Z</time>
      </trkpt>
      <trkpt lat="44.23012" lon="6.76533">
        <ele>1957</ele>
        <time>2012-07-30T04:49:05Z</time>
      </trkpt>
      <trkpt lat="44.23013" lon="6.76534">
        <ele>1958.4</ele>
        <time>2012-07-30T04:49:07Z</time>
      </trkpt>
      <trkpt lat="44.23014" lon="6.76536">
        <ele>1958.9</ele>
        <time>2012-07-30T04:49:08Z</time>
      </trkpt>
      <trkpt lat="44.23033" lon="6.76657">
        <ele>1978.8</ele>
        <time>2012-07-30T04:50:51Z</time>
      </trkpt>
      <trkpt lat="44.23034" lon="6.76658">
        <ele>1979.3</ele>
        <time>2012-07-30T04:50:52Z</time>
      </trkpt>
      <trkpt lat="44.23039" lon="6.76668">
        <ele>1985.8</ele>
        <time>2012-07-30T04:51:03Z</time>
      </trkpt>
      <trkpt lat="44.23067" lon="6.76773">
        <ele>1972.9</ele>
        <time>2012-07-30T04:52:42Z</time>
      </trkpt>
      <trkpt lat="44.23066" lon="6.76772">
        <ele>1973</ele>
        <time>2012-07-30T04:52:43Z</time>
      </trkpt>
      <trkpt lat="44.23065" lon="6.76772">
        <ele>1973</ele>
        <time>2012-07-30T04:52:44Z</time>
      </trkpt>
      <trkpt lat="44.23065" lon="6.76773">
        <ele>1977.4</ele>
        <time>2012-07-30T04:52:45Z</time>
      </trkpt>
      <trkpt lat="44.23064" lon="6.76774">
        <ele>1978.5</ele>
        <time>2012-07-30T04:52:46Z</time>
      </trkpt>
      <trkpt lat="44.23041" lon="6.76814">
        <ele>1993.8</ele>
        <time>2012-07-30T04:53:46Z</time>
      </trkpt>
      <trkpt lat="44.2304" lon="6.76815">
        <ele>1993</ele>
        <time>2012-07-30T04:53:47Z</time>
      </trkpt>
      <trkpt lat="44.2304" lon="6.76816">
        <ele>1993.9</ele>
        <time>2012-07-30T04:53:48Z</time>
      </trkpt>
      <trkpt lat="44.23039" lon="6.76816">
        <ele>1994</ele>
        <time>2012-07-30T04:53:49Z</time>
      </trkpt>
      <trkpt lat="44.23038" lon="6.76817">
        <ele>1993</ele>
        <time>2012-07-30T04:53:50Z</time>
      </trkpt>
      <trkpt lat="44.23038" lon="6.76818">
        <ele>1992.3</ele>
        <time>2012-07-30T04:53:51Z</time>
      </trkpt>
      <trkpt lat="44.23038" lon="6.76819">
        <ele>1994</ele>
        <time>2012-07-30T04:53:52Z</time>
      </trkpt>
      <trkpt lat="44.23037" lon="6.7682">
        <ele>1996.4</ele>
        <time>2012-07-30T04:53:53Z</time>
      </trkpt>
      <trkpt lat="44.23037" lon="6.76821">
        <ele>1997.5</ele>
        <time>2012-07-30T04:53:54Z</time>
      </trkpt>
      <trkpt lat="44.23037" lon="6.76821">
        <ele>1997.4</ele>
        <time>2012-07-30T04:53:55Z</time>
      </trkpt>
      <trkpt lat="44.23037" lon="6.76823">
        <ele>1999</ele>
        <time>2012-07-30T04:53:56Z</time>
      </trkpt>
      <trkpt lat="44.23036" lon="6.76824">
        <ele>2000.8</ele>
        <time>2012-07-30T04:53:57Z</time>
      </trkpt>
      <trkpt lat="44.23036" lon="6.76825">
        <ele>2000.5</ele>
        <time>2012-07-30T04:53:58Z</time>
      </trkpt>
      <trkpt lat="44.23036" lon="6.76826">
        <ele>1999.9</ele>
        <time>2012-07-30T04:53:59Z</time>
      </trkpt>
      <trkpt lat="44.23035" lon="6.76827">
        <ele>1999.5</ele>
        <time>2012-07-30T04:54:00Z</time>
      </trkpt>
      <trkpt lat="44.23035" lon="6.76828">
        <ele>1999.8</ele>
        <time>2012-07-30T04:54:01Z</time>
      </trkpt>
      <trkpt lat="44.23035" lon="6.76829">
        <ele>1999</ele>
        <time>2012-07-30T04:54:02Z</time>
      </trkpt>
      <trkpt lat="44.23035" lon="6.7683">
        <ele>1998.3</ele>
        <time>2012-07-30T04:54:03Z</time>
      </trkpt>
      <trkpt lat="44.23035" lon="6.76831">
        <ele>1997.9</ele>
        <time>2012-07-30T04:54:04Z</time>
      </trkpt>
      <trkpt lat="44.23034" lon="6.76831">
        <ele>1997.8</ele>
        <time>2012-07-30T04:54:05Z</time>
      </trkpt>
      <trkpt lat="44.23034" lon="6.76831">
        <ele>1997.5</ele>
        <time>2012-07-30T04:54:06Z</time>
      </trkpt>
      <trkpt lat="44.23034" lon="6.76831">
        <ele>1997.9</ele>
        <time>2012-07-30T04:54:07Z</time>
      </trkpt>
      <trkpt lat="44.23034" lon="6.76832">
        <ele>1997.5</ele>
        <time>2012-07-30T04:54:08Z</time>
      </trkpt>
      <trkpt lat="44.23034" lon="6.76833">
        <ele>1998</ele>
        <time>2012-07-30T04:54:09Z</time>
      </trkpt>
      <trkpt lat="44.23033" lon="6.76834">
        <ele>1998</ele>
        <time>2012-07-30T04:54:10Z</time>
      </trkpt>
      <trkpt lat="44.23033" lon="6.76835">
        <ele>1998.5</ele>
        <time>2012-07-30T04:54:11Z</time>
      </trkpt>
      <trkpt lat="44.23033" lon="6.76837">
        <ele>1998.4</ele>
        <time>2012-07-30T04:54:12Z</time>
      </trkpt>
      <trkpt lat="44.23033" lon="6.76839">
        <ele>1998.5</ele>
        <time>2012-07-30T04:54:13Z</time>
      </trkpt>
      <trkpt lat="44.23032" lon="6.76841">
        <ele>1999.8</ele>
        <time>2012-07-30T04:54:14Z</time>
      </trkpt>
      <trkpt lat="44.23032" lon="6.76841">
        <ele>1999.8</ele>
        <time>2012-07-30T04:54:15Z</time>
      </trkpt>
      <trkpt lat="44.23032" lon="6.76842">
        <ele>2000.4</ele>
        <time>2012-07-30T04:54:16Z</time>
      </trkpt>
      <trkpt lat="44.23031" lon="6.76843">
        <ele>2002</ele>
        <time>2012-07-30T04:54:17Z</time>
      </trkpt>
      <trkpt lat="44.2303" lon="6.76845">
        <ele>2001.9</ele>
        <time>2012-07-30T04:54:18Z</time>
      </trkpt>
      <trkpt lat="44.2303" lon="6.76846">
        <ele>2000.8</ele>
        <time>2012-07-30T04:54:19Z</time>
      </trkpt>
      <trkpt lat="44.23029" lon="6.76847">
        <ele>1998.5</ele>
        <time>2012-07-30T04:54:20Z</time>
      </trkpt>
      <trkpt lat="44.23029" lon="6.76848">
        <ele>1997.5</ele>
        <time>2012-07-30T04:54:21Z</time>
      </trkpt>
      <trkpt lat="44.23029" lon="6.76848">
        <ele>1996</ele>
        <time>2012-07-30T04:54:22Z</time>
      </trkpt>
      <trkpt lat="44.23029" lon="6.76849">
        <ele>1995.9</ele>
        <time>2012-07-30T04:54:23Z</time>
      </trkpt>
      <trkpt lat="44.23028" lon="6.76849">
        <ele>1995.4</ele>
        <time>2012-07-30T04:54:24Z</time>
      </trkpt>
      <trkpt lat="44.23028" lon="6.7685">
        <ele>1997.5</ele>
        <time>2012-07-30T04:54:25Z</time>
      </trkpt>
      <trkpt lat="44.23028" lon="6.76851">
        <ele>1999.8</ele>
        <time>2012-07-30T04:54:26Z</time>
      </trkpt>
      <trkpt lat="44.23027" lon="6.7685">
        <ele>2000</ele>
        <time>2012-07-30T04:54:27Z</time>
      </trkpt>
      <trkpt lat="44.23027" lon="6.76851">
        <ele>1999.5</ele>
        <time>2012-07-30T04:54:28Z</time>
      </trkpt>
      <trkpt lat="44.23027" lon="6.76853">
        <ele>2001.3</ele>
        <time>2012-07-30T04:54:29Z</time>
      </trkpt>
      <trkpt lat="44.23026" lon="6.76853">
        <ele>2001.4</ele>
        <time>2012-07-30T04:54:30Z</time>
      </trkpt>
      <trkpt lat="44.23025" lon="6.76853">
        <ele>2001.5</ele>
        <time>2012-07-30T04:54:31Z</time>
      </trkpt>
      <trkpt lat="44.23025" lon="6.76854">
        <ele>2001.5</ele>
        <time>2012-07-30T04:54:32Z</time>
      </trkpt>
      <trkpt lat="44.23026" lon="6.76855">
        <ele>2001</ele>
        <time>2012-07-30T04:54:33Z</time>
      </trkpt>
      <trkpt lat="44.23026" lon="6.76871">
        <ele>2009.9</ele>
        <time>2012-07-30T04:54:42Z</time>
      </trkpt>
      <trkpt lat="44.23027" lon="6.76872">
        <ele>2009</ele>
        <time>2012-07-30T04:54:43Z</time>
      </trkpt>
      <trkpt lat="44.23009" lon="6.76914">
        <ele>1997.5</ele>
        <time>2012-07-30T04:55:44Z</time>
      </trkpt>
      <trkpt lat="44.23007" lon="6.76915">
        <ele>1998</ele>
        <time>2012-07-30T04:55:45Z</time>
      </trkpt>
      <trkpt lat="44.23006" lon="6.76916">
        <ele>1999</ele>
        <time>2012-07-30T04:55:46Z</time>
      </trkpt>
      <trkpt lat="44.23001" lon="6.76921">
        <ele>2001.5</ele>
        <time>2012-07-30T04:55:50Z</time>
      </trkpt>
      <trkpt lat="44.22999" lon="6.76924">
        <ele>2004</ele>
        <time>2012-07-30T04:55:53Z</time>
      </trkpt>
      <trkpt lat="44.22998" lon="6.76925">
        <ele>2004.9</ele>
        <time>2012-07-30T04:55:54Z</time>
      </trkpt>
      <trkpt lat="44.22997" lon="6.76926">
        <ele>2004.8</ele>
        <time>2012-07-30T04:55:55Z</time>
      </trkpt>
      <trkpt lat="44.22996" lon="6.76926">
        <ele>2005</ele>
        <time>2012-07-30T04:55:56Z</time>
      </trkpt>
      <trkpt lat="44.22995" lon="6.76927">
        <ele>2005.8</ele>
        <time>2012-07-30T04:55:57Z</time>
      </trkpt>
      <trkpt lat="44.22995" lon="6.76928">
        <ele>2005.4</ele>
        <time>2012-07-30T04:55:58Z</time>
      </trkpt>
      <trkpt lat="44.22994" lon="6.76929">
        <ele>2005.4</ele>
        <time>2012-07-30T04:55:59Z</time>
      </trkpt>
      <trkpt lat="44.2299" lon="6.76939">
        <ele>2008</ele>
        <time>2012-07-30T04:56:08Z</time>
      </trkpt>
      <trkpt lat="44.2299" lon="6.76941">
        <ele>2006.5</ele>
        <time>2012-07-30T04:56:09Z</time>
      </trkpt>
      <trkpt lat="44.2299" lon="6.76941">
        <ele>2006.5</ele>
        <time>2012-07-30T04:56:10Z</time>
      </trkpt>
      <trkpt lat="44.22989" lon="6.76942">
        <ele>2007.3</ele>
        <time>2012-07-30T04:56:11Z</time>
      </trkpt>
      <trkpt lat="44.22988" lon="6.76943">
        <ele>2007</ele>
        <time>2012-07-30T04:56:12Z</time>
      </trkpt>
      <trkpt lat="44.22988" lon="6.76944">
        <ele>2006.9</ele>
        <time>2012-07-30T04:56:13Z</time>
      </trkpt>
      <trkpt lat="44.22987" lon="6.76945">
        <ele>2006.5</ele>
        <time>2012-07-30T04:56:14Z</time>
      </trkpt>
      <trkpt lat="44.22987" lon="6.76946">
        <ele>2009.5</ele>
        <time>2012-07-30T04:56:15Z</time>
      </trkpt>
      <trkpt lat="44.22986" lon="6.76948">
        <ele>2010.9</ele>
        <time>2012-07-30T04:56:16Z</time>
      </trkpt>
      <trkpt lat="44.22957" lon="6.76994">
        <ele>2024</ele>
        <time>2012-07-30T04:57:15Z</time>
      </trkpt>
      <trkpt lat="44.22957" lon="6.76996">
        <ele>2026</ele>
        <time>2012-07-30T04:57:16Z</time>
      </trkpt>
      <trkpt lat="44.22956" lon="6.76998">
        <ele>2026.3</ele>
        <time>2012-07-30T04:57:18Z</time>
      </trkpt>
      <trkpt lat="44.22956" lon="6.76999">
        <ele>2026.5</ele>
        <time>2012-07-30T04:57:19Z</time>
      </trkpt>
      <trkpt lat="44.22955" lon="6.76999">
        <ele>2027.5</ele>
        <time>2012-07-30T04:57:20Z</time>
      </trkpt>
      <trkpt lat="44.2295" lon="6.77021">
        <ele>2030</ele>
        <time>2012-07-30T04:57:45Z</time>
      </trkpt>
      <trkpt lat="44.2295" lon="6.77022">
        <ele>2030.5</ele>
        <time>2012-07-30T04:57:46Z</time>
      </trkpt>
      <trkpt lat="44.2295" lon="6.77023">
        <ele>2030.9</ele>
        <time>2012-07-30T04:57:47Z</time>
      </trkpt>
      <trkpt lat="44.2295" lon="6.77024">
        <ele>2030.8</ele>
        <time>2012-07-30T04:57:48Z</time>
      </trkpt>
      <trkpt lat="44.2295" lon="6.77025">
        <ele>2031</ele>
        <time>2012-07-30T04:57:49Z</time>
      </trkpt>
      <trkpt lat="44.22941" lon="6.77014">
        <ele>2027.8</ele>
        <time>2012-07-30T04:58:12Z</time>
      </trkpt>
      <trkpt lat="44.22939" lon="6.77013">
        <ele>2029.5</ele>
        <time>2012-07-30T04:58:13Z</time>
      </trkpt>
      <trkpt lat="44.22938" lon="6.77013">
        <ele>2030.8</ele>
        <time>2012-07-30T04:58:14Z</time>
      </trkpt>
      <trkpt lat="44.22923" lon="6.77032">
        <ele>2047.5</ele>
        <time>2012-07-30T04:59:32Z</time>
      </trkpt>
      <trkpt lat="44.22922" lon="6.77034">
        <ele>2049.6</ele>
        <time>2012-07-30T04:59:33Z</time>
      </trkpt>
      <trkpt lat="44.22905" lon="6.77076">
        <ele>2053.3</ele>
        <time>2012-07-30T05:00:46Z</time>
      </trkpt>
      <trkpt lat="44.22905" lon="6.77075">
        <ele>2052.5</ele>
        <time>2012-07-30T05:00:47Z</time>
      </trkpt>
      <trkpt lat="44.22904" lon="6.77075">
        <ele>2051.8</ele>
        <time>2012-07-30T05:00:48Z</time>
      </trkpt>
      <trkpt lat="44.22903" lon="6.77074">
        <ele>2051.6</ele>
        <time>2012-07-30T05:00:49Z</time>
      </trkpt>
      <trkpt lat="44.22903" lon="6.77073">
        <ele>2052.3</ele>
        <time>2012-07-30T05:00:50Z</time>
      </trkpt>
      <trkpt lat="44.22902" lon="6.77072">
        <ele>2052.3</ele>
        <time>2012-07-30T05:00:51Z</time>
      </trkpt>
      <trkpt lat="44.22902" lon="6.77072">
        <ele>2051.8</ele>
        <time>2012-07-30T05:00:52Z</time>
      </trkpt>
      <trkpt lat="44.22901" lon="6.77072">
        <ele>2052.5</ele>
        <time>2012-07-30T05:00:53Z</time>
      </trkpt>
      <trkpt lat="44.22901" lon="6.77072">
        <ele>2052.8</ele>
        <time>2012-07-30T05:00:54Z</time>
      </trkpt>
      <trkpt lat="44.22901" lon="6.77073">
        <ele>2054.5</ele>
        <time>2012-07-30T05:00:55Z</time>
      </trkpt>
      <trkpt lat="44.229" lon="6.77073">
        <ele>2054.1</ele>
        <time>2012-07-30T05:00:56Z</time>
      </trkpt>
      <trkpt lat="44.229" lon="6.77073">
        <ele>2053.6</ele>
        <time>2012-07-30T05:00:57Z</time>
      </trkpt>
      <trkpt lat="44.229" lon="6.77074">
        <ele>2053.3</ele>
        <time>2012-07-30T05:00:58Z</time>
      </trkpt>
      <trkpt lat="44.22899" lon="6.77074">
        <ele>2053.3</ele>
        <time>2012-07-30T05:00:59Z</time>
      </trkpt>
      <trkpt lat="44.22899" lon="6.77075">
        <ele>2053.1</ele>
        <time>2012-07-30T05:01:00Z</time>
      </trkpt>
      <trkpt lat="44.22898" lon="6.77076">
        <ele>2053</ele>
        <time>2012-07-30T05:01:01Z</time>
      </trkpt>
      <trkpt lat="44.22898" lon="6.77076">
        <ele>2052.5</ele>
        <time>2012-07-30T05:01:02Z</time>
      </trkpt>
      <trkpt lat="44.22897" lon="6.77077">
        <ele>2052.1</ele>
        <time>2012-07-30T05:01:03Z</time>
      </trkpt>
      <trkpt lat="44.22897" lon="6.77077">
        <ele>2052.1</ele>
        <time>2012-07-30T05:01:04Z</time>
      </trkpt>
      <trkpt lat="44.22897" lon="6.77077">
        <ele>2052</ele>
        <time>2012-07-30T05:01:05Z</time>
      </trkpt>
      <trkpt lat="44.22897" lon="6.77077">
        <ele>2051.6</ele>
        <time>2012-07-30T05:01:06Z</time>
      </trkpt>
      <trkpt lat="44.22896" lon="6.77077">
        <ele>2051.6</ele>
        <time>2012-07-30T05:01:07Z</time>
      </trkpt>
      <trkpt lat="44.22896" lon="6.77076">
        <ele>2051.5</ele>
        <time>2012-07-30T05:01:08Z</time>
      </trkpt>
      <trkpt lat="44.22896" lon="6.77076">
        <ele>2051.8</ele>
        <time>2012-07-30T05:01:09Z</time>
      </trkpt>
      <trkpt lat="44.22896" lon="6.77076">
        <ele>2051.6</ele>
        <time>2012-07-30T05:01:10Z</time>
      </trkpt>
      <trkpt lat="44.22895" lon="6.77076">
        <ele>2051.8</ele>
        <time>2012-07-30T05:01:11Z</time>
      </trkpt>
      <trkpt lat="44.22895" lon="6.77075">
        <ele>2052.3</ele>
        <time>2012-07-30T05:01:12Z</time>
      </trkpt>
      <trkpt lat="44.22894" lon="6.77075">
        <ele>2053</ele>
        <time>2012-07-30T05:01:13Z</time>
      </trkpt>
      <trkpt lat="44.22894" lon="6.77075">
        <ele>2053.5</ele>
        <time>2012-07-30T05:01:14Z</time>
      </trkpt>
      <trkpt lat="44.22893" lon="6.77074">
        <ele>2054</ele>
        <time>2012-07-30T05:01:15Z</time>
      </trkpt>
      <trkpt lat="44.22892" lon="6.77074">
        <ele>2054.3</ele>
        <time>2012-07-30T05:01:16Z</time>
      </trkpt>
      <trkpt lat="44.22891" lon="6.77073">
        <ele>2054.3</ele>
        <time>2012-07-30T05:01:17Z</time>
      </trkpt>
      <trkpt lat="44.2289" lon="6.77073">
        <ele>2054.8</ele>
        <time>2012-07-30T05:01:18Z</time>
      </trkpt>
      <trkpt lat="44.22889" lon="6.77073">
        <ele>2054.6</ele>
        <time>2012-07-30T05:01:19Z</time>
      </trkpt>
      <trkpt lat="44.22888" lon="6.77073">
        <ele>2055</ele>
        <time>2012-07-30T05:01:20Z</time>
      </trkpt>
      <trkpt lat="44.2288" lon="6.77063">
        <ele>2064.1</ele>
        <time>2012-07-30T05:01:45Z</time>
      </trkpt>
      <trkpt lat="44.22879" lon="6.77064">
        <ele>2063.8</ele>
        <time>2012-07-30T05:01:46Z</time>
      </trkpt>
      <trkpt lat="44.22879" lon="6.77064">
        <ele>2063.5</ele>
        <time>2012-07-30T05:01:47Z</time>
      </trkpt>
      <trkpt lat="44.22878" lon="6.77064">
        <ele>2063.1</ele>
        <time>2012-07-30T05:01:48Z</time>
      </trkpt>
      <trkpt lat="44.22877" lon="6.77065">
        <ele>2062.5</ele>
        <time>2012-07-30T05:01:49Z</time>
      </trkpt>
      <trkpt lat="44.22871" lon="6.77087">
        <ele>2066.8</ele>
        <time>2012-07-30T05:02:18Z</time>
      </trkpt>
      <trkpt lat="44.22871" lon="6.77088">
        <ele>2066.1</ele>
        <time>2012-07-30T05:02:19Z</time>
      </trkpt>
      <trkpt lat="44.22871" lon="6.7709">
        <ele>2064.6</ele>
        <time>2012-07-30T05:02:20Z</time>
      </trkpt>
      <trkpt lat="44.22871" lon="6.77091">
        <ele>2063.5</ele>
        <time>2012-07-30T05:02:21Z</time>
      </trkpt>
      <trkpt lat="44.22871" lon="6.77091">
        <ele>2063.1</ele>
        <time>2012-07-30T05:02:22Z</time>
      </trkpt>
      <trkpt lat="44.2287" lon="6.77092">
        <ele>2063.6</ele>
        <time>2012-07-30T05:02:23Z</time>
      </trkpt>
      <trkpt lat="44.22869" lon="6.77092">
        <ele>2063.8</ele>
        <time>2012-07-30T05:02:24Z</time>
      </trkpt>
      <trkpt lat="44.22869" lon="6.77092">
        <ele>2064.5</ele>
        <time>2012-07-30T05:02:25Z</time>
      </trkpt>
      <trkpt lat="44.22868" lon="6.77092">
        <ele>2065.1</ele>
        <time>2012-07-30T05:02:26Z</time>
      </trkpt>
      <trkpt lat="44.22868" lon="6.77092">
        <ele>2066</ele>
        <time>2012-07-30T05:02:27Z</time>
      </trkpt>
      <trkpt lat="44.22867" lon="6.77092">
        <ele>2066.5</ele>
        <time>2012-07-30T05:02:28Z</time>
      </trkpt>
      <trkpt lat="44.22866" lon="6.77093">
        <ele>2067.1</ele>
        <time>2012-07-30T05:02:29Z</time>
      </trkpt>
      <trkpt lat="44.22866" lon="6.77093">
        <ele>2067.3</ele>
        <time>2012-07-30T05:02:30Z</time>
      </trkpt>
      <trkpt lat="44.22865" lon="6.77093">
        <ele>2067.5</ele>
        <time>2012-07-30T05:02:31Z</time>
      </trkpt>
      <trkpt lat="44.22864" lon="6.77093">
        <ele>2067.8</ele>
        <time>2012-07-30T05:02:32Z</time>
      </trkpt>
      <trkpt lat="44.22864" lon="6.77093">
        <ele>2067.8</ele>
        <time>2012-07-30T05:02:33Z</time>
      </trkpt>
      <trkpt lat="44.22863" lon="6.77092">
        <ele>2068.3</ele>
        <time>2012-07-30T05:02:34Z</time>
      </trkpt>
      <trkpt lat="44.22863" lon="6.77091">
        <ele>2068.8</ele>
        <time>2012-07-30T05:02:35Z</time>
      </trkpt>
      <trkpt lat="44.22862" lon="6.7709">
        <ele>2068.8</ele>
        <time>2012-07-30T05:02:36Z</time>
      </trkpt>
      <trkpt lat="44.22862" lon="6.77089">
        <ele>2068.8</ele>
        <time>2012-07-30T05:02:37Z</time>
      </trkpt>
      <trkpt lat="44.22861" lon="6.77089">
        <ele>2069</ele>
        <time>2012-07-30T05:02:38Z</time>
      </trkpt>
      <trkpt lat="44.2286" lon="6.7709">
        <ele>2069.1</ele>
        <time>2012-07-30T05:02:39Z</time>
      </trkpt>
      <trkpt lat="44.2286" lon="6.77091">
        <ele>2069.6</ele>
        <time>2012-07-30T05:02:40Z</time>
      </trkpt>
      <trkpt lat="44.22859" lon="6.77092">
        <ele>2070.1</ele>
        <time>2012-07-30T05:02:41Z</time>
      </trkpt>
      <trkpt lat="44.22859" lon="6.77092">
        <ele>2070.1</ele>
        <time>2012-07-30T05:02:42Z</time>
      </trkpt>
      <trkpt lat="44.2286" lon="6.77093">
        <ele>2069.8</ele>
        <time>2012-07-30T05:02:43Z</time>
      </trkpt>
      <trkpt lat="44.2286" lon="6.77094">
        <ele>2069.8</ele>
        <time>2012-07-30T05:02:44Z</time>
      </trkpt>
      <trkpt lat="44.22859" lon="6.77095">
        <ele>2069.6</ele>
        <time>2012-07-30T05:02:45Z</time>
      </trkpt>
      <trkpt lat="44.22858" lon="6.77095">
        <ele>2069.6</ele>
        <time>2012-07-30T05:02:46Z</time>
      </trkpt>
      <trkpt lat="44.22858" lon="6.77096">
        <ele>2069.6</ele>
        <time>2012-07-30T05:02:47Z</time>
      </trkpt>
      <trkpt lat="44.22857" lon="6.77095">
        <ele>2070.1</ele>
        <time>2012-07-30T05:02:48Z</time>
      </trkpt>
      <trkpt lat="44.22856" lon="6.77094">
        <ele>2070.3</ele>
        <time>2012-07-30T05:02:49Z</time>
      </trkpt>
      <trkpt lat="44.22856" lon="6.77093">
        <ele>2070.1</ele>
        <time>2012-07-30T05:02:50Z</time>
      </trkpt>
      <trkpt lat="44.22855" lon="6.77093">
        <ele>2070</ele>
        <time>2012-07-30T05:02:51Z</time>
      </trkpt>
      <trkpt lat="44.22855" lon="6.77093">
        <ele>2069.8</ele>
        <time>2012-07-30T05:02:52Z</time>
      </trkpt>
      <trkpt lat="44.22854" lon="6.77092">
        <ele>2070.1</ele>
        <time>2012-07-30T05:02:53Z</time>
      </trkpt>
      <trkpt lat="44.22853" lon="6.77092">
        <ele>2069.8</ele>
        <time>2012-07-30T05:02:54Z</time>
      </trkpt>
      <trkpt lat="44.22852" lon="6.77092">
        <ele>2070.1</ele>
        <time>2012-07-30T05:02:55Z</time>
      </trkpt>
      <trkpt lat="44.22851" lon="6.77091">
        <ele>2071</ele>
        <time>2012-07-30T05:02:56Z</time>
      </trkpt>
      <trkpt lat="44.22851" lon="6.77091">
        <ele>2071.5</ele>
        <time>2012-07-30T05:02:57Z</time>
      </trkpt>
      <trkpt lat="44.2285" lon="6.7709">
        <ele>2073.1</ele>
        <time>2012-07-30T05:02:58Z</time>
      </trkpt>
      <trkpt lat="44.22849" lon="6.77089">
        <ele>2074.1</ele>
        <time>2012-07-30T05:02:59Z</time>
      </trkpt>
      <trkpt lat="44.22848" lon="6.77088">
        <ele>2075.5</ele>
        <time>2012-07-30T05:03:00Z</time>
      </trkpt>
      <trkpt lat="44.22848" lon="6.77087">
        <ele>2076.8</ele>
        <time>2012-07-30T05:03:01Z</time>
      </trkpt>
      <trkpt lat="44.22846" lon="6.77086">
        <ele>2078.1</ele>
        <time>2012-07-30T05:03:02Z</time>
      </trkpt>
      <trkpt lat="44.22845" lon="6.77085">
        <ele>2079</ele>
        <time>2012-07-30T05:03:03Z</time>
      </trkpt>
      <trkpt lat="44.22846" lon="6.77084">
        <ele>2078.8</ele>
        <time>2012-07-30T05:03:04Z</time>
      </trkpt>
      <trkpt lat="44.22846" lon="6.77084">
        <ele>2078.6</ele>
        <time>2012-07-30T05:03:05Z</time>
      </trkpt>
      <trkpt lat="44.22846" lon="6.77083">
        <ele>2078.1</ele>
        <time>2012-07-30T05:03:06Z</time>
      </trkpt>
      <trkpt lat="44.22847" lon="6.77082">
        <ele>2077.6</ele>
        <time>2012-07-30T05:03:07Z</time>
      </trkpt>
      <trkpt lat="44.22847" lon="6.77081">
        <ele>2077.3</ele>
        <time>2012-07-30T05:03:08Z</time>
      </trkpt>
      <trkpt lat="44.22846" lon="6.7708">
        <ele>2077.8</ele>
        <time>2012-07-30T05:03:09Z</time>
      </trkpt>
      <trkpt lat="44.22821" lon="6.77104">
        <ele>2080.8</ele>
        <time>2012-07-30T05:04:27Z</time>
      </trkpt>
      <trkpt lat="44.22822" lon="6.77106">
        <ele>2081.8</ele>
        <time>2012-07-30T05:04:28Z</time>
      </trkpt>
      <trkpt lat="44.22823" lon="6.77107">
        <ele>2082.5</ele>
        <time>2012-07-30T05:04:29Z</time>
      </trkpt>
      <trkpt lat="44.22824" lon="6.77109">
        <ele>2083.3</ele>
        <time>2012-07-30T05:04:30Z</time>
      </trkpt>
      <trkpt lat="44.22824" lon="6.77111">
        <ele>2084.3</ele>
        <time>2012-07-30T05:04:31Z</time>
      </trkpt>
      <trkpt lat="44.22825" lon="6.77112">
        <ele>2084.5</ele>
        <time>2012-07-30T05:04:32Z</time>
      </trkpt>
      <trkpt lat="44.22826" lon="6.77113">
        <ele>2084.3</ele>
        <time>2012-07-30T05:04:33Z</time>
      </trkpt>
      <trkpt lat="44.22827" lon="6.77114">
        <ele>2085</ele>
        <time>2012-07-30T05:04:34Z</time>
      </trkpt>
      <trkpt lat="44.22816" lon="6.77138">
        <ele>2090.3</ele>
        <time>2012-07-30T05:05:12Z</time>
      </trkpt>
      <trkpt lat="44.22815" lon="6.77138">
        <ele>2090.8</ele>
        <time>2012-07-30T05:05:13Z</time>
      </trkpt>
      <trkpt lat="44.22814" lon="6.77138">
        <ele>2091.6</ele>
        <time>2012-07-30T05:05:14Z</time>
      </trkpt>
      <trkpt lat="44.22813" lon="6.77139">
        <ele>2091.8</ele>
        <time>2012-07-30T05:05:15Z</time>
      </trkpt>
      <trkpt lat="44.22802" lon="6.77165">
        <ele>2093.8</ele>
        <time>2012-07-30T05:05:43Z</time>
      </trkpt>
      <trkpt lat="44.22802" lon="6.77166">
        <ele>2093.8</ele>
        <time>2012-07-30T05:05:44Z</time>
      </trkpt>
      <trkpt lat="44.22794" lon="6.77206">
        <ele>2097.8</ele>
        <time>2012-07-30T05:06:39Z</time>
      </trkpt>
      <trkpt lat="44.22793" lon="6.77206">
        <ele>2098.3</ele>
        <time>2012-07-30T05:06:40Z</time>
      </trkpt>
      <trkpt lat="44.22792" lon="6.77207">
        <ele>2098.8</ele>
        <time>2012-07-30T05:06:41Z</time>
      </trkpt>
      <trkpt lat="44.22792" lon="6.77209">
        <ele>2099.8</ele>
        <time>2012-07-30T05:06:42Z</time>
      </trkpt>
      <trkpt lat="44.22786" lon="6.77214">
        <ele>2104.6</ele>
        <time>2012-07-30T05:06:48Z</time>
      </trkpt>
      <trkpt lat="44.22785" lon="6.77215">
        <ele>2105.6</ele>
        <time>2012-07-30T05:06:49Z</time>
      </trkpt>
      <trkpt lat="44.22784" lon="6.77215">
        <ele>2106.3</ele>
        <time>2012-07-30T05:06:50Z</time>
      </trkpt>
      <trkpt lat="44.22783" lon="6.77216">
        <ele>2107.1</ele>
        <time>2012-07-30T05:06:51Z</time>
      </trkpt>
      <trkpt lat="44.22783" lon="6.77217">
        <ele>2107.8</ele>
        <time>2012-07-30T05:06:52Z</time>
      </trkpt>
      <trkpt lat="44.22782" lon="6.77218">
        <ele>2107.6</ele>
        <time>2012-07-30T05:06:53Z</time>
      </trkpt>
      <trkpt lat="44.22782" lon="6.77219">
        <ele>2107.6</ele>
        <time>2012-07-30T05:06:54Z</time>
      </trkpt>
      <trkpt lat="44.22781" lon="6.77219">
        <ele>2107.6</ele>
        <time>2012-07-30T05:06:55Z</time>
      </trkpt>
      <trkpt lat="44.2278" lon="6.77219">
        <ele>2108.1</ele>
        <time>2012-07-30T05:06:56Z</time>
      </trkpt>
      <trkpt lat="44.22777" lon="6.77221">
        <ele>2108</ele>
        <time>2012-07-30T05:07:00Z</time>
      </trkpt>
      <trkpt lat="44.22776" lon="6.77222">
        <ele>2107.5</ele>
        <time>2012-07-30T05:07:01Z</time>
      </trkpt>
      <trkpt lat="44.22771" lon="6.77228">
        <ele>2109.1</ele>
        <time>2012-07-30T05:07:31Z</time>
      </trkpt>
      <trkpt lat="44.22771" lon="6.77226">
        <ele>2106.6</ele>
        <time>2012-07-30T05:07:32Z</time>
      </trkpt>
      <trkpt lat="44.22772" lon="6.77224">
        <ele>2104.8</ele>
        <time>2012-07-30T05:07:33Z</time>
      </trkpt>
      <trkpt lat="44.22772" lon="6.77223">
        <ele>2103.5</ele>
        <time>2012-07-30T05:07:34Z</time>
      </trkpt>
      <trkpt lat="44.22773" lon="6.77221">
        <ele>2102.6</ele>
        <time>2012-07-30T05:07:35Z</time>
      </trkpt>
      <trkpt lat="44.22773" lon="6.7722">
        <ele>2101.8</ele>
        <time>2012-07-30T05:07:36Z</time>
      </trkpt>
      <trkpt lat="44.22773" lon="6.7722">
        <ele>2101.1</ele>
        <time>2012-07-30T05:07:37Z</time>
      </trkpt>
      <trkpt lat="44.22773" lon="6.77219">
        <ele>2100.8</ele>
        <time>2012-07-30T05:07:38Z</time>
      </trkpt>
      <trkpt lat="44.22773" lon="6.77219">
        <ele>2100.6</ele>
        <time>2012-07-30T05:07:39Z</time>
      </trkpt>
      <trkpt lat="44.22773" lon="6.7722">
        <ele>2101.1</ele>
        <time>2012-07-30T05:07:44Z</time>
      </trkpt>
      <trkpt lat="44.22772" lon="6.77222">
        <ele>2100.6</ele>
        <time>2012-07-30T05:07:45Z</time>
      </trkpt>
      <trkpt lat="44.22772" lon="6.77221">
        <ele>2099.1</ele>
        <time>2012-07-30T05:07:46Z</time>
      </trkpt>
      <trkpt lat="44.22772" lon="6.77222">
        <ele>2099</ele>
        <time>2012-07-30T05:07:47Z</time>
      </trkpt>
      <trkpt lat="44.22772" lon="6.77223">
        <ele>2098.3</ele>
        <time>2012-07-30T05:07:48Z</time>
      </trkpt>
      <trkpt lat="44.22772" lon="6.77224">
        <ele>2098.1</ele>
        <time>2012-07-30T05:07:49Z</time>
      </trkpt>
      <trkpt lat="44.22772" lon="6.77224">
        <ele>2098.1</ele>
        <time>2012-07-30T05:07:50Z</time>
      </trkpt>
      <trkpt lat="44.22772" lon="6.77224">
        <ele>2098.1</ele>
        <time>2012-07-30T05:07:51Z</time>
      </trkpt>
      <trkpt lat="44.22772" lon="6.77224">
        <ele>2098.3</ele>
        <time>2012-07-30T05:07:52Z</time>
      </trkpt>
      <trkpt lat="44.22772" lon="6.77224">
        <ele>2098.6</ele>
        <time>2012-07-30T05:07:53Z</time>
      </trkpt>
      <trkpt lat="44.22772" lon="6.77225">
        <ele>2098.8</ele>
        <time>2012-07-30T05:07:54Z</time>
      </trkpt>
      <trkpt lat="44.22772" lon="6.77225">
        <ele>2099.1</ele>
        <time>2012-07-30T05:07:55Z</time>
      </trkpt>
      <trkpt lat="44.22772" lon="6.77225">
        <ele>2099.3</ele>
        <time>2012-07-30T05:07:56Z</time>
      </trkpt>
      <trkpt lat="44.22772" lon="6.77226">
        <ele>2099.3</ele>
        <time>2012-07-30T05:07:57Z</time>
      </trkpt>
      <trkpt lat="44.22772" lon="6.77226">
        <ele>2099.5</ele>
        <time>2012-07-30T05:07:58Z</time>
      </trkpt>
      <trkpt lat="44.22772" lon="6.77226">
        <ele>2099.3</ele>
        <time>2012-07-30T05:07:59Z</time>
      </trkpt>
      <trkpt lat="44.22772" lon="6.77226">
        <ele>2099.6</ele>
        <time>2012-07-30T05:08:00Z</time>
      </trkpt>
      <trkpt lat="44.22772" lon="6.77227">
        <ele>2100.1</ele>
        <time>2012-07-30T05:08:01Z</time>
      </trkpt>
      <trkpt lat="44.22772" lon="6.77227">
        <ele>2100.3</ele>
        <time>2012-07-30T05:08:02Z</time>
      </trkpt>
      <trkpt lat="44.22772" lon="6.77228">
        <ele>2100.8</ele>
        <time>2012-07-30T05:08:03Z</time>
      </trkpt>
      <trkpt lat="44.22772" lon="6.77228">
        <ele>2101.1</ele>
        <time>2012-07-30T05:08:04Z</time>
      </trkpt>
      <trkpt lat="44.22772" lon="6.77228">
        <ele>2101.3</ele>
        <time>2012-07-30T05:08:05Z</time>
      </trkpt>
      <trkpt lat="44.22772" lon="6.77228">
        <ele>2101.6</ele>
        <time>2012-07-30T05:08:06Z</time>
      </trkpt>
      <trkpt lat="44.22772" lon="6.77228">
        <ele>2101.8</ele>
        <time>2012-07-30T05:08:07Z</time>
      </trkpt>
      <trkpt lat="44.22772" lon="6.77229">
        <ele>2101.5</ele>
        <time>2012-07-30T05:08:08Z</time>
      </trkpt>
      <trkpt lat="44.22773" lon="6.7723">
        <ele>2101.3</ele>
        <time>2012-07-30T05:08:09Z</time>
      </trkpt>
      <trkpt lat="44.22773" lon="6.77231">
        <ele>2101.1</ele>
        <time>2012-07-30T05:08:10Z</time>
      </trkpt>
      <trkpt lat="44.22773" lon="6.77231">
        <ele>2101.1</ele>
        <time>2012-07-30T05:08:11Z</time>
      </trkpt>
      <trkpt lat="44.2277" lon="6.77233">
        <ele>2104.1</ele>
        <time>2012-07-30T05:08:21Z</time>
      </trkpt>
      <trkpt lat="44.22763" lon="6.77237">
        <ele>2103.1</ele>
        <time>2012-07-30T05:08:29Z</time>
      </trkpt>
      <trkpt lat="44.22762" lon="6.77238">
        <ele>2103.1</ele>
        <time>2012-07-30T05:08:30Z</time>
      </trkpt>
      <trkpt lat="44.22761" lon="6.7724">
        <ele>2103.3</ele>
        <time>2012-07-30T05:08:32Z</time>
      </trkpt>
      <trkpt lat="44.22761" lon="6.77241">
        <ele>2103.3</ele>
        <time>2012-07-30T05:08:33Z</time>
      </trkpt>
      <trkpt lat="44.22758" lon="6.77248">
        <ele>2104.3</ele>
        <time>2012-07-30T05:08:38Z</time>
      </trkpt>
      <trkpt lat="44.22751" lon="6.77264">
        <ele>2104.8</ele>
        <time>2012-07-30T05:08:49Z</time>
      </trkpt>
      <trkpt lat="44.22751" lon="6.77265">
        <ele>2104.6</ele>
        <time>2012-07-30T05:08:50Z</time>
      </trkpt>
      <trkpt lat="44.22751" lon="6.77265">
        <ele>2102.6</ele>
        <time>2012-07-30T05:08:51Z</time>
      </trkpt>
      <trkpt lat="44.22749" lon="6.77269">
        <ele>2100.8</ele>
        <time>2012-07-30T05:08:57Z</time>
      </trkpt>
      <trkpt lat="44.22748" lon="6.7727">
        <ele>2101.1</ele>
        <time>2012-07-30T05:08:58Z</time>
      </trkpt>
      <trkpt lat="44.22748" lon="6.77271">
        <ele>2101.3</ele>
        <time>2012-07-30T05:08:59Z</time>
      </trkpt>
      <trkpt lat="44.22747" lon="6.77271">
        <ele>2101.6</ele>
        <time>2012-07-30T05:09:00Z</time>
      </trkpt>
      <trkpt lat="44.22747" lon="6.77272">
        <ele>2101.8</ele>
        <time>2012-07-30T05:09:01Z</time>
      </trkpt>
      <trkpt lat="44.22747" lon="6.77274">
        <ele>2101.8</ele>
        <time>2012-07-30T05:09:02Z</time>
      </trkpt>
      <trkpt lat="44.22746" lon="6.77275">
        <ele>2102</ele>
        <time>2012-07-30T05:09:03Z</time>
      </trkpt>
      <trkpt lat="44.22746" lon="6.77276">
        <ele>2102.3</ele>
        <time>2012-07-30T05:09:04Z</time>
      </trkpt>
      <trkpt lat="44.22746" lon="6.77277">
        <ele>2102.3</ele>
        <time>2012-07-30T05:09:05Z</time>
      </trkpt>
      <trkpt lat="44.22742" lon="6.77288">
        <ele>2102</ele>
        <time>2012-07-30T05:09:14Z</time>
      </trkpt>
      <trkpt lat="44.22734" lon="6.77317">
        <ele>2097.3</ele>
        <time>2012-07-30T05:09:41Z</time>
      </trkpt>
      <trkpt lat="44.22733" lon="6.77319">
        <ele>2099.1</ele>
        <time>2012-07-30T05:09:42Z</time>
      </trkpt>
      <trkpt lat="44.22733" lon="6.77322">
        <ele>2100.6</ele>
        <time>2012-07-30T05:09:43Z</time>
      </trkpt>
      <trkpt lat="44.22732" lon="6.77326">
        <ele>2102.5</ele>
        <time>2012-07-30T05:09:45Z</time>
      </trkpt>
      <trkpt lat="44.22732" lon="6.77329">
        <ele>2103.3</ele>
        <time>2012-07-30T05:09:47Z</time>
      </trkpt>
      <trkpt lat="44.22725" lon="6.77331">
        <ele>2106.6</ele>
        <time>2012-07-30T05:09:59Z</time>
      </trkpt>
      <trkpt lat="44.22725" lon="6.7733">
        <ele>2106.6</ele>
        <time>2012-07-30T05:10:00Z</time>
      </trkpt>
      <trkpt lat="44.22725" lon="6.7733">
        <ele>2106.6</ele>
        <time>2012-07-30T05:10:01Z</time>
      </trkpt>
      <trkpt lat="44.22724" lon="6.7733">
        <ele>2106.6</ele>
        <time>2012-07-30T05:10:02Z</time>
      </trkpt>
      <trkpt lat="44.22724" lon="6.7733">
        <ele>2106.6</ele>
        <time>2012-07-30T05:10:03Z</time>
      </trkpt>
      <trkpt lat="44.22724" lon="6.77331">
        <ele>2106.3</ele>
        <time>2012-07-30T05:10:04Z</time>
      </trkpt>
      <trkpt lat="44.22724" lon="6.77332">
        <ele>2106</ele>
        <time>2012-07-30T05:10:05Z</time>
      </trkpt>
      <trkpt lat="44.22724" lon="6.77334">
        <ele>2106</ele>
        <time>2012-07-30T05:10:06Z</time>
      </trkpt>
      <trkpt lat="44.22724" lon="6.77335">
        <ele>2105.6</ele>
        <time>2012-07-30T05:10:07Z</time>
      </trkpt>
      <trkpt lat="44.22724" lon="6.77336">
        <ele>2105.1</ele>
        <time>2012-07-30T05:10:08Z</time>
      </trkpt>
      <trkpt lat="44.22724" lon="6.77337">
        <ele>2104.5</ele>
        <time>2012-07-30T05:10:09Z</time>
      </trkpt>
      <trkpt lat="44.22724" lon="6.77338">
        <ele>2103.8</ele>
        <time>2012-07-30T05:10:10Z</time>
      </trkpt>
      <trkpt lat="44.22724" lon="6.7734">
        <ele>2103.5</ele>
        <time>2012-07-30T05:10:11Z</time>
      </trkpt>
      <trkpt lat="44.22719" lon="6.77347">
        <ele>2109.8</ele>
        <time>2012-07-30T05:10:27Z</time>
      </trkpt>
      <trkpt lat="44.22719" lon="6.77348">
        <ele>2110.1</ele>
        <time>2012-07-30T05:10:28Z</time>
      </trkpt>
      <trkpt lat="44.2272" lon="6.7735">
        <ele>2109.5</ele>
        <time>2012-07-30T05:10:29Z</time>
      </trkpt>
      <trkpt lat="44.2272" lon="6.77351">
        <ele>2109.1</ele>
        <time>2012-07-30T05:10:30Z</time>
      </trkpt>
      <trkpt lat="44.2272" lon="6.77356">
        <ele>2108.3</ele>
        <time>2012-07-30T05:10:33Z</time>
      </trkpt>
      <trkpt lat="44.2272" lon="6.77358">
        <ele>2108.1</ele>
        <time>2012-07-30T05:10:34Z</time>
      </trkpt>
      <trkpt lat="44.2272" lon="6.7736">
        <ele>2107.8</ele>
        <time>2012-07-30T05:10:35Z</time>
      </trkpt>
      <trkpt lat="44.2272" lon="6.77361">
        <ele>2107.6</ele>
        <time>2012-07-30T05:10:36Z</time>
      </trkpt>
      <trkpt lat="44.2272" lon="6.77363">
        <ele>2107.3</ele>
        <time>2012-07-30T05:10:37Z</time>
      </trkpt>
      <trkpt lat="44.2272" lon="6.77364">
        <ele>2107.3</ele>
        <time>2012-07-30T05:10:38Z</time>
      </trkpt>
      <trkpt lat="44.22719" lon="6.77366">
        <ele>2107.8</ele>
        <time>2012-07-30T05:10:39Z</time>
      </trkpt>
      <trkpt lat="44.22719" lon="6.77367">
        <ele>2107.8</ele>
        <time>2012-07-30T05:10:40Z</time>
      </trkpt>
      <trkpt lat="44.22719" lon="6.77369">
        <ele>2108.1</ele>
        <time>2012-07-30T05:10:41Z</time>
      </trkpt>
      <trkpt lat="44.22719" lon="6.7737">
        <ele>2108.1</ele>
        <time>2012-07-30T05:10:42Z</time>
      </trkpt>
      <trkpt lat="44.22719" lon="6.77371">
        <ele>2108.1</ele>
        <time>2012-07-30T05:10:43Z</time>
      </trkpt>
      <trkpt lat="44.22719" lon="6.77371">
        <ele>2108.1</ele>
        <time>2012-07-30T05:10:44Z</time>
      </trkpt>
      <trkpt lat="44.22719" lon="6.77373">
        <ele>2108.1</ele>
        <time>2012-07-30T05:10:45Z</time>
      </trkpt>
      <trkpt lat="44.22719" lon="6.77374">
        <ele>2108.5</ele>
        <time>2012-07-30T05:10:46Z</time>
      </trkpt>
      <trkpt lat="44.22718" lon="6.77375">
        <ele>2108.8</ele>
        <time>2012-07-30T05:10:47Z</time>
      </trkpt>
      <trkpt lat="44.22718" lon="6.77377">
        <ele>2109.1</ele>
        <time>2012-07-30T05:10:48Z</time>
      </trkpt>
      <trkpt lat="44.22718" lon="6.77378">
        <ele>2109.3</ele>
        <time>2012-07-30T05:10:49Z</time>
      </trkpt>
      <trkpt lat="44.22718" lon="6.7738">
        <ele>2109.8</ele>
        <time>2012-07-30T05:10:50Z</time>
      </trkpt>
      <trkpt lat="44.22717" lon="6.77381">
        <ele>2110.1</ele>
        <time>2012-07-30T05:10:51Z</time>
      </trkpt>
      <trkpt lat="44.22715" lon="6.7742">
        <ele>2105.6</ele>
        <time>2012-07-30T05:11:25Z</time>
      </trkpt>
      <trkpt lat="44.22715" lon="6.77422">
        <ele>2105.6</ele>
        <time>2012-07-30T05:11:26Z</time>
      </trkpt>
      <trkpt lat="44.22716" lon="6.77423">
        <ele>2105.5</ele>
        <time>2012-07-30T05:11:27Z</time>
      </trkpt>
      <trkpt lat="44.22716" lon="6.77425">
        <ele>2105.6</ele>
        <time>2012-07-30T05:11:28Z</time>
      </trkpt>
      <trkpt lat="44.22717" lon="6.77426">
        <ele>2105.3</ele>
        <time>2012-07-30T05:11:29Z</time>
      </trkpt>
      <trkpt lat="44.22717" lon="6.77427">
        <ele>2105.1</ele>
        <time>2012-07-30T05:11:30Z</time>
      </trkpt>
      <trkpt lat="44.22717" lon="6.77428">
        <ele>2104.8</ele>
        <time>2012-07-30T05:11:31Z</time>
      </trkpt>
      <trkpt lat="44.22718" lon="6.7743">
        <ele>2104.8</ele>
        <time>2012-07-30T05:11:32Z</time>
      </trkpt>
      <trkpt lat="44.22718" lon="6.77431">
        <ele>2104.5</ele>
        <time>2012-07-30T05:11:33Z</time>
      </trkpt>
      <trkpt lat="44.22718" lon="6.77433">
        <ele>2104.3</ele>
        <time>2012-07-30T05:11:34Z</time>
      </trkpt>
      <trkpt lat="44.22718" lon="6.77434">
        <ele>2104.3</ele>
        <time>2012-07-30T05:11:35Z</time>
      </trkpt>
      <trkpt lat="44.22718" lon="6.77435">
        <ele>2104.1</ele>
        <time>2012-07-30T05:11:36Z</time>
      </trkpt>
      <trkpt lat="44.22718" lon="6.77435">
        <ele>2103.6</ele>
        <time>2012-07-30T05:11:37Z</time>
      </trkpt>
      <trkpt lat="44.22717" lon="6.77436">
        <ele>2103.3</ele>
        <time>2012-07-30T05:11:38Z</time>
      </trkpt>
      <trkpt lat="44.22717" lon="6.77437">
        <ele>2103.3</ele>
        <time>2012-07-30T05:11:39Z</time>
      </trkpt>
      <trkpt lat="44.22717" lon="6.77438">
        <ele>2103.6</ele>
        <time>2012-07-30T05:11:40Z</time>
      </trkpt>
      <trkpt lat="44.22716" lon="6.77439">
        <ele>2103.8</ele>
        <time>2012-07-30T05:11:41Z</time>
      </trkpt>
      <trkpt lat="44.22716" lon="6.7744">
        <ele>2103.6</ele>
        <time>2012-07-30T05:11:42Z</time>
      </trkpt>
      <trkpt lat="44.22716" lon="6.77442">
        <ele>2104.1</ele>
        <time>2012-07-30T05:11:43Z</time>
      </trkpt>
      <trkpt lat="44.22716" lon="6.77444">
        <ele>2104.3</ele>
        <time>2012-07-30T05:11:44Z</time>
      </trkpt>
      <trkpt lat="44.22716" lon="6.77446">
        <ele>2104.5</ele>
        <time>2012-07-30T05:11:45Z</time>
      </trkpt>
      <trkpt lat="44.22716" lon="6.77447">
        <ele>2104.1</ele>
        <time>2012-07-30T05:11:46Z</time>
      </trkpt>
      <trkpt lat="44.22716" lon="6.77448">
        <ele>2103.8</ele>
        <time>2012-07-30T05:11:47Z</time>
      </trkpt>
      <trkpt lat="44.22716" lon="6.7745">
        <ele>2104</ele>
        <time>2012-07-30T05:11:48Z</time>
      </trkpt>
      <trkpt lat="44.22716" lon="6.77451">
        <ele>2104</ele>
        <time>2012-07-30T05:11:49Z</time>
      </trkpt>
      <trkpt lat="44.22716" lon="6.77452">
        <ele>2103.6</ele>
        <time>2012-07-30T05:11:50Z</time>
      </trkpt>
      <trkpt lat="44.22715" lon="6.77453">
        <ele>2104</ele>
        <time>2012-07-30T05:11:51Z</time>
      </trkpt>
      <trkpt lat="44.22715" lon="6.77455">
        <ele>2104.3</ele>
        <time>2012-07-30T05:11:52Z</time>
      </trkpt>
      <trkpt lat="44.22715" lon="6.77456">
        <ele>2104.3</ele>
        <time>2012-07-30T05:11:53Z</time>
      </trkpt>
      <trkpt lat="44.22714" lon="6.77457">
        <ele>2104.1</ele>
        <time>2012-07-30T05:11:54Z</time>
      </trkpt>
      <trkpt lat="44.22714" lon="6.77459">
        <ele>2104.1</ele>
        <time>2012-07-30T05:11:55Z</time>
      </trkpt>
      <trkpt lat="44.22714" lon="6.7746">
        <ele>2104.5</ele>
        <time>2012-07-30T05:11:56Z</time>
      </trkpt>
      <trkpt lat="44.22714" lon="6.77462">
        <ele>2104.8</ele>
        <time>2012-07-30T05:11:57Z</time>
      </trkpt>
      <trkpt lat="44.22713" lon="6.77463">
        <ele>2105.1</ele>
        <time>2012-07-30T05:11:58Z</time>
      </trkpt>
      <trkpt lat="44.22713" lon="6.77464">
        <ele>2105.1</ele>
        <time>2012-07-30T05:11:59Z</time>
      </trkpt>
      <trkpt lat="44.22712" lon="6.77465">
        <ele>2105.1</ele>
        <time>2012-07-30T05:12:00Z</time>
      </trkpt>
      <trkpt lat="44.22712" lon="6.77467">
        <ele>2105.3</ele>
        <time>2012-07-30T05:12:01Z</time>
      </trkpt>
      <trkpt lat="44.22711" lon="6.77468">
        <ele>2105.5</ele>
        <time>2012-07-30T05:12:02Z</time>
      </trkpt>
      <trkpt lat="44.22711" lon="6.77469">
        <ele>2105.6</ele>
        <time>2012-07-30T05:12:03Z</time>
      </trkpt>
      <trkpt lat="44.22711" lon="6.77471">
        <ele>2105.8</ele>
        <time>2012-07-30T05:12:04Z</time>
      </trkpt>
      <trkpt lat="44.2271" lon="6.77472">
        <ele>2106.1</ele>
        <time>2012-07-30T05:12:05Z</time>
      </trkpt>
      <trkpt lat="44.2271" lon="6.77473">
        <ele>2105.8</ele>
        <time>2012-07-30T05:12:06Z</time>
      </trkpt>
      <trkpt lat="44.2271" lon="6.77475">
        <ele>2105.6</ele>
        <time>2012-07-30T05:12:07Z</time>
      </trkpt>
      <trkpt lat="44.2271" lon="6.77476">
        <ele>2105.1</ele>
        <time>2012-07-30T05:12:08Z</time>
      </trkpt>
      <trkpt lat="44.2271" lon="6.77478">
        <ele>2105</ele>
        <time>2012-07-30T05:12:09Z</time>
      </trkpt>
      <trkpt lat="44.2271" lon="6.77479">
        <ele>2104.6</ele>
        <time>2012-07-30T05:12:10Z</time>
      </trkpt>
      <trkpt lat="44.2271" lon="6.77481">
        <ele>2104.6</ele>
        <time>2012-07-30T05:12:11Z</time>
      </trkpt>
      <trkpt lat="44.22709" lon="6.77483">
        <ele>2105</ele>
        <time>2012-07-30T05:12:12Z</time>
      </trkpt>
      <trkpt lat="44.22709" lon="6.77485">
        <ele>2105.5</ele>
        <time>2012-07-30T05:12:13Z</time>
      </trkpt>
      <trkpt lat="44.22708" lon="6.77486">
        <ele>2105.8</ele>
        <time>2012-07-30T05:12:14Z</time>
      </trkpt>
      <trkpt lat="44.22708" lon="6.77487">
        <ele>2106.1</ele>
        <time>2012-07-30T05:12:15Z</time>
      </trkpt>
      <trkpt lat="44.22708" lon="6.77489">
        <ele>2106.6</ele>
        <time>2012-07-30T05:12:16Z</time>
      </trkpt>
      <trkpt lat="44.22708" lon="6.7749">
        <ele>2106.3</ele>
        <time>2012-07-30T05:12:17Z</time>
      </trkpt>
      <trkpt lat="44.22707" lon="6.77491">
        <ele>2107.3</ele>
        <time>2012-07-30T05:12:18Z</time>
      </trkpt>
      <trkpt lat="44.22706" lon="6.77492">
        <ele>2107.3</ele>
        <time>2012-07-30T05:12:19Z</time>
      </trkpt>
      <trkpt lat="44.22706" lon="6.77492">
        <ele>2108.1</ele>
        <time>2012-07-30T05:12:20Z</time>
      </trkpt>
      <trkpt lat="44.22706" lon="6.77492">
        <ele>2108.8</ele>
        <time>2012-07-30T05:12:21Z</time>
      </trkpt>
      <trkpt lat="44.22705" lon="6.77492">
        <ele>2109.6</ele>
        <time>2012-07-30T05:12:22Z</time>
      </trkpt>
      <trkpt lat="44.22705" lon="6.77492">
        <ele>2110.6</ele>
        <time>2012-07-30T05:12:23Z</time>
      </trkpt>
      <trkpt lat="44.22704" lon="6.77492">
        <ele>2111.1</ele>
        <time>2012-07-30T05:12:24Z</time>
      </trkpt>
      <trkpt lat="44.22704" lon="6.77491">
        <ele>2112</ele>
        <time>2012-07-30T05:12:25Z</time>
      </trkpt>
      <trkpt lat="44.22702" lon="6.7749">
        <ele>2113.3</ele>
        <time>2012-07-30T05:12:26Z</time>
      </trkpt>
      <trkpt lat="44.22702" lon="6.7749">
        <ele>2114.1</ele>
        <time>2012-07-30T05:12:27Z</time>
      </trkpt>
      <trkpt lat="44.22702" lon="6.7749">
        <ele>2114.6</ele>
        <time>2012-07-30T05:12:28Z</time>
      </trkpt>
      <trkpt lat="44.22702" lon="6.77491">
        <ele>2114.6</ele>
        <time>2012-07-30T05:12:29Z</time>
      </trkpt>
      <trkpt lat="44.22703" lon="6.77492">
        <ele>2114.6</ele>
        <time>2012-07-30T05:12:30Z</time>
      </trkpt>
      <trkpt lat="44.22695" lon="6.77501">
        <ele>2119.8</ele>
        <time>2012-07-30T05:12:44Z</time>
      </trkpt>
      <trkpt lat="44.22695" lon="6.77503">
        <ele>2120.1</ele>
        <time>2012-07-30T05:12:45Z</time>
      </trkpt>
      <trkpt lat="44.22694" lon="6.77507">
        <ele>2121.5</ele>
        <time>2012-07-30T05:12:48Z</time>
      </trkpt>
      <trkpt lat="44.22691" lon="6.77518">
        <ele>2124.6</ele>
        <time>2012-07-30T05:12:55Z</time>
      </trkpt>
      <trkpt lat="44.22691" lon="6.7752">
        <ele>2125.1</ele>
        <time>2012-07-30T05:12:56Z</time>
      </trkpt>
      <trkpt lat="44.22689" lon="6.77535">
        <ele>2128.1</ele>
        <time>2012-07-30T05:13:05Z</time>
      </trkpt>
      <trkpt lat="44.22689" lon="6.77537">
        <ele>2128</ele>
        <time>2012-07-30T05:13:06Z</time>
      </trkpt>
      <trkpt lat="44.2269" lon="6.77538">
        <ele>2127.3</ele>
        <time>2012-07-30T05:13:07Z</time>
      </trkpt>
      <trkpt lat="44.2269" lon="6.7754">
        <ele>2127.6</ele>
        <time>2012-07-30T05:13:08Z</time>
      </trkpt>
      <trkpt lat="44.2269" lon="6.77542">
        <ele>2128</ele>
        <time>2012-07-30T05:13:09Z</time>
      </trkpt>
      <trkpt lat="44.22689" lon="6.77543">
        <ele>2127.5</ele>
        <time>2012-07-30T05:13:10Z</time>
      </trkpt>
      <trkpt lat="44.22689" lon="6.77544">
        <ele>2127.3</ele>
        <time>2012-07-30T05:13:11Z</time>
      </trkpt>
      <trkpt lat="44.22688" lon="6.77545">
        <ele>2127.1</ele>
        <time>2012-07-30T05:13:12Z</time>
      </trkpt>
      <trkpt lat="44.22686" lon="6.77546">
        <ele>2126.8</ele>
        <time>2012-07-30T05:13:14Z</time>
      </trkpt>
      <trkpt lat="44.22685" lon="6.77548">
        <ele>2126.8</ele>
        <time>2012-07-30T05:13:15Z</time>
      </trkpt>
      <trkpt lat="44.22685" lon="6.77549">
        <ele>2126.6</ele>
        <time>2012-07-30T05:13:16Z</time>
      </trkpt>
      <trkpt lat="44.22683" lon="6.77549">
        <ele>2126.1</ele>
        <time>2012-07-30T05:13:18Z</time>
      </trkpt>
      <trkpt lat="44.2268" lon="6.7755">
        <ele>2124.6</ele>
        <time>2012-07-30T05:13:23Z</time>
      </trkpt>
      <trkpt lat="44.22678" lon="6.77551">
        <ele>2123.1</ele>
        <time>2012-07-30T05:13:25Z</time>
      </trkpt>
      <trkpt lat="44.22678" lon="6.77551">
        <ele>2122.8</ele>
        <time>2012-07-30T05:13:26Z</time>
      </trkpt>
      <trkpt lat="44.22676" lon="6.77554">
        <ele>2123.3</ele>
        <time>2012-07-30T05:13:28Z</time>
      </trkpt>
      <trkpt lat="44.22676" lon="6.77555">
        <ele>2123.3</ele>
        <time>2012-07-30T05:13:29Z</time>
      </trkpt>
      <trkpt lat="44.22668" lon="6.77565">
        <ele>2123.8</ele>
        <time>2012-07-30T05:13:41Z</time>
      </trkpt>
      <trkpt lat="44.22668" lon="6.77565">
        <ele>2123.3</ele>
        <time>2012-07-30T05:13:42Z</time>
      </trkpt>
      <trkpt lat="44.22667" lon="6.77567">
        <ele>2123.5</ele>
        <time>2012-07-30T05:13:43Z</time>
      </trkpt>
      <trkpt lat="44.22666" lon="6.7757">
        <ele>2122.8</ele>
        <time>2012-07-30T05:13:46Z</time>
      </trkpt>
      <trkpt lat="44.22665" lon="6.77572">
        <ele>2123.1</ele>
        <time>2012-07-30T05:13:47Z</time>
      </trkpt>
      <trkpt lat="44.22653" lon="6.77596">
        <ele>2128</ele>
        <time>2012-07-30T05:14:11Z</time>
      </trkpt>
      <trkpt lat="44.22652" lon="6.77597">
        <ele>2128</ele>
        <time>2012-07-30T05:14:12Z</time>
      </trkpt>
      <trkpt lat="44.22649" lon="6.77599">
        <ele>2128.8</ele>
        <time>2012-07-30T05:14:15Z</time>
      </trkpt>
      <trkpt lat="44.22649" lon="6.77601">
        <ele>2129.6</ele>
        <time>2012-07-30T05:14:16Z</time>
      </trkpt>
      <trkpt lat="44.22648" lon="6.77603">
        <ele>2130.1</ele>
        <time>2012-07-30T05:14:17Z</time>
      </trkpt>
      <trkpt lat="44.22647" lon="6.77607">
        <ele>2131.6</ele>
        <time>2012-07-30T05:14:19Z</time>
      </trkpt>
      <trkpt lat="44.22644" lon="6.77626">
        <ele>2158.1</ele>
        <time>2012-07-30T05:14:46Z</time>
      </trkpt>
      <trkpt lat="44.22644" lon="6.77627">
        <ele>2160.1</ele>
        <time>2012-07-30T05:14:47Z</time>
      </trkpt>
      <trkpt lat="44.22644" lon="6.77626">
        <ele>2159.6</ele>
        <time>2012-07-30T05:14:48Z</time>
      </trkpt>
      <trkpt lat="44.22644" lon="6.77626">
        <ele>2159.6</ele>
        <time>2012-07-30T05:14:49Z</time>
      </trkpt>
      <trkpt lat="44.22644" lon="6.77626">
        <ele>2158.3</ele>
        <time>2012-07-30T05:14:50Z</time>
      </trkpt>
      <trkpt lat="44.22645" lon="6.77627">
        <ele>2158.3</ele>
        <time>2012-07-30T05:14:51Z</time>
      </trkpt>
      <trkpt lat="44.22645" lon="6.77629">
        <ele>2159.6</ele>
        <time>2012-07-30T05:14:52Z</time>
      </trkpt>
      <trkpt lat="44.22645" lon="6.7763">
        <ele>2159.6</ele>
        <time>2012-07-30T05:14:53Z</time>
      </trkpt>
      <trkpt lat="44.22646" lon="6.77629">
        <ele>2158.8</ele>
        <time>2012-07-30T05:14:54Z</time>
      </trkpt>
      <trkpt lat="44.22646" lon="6.7763">
        <ele>2158.6</ele>
        <time>2012-07-30T05:14:55Z</time>
      </trkpt>
      <trkpt lat="44.22646" lon="6.7763">
        <ele>2159.3</ele>
        <time>2012-07-30T05:14:56Z</time>
      </trkpt>
      <trkpt lat="44.22645" lon="6.7763">
        <ele>2159.8</ele>
        <time>2012-07-30T05:14:57Z</time>
      </trkpt>
      <trkpt lat="44.22645" lon="6.7763">
        <ele>2160.1</ele>
        <time>2012-07-30T05:14:58Z</time>
      </trkpt>
      <trkpt lat="44.22645" lon="6.7763">
        <ele>2160.3</ele>
        <time>2012-07-30T05:14:59Z</time>
      </trkpt>
      <trkpt lat="44.22645" lon="6.7763">
        <ele>2160.8</ele>
        <time>2012-07-30T05:15:00Z</time>
      </trkpt>
      <trkpt lat="44.22644" lon="6.7763">
        <ele>2161.6</ele>
        <time>2012-07-30T05:15:01Z</time>
      </trkpt>
      <trkpt lat="44.22644" lon="6.77629">
        <ele>2162.3</ele>
        <time>2012-07-30T05:15:02Z</time>
      </trkpt>
      <trkpt lat="44.22644" lon="6.77629">
        <ele>2162.6</ele>
        <time>2012-07-30T05:15:03Z</time>
      </trkpt>
      <trkpt lat="44.22643" lon="6.77628">
        <ele>2162.6</ele>
        <time>2012-07-30T05:15:04Z</time>
      </trkpt>
      <trkpt lat="44.22643" lon="6.77628">
        <ele>2161.6</ele>
        <time>2012-07-30T05:15:05Z</time>
      </trkpt>
      <trkpt lat="44.22643" lon="6.77627">
        <ele>2162.1</ele>
        <time>2012-07-30T05:15:06Z</time>
      </trkpt>
      <trkpt lat="44.22642" lon="6.77627">
        <ele>2160.6</ele>
        <time>2012-07-30T05:15:07Z</time>
      </trkpt>
      <trkpt lat="44.22642" lon="6.77627">
        <ele>2159.5</ele>
        <time>2012-07-30T05:15:08Z</time>
      </trkpt>
      <trkpt lat="44.22641" lon="6.77628">
        <ele>2151.1</ele>
        <time>2012-07-30T05:15:13Z</time>
      </trkpt>
      <trkpt lat="44.22641" lon="6.77629">
        <ele>2149.1</ele>
        <time>2012-07-30T05:15:14Z</time>
      </trkpt>
      <trkpt lat="44.22634" lon="6.77642">
        <ele>2136.3</ele>
        <time>2012-07-30T05:15:30Z</time>
      </trkpt>
      <trkpt lat="44.22632" lon="6.77645">
        <ele>2134</ele>
        <time>2012-07-30T05:15:33Z</time>
      </trkpt>
      <trkpt lat="44.22631" lon="6.77646">
        <ele>2133.5</ele>
        <time>2012-07-30T05:15:34Z</time>
      </trkpt>
      <trkpt lat="44.2263" lon="6.7765">
        <ele>2132.3</ele>
        <time>2012-07-30T05:15:37Z</time>
      </trkpt>
      <trkpt lat="44.22628" lon="6.77652">
        <ele>2131.6</ele>
        <time>2012-07-30T05:15:39Z</time>
      </trkpt>
      <trkpt lat="44.22628" lon="6.77652">
        <ele>2131.3</ele>
        <time>2012-07-30T05:15:40Z</time>
      </trkpt>
      <trkpt lat="44.22627" lon="6.77654">
        <ele>2131.3</ele>
        <time>2012-07-30T05:15:41Z</time>
      </trkpt>
      <trkpt lat="44.22615" lon="6.77678">
        <ele>2132.8</ele>
        <time>2012-07-30T05:16:00Z</time>
      </trkpt>
      <trkpt lat="44.22614" lon="6.77679">
        <ele>2132.6</ele>
        <time>2012-07-30T05:16:01Z</time>
      </trkpt>
      <trkpt lat="44.22611" lon="6.77688">
        <ele>2135.8</ele>
        <time>2012-07-30T05:16:06Z</time>
      </trkpt>
      <trkpt lat="44.2261" lon="6.77691">
        <ele>2135.6</ele>
        <time>2012-07-30T05:16:08Z</time>
      </trkpt>
      <trkpt lat="44.2261" lon="6.77691">
        <ele>2135.1</ele>
        <time>2012-07-30T05:16:09Z</time>
      </trkpt>
      <trkpt lat="44.22609" lon="6.77692">
        <ele>2134.8</ele>
        <time>2012-07-30T05:16:10Z</time>
      </trkpt>
      <trkpt lat="44.22601" lon="6.77706">
        <ele>2137.1</ele>
        <time>2012-07-30T05:16:21Z</time>
      </trkpt>
      <trkpt lat="44.226" lon="6.77708">
        <ele>2138.1</ele>
        <time>2012-07-30T05:16:22Z</time>
      </trkpt>
      <trkpt lat="44.226" lon="6.77712">
        <ele>2139.6</ele>
        <time>2012-07-30T05:16:24Z</time>
      </trkpt>
      <trkpt lat="44.22599" lon="6.77715">
        <ele>2141.3</ele>
        <time>2012-07-30T05:16:25Z</time>
      </trkpt>
      <trkpt lat="44.22599" lon="6.77717">
        <ele>2142.1</ele>
        <time>2012-07-30T05:16:26Z</time>
      </trkpt>
      <trkpt lat="44.22599" lon="6.77725">
        <ele>2145.3</ele>
        <time>2012-07-30T05:16:29Z</time>
      </trkpt>
      <trkpt lat="44.22599" lon="6.77728">
        <ele>2146.6</ele>
        <time>2012-07-30T05:16:31Z</time>
      </trkpt>
      <trkpt lat="44.22599" lon="6.77731">
        <ele>2148.6</ele>
        <time>2012-07-30T05:16:32Z</time>
      </trkpt>
      <trkpt lat="44.22599" lon="6.77732">
        <ele>2148.6</ele>
        <time>2012-07-30T05:16:33Z</time>
      </trkpt>
      <trkpt lat="44.22599" lon="6.77734">
        <ele>2149.5</ele>
        <time>2012-07-30T05:16:34Z</time>
      </trkpt>
      <trkpt lat="44.22599" lon="6.77736">
        <ele>2149.5</ele>
        <time>2012-07-30T05:16:35Z</time>
      </trkpt>
      <trkpt lat="44.22598" lon="6.77737">
        <ele>2150.5</ele>
        <time>2012-07-30T05:16:36Z</time>
      </trkpt>
      <trkpt lat="44.22598" lon="6.77739">
        <ele>2152</ele>
        <time>2012-07-30T05:16:37Z</time>
      </trkpt>
      <trkpt lat="44.22598" lon="6.77742">
        <ele>2153.8</ele>
        <time>2012-07-30T05:16:38Z</time>
      </trkpt>
      <trkpt lat="44.22598" lon="6.77745">
        <ele>2154.8</ele>
        <time>2012-07-30T05:16:39Z</time>
      </trkpt>
      <trkpt lat="44.22599" lon="6.77752">
        <ele>2154.8</ele>
        <time>2012-07-30T05:16:45Z</time>
      </trkpt>
      <trkpt lat="44.22599" lon="6.77753">
        <ele>2154.3</ele>
        <time>2012-07-30T05:16:46Z</time>
      </trkpt>
      <trkpt lat="44.22609" lon="6.7779">
        <ele>2136.1</ele>
        <time>2012-07-30T05:17:24Z</time>
      </trkpt>
      <trkpt lat="44.22609" lon="6.77791">
        <ele>2135.8</ele>
        <time>2012-07-30T05:17:25Z</time>
      </trkpt>
      <trkpt lat="44.22606" lon="6.77802">
        <ele>2141.8</ele>
        <time>2012-07-30T05:17:31Z</time>
      </trkpt>
      <trkpt lat="44.22604" lon="6.7781">
        <ele>2139.8</ele>
        <time>2012-07-30T05:17:38Z</time>
      </trkpt>
      <trkpt lat="44.22605" lon="6.77812">
        <ele>2140</ele>
        <time>2012-07-30T05:17:39Z</time>
      </trkpt>
      <trkpt lat="44.22602" lon="6.77825">
        <ele>2147.3</ele>
        <time>2012-07-30T05:17:47Z</time>
      </trkpt>
      <trkpt lat="44.22601" lon="6.77827">
        <ele>2147.5</ele>
        <time>2012-07-30T05:17:48Z</time>
      </trkpt>
      <trkpt lat="44.22601" lon="6.77827">
        <ele>2146.6</ele>
        <time>2012-07-30T05:17:49Z</time>
      </trkpt>
      <trkpt lat="44.22601" lon="6.77828">
        <ele>2146.6</ele>
        <time>2012-07-30T05:17:50Z</time>
      </trkpt>
      <trkpt lat="44.22573" lon="6.77839">
        <ele>2159.6</ele>
        <time>2012-07-30T05:19:06Z</time>
      </trkpt>
      <trkpt lat="44.22572" lon="6.77839">
        <ele>2159.8</ele>
        <time>2012-07-30T05:19:07Z</time>
      </trkpt>
      <trkpt lat="44.22491" lon="6.77942">
        <ele>2189.8</ele>
        <time>2012-07-30T05:22:20Z</time>
      </trkpt>
      <trkpt lat="44.2249" lon="6.77941">
        <ele>2190.8</ele>
        <time>2012-07-30T05:22:21Z</time>
      </trkpt>
      <trkpt lat="44.22489" lon="6.77941">
        <ele>2191.3</ele>
        <time>2012-07-30T05:22:22Z</time>
      </trkpt>
      <trkpt lat="44.22477" lon="6.77947">
        <ele>2190.6</ele>
        <time>2012-07-30T05:22:41Z</time>
      </trkpt>
      <trkpt lat="44.22455" lon="6.77977">
        <ele>2207.1</ele>
        <time>2012-07-30T05:23:25Z</time>
      </trkpt>
      <trkpt lat="44.22455" lon="6.77976">
        <ele>2206.6</ele>
        <time>2012-07-30T05:23:26Z</time>
      </trkpt>
      <trkpt lat="44.22366" lon="6.78082">
        <ele>2243.1</ele>
        <time>2012-07-30T05:26:51Z</time>
      </trkpt>
      <trkpt lat="44.22368" lon="6.78083">
        <ele>2242.3</ele>
        <time>2012-07-30T05:26:52Z</time>
      </trkpt>
      <trkpt lat="44.22369" lon="6.78084">
        <ele>2241.8</ele>
        <time>2012-07-30T05:26:53Z</time>
      </trkpt>
      <trkpt lat="44.22368" lon="6.78083">
        <ele>2243.3</ele>
        <time>2012-07-30T05:26:54Z</time>
      </trkpt>
      <trkpt lat="44.22368" lon="6.78083">
        <ele>2243.6</ele>
        <time>2012-07-30T05:26:55Z</time>
      </trkpt>
      <trkpt lat="44.22367" lon="6.78083">
        <ele>2244.6</ele>
        <time>2012-07-30T05:26:56Z</time>
      </trkpt>
      <trkpt lat="44.22367" lon="6.78082">
        <ele>2245.3</ele>
        <time>2012-07-30T05:26:57Z</time>
      </trkpt>
      <trkpt lat="44.22367" lon="6.78082">
        <ele>2245.8</ele>
        <time>2012-07-30T05:26:58Z</time>
      </trkpt>
      <trkpt lat="44.22367" lon="6.78082">
        <ele>2246.3</ele>
        <time>2012-07-30T05:26:59Z</time>
      </trkpt>
      <trkpt lat="44.22366" lon="6.78082">
        <ele>2247</ele>
        <time>2012-07-30T05:27:00Z</time>
      </trkpt>
      <trkpt lat="44.22366" lon="6.78081">
        <ele>2247.8</ele>
        <time>2012-07-30T05:27:01Z</time>
      </trkpt>
      <trkpt lat="44.22366" lon="6.78082">
        <ele>2246.3</ele>
        <time>2012-07-30T05:27:02Z</time>
      </trkpt>
      <trkpt lat="44.22366" lon="6.78082">
        <ele>2245.5</ele>
        <time>2012-07-30T05:27:03Z</time>
      </trkpt>
      <trkpt lat="44.22366" lon="6.78082">
        <ele>2244.8</ele>
        <time>2012-07-30T05:27:04Z</time>
      </trkpt>
      <trkpt lat="44.22366" lon="6.78083">
        <ele>2244.1</ele>
        <time>2012-07-30T05:27:05Z</time>
      </trkpt>
      <trkpt lat="44.22366" lon="6.78083">
        <ele>2243.8</ele>
        <time>2012-07-30T05:27:06Z</time>
      </trkpt>
      <trkpt lat="44.22366" lon="6.78083">
        <ele>2243.5</ele>
        <time>2012-07-30T05:27:07Z</time>
      </trkpt>
      <trkpt lat="44.22366" lon="6.78083">
        <ele>2243.1</ele>
        <time>2012-07-30T05:27:08Z</time>
      </trkpt>
      <trkpt lat="44.22366" lon="6.78083">
        <ele>2242.8</ele>
        <time>2012-07-30T05:27:09Z</time>
      </trkpt>
      <trkpt lat="44.22367" lon="6.78084">
        <ele>2242.6</ele>
        <time>2012-07-30T05:27:10Z</time>
      </trkpt>
      <trkpt lat="44.22367" lon="6.78084">
        <ele>2242.3</ele>
        <time>2012-07-30T05:27:11Z</time>
      </trkpt>
      <trkpt lat="44.22367" lon="6.78084">
        <ele>2242.1</ele>
        <time>2012-07-30T05:27:12Z</time>
      </trkpt>
      <trkpt lat="44.22367" lon="6.78084">
        <ele>2241.8</ele>
        <time>2012-07-30T05:27:13Z</time>
      </trkpt>
      <trkpt lat="44.22367" lon="6.78084">
        <ele>2242.1</ele>
        <time>2012-07-30T05:27:14Z</time>
      </trkpt>
      <trkpt lat="44.22368" lon="6.78084">
        <ele>2242</ele>
        <time>2012-07-30T05:27:15Z</time>
      </trkpt>
      <trkpt lat="44.22367" lon="6.78084">
        <ele>2242.6</ele>
        <time>2012-07-30T05:27:16Z</time>
      </trkpt>
      <trkpt lat="44.22367" lon="6.78084">
        <ele>2243.1</ele>
        <time>2012-07-30T05:27:17Z</time>
      </trkpt>
      <trkpt lat="44.22367" lon="6.78083">
        <ele>2243.6</ele>
        <time>2012-07-30T05:27:18Z</time>
      </trkpt>
      <trkpt lat="44.22367" lon="6.78083">
        <ele>2243.6</ele>
        <time>2012-07-30T05:27:19Z</time>
      </trkpt>
      <trkpt lat="44.22367" lon="6.78083">
        <ele>2243.6</ele>
        <time>2012-07-30T05:27:20Z</time>
      </trkpt>
      <trkpt lat="44.22367" lon="6.78084">
        <ele>2243.6</ele>
        <time>2012-07-30T05:27:21Z</time>
      </trkpt>
      <trkpt lat="44.22367" lon="6.78084">
        <ele>2243.3</ele>
        <time>2012-07-30T05:27:22Z</time>
      </trkpt>
      <trkpt lat="44.22368" lon="6.78084">
        <ele>2243.1</ele>
        <time>2012-07-30T05:27:23Z</time>
      </trkpt>
      <trkpt lat="44.22368" lon="6.78085">
        <ele>2242.6</ele>
        <time>2012-07-30T05:27:24Z</time>
      </trkpt>
      <trkpt lat="44.22369" lon="6.78085">
        <ele>2241.8</ele>
        <time>2012-07-30T05:27:25Z</time>
      </trkpt>
      <trkpt lat="44.22369" lon="6.78085">
        <ele>2241.6</ele>
        <time>2012-07-30T05:27:26Z</time>
      </trkpt>
      <trkpt lat="44.22369" lon="6.78085">
        <ele>2240.8</ele>
        <time>2012-07-30T05:27:27Z</time>
      </trkpt>
      <trkpt lat="44.22369" lon="6.78087">
        <ele>2240</ele>
        <time>2012-07-30T05:27:28Z</time>
      </trkpt>
      <trkpt lat="44.22369" lon="6.78088">
        <ele>2239.6</ele>
        <time>2012-07-30T05:27:29Z</time>
      </trkpt>
      <trkpt lat="44.22368" lon="6.78089">
        <ele>2239.3</ele>
        <time>2012-07-30T05:27:30Z</time>
      </trkpt>
      <trkpt lat="44.22368" lon="6.78089">
        <ele>2239</ele>
        <time>2012-07-30T05:27:31Z</time>
      </trkpt>
      <trkpt lat="44.22367" lon="6.7809">
        <ele>2238.3</ele>
        <time>2012-07-30T05:27:32Z</time>
      </trkpt>
      <trkpt lat="44.22367" lon="6.78091">
        <ele>2238</ele>
        <time>2012-07-30T05:27:33Z</time>
      </trkpt>
      <trkpt lat="44.22366" lon="6.78092">
        <ele>2238.3</ele>
        <time>2012-07-30T05:27:34Z</time>
      </trkpt>
      <trkpt lat="44.22366" lon="6.78093">
        <ele>2238.8</ele>
        <time>2012-07-30T05:27:35Z</time>
      </trkpt>
      <trkpt lat="44.22366" lon="6.78094">
        <ele>2238.6</ele>
        <time>2012-07-30T05:27:36Z</time>
      </trkpt>
      <trkpt lat="44.22365" lon="6.78095">
        <ele>2238.6</ele>
        <time>2012-07-30T05:27:37Z</time>
      </trkpt>
      <trkpt lat="44.22365" lon="6.78096">
        <ele>2238.3</ele>
        <time>2012-07-30T05:27:38Z</time>
      </trkpt>
      <trkpt lat="44.22365" lon="6.78097">
        <ele>2238.6</ele>
        <time>2012-07-30T05:27:39Z</time>
      </trkpt>
      <trkpt lat="44.22364" lon="6.78098">
        <ele>2239.1</ele>
        <time>2012-07-30T05:27:40Z</time>
      </trkpt>
      <trkpt lat="44.22364" lon="6.78099">
        <ele>2239.3</ele>
        <time>2012-07-30T05:27:41Z</time>
      </trkpt>
      <trkpt lat="44.22364" lon="6.781">
        <ele>2239</ele>
        <time>2012-07-30T05:27:42Z</time>
      </trkpt>
      <trkpt lat="44.22363" lon="6.78101">
        <ele>2238.5</ele>
        <time>2012-07-30T05:27:43Z</time>
      </trkpt>
      <trkpt lat="44.22363" lon="6.78102">
        <ele>2238.5</ele>
        <time>2012-07-30T05:27:44Z</time>
      </trkpt>
      <trkpt lat="44.22354" lon="6.78104">
        <ele>2237.6</ele>
        <time>2012-07-30T05:27:53Z</time>
      </trkpt>
      <trkpt lat="44.22353" lon="6.78105">
        <ele>2237.5</ele>
        <time>2012-07-30T05:27:54Z</time>
      </trkpt>
      <trkpt lat="44.22353" lon="6.78106">
        <ele>2236.5</ele>
        <time>2012-07-30T05:27:55Z</time>
      </trkpt>
      <trkpt lat="44.22352" lon="6.78107">
        <ele>2236.3</ele>
        <time>2012-07-30T05:27:56Z</time>
      </trkpt>
      <trkpt lat="44.22352" lon="6.78109">
        <ele>2236.1</ele>
        <time>2012-07-30T05:27:57Z</time>
      </trkpt>
      <trkpt lat="44.22352" lon="6.78111">
        <ele>2235.6</ele>
        <time>2012-07-30T05:27:58Z</time>
      </trkpt>
      <trkpt lat="44.22351" lon="6.78112">
        <ele>2235.1</ele>
        <time>2012-07-30T05:27:59Z</time>
      </trkpt>
      <trkpt lat="44.22351" lon="6.78113">
        <ele>2234.3</ele>
        <time>2012-07-30T05:28:00Z</time>
      </trkpt>
      <trkpt lat="44.2235" lon="6.78115">
        <ele>2234.3</ele>
        <time>2012-07-30T05:28:01Z</time>
      </trkpt>
      <trkpt lat="44.2235" lon="6.78116">
        <ele>2234.3</ele>
        <time>2012-07-30T05:28:02Z</time>
      </trkpt>
      <trkpt lat="44.2235" lon="6.78118">
        <ele>2234.1</ele>
        <time>2012-07-30T05:28:03Z</time>
      </trkpt>
      <trkpt lat="44.22349" lon="6.78119">
        <ele>2233.6</ele>
        <time>2012-07-30T05:28:04Z</time>
      </trkpt>
      <trkpt lat="44.22349" lon="6.7812">
        <ele>2232.8</ele>
        <time>2012-07-30T05:28:05Z</time>
      </trkpt>
      <trkpt lat="44.22349" lon="6.78121">
        <ele>2232.3</ele>
        <time>2012-07-30T05:28:06Z</time>
      </trkpt>
      <trkpt lat="44.22349" lon="6.78123">
        <ele>2232.6</ele>
        <time>2012-07-30T05:28:07Z</time>
      </trkpt>
      <trkpt lat="44.22349" lon="6.78124">
        <ele>2233.1</ele>
        <time>2012-07-30T05:28:08Z</time>
      </trkpt>
      <trkpt lat="44.22349" lon="6.78125">
        <ele>2233.1</ele>
        <time>2012-07-30T05:28:09Z</time>
      </trkpt>
      <trkpt lat="44.22348" lon="6.78126">
        <ele>2233.3</ele>
        <time>2012-07-30T05:28:10Z</time>
      </trkpt>
      <trkpt lat="44.22348" lon="6.78127">
        <ele>2233</ele>
        <time>2012-07-30T05:28:11Z</time>
      </trkpt>
      <trkpt lat="44.22347" lon="6.78128">
        <ele>2232.6</ele>
        <time>2012-07-30T05:28:12Z</time>
      </trkpt>
      <trkpt lat="44.2234" lon="6.78137">
        <ele>2234</ele>
        <time>2012-07-30T05:28:24Z</time>
      </trkpt>
      <trkpt lat="44.2234" lon="6.78137">
        <ele>2234.1</ele>
        <time>2012-07-30T05:28:25Z</time>
      </trkpt>
      <trkpt lat="44.22339" lon="6.78138">
        <ele>2234.3</ele>
        <time>2012-07-30T05:28:26Z</time>
      </trkpt>
      <trkpt lat="44.22337" lon="6.78138">
        <ele>2235.1</ele>
        <time>2012-07-30T05:28:28Z</time>
      </trkpt>
      <trkpt lat="44.22334" lon="6.78139">
        <ele>2236.3</ele>
        <time>2012-07-30T05:28:32Z</time>
      </trkpt>
      <trkpt lat="44.22333" lon="6.78138">
        <ele>2237.1</ele>
        <time>2012-07-30T05:28:33Z</time>
      </trkpt>
      <trkpt lat="44.22332" lon="6.78138">
        <ele>2237.8</ele>
        <time>2012-07-30T05:28:34Z</time>
      </trkpt>
      <trkpt lat="44.22329" lon="6.78139">
        <ele>2239.1</ele>
        <time>2012-07-30T05:28:37Z</time>
      </trkpt>
      <trkpt lat="44.22328" lon="6.78139">
        <ele>2239.5</ele>
        <time>2012-07-30T05:28:38Z</time>
      </trkpt>
      <trkpt lat="44.22325" lon="6.78141">
        <ele>2240.8</ele>
        <time>2012-07-30T05:28:41Z</time>
      </trkpt>
      <trkpt lat="44.22324" lon="6.78142">
        <ele>2240.6</ele>
        <time>2012-07-30T05:28:42Z</time>
      </trkpt>
      <trkpt lat="44.2232" lon="6.78151">
        <ele>2240.6</ele>
        <time>2012-07-30T05:28:50Z</time>
      </trkpt>
      <trkpt lat="44.2232" lon="6.78153">
        <ele>2241.1</ele>
        <time>2012-07-30T05:28:51Z</time>
      </trkpt>
      <trkpt lat="44.22319" lon="6.78154">
        <ele>2241.3</ele>
        <time>2012-07-30T05:28:52Z</time>
      </trkpt>
      <trkpt lat="44.22318" lon="6.78157">
        <ele>2241.3</ele>
        <time>2012-07-30T05:28:54Z</time>
      </trkpt>
      <trkpt lat="44.22318" lon="6.78158">
        <ele>2241.1</ele>
        <time>2012-07-30T05:28:55Z</time>
      </trkpt>
      <trkpt lat="44.22312" lon="6.78163">
        <ele>2239.6</ele>
        <time>2012-07-30T05:29:00Z</time>
      </trkpt>
      <trkpt lat="44.22308" lon="6.78167">
        <ele>2238</ele>
        <time>2012-07-30T05:29:04Z</time>
      </trkpt>
      <trkpt lat="44.22307" lon="6.78168">
        <ele>2237.6</ele>
        <time>2012-07-30T05:29:05Z</time>
      </trkpt>
      <trkpt lat="44.22304" lon="6.78172">
        <ele>2237.5</ele>
        <time>2012-07-30T05:29:08Z</time>
      </trkpt>
      <trkpt lat="44.22302" lon="6.78175">
        <ele>2236.1</ele>
        <time>2012-07-30T05:29:11Z</time>
      </trkpt>
      <trkpt lat="44.22298" lon="6.7818">
        <ele>2235.3</ele>
        <time>2012-07-30T05:29:15Z</time>
      </trkpt>
      <trkpt lat="44.22297" lon="6.78181">
        <ele>2235</ele>
        <time>2012-07-30T05:29:16Z</time>
      </trkpt>
      <trkpt lat="44.22293" lon="6.78187">
        <ele>2234.6</ele>
        <time>2012-07-30T05:29:21Z</time>
      </trkpt>
      <trkpt lat="44.22292" lon="6.78188">
        <ele>2234.3</ele>
        <time>2012-07-30T05:29:22Z</time>
      </trkpt>
      <trkpt lat="44.22291" lon="6.78189">
        <ele>2234.5</ele>
        <time>2012-07-30T05:29:23Z</time>
      </trkpt>
      <trkpt lat="44.22288" lon="6.78192">
        <ele>2233.3</ele>
        <time>2012-07-30T05:29:26Z</time>
      </trkpt>
      <trkpt lat="44.22283" lon="6.78195">
        <ele>2233.1</ele>
        <time>2012-07-30T05:29:30Z</time>
      </trkpt>
      <trkpt lat="44.22282" lon="6.78196">
        <ele>2232.8</ele>
        <time>2012-07-30T05:29:31Z</time>
      </trkpt>
      <trkpt lat="44.22281" lon="6.78199">
        <ele>2232.6</ele>
        <time>2012-07-30T05:29:33Z</time>
      </trkpt>
      <trkpt lat="44.2228" lon="6.78201">
        <ele>2232.5</ele>
        <time>2012-07-30T05:29:34Z</time>
      </trkpt>
      <trkpt lat="44.2228" lon="6.78203">
        <ele>2233.6</ele>
        <time>2012-07-30T05:29:35Z</time>
      </trkpt>
      <trkpt lat="44.2228" lon="6.78205">
        <ele>2234.6</ele>
        <time>2012-07-30T05:29:36Z</time>
      </trkpt>
      <trkpt lat="44.22281" lon="6.78207">
        <ele>2235.3</ele>
        <time>2012-07-30T05:29:37Z</time>
      </trkpt>
      <trkpt lat="44.22282" lon="6.78211">
        <ele>2234.8</ele>
        <time>2012-07-30T05:29:39Z</time>
      </trkpt>
      <trkpt lat="44.22282" lon="6.78213">
        <ele>2234.8</ele>
        <time>2012-07-30T05:29:40Z</time>
      </trkpt>
      <trkpt lat="44.22283" lon="6.78218">
        <ele>2233.8</ele>
        <time>2012-07-30T05:29:43Z</time>
      </trkpt>
      <trkpt lat="44.22284" lon="6.78224">
        <ele>2234.8</ele>
        <time>2012-07-30T05:29:47Z</time>
      </trkpt>
      <trkpt lat="44.22284" lon="6.78226">
        <ele>2234.8</ele>
        <time>2012-07-30T05:29:48Z</time>
      </trkpt>
      <trkpt lat="44.22284" lon="6.78227">
        <ele>2234.1</ele>
        <time>2012-07-30T05:29:49Z</time>
      </trkpt>
      <trkpt lat="44.22284" lon="6.78231">
        <ele>2234.3</ele>
        <time>2012-07-30T05:29:51Z</time>
      </trkpt>
      <trkpt lat="44.22284" lon="6.78233">
        <ele>2234.1</ele>
        <time>2012-07-30T05:29:52Z</time>
      </trkpt>
      <trkpt lat="44.22285" lon="6.78241">
        <ele>2233.6</ele>
        <time>2012-07-30T05:29:57Z</time>
      </trkpt>
      <trkpt lat="44.22285" lon="6.78243">
        <ele>2233.6</ele>
        <time>2012-07-30T05:29:58Z</time>
      </trkpt>
      <trkpt lat="44.22286" lon="6.78246">
        <ele>2234.1</ele>
        <time>2012-07-30T05:30:00Z</time>
      </trkpt>
      <trkpt lat="44.22287" lon="6.78252">
        <ele>2234.6</ele>
        <time>2012-07-30T05:30:04Z</time>
      </trkpt>
      <trkpt lat="44.22288" lon="6.78253">
        <ele>2235.1</ele>
        <time>2012-07-30T05:30:05Z</time>
      </trkpt>
      <trkpt lat="44.22288" lon="6.78258">
        <ele>2235.6</ele>
        <time>2012-07-30T05:30:08Z</time>
      </trkpt>
      <trkpt lat="44.22288" lon="6.78259">
        <ele>2236</ele>
        <time>2012-07-30T05:30:09Z</time>
      </trkpt>
      <trkpt lat="44.22289" lon="6.78262">
        <ele>2236.1</ele>
        <time>2012-07-30T05:30:11Z</time>
      </trkpt>
      <trkpt lat="44.22289" lon="6.78263">
        <ele>2236.6</ele>
        <time>2012-07-30T05:30:12Z</time>
      </trkpt>
      <trkpt lat="44.2229" lon="6.78266">
        <ele>2237</ele>
        <time>2012-07-30T05:30:14Z</time>
      </trkpt>
      <trkpt lat="44.22291" lon="6.78297">
        <ele>2242.3</ele>
        <time>2012-07-30T05:30:44Z</time>
      </trkpt>
      <trkpt lat="44.22291" lon="6.78298">
        <ele>2242.5</ele>
        <time>2012-07-30T05:30:45Z</time>
      </trkpt>
      <trkpt lat="44.22291" lon="6.78299">
        <ele>2242.8</ele>
        <time>2012-07-30T05:30:46Z</time>
      </trkpt>
      <trkpt lat="44.22291" lon="6.78302">
        <ele>2243.5</ele>
        <time>2012-07-30T05:30:47Z</time>
      </trkpt>
      <trkpt lat="44.22291" lon="6.78304">
        <ele>2243.6</ele>
        <time>2012-07-30T05:30:48Z</time>
      </trkpt>
      <trkpt lat="44.2229" lon="6.78307">
        <ele>2243.8</ele>
        <time>2012-07-30T05:30:50Z</time>
      </trkpt>
      <trkpt lat="44.2229" lon="6.78308">
        <ele>2243.1</ele>
        <time>2012-07-30T05:30:51Z</time>
      </trkpt>
      <trkpt lat="44.2229" lon="6.78309">
        <ele>2242.3</ele>
        <time>2012-07-30T05:30:52Z</time>
      </trkpt>
      <trkpt lat="44.22289" lon="6.78312">
        <ele>2243.1</ele>
        <time>2012-07-30T05:30:54Z</time>
      </trkpt>
      <trkpt lat="44.22288" lon="6.78313">
        <ele>2243.6</ele>
        <time>2012-07-30T05:30:55Z</time>
      </trkpt>
      <trkpt lat="44.22288" lon="6.78314">
        <ele>2244.1</ele>
        <time>2012-07-30T05:30:56Z</time>
      </trkpt>
      <trkpt lat="44.22286" lon="6.7832">
        <ele>2243.1</ele>
        <time>2012-07-30T05:31:01Z</time>
      </trkpt>
      <trkpt lat="44.22286" lon="6.78321">
        <ele>2243.1</ele>
        <time>2012-07-30T05:31:02Z</time>
      </trkpt>
      <trkpt lat="44.22285" lon="6.78327">
        <ele>2243.3</ele>
        <time>2012-07-30T05:31:06Z</time>
      </trkpt>
      <trkpt lat="44.22285" lon="6.78329">
        <ele>2243.8</ele>
        <time>2012-07-30T05:31:07Z</time>
      </trkpt>
      <trkpt lat="44.22284" lon="6.78332">
        <ele>2244.3</ele>
        <time>2012-07-30T05:31:09Z</time>
      </trkpt>
      <trkpt lat="44.22283" lon="6.78353">
        <ele>2246.6</ele>
        <time>2012-07-30T05:31:25Z</time>
      </trkpt>
      <trkpt lat="44.22283" lon="6.78355">
        <ele>2247</ele>
        <time>2012-07-30T05:31:26Z</time>
      </trkpt>
      <trkpt lat="44.22283" lon="6.78356">
        <ele>2247.3</ele>
        <time>2012-07-30T05:31:27Z</time>
      </trkpt>
      <trkpt lat="44.22298" lon="6.78369">
        <ele>2254.6</ele>
        <time>2012-07-30T05:32:23Z</time>
      </trkpt>
      <trkpt lat="44.223" lon="6.78368">
        <ele>2255.1</ele>
        <time>2012-07-30T05:32:24Z</time>
      </trkpt>
      <trkpt lat="44.22301" lon="6.78367">
        <ele>2255.6</ele>
        <time>2012-07-30T05:32:25Z</time>
      </trkpt>
      <trkpt lat="44.22302" lon="6.78366">
        <ele>2256</ele>
        <time>2012-07-30T05:32:26Z</time>
      </trkpt>
      <trkpt lat="44.22303" lon="6.78365">
        <ele>2256.1</ele>
        <time>2012-07-30T05:32:27Z</time>
      </trkpt>
      <trkpt lat="44.22303" lon="6.78364">
        <ele>2256.5</ele>
        <time>2012-07-30T05:32:28Z</time>
      </trkpt>
      <trkpt lat="44.22304" lon="6.78363">
        <ele>2256.6</ele>
        <time>2012-07-30T05:32:29Z</time>
      </trkpt>
      <trkpt lat="44.22305" lon="6.78362">
        <ele>2256.8</ele>
        <time>2012-07-30T05:32:30Z</time>
      </trkpt>
      <trkpt lat="44.22308" lon="6.78355">
        <ele>2255.8</ele>
        <time>2012-07-30T05:32:46Z</time>
      </trkpt>
      <trkpt lat="44.22309" lon="6.78351">
        <ele>2256</ele>
        <time>2012-07-30T05:32:49Z</time>
      </trkpt>
      <trkpt lat="44.22309" lon="6.7835">
        <ele>2256</ele>
        <time>2012-07-30T05:32:50Z</time>
      </trkpt>
      <trkpt lat="44.22309" lon="6.78349">
        <ele>2256</ele>
        <time>2012-07-30T05:32:51Z</time>
      </trkpt>
      <trkpt lat="44.22311" lon="6.78346">
        <ele>2256</ele>
        <time>2012-07-30T05:32:54Z</time>
      </trkpt>
      <trkpt lat="44.22317" lon="6.78337">
        <ele>2259.1</ele>
        <time>2012-07-30T05:33:02Z</time>
      </trkpt>
      <trkpt lat="44.22346" lon="6.78311">
        <ele>2264.1</ele>
        <time>2012-07-30T05:34:00Z</time>
      </trkpt>
      <trkpt lat="44.22346" lon="6.78312">
        <ele>2264.3</ele>
        <time>2012-07-30T05:34:01Z</time>
      </trkpt>
      <trkpt lat="44.22346" lon="6.78349">
        <ele>2272.8</ele>
        <time>2012-07-30T05:34:58Z</time>
      </trkpt>
      <trkpt lat="44.22346" lon="6.78351">
        <ele>2273.1</ele>
        <time>2012-07-30T05:34:59Z</time>
      </trkpt>
      <trkpt lat="44.22346" lon="6.78352">
        <ele>2273.3</ele>
        <time>2012-07-30T05:35:00Z</time>
      </trkpt>
      <trkpt lat="44.22348" lon="6.78367">
        <ele>2276</ele>
        <time>2012-07-30T05:35:11Z</time>
      </trkpt>
      <trkpt lat="44.22349" lon="6.78368">
        <ele>2276</ele>
        <time>2012-07-30T05:35:12Z</time>
      </trkpt>
      <trkpt lat="44.22353" lon="6.78382">
        <ele>2274.8</ele>
        <time>2012-07-30T05:35:24Z</time>
      </trkpt>
      <trkpt lat="44.22355" lon="6.78382">
        <ele>2274.8</ele>
        <time>2012-07-30T05:35:25Z</time>
      </trkpt>
      <trkpt lat="44.22356" lon="6.78381">
        <ele>2275.6</ele>
        <time>2012-07-30T05:35:26Z</time>
      </trkpt>
      <trkpt lat="44.22357" lon="6.78381">
        <ele>2275.3</ele>
        <time>2012-07-30T05:35:27Z</time>
      </trkpt>
      <trkpt lat="44.22357" lon="6.7838">
        <ele>2275.6</ele>
        <time>2012-07-30T05:35:28Z</time>
      </trkpt>
      <trkpt lat="44.22358" lon="6.78379">
        <ele>2276.3</ele>
        <time>2012-07-30T05:35:29Z</time>
      </trkpt>
      <trkpt lat="44.22358" lon="6.78378">
        <ele>2276.8</ele>
        <time>2012-07-30T05:35:30Z</time>
      </trkpt>
      <trkpt lat="44.22359" lon="6.78376">
        <ele>2277.6</ele>
        <time>2012-07-30T05:35:31Z</time>
      </trkpt>
      <trkpt lat="44.2236" lon="6.78375">
        <ele>2278.6</ele>
        <time>2012-07-30T05:35:32Z</time>
      </trkpt>
      <trkpt lat="44.2236" lon="6.78374">
        <ele>2279.5</ele>
        <time>2012-07-30T05:35:33Z</time>
      </trkpt>
      <trkpt lat="44.2236" lon="6.78372">
        <ele>2279.6</ele>
        <time>2012-07-30T05:35:34Z</time>
      </trkpt>
      <trkpt lat="44.22361" lon="6.78369">
        <ele>2280.3</ele>
        <time>2012-07-30T05:35:36Z</time>
      </trkpt>
      <trkpt lat="44.2237" lon="6.78375">
        <ele>2285.6</ele>
        <time>2012-07-30T05:36:07Z</time>
      </trkpt>
      <trkpt lat="44.2237" lon="6.78376">
        <ele>2286.1</ele>
        <time>2012-07-30T05:36:08Z</time>
      </trkpt>
      <trkpt lat="44.22405" lon="6.78395">
        <ele>2299</ele>
        <time>2012-07-30T05:37:47Z</time>
      </trkpt>
      <trkpt lat="44.22406" lon="6.78396">
        <ele>2299</ele>
        <time>2012-07-30T05:37:48Z</time>
      </trkpt>
      <trkpt lat="44.22407" lon="6.78397">
        <ele>2298.8</ele>
        <time>2012-07-30T05:37:49Z</time>
      </trkpt>
      <trkpt lat="44.22407" lon="6.78397">
        <ele>2298.8</ele>
        <time>2012-07-30T05:37:50Z</time>
      </trkpt>
      <trkpt lat="44.22409" lon="6.78397">
        <ele>2298.8</ele>
        <time>2012-07-30T05:37:52Z</time>
      </trkpt>
      <trkpt lat="44.2241" lon="6.78398">
        <ele>2298.8</ele>
        <time>2012-07-30T05:37:53Z</time>
      </trkpt>
      <trkpt lat="44.22413" lon="6.78399">
        <ele>2298.1</ele>
        <time>2012-07-30T05:37:58Z</time>
      </trkpt>
      <trkpt lat="44.22415" lon="6.784">
        <ele>2297.8</ele>
        <time>2012-07-30T05:38:00Z</time>
      </trkpt>
      <trkpt lat="44.22415" lon="6.78401">
        <ele>2298.3</ele>
        <time>2012-07-30T05:38:01Z</time>
      </trkpt>
      <trkpt lat="44.22414" lon="6.7841">
        <ele>2299.8</ele>
        <time>2012-07-30T05:38:09Z</time>
      </trkpt>
      <trkpt lat="44.22413" lon="6.78411">
        <ele>2300</ele>
        <time>2012-07-30T05:38:10Z</time>
      </trkpt>
      <trkpt lat="44.22413" lon="6.78415">
        <ele>2301.1</ele>
        <time>2012-07-30T05:38:13Z</time>
      </trkpt>
      <trkpt lat="44.22413" lon="6.78416">
        <ele>2301.1</ele>
        <time>2012-07-30T05:38:14Z</time>
      </trkpt>
      <trkpt lat="44.22413" lon="6.78417">
        <ele>2301.5</ele>
        <time>2012-07-30T05:38:15Z</time>
      </trkpt>
      <trkpt lat="44.22414" lon="6.78418">
        <ele>2301.8</ele>
        <time>2012-07-30T05:38:16Z</time>
      </trkpt>
      <trkpt lat="44.22414" lon="6.7842">
        <ele>2302.5</ele>
        <time>2012-07-30T05:38:17Z</time>
      </trkpt>
      <trkpt lat="44.22414" lon="6.78423">
        <ele>2303.6</ele>
        <time>2012-07-30T05:38:20Z</time>
      </trkpt>
      <trkpt lat="44.22414" lon="6.78424">
        <ele>2304</ele>
        <time>2012-07-30T05:38:21Z</time>
      </trkpt>
      <trkpt lat="44.22413" lon="6.78427">
        <ele>2304.6</ele>
        <time>2012-07-30T05:38:23Z</time>
      </trkpt>
      <trkpt lat="44.22413" lon="6.78428">
        <ele>2305.1</ele>
        <time>2012-07-30T05:38:24Z</time>
      </trkpt>
      <trkpt lat="44.22413" lon="6.7843">
        <ele>2305.3</ele>
        <time>2012-07-30T05:38:25Z</time>
      </trkpt>
      <trkpt lat="44.22413" lon="6.78431">
        <ele>2306.3</ele>
        <time>2012-07-30T05:38:26Z</time>
      </trkpt>
      <trkpt lat="44.22413" lon="6.78432">
        <ele>2307</ele>
        <time>2012-07-30T05:38:27Z</time>
      </trkpt>
      <trkpt lat="44.22413" lon="6.78433">
        <ele>2307.6</ele>
        <time>2012-07-30T05:38:28Z</time>
      </trkpt>
      <trkpt lat="44.22413" lon="6.78434">
        <ele>2307.8</ele>
        <time>2012-07-30T05:38:29Z</time>
      </trkpt>
      <trkpt lat="44.22413" lon="6.78434">
        <ele>2308.1</ele>
        <time>2012-07-30T05:38:30Z</time>
      </trkpt>
      <trkpt lat="44.22413" lon="6.78435">
        <ele>2308.1</ele>
        <time>2012-07-30T05:38:31Z</time>
      </trkpt>
      <trkpt lat="44.22413" lon="6.78442">
        <ele>2308.5</ele>
        <time>2012-07-30T05:38:38Z</time>
      </trkpt>
      <trkpt lat="44.22412" lon="6.78443">
        <ele>2308.6</ele>
        <time>2012-07-30T05:38:39Z</time>
      </trkpt>
      <trkpt lat="44.2241" lon="6.78541">
        <ele>2325.5</ele>
        <time>2012-07-30T05:40:36Z</time>
      </trkpt>
      <trkpt lat="44.2241" lon="6.78542">
        <ele>2325.3</ele>
        <time>2012-07-30T05:40:37Z</time>
      </trkpt>
      <trkpt lat="44.22408" lon="6.78557">
        <ele>2325.3</ele>
        <time>2012-07-30T05:40:49Z</time>
      </trkpt>
      <trkpt lat="44.22407" lon="6.78566">
        <ele>2327.8</ele>
        <time>2012-07-30T05:41:18Z</time>
      </trkpt>
      <trkpt lat="44.22406" lon="6.78568">
        <ele>2328.1</ele>
        <time>2012-07-30T05:41:19Z</time>
      </trkpt>
      <trkpt lat="44.22406" lon="6.7857">
        <ele>2328.5</ele>
        <time>2012-07-30T05:41:20Z</time>
      </trkpt>
      <trkpt lat="44.22405" lon="6.78572">
        <ele>2328.8</ele>
        <time>2012-07-30T05:41:22Z</time>
      </trkpt>
      <trkpt lat="44.22403" lon="6.7858">
        <ele>2329.3</ele>
        <time>2012-07-30T05:41:27Z</time>
      </trkpt>
      <trkpt lat="44.224" lon="6.7859">
        <ele>2329.6</ele>
        <time>2012-07-30T05:41:34Z</time>
      </trkpt>
      <trkpt lat="44.22398" lon="6.78597">
        <ele>2330.1</ele>
        <time>2012-07-30T05:41:39Z</time>
      </trkpt>
      <trkpt lat="44.22398" lon="6.78599">
        <ele>2330.3</ele>
        <time>2012-07-30T05:41:40Z</time>
      </trkpt>
      <trkpt lat="44.22397" lon="6.78602">
        <ele>2330.3</ele>
        <time>2012-07-30T05:41:42Z</time>
      </trkpt>
      <trkpt lat="44.22397" lon="6.78603">
        <ele>2330.5</ele>
        <time>2012-07-30T05:41:43Z</time>
      </trkpt>
      <trkpt lat="44.22396" lon="6.78609">
        <ele>2331.1</ele>
        <time>2012-07-30T05:41:47Z</time>
      </trkpt>
      <trkpt lat="44.22395" lon="6.78612">
        <ele>2331.3</ele>
        <time>2012-07-30T05:41:49Z</time>
      </trkpt>
      <trkpt lat="44.22391" lon="6.78621">
        <ele>2331.6</ele>
        <time>2012-07-30T05:41:56Z</time>
      </trkpt>
      <trkpt lat="44.22391" lon="6.78622">
        <ele>2331.8</ele>
        <time>2012-07-30T05:41:57Z</time>
      </trkpt>
      <trkpt lat="44.22386" lon="6.78637">
        <ele>2331.5</ele>
        <time>2012-07-30T05:42:07Z</time>
      </trkpt>
      <trkpt lat="44.22386" lon="6.78638">
        <ele>2331.5</ele>
        <time>2012-07-30T05:42:08Z</time>
      </trkpt>
      <trkpt lat="44.22385" lon="6.78641">
        <ele>2331.5</ele>
        <time>2012-07-30T05:42:10Z</time>
      </trkpt>
      <trkpt lat="44.22383" lon="6.78646">
        <ele>2331.6</ele>
        <time>2012-07-30T05:42:13Z</time>
      </trkpt>
      <trkpt lat="44.2238" lon="6.78654">
        <ele>2331.8</ele>
        <time>2012-07-30T05:42:19Z</time>
      </trkpt>
      <trkpt lat="44.22377" lon="6.7866">
        <ele>2332.8</ele>
        <time>2012-07-30T05:42:24Z</time>
      </trkpt>
      <trkpt lat="44.22376" lon="6.78661">
        <ele>2333</ele>
        <time>2012-07-30T05:42:25Z</time>
      </trkpt>
      <trkpt lat="44.22375" lon="6.78662">
        <ele>2333.1</ele>
        <time>2012-07-30T05:42:26Z</time>
      </trkpt>
      <trkpt lat="44.22372" lon="6.78666">
        <ele>2333.3</ele>
        <time>2012-07-30T05:42:30Z</time>
      </trkpt>
      <trkpt lat="44.22361" lon="6.78678">
        <ele>2332.6</ele>
        <time>2012-07-30T05:42:42Z</time>
      </trkpt>
      <trkpt lat="44.2236" lon="6.78679">
        <ele>2332.6</ele>
        <time>2012-07-30T05:42:43Z</time>
      </trkpt>
      <trkpt lat="44.22354" lon="6.78688">
        <ele>2333.6</ele>
        <time>2012-07-30T05:42:50Z</time>
      </trkpt>
      <trkpt lat="44.22352" lon="6.78688">
        <ele>2333.8</ele>
        <time>2012-07-30T05:42:51Z</time>
      </trkpt>
      <trkpt lat="44.22351" lon="6.78689">
        <ele>2333.8</ele>
        <time>2012-07-30T05:42:52Z</time>
      </trkpt>
      <trkpt lat="44.22346" lon="6.78695">
        <ele>2333.6</ele>
        <time>2012-07-30T05:42:58Z</time>
      </trkpt>
      <trkpt lat="44.22341" lon="6.78699">
        <ele>2333.6</ele>
        <time>2012-07-30T05:43:03Z</time>
      </trkpt>
      <trkpt lat="44.22339" lon="6.787">
        <ele>2334</ele>
        <time>2012-07-30T05:43:05Z</time>
      </trkpt>
      <trkpt lat="44.22338" lon="6.78701">
        <ele>2333.8</ele>
        <time>2012-07-30T05:43:06Z</time>
      </trkpt>
      <trkpt lat="44.22337" lon="6.78702">
        <ele>2333.6</ele>
        <time>2012-07-30T05:43:07Z</time>
      </trkpt>
      <trkpt lat="44.22334" lon="6.78705">
        <ele>2333.6</ele>
        <time>2012-07-30T05:43:10Z</time>
      </trkpt>
      <trkpt lat="44.22325" lon="6.78714">
        <ele>2333.8</ele>
        <time>2012-07-30T05:43:22Z</time>
      </trkpt>
      <trkpt lat="44.22324" lon="6.78715">
        <ele>2334</ele>
        <time>2012-07-30T05:43:23Z</time>
      </trkpt>
      <trkpt lat="44.22325" lon="6.78744">
        <ele>2339.1</ele>
        <time>2012-07-30T05:43:48Z</time>
      </trkpt>
      <trkpt lat="44.22325" lon="6.78745">
        <ele>2339.5</ele>
        <time>2012-07-30T05:43:49Z</time>
      </trkpt>
      <trkpt lat="44.22299" lon="6.7881">
        <ele>2350.1</ele>
        <time>2012-07-30T05:45:14Z</time>
      </trkpt>
      <trkpt lat="44.22299" lon="6.78812">
        <ele>2350.1</ele>
        <time>2012-07-30T05:45:15Z</time>
      </trkpt>
      <trkpt lat="44.22289" lon="6.78844">
        <ele>2354.8</ele>
        <time>2012-07-30T05:45:48Z</time>
      </trkpt>
      <trkpt lat="44.22288" lon="6.78844">
        <ele>2354.8</ele>
        <time>2012-07-30T05:45:49Z</time>
      </trkpt>
      <trkpt lat="44.22287" lon="6.78845">
        <ele>2354.8</ele>
        <time>2012-07-30T05:45:50Z</time>
      </trkpt>
      <trkpt lat="44.22283" lon="6.7885">
        <ele>2355.6</ele>
        <time>2012-07-30T05:45:55Z</time>
      </trkpt>
      <trkpt lat="44.22282" lon="6.78851">
        <ele>2355.8</ele>
        <time>2012-07-30T05:45:56Z</time>
      </trkpt>
      <trkpt lat="44.22281" lon="6.78855">
        <ele>2355.8</ele>
        <time>2012-07-30T05:45:59Z</time>
      </trkpt>
      <trkpt lat="44.2228" lon="6.78856">
        <ele>2356.1</ele>
        <time>2012-07-30T05:46:00Z</time>
      </trkpt>
      <trkpt lat="44.2228" lon="6.78857">
        <ele>2356.1</ele>
        <time>2012-07-30T05:46:01Z</time>
      </trkpt>
      <trkpt lat="44.22279" lon="6.78861">
        <ele>2356.1</ele>
        <time>2012-07-30T05:46:04Z</time>
      </trkpt>
      <trkpt lat="44.22279" lon="6.78863">
        <ele>2356.1</ele>
        <time>2012-07-30T05:46:05Z</time>
      </trkpt>
      <trkpt lat="44.22278" lon="6.78865">
        <ele>2356.1</ele>
        <time>2012-07-30T05:46:07Z</time>
      </trkpt>
      <trkpt lat="44.22277" lon="6.78867">
        <ele>2356.1</ele>
        <time>2012-07-30T05:46:09Z</time>
      </trkpt>
      <trkpt lat="44.22277" lon="6.78868">
        <ele>2356.1</ele>
        <time>2012-07-30T05:46:10Z</time>
      </trkpt>
      <trkpt lat="44.22276" lon="6.78881">
        <ele>2357</ele>
        <time>2012-07-30T05:46:18Z</time>
      </trkpt>
      <trkpt lat="44.22276" lon="6.78882">
        <ele>2357.3</ele>
        <time>2012-07-30T05:46:19Z</time>
      </trkpt>
      <trkpt lat="44.22276" lon="6.78898">
        <ele>2357.8</ele>
        <time>2012-07-30T05:46:29Z</time>
      </trkpt>
      <trkpt lat="44.22276" lon="6.78906">
        <ele>2357.1</ele>
        <time>2012-07-30T05:46:34Z</time>
      </trkpt>
      <trkpt lat="44.22277" lon="6.78908">
        <ele>2357.1</ele>
        <time>2012-07-30T05:46:35Z</time>
      </trkpt>
      <trkpt lat="44.22277" lon="6.78911">
        <ele>2357.5</ele>
        <time>2012-07-30T05:46:37Z</time>
      </trkpt>
      <trkpt lat="44.22277" lon="6.78918">
        <ele>2357.6</ele>
        <time>2012-07-30T05:46:41Z</time>
      </trkpt>
      <trkpt lat="44.22277" lon="6.78924">
        <ele>2357.5</ele>
        <time>2012-07-30T05:46:45Z</time>
      </trkpt>
      <trkpt lat="44.22277" lon="6.78932">
        <ele>2358.1</ele>
        <time>2012-07-30T05:46:50Z</time>
      </trkpt>
      <trkpt lat="44.22278" lon="6.78934">
        <ele>2358.1</ele>
        <time>2012-07-30T05:46:51Z</time>
      </trkpt>
      <trkpt lat="44.22278" lon="6.78936">
        <ele>2358.1</ele>
        <time>2012-07-30T05:46:52Z</time>
      </trkpt>
      <trkpt lat="44.22278" lon="6.78938">
        <ele>2359.1</ele>
        <time>2012-07-30T05:46:53Z</time>
      </trkpt>
      <trkpt lat="44.2228" lon="6.78952">
        <ele>2361.1</ele>
        <time>2012-07-30T05:47:01Z</time>
      </trkpt>
      <trkpt lat="44.2228" lon="6.78953">
        <ele>2361</ele>
        <time>2012-07-30T05:47:02Z</time>
      </trkpt>
      <trkpt lat="44.22279" lon="6.78956">
        <ele>2360.6</ele>
        <time>2012-07-30T05:47:04Z</time>
      </trkpt>
      <trkpt lat="44.22278" lon="6.78957">
        <ele>2360.8</ele>
        <time>2012-07-30T05:47:05Z</time>
      </trkpt>
      <trkpt lat="44.22277" lon="6.78958">
        <ele>2361</ele>
        <time>2012-07-30T05:47:06Z</time>
      </trkpt>
      <trkpt lat="44.22275" lon="6.7896">
        <ele>2361.1</ele>
        <time>2012-07-30T05:47:09Z</time>
      </trkpt>
      <trkpt lat="44.22274" lon="6.78961">
        <ele>2361.3</ele>
        <time>2012-07-30T05:47:10Z</time>
      </trkpt>
      <trkpt lat="44.22273" lon="6.78962">
        <ele>2361.5</ele>
        <time>2012-07-30T05:47:11Z</time>
      </trkpt>
      <trkpt lat="44.22272" lon="6.78962">
        <ele>2361.3</ele>
        <time>2012-07-30T05:47:12Z</time>
      </trkpt>
      <trkpt lat="44.22271" lon="6.78963">
        <ele>2361.5</ele>
        <time>2012-07-30T05:47:13Z</time>
      </trkpt>
      <trkpt lat="44.2227" lon="6.78964">
        <ele>2361.3</ele>
        <time>2012-07-30T05:47:14Z</time>
      </trkpt>
      <trkpt lat="44.22265" lon="6.78972">
        <ele>2362.1</ele>
        <time>2012-07-30T05:47:28Z</time>
      </trkpt>
      <trkpt lat="44.22265" lon="6.78974">
        <ele>2362.1</ele>
        <time>2012-07-30T05:47:29Z</time>
      </trkpt>
      <trkpt lat="44.22265" lon="6.78984">
        <ele>2361</ele>
        <time>2012-07-30T05:47:36Z</time>
      </trkpt>
      <trkpt lat="44.22265" lon="6.78985">
        <ele>2360.8</ele>
        <time>2012-07-30T05:47:37Z</time>
      </trkpt>
      <trkpt lat="44.22266" lon="6.78993">
        <ele>2361.8</ele>
        <time>2012-07-30T05:47:42Z</time>
      </trkpt>
      <trkpt lat="44.22266" lon="6.78994">
        <ele>2362.1</ele>
        <time>2012-07-30T05:47:43Z</time>
      </trkpt>
      <trkpt lat="44.22267" lon="6.78996">
        <ele>2362.6</ele>
        <time>2012-07-30T05:47:44Z</time>
      </trkpt>
      <trkpt lat="44.22267" lon="6.78999">
        <ele>2364.6</ele>
        <time>2012-07-30T05:47:47Z</time>
      </trkpt>
      <trkpt lat="44.22268" lon="6.79">
        <ele>2365</ele>
        <time>2012-07-30T05:47:48Z</time>
      </trkpt>
      <trkpt lat="44.22268" lon="6.79002">
        <ele>2365.6</ele>
        <time>2012-07-30T05:47:49Z</time>
      </trkpt>
      <trkpt lat="44.22268" lon="6.79004">
        <ele>2366</ele>
        <time>2012-07-30T05:47:50Z</time>
      </trkpt>
      <trkpt lat="44.22268" lon="6.79006">
        <ele>2366.3</ele>
        <time>2012-07-30T05:47:51Z</time>
      </trkpt>
      <trkpt lat="44.22269" lon="6.79007">
        <ele>2366.8</ele>
        <time>2012-07-30T05:47:52Z</time>
      </trkpt>
      <trkpt lat="44.22269" lon="6.79009">
        <ele>2366.8</ele>
        <time>2012-07-30T05:47:53Z</time>
      </trkpt>
      <trkpt lat="44.22268" lon="6.79011">
        <ele>2366.6</ele>
        <time>2012-07-30T05:47:55Z</time>
      </trkpt>
      <trkpt lat="44.22267" lon="6.79014">
        <ele>2366.3</ele>
        <time>2012-07-30T05:47:57Z</time>
      </trkpt>
      <trkpt lat="44.22267" lon="6.79015">
        <ele>2366</ele>
        <time>2012-07-30T05:47:58Z</time>
      </trkpt>
      <trkpt lat="44.22266" lon="6.79023">
        <ele>2366.1</ele>
        <time>2012-07-30T05:48:04Z</time>
      </trkpt>
      <trkpt lat="44.22266" lon="6.79024">
        <ele>2366.1</ele>
        <time>2012-07-30T05:48:05Z</time>
      </trkpt>
      <trkpt lat="44.22265" lon="6.79025">
        <ele>2366.3</ele>
        <time>2012-07-30T05:48:06Z</time>
      </trkpt>
      <trkpt lat="44.22263" lon="6.79032">
        <ele>2366.8</ele>
        <time>2012-07-30T05:48:12Z</time>
      </trkpt>
      <trkpt lat="44.22256" lon="6.79048">
        <ele>2365.6</ele>
        <time>2012-07-30T05:48:24Z</time>
      </trkpt>
      <trkpt lat="44.22255" lon="6.79049">
        <ele>2365.5</ele>
        <time>2012-07-30T05:48:25Z</time>
      </trkpt>
      <trkpt lat="44.22248" lon="6.79058">
        <ele>2365.3</ele>
        <time>2012-07-30T05:48:32Z</time>
      </trkpt>
      <trkpt lat="44.22247" lon="6.79059">
        <ele>2365.1</ele>
        <time>2012-07-30T05:48:33Z</time>
      </trkpt>
      <trkpt lat="44.22234" lon="6.79074">
        <ele>2364.3</ele>
        <time>2012-07-30T05:48:47Z</time>
      </trkpt>
      <trkpt lat="44.22231" lon="6.7908">
        <ele>2363.8</ele>
        <time>2012-07-30T05:48:52Z</time>
      </trkpt>
      <trkpt lat="44.2223" lon="6.7908">
        <ele>2363.6</ele>
        <time>2012-07-30T05:48:53Z</time>
      </trkpt>
      <trkpt lat="44.22229" lon="6.79081">
        <ele>2363.3</ele>
        <time>2012-07-30T05:48:54Z</time>
      </trkpt>
      <trkpt lat="44.22227" lon="6.79084">
        <ele>2363</ele>
        <time>2012-07-30T05:48:57Z</time>
      </trkpt>
      <trkpt lat="44.22225" lon="6.79085">
        <ele>2363</ele>
        <time>2012-07-30T05:48:59Z</time>
      </trkpt>
      <trkpt lat="44.22222" lon="6.79087">
        <ele>2363.8</ele>
        <time>2012-07-30T05:49:03Z</time>
      </trkpt>
      <trkpt lat="44.22222" lon="6.79088">
        <ele>2364</ele>
        <time>2012-07-30T05:49:04Z</time>
      </trkpt>
      <trkpt lat="44.22221" lon="6.79089">
        <ele>2364.1</ele>
        <time>2012-07-30T05:49:05Z</time>
      </trkpt>
      <trkpt lat="44.22218" lon="6.79092">
        <ele>2364.6</ele>
        <time>2012-07-30T05:49:09Z</time>
      </trkpt>
      <trkpt lat="44.22216" lon="6.79094">
        <ele>2365</ele>
        <time>2012-07-30T05:49:11Z</time>
      </trkpt>
      <trkpt lat="44.22216" lon="6.79095">
        <ele>2365.1</ele>
        <time>2012-07-30T05:49:12Z</time>
      </trkpt>
      <trkpt lat="44.22213" lon="6.79099">
        <ele>2364.8</ele>
        <time>2012-07-30T05:49:16Z</time>
      </trkpt>
      <trkpt lat="44.22212" lon="6.79103">
        <ele>2364.8</ele>
        <time>2012-07-30T05:49:19Z</time>
      </trkpt>
      <trkpt lat="44.22211" lon="6.79105">
        <ele>2364.6</ele>
        <time>2012-07-30T05:49:20Z</time>
      </trkpt>
      <trkpt lat="44.2221" lon="6.79107">
        <ele>2364.3</ele>
        <time>2012-07-30T05:49:22Z</time>
      </trkpt>
      <trkpt lat="44.22203" lon="6.79124">
        <ele>2364.1</ele>
        <time>2012-07-30T05:49:33Z</time>
      </trkpt>
      <trkpt lat="44.22203" lon="6.79125">
        <ele>2364</ele>
        <time>2012-07-30T05:49:34Z</time>
      </trkpt>
      <trkpt lat="44.22202" lon="6.79127">
        <ele>2363.8</ele>
        <time>2012-07-30T05:49:35Z</time>
      </trkpt>
      <trkpt lat="44.22188" lon="6.79164">
        <ele>2364.3</ele>
        <time>2012-07-30T05:50:00Z</time>
      </trkpt>
      <trkpt lat="44.22185" lon="6.79171">
        <ele>2363.8</ele>
        <time>2012-07-30T05:50:05Z</time>
      </trkpt>
      <trkpt lat="44.22181" lon="6.79176">
        <ele>2363.8</ele>
        <time>2012-07-30T05:50:09Z</time>
      </trkpt>
      <trkpt lat="44.2218" lon="6.79177">
        <ele>2363.6</ele>
        <time>2012-07-30T05:50:10Z</time>
      </trkpt>
      <trkpt lat="44.22178" lon="6.79181">
        <ele>2363.6</ele>
        <time>2012-07-30T05:50:13Z</time>
      </trkpt>
      <trkpt lat="44.22177" lon="6.79182">
        <ele>2363.8</ele>
        <time>2012-07-30T05:50:14Z</time>
      </trkpt>
      <trkpt lat="44.22176" lon="6.79184">
        <ele>2364</ele>
        <time>2012-07-30T05:50:15Z</time>
      </trkpt>
      <trkpt lat="44.22176" lon="6.79185">
        <ele>2364.1</ele>
        <time>2012-07-30T05:50:16Z</time>
      </trkpt>
      <trkpt lat="44.22173" lon="6.79195">
        <ele>2365.1</ele>
        <time>2012-07-30T05:50:22Z</time>
      </trkpt>
      <trkpt lat="44.22172" lon="6.79196">
        <ele>2365.3</ele>
        <time>2012-07-30T05:50:23Z</time>
      </trkpt>
      <trkpt lat="44.22172" lon="6.79198">
        <ele>2365.5</ele>
        <time>2012-07-30T05:50:24Z</time>
      </trkpt>
      <trkpt lat="44.2217" lon="6.79201">
        <ele>2365.6</ele>
        <time>2012-07-30T05:50:26Z</time>
      </trkpt>
      <trkpt lat="44.22169" lon="6.79205">
        <ele>2365.8</ele>
        <time>2012-07-30T05:50:29Z</time>
      </trkpt>
      <trkpt lat="44.22168" lon="6.79206">
        <ele>2365.8</ele>
        <time>2012-07-30T05:50:30Z</time>
      </trkpt>
      <trkpt lat="44.22165" lon="6.79212">
        <ele>2366.3</ele>
        <time>2012-07-30T05:50:34Z</time>
      </trkpt>
      <trkpt lat="44.22165" lon="6.79214">
        <ele>2367.1</ele>
        <time>2012-07-30T05:50:35Z</time>
      </trkpt>
      <trkpt lat="44.22165" lon="6.79215">
        <ele>2367.8</ele>
        <time>2012-07-30T05:50:36Z</time>
      </trkpt>
      <trkpt lat="44.22166" lon="6.79217">
        <ele>2368.5</ele>
        <time>2012-07-30T05:50:37Z</time>
      </trkpt>
      <trkpt lat="44.22167" lon="6.7922">
        <ele>2369.1</ele>
        <time>2012-07-30T05:50:39Z</time>
      </trkpt>
      <trkpt lat="44.22168" lon="6.79221">
        <ele>2369.3</ele>
        <time>2012-07-30T05:50:40Z</time>
      </trkpt>
      <trkpt lat="44.2217" lon="6.79225">
        <ele>2370.3</ele>
        <time>2012-07-30T05:50:43Z</time>
      </trkpt>
      <trkpt lat="44.22171" lon="6.79226">
        <ele>2370.6</ele>
        <time>2012-07-30T05:50:44Z</time>
      </trkpt>
      <trkpt lat="44.22171" lon="6.79228">
        <ele>2370.3</ele>
        <time>2012-07-30T05:50:45Z</time>
      </trkpt>
      <trkpt lat="44.22173" lon="6.79233">
        <ele>2370.6</ele>
        <time>2012-07-30T05:50:48Z</time>
      </trkpt>
      <trkpt lat="44.22174" lon="6.79236">
        <ele>2370.3</ele>
        <time>2012-07-30T05:50:50Z</time>
      </trkpt>
      <trkpt lat="44.22174" lon="6.79239">
        <ele>2370.1</ele>
        <time>2012-07-30T05:50:52Z</time>
      </trkpt>
      <trkpt lat="44.22174" lon="6.79242">
        <ele>2369.8</ele>
        <time>2012-07-30T05:50:54Z</time>
      </trkpt>
      <trkpt lat="44.22174" lon="6.79244">
        <ele>2369.8</ele>
        <time>2012-07-30T05:50:55Z</time>
      </trkpt>
      <trkpt lat="44.22175" lon="6.79246">
        <ele>2369.8</ele>
        <time>2012-07-30T05:50:56Z</time>
      </trkpt>
      <trkpt lat="44.22175" lon="6.79248">
        <ele>2369.6</ele>
        <time>2012-07-30T05:50:58Z</time>
      </trkpt>
      <trkpt lat="44.22178" lon="6.79259">
        <ele>2369.3</ele>
        <time>2012-07-30T05:51:05Z</time>
      </trkpt>
      <trkpt lat="44.22178" lon="6.79261">
        <ele>2369.6</ele>
        <time>2012-07-30T05:51:06Z</time>
      </trkpt>
      <trkpt lat="44.2218" lon="6.79267">
        <ele>2370</ele>
        <time>2012-07-30T05:51:10Z</time>
      </trkpt>
      <trkpt lat="44.22181" lon="6.79268">
        <ele>2370</ele>
        <time>2012-07-30T05:51:11Z</time>
      </trkpt>
      <trkpt lat="44.22182" lon="6.79269">
        <ele>2370.3</ele>
        <time>2012-07-30T05:51:12Z</time>
      </trkpt>
      <trkpt lat="44.22184" lon="6.79271">
        <ele>2370.6</ele>
        <time>2012-07-30T05:51:14Z</time>
      </trkpt>
      <trkpt lat="44.22185" lon="6.79271">
        <ele>2370.8</ele>
        <time>2012-07-30T05:51:15Z</time>
      </trkpt>
      <trkpt lat="44.22187" lon="6.79273">
        <ele>2371.3</ele>
        <time>2012-07-30T05:51:18Z</time>
      </trkpt>
      <trkpt lat="44.22194" lon="6.79278">
        <ele>2372.1</ele>
        <time>2012-07-30T05:51:24Z</time>
      </trkpt>
      <trkpt lat="44.22199" lon="6.79282">
        <ele>2372.8</ele>
        <time>2012-07-30T05:51:29Z</time>
      </trkpt>
      <trkpt lat="44.222" lon="6.79283">
        <ele>2373.1</ele>
        <time>2012-07-30T05:51:30Z</time>
      </trkpt>
      <trkpt lat="44.22208" lon="6.79289">
        <ele>2374.1</ele>
        <time>2012-07-30T05:51:38Z</time>
      </trkpt>
      <trkpt lat="44.22209" lon="6.7929">
        <ele>2374.3</ele>
        <time>2012-07-30T05:51:39Z</time>
      </trkpt>
      <trkpt lat="44.22228" lon="6.79305">
        <ele>2376.5</ele>
        <time>2012-07-30T05:52:01Z</time>
      </trkpt>
      <trkpt lat="44.22231" lon="6.79307">
        <ele>2377.1</ele>
        <time>2012-07-30T05:52:05Z</time>
      </trkpt>
      <trkpt lat="44.22233" lon="6.79308">
        <ele>2377.3</ele>
        <time>2012-07-30T05:52:07Z</time>
      </trkpt>
      <trkpt lat="44.22234" lon="6.79308">
        <ele>2377.3</ele>
        <time>2012-07-30T05:52:08Z</time>
      </trkpt>
      <trkpt lat="44.22235" lon="6.7931">
        <ele>2377.3</ele>
        <time>2012-07-30T05:52:10Z</time>
      </trkpt>
      <trkpt lat="44.22236" lon="6.79311">
        <ele>2377.1</ele>
        <time>2012-07-30T05:52:11Z</time>
      </trkpt>
      <trkpt lat="44.2224" lon="6.79319">
        <ele>2377.6</ele>
        <time>2012-07-30T05:52:19Z</time>
      </trkpt>
      <trkpt lat="44.2224" lon="6.7932">
        <ele>2377.3</ele>
        <time>2012-07-30T05:52:20Z</time>
      </trkpt>
      <trkpt lat="44.2224" lon="6.79323">
        <ele>2377.1</ele>
        <time>2012-07-30T05:52:23Z</time>
      </trkpt>
      <trkpt lat="44.2224" lon="6.79324">
        <ele>2377.1</ele>
        <time>2012-07-30T05:52:24Z</time>
      </trkpt>
      <trkpt lat="44.22243" lon="6.79328">
        <ele>2377.1</ele>
        <time>2012-07-30T05:52:28Z</time>
      </trkpt>
      <trkpt lat="44.22243" lon="6.79329">
        <ele>2377</ele>
        <time>2012-07-30T05:52:29Z</time>
      </trkpt>
      <trkpt lat="44.22245" lon="6.79332">
        <ele>2376.8</ele>
        <time>2012-07-30T05:52:32Z</time>
      </trkpt>
      <trkpt lat="44.2225" lon="6.79352">
        <ele>2377.8</ele>
        <time>2012-07-30T05:52:49Z</time>
      </trkpt>
      <trkpt lat="44.2225" lon="6.79353">
        <ele>2378</ele>
        <time>2012-07-30T05:52:50Z</time>
      </trkpt>
      <trkpt lat="44.2225" lon="6.79354">
        <ele>2378.1</ele>
        <time>2012-07-30T05:52:51Z</time>
      </trkpt>
      <trkpt lat="44.2225" lon="6.79355">
        <ele>2378.3</ele>
        <time>2012-07-30T05:52:52Z</time>
      </trkpt>
      <trkpt lat="44.2225" lon="6.79355">
        <ele>2378.6</ele>
        <time>2012-07-30T05:52:53Z</time>
      </trkpt>
      <trkpt lat="44.2225" lon="6.79356">
        <ele>2379.1</ele>
        <time>2012-07-30T05:52:54Z</time>
      </trkpt>
      <trkpt lat="44.22251" lon="6.79357">
        <ele>2379.3</ele>
        <time>2012-07-30T05:52:55Z</time>
      </trkpt>
      <trkpt lat="44.22251" lon="6.79358">
        <ele>2379.6</ele>
        <time>2012-07-30T05:52:56Z</time>
      </trkpt>
      <trkpt lat="44.22251" lon="6.79359">
        <ele>2379.8</ele>
        <time>2012-07-30T05:52:57Z</time>
      </trkpt>
      <trkpt lat="44.22252" lon="6.7936">
        <ele>2379.8</ele>
        <time>2012-07-30T05:52:58Z</time>
      </trkpt>
      <trkpt lat="44.22252" lon="6.79361">
        <ele>2380</ele>
        <time>2012-07-30T05:52:59Z</time>
      </trkpt>
      <trkpt lat="44.22252" lon="6.79362">
        <ele>2380.3</ele>
        <time>2012-07-30T05:53:00Z</time>
      </trkpt>
      <trkpt lat="44.22252" lon="6.79363">
        <ele>2380.5</ele>
        <time>2012-07-30T05:53:01Z</time>
      </trkpt>
      <trkpt lat="44.22252" lon="6.79365">
        <ele>2380.6</ele>
        <time>2012-07-30T05:53:02Z</time>
      </trkpt>
      <trkpt lat="44.22253" lon="6.79373">
        <ele>2381.6</ele>
        <time>2012-07-30T05:53:09Z</time>
      </trkpt>
      <trkpt lat="44.22253" lon="6.79379">
        <ele>2381.6</ele>
        <time>2012-07-30T05:53:13Z</time>
      </trkpt>
      <trkpt lat="44.22253" lon="6.7938">
        <ele>2381.8</ele>
        <time>2012-07-30T05:53:14Z</time>
      </trkpt>
      <trkpt lat="44.22251" lon="6.79392">
        <ele>2382.8</ele>
        <time>2012-07-30T05:53:22Z</time>
      </trkpt>
      <trkpt lat="44.22251" lon="6.79393">
        <ele>2383.1</ele>
        <time>2012-07-30T05:53:23Z</time>
      </trkpt>
      <trkpt lat="44.22244" lon="6.79415">
        <ele>2384.8</ele>
        <time>2012-07-30T05:53:40Z</time>
      </trkpt>
      <trkpt lat="44.22243" lon="6.79416">
        <ele>2384.8</ele>
        <time>2012-07-30T05:53:41Z</time>
      </trkpt>
      <trkpt lat="44.22243" lon="6.79417">
        <ele>2385.1</ele>
        <time>2012-07-30T05:53:42Z</time>
      </trkpt>
      <trkpt lat="44.22242" lon="6.79418">
        <ele>2385.1</ele>
        <time>2012-07-30T05:53:43Z</time>
      </trkpt>
      <trkpt lat="44.22241" lon="6.7942">
        <ele>2385.3</ele>
        <time>2012-07-30T05:53:44Z</time>
      </trkpt>
      <trkpt lat="44.22241" lon="6.79421">
        <ele>2385.3</ele>
        <time>2012-07-30T05:53:45Z</time>
      </trkpt>
      <trkpt lat="44.22241" lon="6.79423">
        <ele>2385.3</ele>
        <time>2012-07-30T05:53:46Z</time>
      </trkpt>
      <trkpt lat="44.2224" lon="6.79425">
        <ele>2385.6</ele>
        <time>2012-07-30T05:53:48Z</time>
      </trkpt>
      <trkpt lat="44.22239" lon="6.79427">
        <ele>2385.6</ele>
        <time>2012-07-30T05:53:49Z</time>
      </trkpt>
      <trkpt lat="44.22239" lon="6.79428">
        <ele>2385.6</ele>
        <time>2012-07-30T05:53:50Z</time>
      </trkpt>
      <trkpt lat="44.22238" lon="6.79431">
        <ele>2385.8</ele>
        <time>2012-07-30T05:53:52Z</time>
      </trkpt>
      <trkpt lat="44.22237" lon="6.79432">
        <ele>2385.8</ele>
        <time>2012-07-30T05:53:53Z</time>
      </trkpt>
      <trkpt lat="44.22237" lon="6.79436">
        <ele>2386.3</ele>
        <time>2012-07-30T05:53:56Z</time>
      </trkpt>
      <trkpt lat="44.22236" lon="6.79443">
        <ele>2386.6</ele>
        <time>2012-07-30T05:54:00Z</time>
      </trkpt>
      <trkpt lat="44.22234" lon="6.79461">
        <ele>2386.8</ele>
        <time>2012-07-30T05:54:11Z</time>
      </trkpt>
      <trkpt lat="44.22233" lon="6.79468">
        <ele>2387</ele>
        <time>2012-07-30T05:54:15Z</time>
      </trkpt>
      <trkpt lat="44.22232" lon="6.79473">
        <ele>2387.3</ele>
        <time>2012-07-30T05:54:19Z</time>
      </trkpt>
      <trkpt lat="44.22232" lon="6.79475">
        <ele>2387.3</ele>
        <time>2012-07-30T05:54:20Z</time>
      </trkpt>
      <trkpt lat="44.22232" lon="6.79476">
        <ele>2387.3</ele>
        <time>2012-07-30T05:54:21Z</time>
      </trkpt>
      <trkpt lat="44.22232" lon="6.7948">
        <ele>2387.3</ele>
        <time>2012-07-30T05:54:23Z</time>
      </trkpt>
      <trkpt lat="44.22232" lon="6.79481">
        <ele>2387.3</ele>
        <time>2012-07-30T05:54:24Z</time>
      </trkpt>
      <trkpt lat="44.22231" lon="6.79487">
        <ele>2388</ele>
        <time>2012-07-30T05:54:28Z</time>
      </trkpt>
      <trkpt lat="44.22231" lon="6.79488">
        <ele>2388.1</ele>
        <time>2012-07-30T05:54:29Z</time>
      </trkpt>
      <trkpt lat="44.22231" lon="6.79491">
        <ele>2388.6</ele>
        <time>2012-07-30T05:54:31Z</time>
      </trkpt>
      <trkpt lat="44.22231" lon="6.79499">
        <ele>2390.1</ele>
        <time>2012-07-30T05:54:37Z</time>
      </trkpt>
      <trkpt lat="44.2223" lon="6.79557">
        <ele>2401.1</ele>
        <time>2012-07-30T05:56:27Z</time>
      </trkpt>
      <trkpt lat="44.22229" lon="6.79558">
        <ele>2400.8</ele>
        <time>2012-07-30T05:56:28Z</time>
      </trkpt>
      <trkpt lat="44.22229" lon="6.79559">
        <ele>2400.6</ele>
        <time>2012-07-30T05:56:29Z</time>
      </trkpt>
      <trkpt lat="44.22228" lon="6.79561">
        <ele>2400.3</ele>
        <time>2012-07-30T05:56:31Z</time>
      </trkpt>
      <trkpt lat="44.22227" lon="6.79564">
        <ele>2400.3</ele>
        <time>2012-07-30T05:56:34Z</time>
      </trkpt>
      <trkpt lat="44.22224" lon="6.79567">
        <ele>2399.8</ele>
        <time>2012-07-30T05:56:38Z</time>
      </trkpt>
      <trkpt lat="44.22223" lon="6.79568">
        <ele>2399.6</ele>
        <time>2012-07-30T05:56:39Z</time>
      </trkpt>
      <trkpt lat="44.22221" lon="6.79573">
        <ele>2400</ele>
        <time>2012-07-30T05:56:43Z</time>
      </trkpt>
      <trkpt lat="44.22219" lon="6.79575">
        <ele>2400.5</ele>
        <time>2012-07-30T05:56:45Z</time>
      </trkpt>
      <trkpt lat="44.22219" lon="6.79576">
        <ele>2400.6</ele>
        <time>2012-07-30T05:56:46Z</time>
      </trkpt>
      <trkpt lat="44.22218" lon="6.79579">
        <ele>2400.6</ele>
        <time>2012-07-30T05:56:48Z</time>
      </trkpt>
      <trkpt lat="44.22214" lon="6.79588">
        <ele>2401.1</ele>
        <time>2012-07-30T05:56:56Z</time>
      </trkpt>
      <trkpt lat="44.22213" lon="6.7959">
        <ele>2401.1</ele>
        <time>2012-07-30T05:56:57Z</time>
      </trkpt>
      <trkpt lat="44.22211" lon="6.79598">
        <ele>2402.3</ele>
        <time>2012-07-30T05:57:05Z</time>
      </trkpt>
      <trkpt lat="44.22212" lon="6.796">
        <ele>2402.8</ele>
        <time>2012-07-30T05:57:06Z</time>
      </trkpt>
      <trkpt lat="44.22212" lon="6.79602">
        <ele>2403.1</ele>
        <time>2012-07-30T05:57:07Z</time>
      </trkpt>
      <trkpt lat="44.22214" lon="6.7961">
        <ele>2404.1</ele>
        <time>2012-07-30T05:57:13Z</time>
      </trkpt>
      <trkpt lat="44.22214" lon="6.79613">
        <ele>2404.3</ele>
        <time>2012-07-30T05:57:15Z</time>
      </trkpt>
      <trkpt lat="44.22215" lon="6.79614">
        <ele>2404.1</ele>
        <time>2012-07-30T05:57:16Z</time>
      </trkpt>
      <trkpt lat="44.22215" lon="6.79617">
        <ele>2403.8</ele>
        <time>2012-07-30T05:57:18Z</time>
      </trkpt>
      <trkpt lat="44.22216" lon="6.79619">
        <ele>2403.6</ele>
        <time>2012-07-30T05:57:19Z</time>
      </trkpt>
      <trkpt lat="44.22216" lon="6.7962">
        <ele>2403.5</ele>
        <time>2012-07-30T05:57:20Z</time>
      </trkpt>
      <trkpt lat="44.22218" lon="6.79649">
        <ele>2405.8</ele>
        <time>2012-07-30T05:57:45Z</time>
      </trkpt>
      <trkpt lat="44.22218" lon="6.7965">
        <ele>2405.8</ele>
        <time>2012-07-30T05:57:46Z</time>
      </trkpt>
      <trkpt lat="44.22215" lon="6.79661">
        <ele>2408.3</ele>
        <time>2012-07-30T05:57:56Z</time>
      </trkpt>
      <trkpt lat="44.22215" lon="6.79662">
        <ele>2408.3</ele>
        <time>2012-07-30T05:57:57Z</time>
      </trkpt>
      <trkpt lat="44.22215" lon="6.79667">
        <ele>2408.6</ele>
        <time>2012-07-30T05:58:01Z</time>
      </trkpt>
      <trkpt lat="44.22214" lon="6.79677">
        <ele>2409.8</ele>
        <time>2012-07-30T05:58:09Z</time>
      </trkpt>
      <trkpt lat="44.22214" lon="6.79678">
        <ele>2410</ele>
        <time>2012-07-30T05:58:10Z</time>
      </trkpt>
      <trkpt lat="44.22213" lon="6.79683">
        <ele>2410.8</ele>
        <time>2012-07-30T05:58:15Z</time>
      </trkpt>
      <trkpt lat="44.22211" lon="6.79693">
        <ele>2412</ele>
        <time>2012-07-30T05:58:23Z</time>
      </trkpt>
      <trkpt lat="44.22207" lon="6.79712">
        <ele>2414.5</ele>
        <time>2012-07-30T05:58:40Z</time>
      </trkpt>
      <trkpt lat="44.22207" lon="6.79714">
        <ele>2414.8</ele>
        <time>2012-07-30T05:58:41Z</time>
      </trkpt>
      <trkpt lat="44.22203" lon="6.79721">
        <ele>2415.3</ele>
        <time>2012-07-30T05:58:48Z</time>
      </trkpt>
      <trkpt lat="44.22203" lon="6.79722">
        <ele>2415.5</ele>
        <time>2012-07-30T05:58:49Z</time>
      </trkpt>
      <trkpt lat="44.22199" lon="6.7973">
        <ele>2416.1</ele>
        <time>2012-07-30T05:58:56Z</time>
      </trkpt>
      <trkpt lat="44.22198" lon="6.79733">
        <ele>2416.6</ele>
        <time>2012-07-30T05:58:59Z</time>
      </trkpt>
      <trkpt lat="44.22198" lon="6.79735">
        <ele>2416.8</ele>
        <time>2012-07-30T05:59:00Z</time>
      </trkpt>
      <trkpt lat="44.22198" lon="6.79736">
        <ele>2416.8</ele>
        <time>2012-07-30T05:59:01Z</time>
      </trkpt>
      <trkpt lat="44.22198" lon="6.79738">
        <ele>2417.1</ele>
        <time>2012-07-30T05:59:02Z</time>
      </trkpt>
      <trkpt lat="44.22198" lon="6.79742">
        <ele>2417.1</ele>
        <time>2012-07-30T05:59:04Z</time>
      </trkpt>
      <trkpt lat="44.22199" lon="6.79743">
        <ele>2417.3</ele>
        <time>2012-07-30T05:59:05Z</time>
      </trkpt>
      <trkpt lat="44.22201" lon="6.79752">
        <ele>2417.3</ele>
        <time>2012-07-30T05:59:11Z</time>
      </trkpt>
      <trkpt lat="44.22201" lon="6.79753">
        <ele>2417.6</ele>
        <time>2012-07-30T05:59:12Z</time>
      </trkpt>
      <trkpt lat="44.22203" lon="6.79756">
        <ele>2417.8</ele>
        <time>2012-07-30T05:59:15Z</time>
      </trkpt>
      <trkpt lat="44.22203" lon="6.79758">
        <ele>2417.8</ele>
        <time>2012-07-30T05:59:16Z</time>
      </trkpt>
      <trkpt lat="44.22204" lon="6.79759">
        <ele>2418.1</ele>
        <time>2012-07-30T05:59:17Z</time>
      </trkpt>
      <trkpt lat="44.22204" lon="6.7976">
        <ele>2418.3</ele>
        <time>2012-07-30T05:59:18Z</time>
      </trkpt>
      <trkpt lat="44.22205" lon="6.79761">
        <ele>2418.6</ele>
        <time>2012-07-30T05:59:19Z</time>
      </trkpt>
      <trkpt lat="44.22206" lon="6.79769">
        <ele>2419.3</ele>
        <time>2012-07-30T05:59:24Z</time>
      </trkpt>
      <trkpt lat="44.22207" lon="6.79774">
        <ele>2420.8</ele>
        <time>2012-07-30T05:59:28Z</time>
      </trkpt>
      <trkpt lat="44.22208" lon="6.79779">
        <ele>2421.6</ele>
        <time>2012-07-30T05:59:32Z</time>
      </trkpt>
      <trkpt lat="44.22208" lon="6.7978">
        <ele>2421.6</ele>
        <time>2012-07-30T05:59:33Z</time>
      </trkpt>
      <trkpt lat="44.22208" lon="6.79782">
        <ele>2421.8</ele>
        <time>2012-07-30T05:59:34Z</time>
      </trkpt>
      <trkpt lat="44.22206" lon="6.79794">
        <ele>2423.1</ele>
        <time>2012-07-30T05:59:45Z</time>
      </trkpt>
      <trkpt lat="44.22206" lon="6.798">
        <ele>2423.8</ele>
        <time>2012-07-30T05:59:50Z</time>
      </trkpt>
      <trkpt lat="44.22206" lon="6.79802">
        <ele>2424.1</ele>
        <time>2012-07-30T05:59:51Z</time>
      </trkpt>
      <trkpt lat="44.22207" lon="6.79811">
        <ele>2426</ele>
        <time>2012-07-30T05:59:58Z</time>
      </trkpt>
      <trkpt lat="44.22207" lon="6.79817">
        <ele>2426.3</ele>
        <time>2012-07-30T06:00:03Z</time>
      </trkpt>
      <trkpt lat="44.22206" lon="6.79835">
        <ele>2427</ele>
        <time>2012-07-30T06:00:17Z</time>
      </trkpt>
      <trkpt lat="44.22206" lon="6.7984">
        <ele>2426.6</ele>
        <time>2012-07-30T06:00:21Z</time>
      </trkpt>
      <trkpt lat="44.22207" lon="6.79841">
        <ele>2427.1</ele>
        <time>2012-07-30T06:00:22Z</time>
      </trkpt>
      <trkpt lat="44.22207" lon="6.79843">
        <ele>2427.3</ele>
        <time>2012-07-30T06:00:23Z</time>
      </trkpt>
      <trkpt lat="44.22207" lon="6.79844">
        <ele>2427.6</ele>
        <time>2012-07-30T06:00:24Z</time>
      </trkpt>
      <trkpt lat="44.22207" lon="6.79845">
        <ele>2427.8</ele>
        <time>2012-07-30T06:00:25Z</time>
      </trkpt>
      <trkpt lat="44.22207" lon="6.79853">
        <ele>2429.1</ele>
        <time>2012-07-30T06:00:32Z</time>
      </trkpt>
      <trkpt lat="44.22208" lon="6.79861">
        <ele>2430.1</ele>
        <time>2012-07-30T06:00:38Z</time>
      </trkpt>
      <trkpt lat="44.22208" lon="6.79862">
        <ele>2430.3</ele>
        <time>2012-07-30T06:00:39Z</time>
      </trkpt>
      <trkpt lat="44.22208" lon="6.79864">
        <ele>2430.6</ele>
        <time>2012-07-30T06:00:40Z</time>
      </trkpt>
      <trkpt lat="44.22209" lon="6.79865">
        <ele>2430.8</ele>
        <time>2012-07-30T06:00:41Z</time>
      </trkpt>
      <trkpt lat="44.2221" lon="6.79868">
        <ele>2431</ele>
        <time>2012-07-30T06:00:43Z</time>
      </trkpt>
      <trkpt lat="44.2221" lon="6.79869">
        <ele>2431</ele>
        <time>2012-07-30T06:00:44Z</time>
      </trkpt>
      <trkpt lat="44.2221" lon="6.79873">
        <ele>2431.5</ele>
        <time>2012-07-30T06:00:47Z</time>
      </trkpt>
      <trkpt lat="44.2221" lon="6.79876">
        <ele>2432</ele>
        <time>2012-07-30T06:00:49Z</time>
      </trkpt>
      <trkpt lat="44.2221" lon="6.79879">
        <ele>2432.1</ele>
        <time>2012-07-30T06:00:51Z</time>
      </trkpt>
      <trkpt lat="44.2221" lon="6.7988">
        <ele>2432.1</ele>
        <time>2012-07-30T06:00:52Z</time>
      </trkpt>
      <trkpt lat="44.22209" lon="6.79881">
        <ele>2432.1</ele>
        <time>2012-07-30T06:00:53Z</time>
      </trkpt>
      <trkpt lat="44.22209" lon="6.79888">
        <ele>2432</ele>
        <time>2012-07-30T06:00:59Z</time>
      </trkpt>
      <trkpt lat="44.22209" lon="6.79892">
        <ele>2432.3</ele>
        <time>2012-07-30T06:01:02Z</time>
      </trkpt>
      <trkpt lat="44.22209" lon="6.79894">
        <ele>2432.3</ele>
        <time>2012-07-30T06:01:03Z</time>
      </trkpt>
      <trkpt lat="44.22208" lon="6.79895">
        <ele>2432.5</ele>
        <time>2012-07-30T06:01:04Z</time>
      </trkpt>
      <trkpt lat="44.22207" lon="6.79905">
        <ele>2433</ele>
        <time>2012-07-30T06:01:12Z</time>
      </trkpt>
      <trkpt lat="44.22207" lon="6.79908">
        <ele>2433</ele>
        <time>2012-07-30T06:01:14Z</time>
      </trkpt>
      <trkpt lat="44.22207" lon="6.79918">
        <ele>2434.6</ele>
        <time>2012-07-30T06:01:22Z</time>
      </trkpt>
      <trkpt lat="44.22207" lon="6.79919">
        <ele>2434.8</ele>
        <time>2012-07-30T06:01:23Z</time>
      </trkpt>
      <trkpt lat="44.22207" lon="6.79921">
        <ele>2434.8</ele>
        <time>2012-07-30T06:01:24Z</time>
      </trkpt>
      <trkpt lat="44.22208" lon="6.79938">
        <ele>2438.1</ele>
        <time>2012-07-30T06:01:38Z</time>
      </trkpt>
      <trkpt lat="44.22208" lon="6.79939">
        <ele>2438.1</ele>
        <time>2012-07-30T06:01:39Z</time>
      </trkpt>
      <trkpt lat="44.22208" lon="6.79943">
        <ele>2439</ele>
        <time>2012-07-30T06:01:42Z</time>
      </trkpt>
      <trkpt lat="44.22207" lon="6.79944">
        <ele>2439.1</ele>
        <time>2012-07-30T06:01:43Z</time>
      </trkpt>
      <trkpt lat="44.22206" lon="6.79946">
        <ele>2439.3</ele>
        <time>2012-07-30T06:01:45Z</time>
      </trkpt>
      <trkpt lat="44.22206" lon="6.79947">
        <ele>2439.3</ele>
        <time>2012-07-30T06:01:46Z</time>
      </trkpt>
      <trkpt lat="44.22206" lon="6.79948">
        <ele>2439.6</ele>
        <time>2012-07-30T06:01:47Z</time>
      </trkpt>
      <trkpt lat="44.22206" lon="6.79949">
        <ele>2439.6</ele>
        <time>2012-07-30T06:01:48Z</time>
      </trkpt>
      <trkpt lat="44.22205" lon="6.79953">
        <ele>2440.1</ele>
        <time>2012-07-30T06:01:51Z</time>
      </trkpt>
      <trkpt lat="44.22206" lon="6.79954">
        <ele>2440.3</ele>
        <time>2012-07-30T06:01:52Z</time>
      </trkpt>
      <trkpt lat="44.22203" lon="6.7997">
        <ele>2439.8</ele>
        <time>2012-07-30T06:02:06Z</time>
      </trkpt>
      <trkpt lat="44.22203" lon="6.79972">
        <ele>2439.8</ele>
        <time>2012-07-30T06:02:07Z</time>
      </trkpt>
      <trkpt lat="44.22202" lon="6.79981">
        <ele>2439.6</ele>
        <time>2012-07-30T06:02:14Z</time>
      </trkpt>
      <trkpt lat="44.22201" lon="6.79982">
        <ele>2439.6</ele>
        <time>2012-07-30T06:02:15Z</time>
      </trkpt>
      <trkpt lat="44.22198" lon="6.79987">
        <ele>2439.8</ele>
        <time>2012-07-30T06:02:19Z</time>
      </trkpt>
      <trkpt lat="44.22198" lon="6.79988">
        <ele>2439.8</ele>
        <time>2012-07-30T06:02:20Z</time>
      </trkpt>
      <trkpt lat="44.22197" lon="6.7999">
        <ele>2439.8</ele>
        <time>2012-07-30T06:02:21Z</time>
      </trkpt>
      <trkpt lat="44.22197" lon="6.79991">
        <ele>2440</ele>
        <time>2012-07-30T06:02:22Z</time>
      </trkpt>
      <trkpt lat="44.22197" lon="6.79994">
        <ele>2440.8</ele>
        <time>2012-07-30T06:02:24Z</time>
      </trkpt>
      <trkpt lat="44.22198" lon="6.79995">
        <ele>2441.3</ele>
        <time>2012-07-30T06:02:25Z</time>
      </trkpt>
      <trkpt lat="44.22198" lon="6.79996">
        <ele>2441.6</ele>
        <time>2012-07-30T06:02:26Z</time>
      </trkpt>
      <trkpt lat="44.22197" lon="6.79997">
        <ele>2441.6</ele>
        <time>2012-07-30T06:02:27Z</time>
      </trkpt>
      <trkpt lat="44.22196" lon="6.80002">
        <ele>2442.3</ele>
        <time>2012-07-30T06:02:30Z</time>
      </trkpt>
      <trkpt lat="44.22194" lon="6.8001">
        <ele>2443</ele>
        <time>2012-07-30T06:02:35Z</time>
      </trkpt>
      <trkpt lat="44.22194" lon="6.80013">
        <ele>2443.1</ele>
        <time>2012-07-30T06:02:37Z</time>
      </trkpt>
      <trkpt lat="44.22193" lon="6.80016">
        <ele>2443.5</ele>
        <time>2012-07-30T06:02:39Z</time>
      </trkpt>
      <trkpt lat="44.22192" lon="6.8003">
        <ele>2444.8</ele>
        <time>2012-07-30T06:02:48Z</time>
      </trkpt>
      <trkpt lat="44.22192" lon="6.80034">
        <ele>2445.3</ele>
        <time>2012-07-30T06:02:51Z</time>
      </trkpt>
      <trkpt lat="44.22191" lon="6.80036">
        <ele>2445.3</ele>
        <time>2012-07-30T06:02:52Z</time>
      </trkpt>
      <trkpt lat="44.22191" lon="6.80037">
        <ele>2445.3</ele>
        <time>2012-07-30T06:02:53Z</time>
      </trkpt>
      <trkpt lat="44.22189" lon="6.80042">
        <ele>2445.5</ele>
        <time>2012-07-30T06:02:57Z</time>
      </trkpt>
      <trkpt lat="44.22188" lon="6.80046">
        <ele>2445.6</ele>
        <time>2012-07-30T06:02:59Z</time>
      </trkpt>
      <trkpt lat="44.22183" lon="6.80068">
        <ele>2447.8</ele>
        <time>2012-07-30T06:03:14Z</time>
      </trkpt>
      <trkpt lat="44.22183" lon="6.8007">
        <ele>2447.6</ele>
        <time>2012-07-30T06:03:15Z</time>
      </trkpt>
      <trkpt lat="44.22177" lon="6.8009">
        <ele>2448.3</ele>
        <time>2012-07-30T06:03:29Z</time>
      </trkpt>
      <trkpt lat="44.22174" lon="6.80099">
        <ele>2448.6</ele>
        <time>2012-07-30T06:03:35Z</time>
      </trkpt>
      <trkpt lat="44.22169" lon="6.80119">
        <ele>2449.1</ele>
        <time>2012-07-30T06:03:49Z</time>
      </trkpt>
      <trkpt lat="44.22168" lon="6.80125">
        <ele>2449.3</ele>
        <time>2012-07-30T06:03:53Z</time>
      </trkpt>
      <trkpt lat="44.22167" lon="6.80128">
        <ele>2449.6</ele>
        <time>2012-07-30T06:03:55Z</time>
      </trkpt>
      <trkpt lat="44.22167" lon="6.80129">
        <ele>2449.6</ele>
        <time>2012-07-30T06:03:56Z</time>
      </trkpt>
      <trkpt lat="44.22167" lon="6.80132">
        <ele>2449.8</ele>
        <time>2012-07-30T06:03:58Z</time>
      </trkpt>
      <trkpt lat="44.22166" lon="6.80141">
        <ele>2450.1</ele>
        <time>2012-07-30T06:04:04Z</time>
      </trkpt>
      <trkpt lat="44.22166" lon="6.80142">
        <ele>2450.1</ele>
        <time>2012-07-30T06:04:05Z</time>
      </trkpt>
      <trkpt lat="44.22166" lon="6.80158">
        <ele>2451</ele>
        <time>2012-07-30T06:04:15Z</time>
      </trkpt>
      <trkpt lat="44.22165" lon="6.8016">
        <ele>2451</ele>
        <time>2012-07-30T06:04:16Z</time>
      </trkpt>
      <trkpt lat="44.22165" lon="6.80162">
        <ele>2451.1</ele>
        <time>2012-07-30T06:04:17Z</time>
      </trkpt>
      <trkpt lat="44.22164" lon="6.80166">
        <ele>2451.3</ele>
        <time>2012-07-30T06:04:20Z</time>
      </trkpt>
      <trkpt lat="44.22163" lon="6.80167">
        <ele>2451.5</ele>
        <time>2012-07-30T06:04:21Z</time>
      </trkpt>
      <trkpt lat="44.22162" lon="6.80174">
        <ele>2451.8</ele>
        <time>2012-07-30T06:04:26Z</time>
      </trkpt>
      <trkpt lat="44.22161" lon="6.80177">
        <ele>2452</ele>
        <time>2012-07-30T06:04:28Z</time>
      </trkpt>
      <trkpt lat="44.22161" lon="6.80178">
        <ele>2452</ele>
        <time>2012-07-30T06:04:29Z</time>
      </trkpt>
      <trkpt lat="44.22161" lon="6.8018">
        <ele>2452.1</ele>
        <time>2012-07-30T06:04:30Z</time>
      </trkpt>
      <trkpt lat="44.2216" lon="6.80184">
        <ele>2452.3</ele>
        <time>2012-07-30T06:04:33Z</time>
      </trkpt>
      <trkpt lat="44.2216" lon="6.80185">
        <ele>2452.5</ele>
        <time>2012-07-30T06:04:34Z</time>
      </trkpt>
      <trkpt lat="44.2216" lon="6.80186">
        <ele>2452.8</ele>
        <time>2012-07-30T06:04:35Z</time>
      </trkpt>
      <trkpt lat="44.22159" lon="6.80188">
        <ele>2453</ele>
        <time>2012-07-30T06:04:36Z</time>
      </trkpt>
      <trkpt lat="44.22159" lon="6.80189">
        <ele>2453.1</ele>
        <time>2012-07-30T06:04:37Z</time>
      </trkpt>
      <trkpt lat="44.22158" lon="6.8019">
        <ele>2453.1</ele>
        <time>2012-07-30T06:04:38Z</time>
      </trkpt>
      <trkpt lat="44.22158" lon="6.80192">
        <ele>2453.1</ele>
        <time>2012-07-30T06:04:39Z</time>
      </trkpt>
      <trkpt lat="44.22158" lon="6.80197">
        <ele>2453.6</ele>
        <time>2012-07-30T06:04:43Z</time>
      </trkpt>
      <trkpt lat="44.22158" lon="6.80199">
        <ele>2453.6</ele>
        <time>2012-07-30T06:04:44Z</time>
      </trkpt>
      <trkpt lat="44.22157" lon="6.802">
        <ele>2453.8</ele>
        <time>2012-07-30T06:04:45Z</time>
      </trkpt>
      <trkpt lat="44.22157" lon="6.80203">
        <ele>2454</ele>
        <time>2012-07-30T06:04:47Z</time>
      </trkpt>
      <trkpt lat="44.22157" lon="6.80208">
        <ele>2453.8</ele>
        <time>2012-07-30T06:04:50Z</time>
      </trkpt>
      <trkpt lat="44.22155" lon="6.80217">
        <ele>2454.1</ele>
        <time>2012-07-30T06:04:55Z</time>
      </trkpt>
      <trkpt lat="44.22155" lon="6.80219">
        <ele>2454.1</ele>
        <time>2012-07-30T06:04:56Z</time>
      </trkpt>
      <trkpt lat="44.22155" lon="6.8022">
        <ele>2454.3</ele>
        <time>2012-07-30T06:04:57Z</time>
      </trkpt>
      <trkpt lat="44.22156" lon="6.80225">
        <ele>2454.3</ele>
        <time>2012-07-30T06:05:00Z</time>
      </trkpt>
      <trkpt lat="44.22156" lon="6.80235">
        <ele>2454.1</ele>
        <time>2012-07-30T06:05:06Z</time>
      </trkpt>
      <trkpt lat="44.22157" lon="6.80251">
        <ele>2455</ele>
        <time>2012-07-30T06:05:16Z</time>
      </trkpt>
      <trkpt lat="44.22157" lon="6.80256">
        <ele>2454.8</ele>
        <time>2012-07-30T06:05:19Z</time>
      </trkpt>
      <trkpt lat="44.22156" lon="6.80257">
        <ele>2455.1</ele>
        <time>2012-07-30T06:05:20Z</time>
      </trkpt>
      <trkpt lat="44.22153" lon="6.80285">
        <ele>2456.3</ele>
        <time>2012-07-30T06:05:40Z</time>
      </trkpt>
      <trkpt lat="44.2215" lon="6.80298">
        <ele>2457</ele>
        <time>2012-07-30T06:05:49Z</time>
      </trkpt>
      <trkpt lat="44.22149" lon="6.80304">
        <ele>2457</ele>
        <time>2012-07-30T06:05:54Z</time>
      </trkpt>
      <trkpt lat="44.22148" lon="6.8031">
        <ele>2458.1</ele>
        <time>2012-07-30T06:05:57Z</time>
      </trkpt>
      <trkpt lat="44.22147" lon="6.80314">
        <ele>2458.5</ele>
        <time>2012-07-30T06:06:00Z</time>
      </trkpt>
      <trkpt lat="44.22147" lon="6.80315">
        <ele>2458.6</ele>
        <time>2012-07-30T06:06:01Z</time>
      </trkpt>
      <trkpt lat="44.22147" lon="6.80317">
        <ele>2458.8</ele>
        <time>2012-07-30T06:06:02Z</time>
      </trkpt>
      <trkpt lat="44.22145" lon="6.80332">
        <ele>2460.1</ele>
        <time>2012-07-30T06:06:12Z</time>
      </trkpt>
      <trkpt lat="44.22143" lon="6.8035">
        <ele>2461.1</ele>
        <time>2012-07-30T06:06:25Z</time>
      </trkpt>
      <trkpt lat="44.22143" lon="6.80351">
        <ele>2461.1</ele>
        <time>2012-07-30T06:06:26Z</time>
      </trkpt>
      <trkpt lat="44.22142" lon="6.80356">
        <ele>2461.5</ele>
        <time>2012-07-30T06:06:30Z</time>
      </trkpt>
      <trkpt lat="44.22141" lon="6.80363">
        <ele>2462.1</ele>
        <time>2012-07-30T06:06:35Z</time>
      </trkpt>
      <trkpt lat="44.22141" lon="6.80373">
        <ele>2463</ele>
        <time>2012-07-30T06:06:43Z</time>
      </trkpt>
      <trkpt lat="44.22141" lon="6.80375">
        <ele>2463.1</ele>
        <time>2012-07-30T06:06:44Z</time>
      </trkpt>
      <trkpt lat="44.22141" lon="6.80381">
        <ele>2463.6</ele>
        <time>2012-07-30T06:06:49Z</time>
      </trkpt>
      <trkpt lat="44.22141" lon="6.80382">
        <ele>2463.8</ele>
        <time>2012-07-30T06:06:50Z</time>
      </trkpt>
      <trkpt lat="44.22141" lon="6.80392">
        <ele>2464.6</ele>
        <time>2012-07-30T06:06:57Z</time>
      </trkpt>
      <trkpt lat="44.2214" lon="6.80393">
        <ele>2464.6</ele>
        <time>2012-07-30T06:06:58Z</time>
      </trkpt>
      <trkpt lat="44.22139" lon="6.80402">
        <ele>2465.5</ele>
        <time>2012-07-30T06:07:04Z</time>
      </trkpt>
      <trkpt lat="44.22135" lon="6.80416">
        <ele>2466.1</ele>
        <time>2012-07-30T06:07:13Z</time>
      </trkpt>
      <trkpt lat="44.22135" lon="6.80417">
        <ele>2466.1</ele>
        <time>2012-07-30T06:07:14Z</time>
      </trkpt>
      <trkpt lat="44.22135" lon="6.80419">
        <ele>2466.3</ele>
        <time>2012-07-30T06:07:15Z</time>
      </trkpt>
      <trkpt lat="44.22135" lon="6.8042">
        <ele>2466.3</ele>
        <time>2012-07-30T06:07:16Z</time>
      </trkpt>
      <trkpt lat="44.22134" lon="6.80425">
        <ele>2466.5</ele>
        <time>2012-07-30T06:07:19Z</time>
      </trkpt>
      <trkpt lat="44.22134" lon="6.80426">
        <ele>2466.6</ele>
        <time>2012-07-30T06:07:20Z</time>
      </trkpt>
      <trkpt lat="44.22133" lon="6.80427">
        <ele>2466.6</ele>
        <time>2012-07-30T06:07:21Z</time>
      </trkpt>
      <trkpt lat="44.22133" lon="6.80429">
        <ele>2466.8</ele>
        <time>2012-07-30T06:07:22Z</time>
      </trkpt>
      <trkpt lat="44.22134" lon="6.8043">
        <ele>2466.8</ele>
        <time>2012-07-30T06:07:23Z</time>
      </trkpt>
      <trkpt lat="44.22134" lon="6.80437">
        <ele>2468.1</ele>
        <time>2012-07-30T06:07:27Z</time>
      </trkpt>
      <trkpt lat="44.22134" lon="6.80439">
        <ele>2468.1</ele>
        <time>2012-07-30T06:07:28Z</time>
      </trkpt>
      <trkpt lat="44.22134" lon="6.80441">
        <ele>2468.1</ele>
        <time>2012-07-30T06:07:29Z</time>
      </trkpt>
      <trkpt lat="44.22134" lon="6.80442">
        <ele>2468</ele>
        <time>2012-07-30T06:07:30Z</time>
      </trkpt>
      <trkpt lat="44.22134" lon="6.80449">
        <ele>2468.5</ele>
        <time>2012-07-30T06:07:35Z</time>
      </trkpt>
      <trkpt lat="44.22134" lon="6.80451">
        <ele>2468.8</ele>
        <time>2012-07-30T06:07:36Z</time>
      </trkpt>
      <trkpt lat="44.22134" lon="6.80453">
        <ele>2468.8</ele>
        <time>2012-07-30T06:07:37Z</time>
      </trkpt>
      <trkpt lat="44.22133" lon="6.80458">
        <ele>2468.8</ele>
        <time>2012-07-30T06:07:40Z</time>
      </trkpt>
      <trkpt lat="44.22133" lon="6.8046">
        <ele>2468.8</ele>
        <time>2012-07-30T06:07:41Z</time>
      </trkpt>
      <trkpt lat="44.22132" lon="6.80466">
        <ele>2468.8</ele>
        <time>2012-07-30T06:07:45Z</time>
      </trkpt>
      <trkpt lat="44.22132" lon="6.80467">
        <ele>2468.8</ele>
        <time>2012-07-30T06:07:46Z</time>
      </trkpt>
      <trkpt lat="44.22133" lon="6.80469">
        <ele>2468.8</ele>
        <time>2012-07-30T06:07:47Z</time>
      </trkpt>
      <trkpt lat="44.22133" lon="6.8047">
        <ele>2468.8</ele>
        <time>2012-07-30T06:07:48Z</time>
      </trkpt>
      <trkpt lat="44.22133" lon="6.80472">
        <ele>2468.8</ele>
        <time>2012-07-30T06:07:49Z</time>
      </trkpt>
      <trkpt lat="44.22134" lon="6.80477">
        <ele>2469.1</ele>
        <time>2012-07-30T06:07:53Z</time>
      </trkpt>
      <trkpt lat="44.22134" lon="6.80478">
        <ele>2469.3</ele>
        <time>2012-07-30T06:07:54Z</time>
      </trkpt>
      <trkpt lat="44.22135" lon="6.80481">
        <ele>2469.5</ele>
        <time>2012-07-30T06:07:56Z</time>
      </trkpt>
      <trkpt lat="44.22135" lon="6.80482">
        <ele>2469.8</ele>
        <time>2012-07-30T06:07:57Z</time>
      </trkpt>
      <trkpt lat="44.22135" lon="6.80484">
        <ele>2470.3</ele>
        <time>2012-07-30T06:07:58Z</time>
      </trkpt>
      <trkpt lat="44.22134" lon="6.80489">
        <ele>2470.5</ele>
        <time>2012-07-30T06:08:01Z</time>
      </trkpt>
      <trkpt lat="44.22133" lon="6.8049">
        <ele>2470.3</ele>
        <time>2012-07-30T06:08:02Z</time>
      </trkpt>
      <trkpt lat="44.22133" lon="6.80491">
        <ele>2470.3</ele>
        <time>2012-07-30T06:08:03Z</time>
      </trkpt>
      <trkpt lat="44.22133" lon="6.80493">
        <ele>2470.5</ele>
        <time>2012-07-30T06:08:04Z</time>
      </trkpt>
      <trkpt lat="44.22133" lon="6.80498">
        <ele>2470.8</ele>
        <time>2012-07-30T06:08:08Z</time>
      </trkpt>
      <trkpt lat="44.22133" lon="6.805">
        <ele>2471.1</ele>
        <time>2012-07-30T06:08:09Z</time>
      </trkpt>
      <trkpt lat="44.22133" lon="6.80501">
        <ele>2471.1</ele>
        <time>2012-07-30T06:08:10Z</time>
      </trkpt>
      <trkpt lat="44.22133" lon="6.8051">
        <ele>2471.8</ele>
        <time>2012-07-30T06:08:16Z</time>
      </trkpt>
      <trkpt lat="44.22134" lon="6.80512">
        <ele>2472</ele>
        <time>2012-07-30T06:08:17Z</time>
      </trkpt>
      <trkpt lat="44.22134" lon="6.80515">
        <ele>2472.1</ele>
        <time>2012-07-30T06:08:19Z</time>
      </trkpt>
      <trkpt lat="44.22134" lon="6.80522">
        <ele>2472.6</ele>
        <time>2012-07-30T06:08:24Z</time>
      </trkpt>
      <trkpt lat="44.22133" lon="6.80524">
        <ele>2472.6</ele>
        <time>2012-07-30T06:08:25Z</time>
      </trkpt>
      <trkpt lat="44.22134" lon="6.80526">
        <ele>2472.6</ele>
        <time>2012-07-30T06:08:26Z</time>
      </trkpt>
      <trkpt lat="44.22134" lon="6.8053">
        <ele>2472.8</ele>
        <time>2012-07-30T06:08:29Z</time>
      </trkpt>
      <trkpt lat="44.22134" lon="6.80532">
        <ele>2472.6</ele>
        <time>2012-07-30T06:08:30Z</time>
      </trkpt>
      <trkpt lat="44.22135" lon="6.80534">
        <ele>2472.8</ele>
        <time>2012-07-30T06:08:32Z</time>
      </trkpt>
      <trkpt lat="44.22137" lon="6.80539">
        <ele>2473.8</ele>
        <time>2012-07-30T06:08:36Z</time>
      </trkpt>
      <trkpt lat="44.22137" lon="6.8054">
        <ele>2474</ele>
        <time>2012-07-30T06:08:37Z</time>
      </trkpt>
      <trkpt lat="44.22139" lon="6.80544">
        <ele>2474.3</ele>
        <time>2012-07-30T06:08:40Z</time>
      </trkpt>
      <trkpt lat="44.22139" lon="6.80545">
        <ele>2474.5</ele>
        <time>2012-07-30T06:08:41Z</time>
      </trkpt>
      <trkpt lat="44.22139" lon="6.80546">
        <ele>2474.3</ele>
        <time>2012-07-30T06:08:42Z</time>
      </trkpt>
      <trkpt lat="44.2214" lon="6.80547">
        <ele>2474.3</ele>
        <time>2012-07-30T06:08:43Z</time>
      </trkpt>
      <trkpt lat="44.22141" lon="6.8055">
        <ele>2474.3</ele>
        <time>2012-07-30T06:08:45Z</time>
      </trkpt>
      <trkpt lat="44.22141" lon="6.80551">
        <ele>2474.1</ele>
        <time>2012-07-30T06:08:46Z</time>
      </trkpt>
      <trkpt lat="44.22141" lon="6.80554">
        <ele>2473.8</ele>
        <time>2012-07-30T06:08:48Z</time>
      </trkpt>
      <trkpt lat="44.22141" lon="6.80558">
        <ele>2474.3</ele>
        <time>2012-07-30T06:08:50Z</time>
      </trkpt>
      <trkpt lat="44.22141" lon="6.80564">
        <ele>2474.1</ele>
        <time>2012-07-30T06:08:54Z</time>
      </trkpt>
      <trkpt lat="44.2214" lon="6.80574">
        <ele>2474.3</ele>
        <time>2012-07-30T06:09:00Z</time>
      </trkpt>
      <trkpt lat="44.2214" lon="6.80575">
        <ele>2474.3</ele>
        <time>2012-07-30T06:09:01Z</time>
      </trkpt>
      <trkpt lat="44.22138" lon="6.80581">
        <ele>2474.5</ele>
        <time>2012-07-30T06:09:06Z</time>
      </trkpt>
      <trkpt lat="44.22127" lon="6.8063">
        <ele>2482.1</ele>
        <time>2012-07-30T06:09:55Z</time>
      </trkpt>
      <trkpt lat="44.22126" lon="6.80631">
        <ele>2482.3</ele>
        <time>2012-07-30T06:09:56Z</time>
      </trkpt>
      <trkpt lat="44.22093" lon="6.80695">
        <ele>2497.3</ele>
        <time>2012-07-30T06:11:25Z</time>
      </trkpt>
      <trkpt lat="44.22092" lon="6.80696">
        <ele>2497.5</ele>
        <time>2012-07-30T06:11:26Z</time>
      </trkpt>
      <trkpt lat="44.22089" lon="6.80698">
        <ele>2497.8</ele>
        <time>2012-07-30T06:11:31Z</time>
      </trkpt>
      <trkpt lat="44.22089" lon="6.80699">
        <ele>2497.8</ele>
        <time>2012-07-30T06:11:32Z</time>
      </trkpt>
      <trkpt lat="44.22086" lon="6.80703">
        <ele>2498.5</ele>
        <time>2012-07-30T06:11:36Z</time>
      </trkpt>
      <trkpt lat="44.22085" lon="6.80703">
        <ele>2498.6</ele>
        <time>2012-07-30T06:11:37Z</time>
      </trkpt>
      <trkpt lat="44.22079" lon="6.80706">
        <ele>2499.6</ele>
        <time>2012-07-30T06:11:43Z</time>
      </trkpt>
      <trkpt lat="44.22074" lon="6.80711">
        <ele>2501.3</ele>
        <time>2012-07-30T06:11:50Z</time>
      </trkpt>
      <trkpt lat="44.22073" lon="6.80712">
        <ele>2501.6</ele>
        <time>2012-07-30T06:11:51Z</time>
      </trkpt>
      <trkpt lat="44.22073" lon="6.80712">
        <ele>2501.6</ele>
        <time>2012-07-30T06:11:52Z</time>
      </trkpt>
      <trkpt lat="44.22067" lon="6.80714">
        <ele>2502.8</ele>
        <time>2012-07-30T06:11:59Z</time>
      </trkpt>
      <trkpt lat="44.22066" lon="6.80715">
        <ele>2502.8</ele>
        <time>2012-07-30T06:12:00Z</time>
      </trkpt>
      <trkpt lat="44.22066" lon="6.80717">
        <ele>2503</ele>
        <time>2012-07-30T06:12:01Z</time>
      </trkpt>
      <trkpt lat="44.22066" lon="6.80718">
        <ele>2502.8</ele>
        <time>2012-07-30T06:12:02Z</time>
      </trkpt>
      <trkpt lat="44.22066" lon="6.8072">
        <ele>2503</ele>
        <time>2012-07-30T06:12:03Z</time>
      </trkpt>
      <trkpt lat="44.22064" lon="6.80729">
        <ele>2504.8</ele>
        <time>2012-07-30T06:12:10Z</time>
      </trkpt>
      <trkpt lat="44.22063" lon="6.80737">
        <ele>2506</ele>
        <time>2012-07-30T06:12:16Z</time>
      </trkpt>
      <trkpt lat="44.22063" lon="6.80739">
        <ele>2506.1</ele>
        <time>2012-07-30T06:12:17Z</time>
      </trkpt>
      <trkpt lat="44.22063" lon="6.8074">
        <ele>2506.1</ele>
        <time>2012-07-30T06:12:18Z</time>
      </trkpt>
      <trkpt lat="44.22064" lon="6.80742">
        <ele>2506.3</ele>
        <time>2012-07-30T06:12:19Z</time>
      </trkpt>
      <trkpt lat="44.22064" lon="6.80745">
        <ele>2506.1</ele>
        <time>2012-07-30T06:12:22Z</time>
      </trkpt>
      <trkpt lat="44.22065" lon="6.80759">
        <ele>2505.8</ele>
        <time>2012-07-30T06:12:33Z</time>
      </trkpt>
      <trkpt lat="44.22065" lon="6.8076">
        <ele>2505.8</ele>
        <time>2012-07-30T06:12:34Z</time>
      </trkpt>
      <trkpt lat="44.22066" lon="6.80761">
        <ele>2505.8</ele>
        <time>2012-07-30T06:12:35Z</time>
      </trkpt>
      <trkpt lat="44.22068" lon="6.80769">
        <ele>2506.1</ele>
        <time>2012-07-30T06:12:41Z</time>
      </trkpt>
      <trkpt lat="44.22071" lon="6.80778">
        <ele>2506.1</ele>
        <time>2012-07-30T06:12:48Z</time>
      </trkpt>
      <trkpt lat="44.22071" lon="6.80779">
        <ele>2506.1</ele>
        <time>2012-07-30T06:12:49Z</time>
      </trkpt>
      <trkpt lat="44.22071" lon="6.8078">
        <ele>2506.1</ele>
        <time>2012-07-30T06:12:50Z</time>
      </trkpt>
      <trkpt lat="44.22071" lon="6.80781">
        <ele>2506</ele>
        <time>2012-07-30T06:12:51Z</time>
      </trkpt>
      <trkpt lat="44.22071" lon="6.80783">
        <ele>2506.1</ele>
        <time>2012-07-30T06:12:52Z</time>
      </trkpt>
      <trkpt lat="44.22073" lon="6.8079">
        <ele>2507.1</ele>
        <time>2012-07-30T06:12:57Z</time>
      </trkpt>
      <trkpt lat="44.22074" lon="6.80794">
        <ele>2507.1</ele>
        <time>2012-07-30T06:12:59Z</time>
      </trkpt>
      <trkpt lat="44.22075" lon="6.80797">
        <ele>2507.1</ele>
        <time>2012-07-30T06:13:01Z</time>
      </trkpt>
      <trkpt lat="44.22077" lon="6.80801">
        <ele>2506.8</ele>
        <time>2012-07-30T06:13:04Z</time>
      </trkpt>
      <trkpt lat="44.22077" lon="6.80803">
        <ele>2506.8</ele>
        <time>2012-07-30T06:13:05Z</time>
      </trkpt>
      <trkpt lat="44.22078" lon="6.8081">
        <ele>2507.1</ele>
        <time>2012-07-30T06:13:10Z</time>
      </trkpt>
      <trkpt lat="44.22079" lon="6.80811">
        <ele>2507.3</ele>
        <time>2012-07-30T06:13:11Z</time>
      </trkpt>
      <trkpt lat="44.22079" lon="6.80813">
        <ele>2507</ele>
        <time>2012-07-30T06:13:12Z</time>
      </trkpt>
      <trkpt lat="44.22079" lon="6.80817">
        <ele>2507.1</ele>
        <time>2012-07-30T06:13:16Z</time>
      </trkpt>
      <trkpt lat="44.2208" lon="6.80823">
        <ele>2507.1</ele>
        <time>2012-07-30T06:13:20Z</time>
      </trkpt>
      <trkpt lat="44.2208" lon="6.80824">
        <ele>2507</ele>
        <time>2012-07-30T06:13:21Z</time>
      </trkpt>
      <trkpt lat="44.2208" lon="6.80826">
        <ele>2507</ele>
        <time>2012-07-30T06:13:22Z</time>
      </trkpt>
      <trkpt lat="44.2208" lon="6.80827">
        <ele>2506.6</ele>
        <time>2012-07-30T06:13:23Z</time>
      </trkpt>
      <trkpt lat="44.22081" lon="6.80845">
        <ele>2509.6</ele>
        <time>2012-07-30T06:13:39Z</time>
      </trkpt>
      <trkpt lat="44.2208" lon="6.80846">
        <ele>2509.6</ele>
        <time>2012-07-30T06:13:40Z</time>
      </trkpt>
      <trkpt lat="44.22078" lon="6.80853">
        <ele>2509.1</ele>
        <time>2012-07-30T06:13:45Z</time>
      </trkpt>
      <trkpt lat="44.22077" lon="6.80857">
        <ele>2509</ele>
        <time>2012-07-30T06:13:48Z</time>
      </trkpt>
      <trkpt lat="44.22077" lon="6.80858">
        <ele>2508.8</ele>
        <time>2012-07-30T06:13:49Z</time>
      </trkpt>
      <trkpt lat="44.22077" lon="6.80862">
        <ele>2508.8</ele>
        <time>2012-07-30T06:13:51Z</time>
      </trkpt>
      <trkpt lat="44.22076" lon="6.80865">
        <ele>2508.8</ele>
        <time>2012-07-30T06:13:53Z</time>
      </trkpt>
      <trkpt lat="44.22076" lon="6.80868">
        <ele>2509.8</ele>
        <time>2012-07-30T06:13:55Z</time>
      </trkpt>
      <trkpt lat="44.22075" lon="6.80873">
        <ele>2509.8</ele>
        <time>2012-07-30T06:13:58Z</time>
      </trkpt>
      <trkpt lat="44.22075" lon="6.80875">
        <ele>2510.1</ele>
        <time>2012-07-30T06:13:59Z</time>
      </trkpt>
      <trkpt lat="44.22075" lon="6.80876">
        <ele>2510.1</ele>
        <time>2012-07-30T06:14:00Z</time>
      </trkpt>
      <trkpt lat="44.22074" lon="6.80881">
        <ele>2510.8</ele>
        <time>2012-07-30T06:14:03Z</time>
      </trkpt>
      <trkpt lat="44.22074" lon="6.80882">
        <ele>2510.8</ele>
        <time>2012-07-30T06:14:04Z</time>
      </trkpt>
      <trkpt lat="44.22073" lon="6.80888">
        <ele>2511.6</ele>
        <time>2012-07-30T06:14:08Z</time>
      </trkpt>
      <trkpt lat="44.22073" lon="6.80889">
        <ele>2511.6</ele>
        <time>2012-07-30T06:14:09Z</time>
      </trkpt>
      <trkpt lat="44.22072" lon="6.80897">
        <ele>2512.1</ele>
        <time>2012-07-30T06:14:14Z</time>
      </trkpt>
      <trkpt lat="44.2207" lon="6.80902">
        <ele>2512.6</ele>
        <time>2012-07-30T06:14:17Z</time>
      </trkpt>
      <trkpt lat="44.2207" lon="6.80904">
        <ele>2512.6</ele>
        <time>2012-07-30T06:14:18Z</time>
      </trkpt>
      <trkpt lat="44.22068" lon="6.80908">
        <ele>2513</ele>
        <time>2012-07-30T06:14:21Z</time>
      </trkpt>
      <trkpt lat="44.22063" lon="6.8092">
        <ele>2513.3</ele>
        <time>2012-07-30T06:14:30Z</time>
      </trkpt>
      <trkpt lat="44.2206" lon="6.80928">
        <ele>2514.1</ele>
        <time>2012-07-30T06:14:35Z</time>
      </trkpt>
      <trkpt lat="44.22057" lon="6.80935">
        <ele>2514.8</ele>
        <time>2012-07-30T06:14:41Z</time>
      </trkpt>
      <trkpt lat="44.22056" lon="6.80936">
        <ele>2515.1</ele>
        <time>2012-07-30T06:14:42Z</time>
      </trkpt>
      <trkpt lat="44.22056" lon="6.80938">
        <ele>2515.3</ele>
        <time>2012-07-30T06:14:43Z</time>
      </trkpt>
      <trkpt lat="44.22052" lon="6.80949">
        <ele>2517.3</ele>
        <time>2012-07-30T06:14:52Z</time>
      </trkpt>
      <trkpt lat="44.22051" lon="6.8095">
        <ele>2517.6</ele>
        <time>2012-07-30T06:14:53Z</time>
      </trkpt>
      <trkpt lat="44.22051" lon="6.80951">
        <ele>2517.6</ele>
        <time>2012-07-30T06:14:54Z</time>
      </trkpt>
      <trkpt lat="44.22051" lon="6.80954">
        <ele>2517.6</ele>
        <time>2012-07-30T06:14:56Z</time>
      </trkpt>
      <trkpt lat="44.2205" lon="6.80964">
        <ele>2519.6</ele>
        <time>2012-07-30T06:15:05Z</time>
      </trkpt>
      <trkpt lat="44.22051" lon="6.80976">
        <ele>2521.8</ele>
        <time>2012-07-30T06:15:18Z</time>
      </trkpt>
      <trkpt lat="44.22052" lon="6.80976">
        <ele>2522.1</ele>
        <time>2012-07-30T06:15:19Z</time>
      </trkpt>
      <trkpt lat="44.22053" lon="6.80975">
        <ele>2522.1</ele>
        <time>2012-07-30T06:15:20Z</time>
      </trkpt>
      <trkpt lat="44.22054" lon="6.80975">
        <ele>2522.3</ele>
        <time>2012-07-30T06:15:21Z</time>
      </trkpt>
      <trkpt lat="44.22055" lon="6.80974">
        <ele>2522.1</ele>
        <time>2012-07-30T06:15:22Z</time>
      </trkpt>
      <trkpt lat="44.22056" lon="6.80974">
        <ele>2522.1</ele>
        <time>2012-07-30T06:15:23Z</time>
      </trkpt>
      <trkpt lat="44.22057" lon="6.80974">
        <ele>2522.3</ele>
        <time>2012-07-30T06:15:24Z</time>
      </trkpt>
      <trkpt lat="44.22057" lon="6.80974">
        <ele>2522.3</ele>
        <time>2012-07-30T06:15:25Z</time>
      </trkpt>
      <trkpt lat="44.22058" lon="6.80974">
        <ele>2522.5</ele>
        <time>2012-07-30T06:15:26Z</time>
      </trkpt>
      <trkpt lat="44.22059" lon="6.80975">
        <ele>2522.6</ele>
        <time>2012-07-30T06:15:27Z</time>
      </trkpt>
      <trkpt lat="44.2206" lon="6.80975">
        <ele>2522.8</ele>
        <time>2012-07-30T06:15:28Z</time>
      </trkpt>
      <trkpt lat="44.2206" lon="6.80976">
        <ele>2523</ele>
        <time>2012-07-30T06:15:29Z</time>
      </trkpt>
      <trkpt lat="44.22061" lon="6.80976">
        <ele>2523</ele>
        <time>2012-07-30T06:15:30Z</time>
      </trkpt>
      <trkpt lat="44.22062" lon="6.80977">
        <ele>2523.3</ele>
        <time>2012-07-30T06:15:31Z</time>
      </trkpt>
      <trkpt lat="44.22062" lon="6.80978">
        <ele>2523.3</ele>
        <time>2012-07-30T06:15:32Z</time>
      </trkpt>
      <trkpt lat="44.22062" lon="6.80979">
        <ele>2523.5</ele>
        <time>2012-07-30T06:15:33Z</time>
      </trkpt>
      <trkpt lat="44.22063" lon="6.80979">
        <ele>2523.5</ele>
        <time>2012-07-30T06:15:34Z</time>
      </trkpt>
      <trkpt lat="44.22063" lon="6.8098">
        <ele>2523.6</ele>
        <time>2012-07-30T06:15:35Z</time>
      </trkpt>
      <trkpt lat="44.22063" lon="6.80981">
        <ele>2523.8</ele>
        <time>2012-07-30T06:15:36Z</time>
      </trkpt>
      <trkpt lat="44.22064" lon="6.80982">
        <ele>2524</ele>
        <time>2012-07-30T06:15:37Z</time>
      </trkpt>
      <trkpt lat="44.22064" lon="6.80983">
        <ele>2523.8</ele>
        <time>2012-07-30T06:15:38Z</time>
      </trkpt>
      <trkpt lat="44.22064" lon="6.80983">
        <ele>2524.1</ele>
        <time>2012-07-30T06:15:39Z</time>
      </trkpt>
      <trkpt lat="44.22064" lon="6.80984">
        <ele>2525.1</ele>
        <time>2012-07-30T06:15:40Z</time>
      </trkpt>
      <trkpt lat="44.22064" lon="6.80985">
        <ele>2525.3</ele>
        <time>2012-07-30T06:15:41Z</time>
      </trkpt>
      <trkpt lat="44.22064" lon="6.80985">
        <ele>2525.5</ele>
        <time>2012-07-30T06:15:42Z</time>
      </trkpt>
      <trkpt lat="44.22064" lon="6.80986">
        <ele>2525.6</ele>
        <time>2012-07-30T06:15:43Z</time>
      </trkpt>
      <trkpt lat="44.22064" lon="6.80987">
        <ele>2525.5</ele>
        <time>2012-07-30T06:15:44Z</time>
      </trkpt>
      <trkpt lat="44.22064" lon="6.80988">
        <ele>2525.6</ele>
        <time>2012-07-30T06:15:45Z</time>
      </trkpt>
      <trkpt lat="44.22063" lon="6.80989">
        <ele>2525.6</ele>
        <time>2012-07-30T06:15:46Z</time>
      </trkpt>
      <trkpt lat="44.22063" lon="6.8099">
        <ele>2525.5</ele>
        <time>2012-07-30T06:15:47Z</time>
      </trkpt>
      <trkpt lat="44.22063" lon="6.80991">
        <ele>2525.1</ele>
        <time>2012-07-30T06:15:48Z</time>
      </trkpt>
      <trkpt lat="44.22063" lon="6.80992">
        <ele>2524.8</ele>
        <time>2012-07-30T06:15:49Z</time>
      </trkpt>
      <trkpt lat="44.22062" lon="6.80993">
        <ele>2524.8</ele>
        <time>2012-07-30T06:15:50Z</time>
      </trkpt>
      <trkpt lat="44.22062" lon="6.80994">
        <ele>2524.8</ele>
        <time>2012-07-30T06:15:51Z</time>
      </trkpt>
      <trkpt lat="44.22062" lon="6.80995">
        <ele>2525</ele>
        <time>2012-07-30T06:15:52Z</time>
      </trkpt>
      <trkpt lat="44.22062" lon="6.80996">
        <ele>2525</ele>
        <time>2012-07-30T06:15:53Z</time>
      </trkpt>
      <trkpt lat="44.22062" lon="6.80997">
        <ele>2524.8</ele>
        <time>2012-07-30T06:15:54Z</time>
      </trkpt>
      <trkpt lat="44.22062" lon="6.80998">
        <ele>2524.8</ele>
        <time>2012-07-30T06:15:55Z</time>
      </trkpt>
      <trkpt lat="44.22062" lon="6.80999">
        <ele>2524.8</ele>
        <time>2012-07-30T06:15:56Z</time>
      </trkpt>
      <trkpt lat="44.22061" lon="6.80999">
        <ele>2524.6</ele>
        <time>2012-07-30T06:15:57Z</time>
      </trkpt>
      <trkpt lat="44.22061" lon="6.81">
        <ele>2524.6</ele>
        <time>2012-07-30T06:15:58Z</time>
      </trkpt>
      <trkpt lat="44.22061" lon="6.81001">
        <ele>2524.6</ele>
        <time>2012-07-30T06:15:59Z</time>
      </trkpt>
      <trkpt lat="44.22061" lon="6.81002">
        <ele>2524.6</ele>
        <time>2012-07-30T06:16:00Z</time>
      </trkpt>
      <trkpt lat="44.22061" lon="6.81003">
        <ele>2524.6</ele>
        <time>2012-07-30T06:16:01Z</time>
      </trkpt>
      <trkpt lat="44.22061" lon="6.81005">
        <ele>2524.8</ele>
        <time>2012-07-30T06:16:02Z</time>
      </trkpt>
      <trkpt lat="44.22061" lon="6.81005">
        <ele>2524.8</ele>
        <time>2012-07-30T06:16:03Z</time>
      </trkpt>
      <trkpt lat="44.22062" lon="6.81006">
        <ele>2524.8</ele>
        <time>2012-07-30T06:16:04Z</time>
      </trkpt>
      <trkpt lat="44.22062" lon="6.81007">
        <ele>2524.8</ele>
        <time>2012-07-30T06:16:05Z</time>
      </trkpt>
      <trkpt lat="44.22063" lon="6.81007">
        <ele>2525.1</ele>
        <time>2012-07-30T06:16:06Z</time>
      </trkpt>
      <trkpt lat="44.22063" lon="6.81007">
        <ele>2525.3</ele>
        <time>2012-07-30T06:16:07Z</time>
      </trkpt>
      <trkpt lat="44.22064" lon="6.81008">
        <ele>2525.3</ele>
        <time>2012-07-30T06:16:08Z</time>
      </trkpt>
      <trkpt lat="44.22065" lon="6.81008">
        <ele>2525.3</ele>
        <time>2012-07-30T06:16:09Z</time>
      </trkpt>
      <trkpt lat="44.22065" lon="6.81008">
        <ele>2525.6</ele>
        <time>2012-07-30T06:16:10Z</time>
      </trkpt>
      <trkpt lat="44.22066" lon="6.81008">
        <ele>2525.6</ele>
        <time>2012-07-30T06:16:11Z</time>
      </trkpt>
      <trkpt lat="44.22066" lon="6.81009">
        <ele>2525.6</ele>
        <time>2012-07-30T06:16:12Z</time>
      </trkpt>
      <trkpt lat="44.22067" lon="6.81009">
        <ele>2525.6</ele>
        <time>2012-07-30T06:16:13Z</time>
      </trkpt>
      <trkpt lat="44.22067" lon="6.8101">
        <ele>2525.8</ele>
        <time>2012-07-30T06:16:14Z</time>
      </trkpt>
      <trkpt lat="44.22068" lon="6.8101">
        <ele>2525.8</ele>
        <time>2012-07-30T06:16:15Z</time>
      </trkpt>
      <trkpt lat="44.22068" lon="6.8101">
        <ele>2525.8</ele>
        <time>2012-07-30T06:16:16Z</time>
      </trkpt>
      <trkpt lat="44.22068" lon="6.8101">
        <ele>2526</ele>
        <time>2012-07-30T06:16:17Z</time>
      </trkpt>
      <trkpt lat="44.22068" lon="6.8101">
        <ele>2526</ele>
        <time>2012-07-30T06:16:18Z</time>
      </trkpt>
      <trkpt lat="44.22068" lon="6.8101">
        <ele>2526.3</ele>
        <time>2012-07-30T06:16:19Z</time>
      </trkpt>
      <trkpt lat="44.22068" lon="6.8101">
        <ele>2526.3</ele>
        <time>2012-07-30T06:16:20Z</time>
      </trkpt>
      <trkpt lat="44.22068" lon="6.8101">
        <ele>2526.5</ele>
        <time>2012-07-30T06:16:21Z</time>
      </trkpt>
      <trkpt lat="44.22068" lon="6.81011">
        <ele>2526.6</ele>
        <time>2012-07-30T06:16:22Z</time>
      </trkpt>
      <trkpt lat="44.22068" lon="6.81011">
        <ele>2527</ele>
        <time>2012-07-30T06:16:23Z</time>
      </trkpt>
      <trkpt lat="44.22068" lon="6.81011">
        <ele>2527.3</ele>
        <time>2012-07-30T06:16:24Z</time>
      </trkpt>
      <trkpt lat="44.22068" lon="6.81011">
        <ele>2527.6</ele>
        <time>2012-07-30T06:16:25Z</time>
      </trkpt>
      <trkpt lat="44.22068" lon="6.81012">
        <ele>2527.6</ele>
        <time>2012-07-30T06:16:26Z</time>
      </trkpt>
      <trkpt lat="44.22069" lon="6.81012">
        <ele>2527.6</ele>
        <time>2012-07-30T06:16:27Z</time>
      </trkpt>
      <trkpt lat="44.22069" lon="6.81012">
        <ele>2527.6</ele>
        <time>2012-07-30T06:16:28Z</time>
      </trkpt>
      <trkpt lat="44.22069" lon="6.81011">
        <ele>2527.8</ele>
        <time>2012-07-30T06:16:29Z</time>
      </trkpt>
      <trkpt lat="44.22071" lon="6.81004">
        <ele>2530.8</ele>
        <time>2012-07-30T06:17:37Z</time>
      </trkpt>
      <trkpt lat="44.2207" lon="6.81003">
        <ele>2531.1</ele>
        <time>2012-07-30T06:17:38Z</time>
      </trkpt>
      <trkpt lat="44.22062" lon="6.81005">
        <ele>2529.5</ele>
        <time>2012-07-30T06:19:05Z</time>
      </trkpt>
      <trkpt lat="44.22061" lon="6.81005">
        <ele>2529.3</ele>
        <time>2012-07-30T06:19:06Z</time>
      </trkpt>
      <trkpt lat="44.2206" lon="6.81005">
        <ele>2529.1</ele>
        <time>2012-07-30T06:19:07Z</time>
      </trkpt>
      <trkpt lat="44.22059" lon="6.81006">
        <ele>2529.1</ele>
        <time>2012-07-30T06:19:08Z</time>
      </trkpt>
      <trkpt lat="44.22057" lon="6.81008">
        <ele>2529.1</ele>
        <time>2012-07-30T06:19:10Z</time>
      </trkpt>
      <trkpt lat="44.22056" lon="6.81009">
        <ele>2528.8</ele>
        <time>2012-07-30T06:19:11Z</time>
      </trkpt>
      <trkpt lat="44.22053" lon="6.81014">
        <ele>2528.6</ele>
        <time>2012-07-30T06:19:17Z</time>
      </trkpt>
      <trkpt lat="44.2205" lon="6.81017">
        <ele>2528.5</ele>
        <time>2012-07-30T06:19:21Z</time>
      </trkpt>
      <trkpt lat="44.22045" lon="6.81026">
        <ele>2528.6</ele>
        <time>2012-07-30T06:19:31Z</time>
      </trkpt>
      <trkpt lat="44.22027" lon="6.81047">
        <ele>2537.8</ele>
        <time>2012-07-30T06:20:51Z</time>
      </trkpt>
      <trkpt lat="44.22026" lon="6.81048">
        <ele>2537.8</ele>
        <time>2012-07-30T06:20:52Z</time>
      </trkpt>
      <trkpt lat="44.22022" lon="6.8105">
        <ele>2539.1</ele>
        <time>2012-07-30T06:20:57Z</time>
      </trkpt>
      <trkpt lat="44.2202" lon="6.81052">
        <ele>2539.8</ele>
        <time>2012-07-30T06:20:59Z</time>
      </trkpt>
      <trkpt lat="44.21983" lon="6.81079">
        <ele>2544.6</ele>
        <time>2012-07-30T06:21:44Z</time>
      </trkpt>
      <trkpt lat="44.21982" lon="6.81079">
        <ele>2544.8</ele>
        <time>2012-07-30T06:21:45Z</time>
      </trkpt>
      <trkpt lat="44.21981" lon="6.81079">
        <ele>2545</ele>
        <time>2012-07-30T06:21:46Z</time>
      </trkpt>
      <trkpt lat="44.2198" lon="6.81079">
        <ele>2545.1</ele>
        <time>2012-07-30T06:21:47Z</time>
      </trkpt>
      <trkpt lat="44.21979" lon="6.81079">
        <ele>2545</ele>
        <time>2012-07-30T06:21:49Z</time>
      </trkpt>
      <trkpt lat="44.21977" lon="6.8108">
        <ele>2545.3</ele>
        <time>2012-07-30T06:21:50Z</time>
      </trkpt>
      <trkpt lat="44.21973" lon="6.81081">
        <ele>2545.8</ele>
        <time>2012-07-30T06:21:54Z</time>
      </trkpt>
      <trkpt lat="44.21972" lon="6.81082">
        <ele>2546</ele>
        <time>2012-07-30T06:21:55Z</time>
      </trkpt>
      <trkpt lat="44.21961" lon="6.81085">
        <ele>2548.1</ele>
        <time>2012-07-30T06:22:08Z</time>
      </trkpt>
      <trkpt lat="44.2196" lon="6.81086">
        <ele>2548.3</ele>
        <time>2012-07-30T06:22:09Z</time>
      </trkpt>
      <trkpt lat="44.21957" lon="6.81086">
        <ele>2548.8</ele>
        <time>2012-07-30T06:22:12Z</time>
      </trkpt>
      <trkpt lat="44.21951" lon="6.81088">
        <ele>2549.6</ele>
        <time>2012-07-30T06:22:19Z</time>
      </trkpt>
      <trkpt lat="44.2195" lon="6.81088">
        <ele>2549.8</ele>
        <time>2012-07-30T06:22:20Z</time>
      </trkpt>
      <trkpt lat="44.21917" lon="6.81117">
        <ele>2555.6</ele>
        <time>2012-07-30T06:23:16Z</time>
      </trkpt>
      <trkpt lat="44.21916" lon="6.81118">
        <ele>2555.5</ele>
        <time>2012-07-30T06:23:17Z</time>
      </trkpt>
      <trkpt lat="44.21916" lon="6.81128">
        <ele>2555.8</ele>
        <time>2012-07-30T06:23:41Z</time>
      </trkpt>
      <trkpt lat="44.21917" lon="6.81128">
        <ele>2555.8</ele>
        <time>2012-07-30T06:23:42Z</time>
      </trkpt>
      <trkpt lat="44.21918" lon="6.81128">
        <ele>2555.8</ele>
        <time>2012-07-30T06:23:43Z</time>
      </trkpt>
      <trkpt lat="44.21926" lon="6.81137">
        <ele>2557.1</ele>
        <time>2012-07-30T06:24:17Z</time>
      </trkpt>
      <trkpt lat="44.21926" lon="6.81138">
        <ele>2557.3</ele>
        <time>2012-07-30T06:24:18Z</time>
      </trkpt>
      <trkpt lat="44.21925" lon="6.81138">
        <ele>2557.6</ele>
        <time>2012-07-30T06:24:19Z</time>
      </trkpt>
      <trkpt lat="44.21922" lon="6.81141">
        <ele>2558.3</ele>
        <time>2012-07-30T06:24:24Z</time>
      </trkpt>
      <trkpt lat="44.21921" lon="6.81142">
        <ele>2558.6</ele>
        <time>2012-07-30T06:24:25Z</time>
      </trkpt>
      <trkpt lat="44.21833" lon="6.81212">
        <ele>2583.1</ele>
        <time>2012-07-30T06:27:06Z</time>
      </trkpt>
      <trkpt lat="44.21832" lon="6.81212">
        <ele>2583.6</ele>
        <time>2012-07-30T06:27:07Z</time>
      </trkpt>
      <trkpt lat="44.218" lon="6.81232">
        <ele>2589.3</ele>
        <time>2012-07-30T06:28:06Z</time>
      </trkpt>
      <trkpt lat="44.21799" lon="6.81232">
        <ele>2589.6</ele>
        <time>2012-07-30T06:28:07Z</time>
      </trkpt>
      <trkpt lat="44.21798" lon="6.81232">
        <ele>2590</ele>
        <time>2012-07-30T06:28:08Z</time>
      </trkpt>
      <trkpt lat="44.21797" lon="6.81232">
        <ele>2590.3</ele>
        <time>2012-07-30T06:28:09Z</time>
      </trkpt>
      <trkpt lat="44.21796" lon="6.81232">
        <ele>2590.6</ele>
        <time>2012-07-30T06:28:10Z</time>
      </trkpt>
      <trkpt lat="44.21768" lon="6.8124">
        <ele>2595.8</ele>
        <time>2012-07-30T06:28:49Z</time>
      </trkpt>
      <trkpt lat="44.21767" lon="6.81239">
        <ele>2596.1</ele>
        <time>2012-07-30T06:28:50Z</time>
      </trkpt>
      <trkpt lat="44.21766" lon="6.81239">
        <ele>2596.5</ele>
        <time>2012-07-30T06:28:52Z</time>
      </trkpt>
      <trkpt lat="44.21763" lon="6.81238">
        <ele>2598.3</ele>
        <time>2012-07-30T06:28:56Z</time>
      </trkpt>
      <trkpt lat="44.21762" lon="6.81238">
        <ele>2598.8</ele>
        <time>2012-07-30T06:28:57Z</time>
      </trkpt>
      <trkpt lat="44.21759" lon="6.81239">
        <ele>2599.3</ele>
        <time>2012-07-30T06:29:01Z</time>
      </trkpt>
      <trkpt lat="44.2174" lon="6.81244">
        <ele>2606.5</ele>
        <time>2012-07-30T06:29:27Z</time>
      </trkpt>
      <trkpt lat="44.2174" lon="6.81245">
        <ele>2606.8</ele>
        <time>2012-07-30T06:29:28Z</time>
      </trkpt>
      <trkpt lat="44.21662" lon="6.81259">
        <ele>2624.6</ele>
        <time>2012-07-30T06:31:57Z</time>
      </trkpt>
      <trkpt lat="44.21661" lon="6.81259">
        <ele>2624.6</ele>
        <time>2012-07-30T06:31:58Z</time>
      </trkpt>
      <trkpt lat="44.21657" lon="6.8126">
        <ele>2624.8</ele>
        <time>2012-07-30T06:32:03Z</time>
      </trkpt>
      <trkpt lat="44.21643" lon="6.81264">
        <ele>2626.1</ele>
        <time>2012-07-30T06:32:21Z</time>
      </trkpt>
      <trkpt lat="44.21586" lon="6.81306">
        <ele>2629.6</ele>
        <time>2012-07-30T06:33:49Z</time>
      </trkpt>
      <trkpt lat="44.21585" lon="6.81306">
        <ele>2629.8</ele>
        <time>2012-07-30T06:33:50Z</time>
      </trkpt>
      <trkpt lat="44.21575" lon="6.81316">
        <ele>2632.3</ele>
        <time>2012-07-30T06:34:06Z</time>
      </trkpt>
      <trkpt lat="44.21574" lon="6.81316">
        <ele>2632.5</ele>
        <time>2012-07-30T06:34:07Z</time>
      </trkpt>
      <trkpt lat="44.21568" lon="6.8132">
        <ele>2633.5</ele>
        <time>2012-07-30T06:34:15Z</time>
      </trkpt>
      <trkpt lat="44.21568" lon="6.81321">
        <ele>2633.5</ele>
        <time>2012-07-30T06:34:16Z</time>
      </trkpt>
      <trkpt lat="44.21563" lon="6.81325">
        <ele>2634.6</ele>
        <time>2012-07-30T06:34:24Z</time>
      </trkpt>
      <trkpt lat="44.21562" lon="6.81325">
        <ele>2634.6</ele>
        <time>2012-07-30T06:34:25Z</time>
      </trkpt>
      <trkpt lat="44.21547" lon="6.81334">
        <ele>2636.1</ele>
        <time>2012-07-30T06:34:47Z</time>
      </trkpt>
      <trkpt lat="44.21546" lon="6.81334">
        <ele>2636.1</ele>
        <time>2012-07-30T06:34:48Z</time>
      </trkpt>
      <trkpt lat="44.21543" lon="6.81334">
        <ele>2636.6</ele>
        <time>2012-07-30T06:34:51Z</time>
      </trkpt>
      <trkpt lat="44.21542" lon="6.81335">
        <ele>2636.8</ele>
        <time>2012-07-30T06:34:52Z</time>
      </trkpt>
      <trkpt lat="44.21477" lon="6.81378">
        <ele>2640.8</ele>
        <time>2012-07-30T06:36:32Z</time>
      </trkpt>
      <trkpt lat="44.21476" lon="6.81378">
        <ele>2640.6</ele>
        <time>2012-07-30T06:36:33Z</time>
      </trkpt>
      <trkpt lat="44.21473" lon="6.81384">
        <ele>2635.8</ele>
        <time>2012-07-30T06:40:59Z</time>
      </trkpt>
      <trkpt lat="44.21472" lon="6.81384">
        <ele>2636.1</ele>
        <time>2012-07-30T06:41:00Z</time>
      </trkpt>
      <trkpt lat="44.21471" lon="6.81384">
        <ele>2636.1</ele>
        <time>2012-07-30T06:41:01Z</time>
      </trkpt>
      <trkpt lat="44.21476" lon="6.81394">
        <ele>2635.8</ele>
        <time>2012-07-30T06:41:18Z</time>
      </trkpt>
      <trkpt lat="44.21476" lon="6.81395">
        <ele>2635.6</ele>
        <time>2012-07-30T06:41:19Z</time>
      </trkpt>
      <trkpt lat="44.21477" lon="6.81396">
        <ele>2635.6</ele>
        <time>2012-07-30T06:41:20Z</time>
      </trkpt>
      <trkpt lat="44.21477" lon="6.81396">
        <ele>2635.8</ele>
        <time>2012-07-30T06:41:21Z</time>
      </trkpt>
      <trkpt lat="44.21477" lon="6.81397">
        <ele>2635.8</ele>
        <time>2012-07-30T06:41:22Z</time>
      </trkpt>
      <trkpt lat="44.21477" lon="6.81397">
        <ele>2636</ele>
        <time>2012-07-30T06:41:23Z</time>
      </trkpt>
      <trkpt lat="44.21477" lon="6.81397">
        <ele>2635.8</ele>
        <time>2012-07-30T06:41:24Z</time>
      </trkpt>
      <trkpt lat="44.21477" lon="6.81397">
        <ele>2635.6</ele>
        <time>2012-07-30T06:41:25Z</time>
      </trkpt>
      <trkpt lat="44.21477" lon="6.81396">
        <ele>2635.5</ele>
        <time>2012-07-30T06:41:26Z</time>
      </trkpt>
      <trkpt lat="44.21477" lon="6.81396">
        <ele>2635.3</ele>
        <time>2012-07-30T06:41:27Z</time>
      </trkpt>
      <trkpt lat="44.21477" lon="6.81395">
        <ele>2635</ele>
        <time>2012-07-30T06:41:28Z</time>
      </trkpt>
      <trkpt lat="44.21477" lon="6.81395">
        <ele>2634.8</ele>
        <time>2012-07-30T06:41:29Z</time>
      </trkpt>
      <trkpt lat="44.21478" lon="6.81395">
        <ele>2634.6</ele>
        <time>2012-07-30T06:41:30Z</time>
      </trkpt>
      <trkpt lat="44.21478" lon="6.81395">
        <ele>2634.3</ele>
        <time>2012-07-30T06:41:31Z</time>
      </trkpt>
      <trkpt lat="44.21478" lon="6.81395">
        <ele>2634.1</ele>
        <time>2012-07-30T06:41:32Z</time>
      </trkpt>
      <trkpt lat="44.21478" lon="6.81396">
        <ele>2634.1</ele>
        <time>2012-07-30T06:41:33Z</time>
      </trkpt>
      <trkpt lat="44.21478" lon="6.81396">
        <ele>2634</ele>
        <time>2012-07-30T06:41:34Z</time>
      </trkpt>
      <trkpt lat="44.21478" lon="6.81397">
        <ele>2633.8</ele>
        <time>2012-07-30T06:41:35Z</time>
      </trkpt>
      <trkpt lat="44.21478" lon="6.81398">
        <ele>2633.6</ele>
        <time>2012-07-30T06:41:36Z</time>
      </trkpt>
      <trkpt lat="44.21478" lon="6.81399">
        <ele>2633.5</ele>
        <time>2012-07-30T06:41:37Z</time>
      </trkpt>
      <trkpt lat="44.21478" lon="6.814">
        <ele>2633.3</ele>
        <time>2012-07-30T06:41:38Z</time>
      </trkpt>
      <trkpt lat="44.21478" lon="6.81401">
        <ele>2633.3</ele>
        <time>2012-07-30T06:41:39Z</time>
      </trkpt>
      <trkpt lat="44.21478" lon="6.81401">
        <ele>2633.1</ele>
        <time>2012-07-30T06:41:40Z</time>
      </trkpt>
      <trkpt lat="44.21478" lon="6.81402">
        <ele>2633.1</ele>
        <time>2012-07-30T06:41:41Z</time>
      </trkpt>
      <trkpt lat="44.21478" lon="6.81403">
        <ele>2633.3</ele>
        <time>2012-07-30T06:41:42Z</time>
      </trkpt>
      <trkpt lat="44.21478" lon="6.81403">
        <ele>2633.3</ele>
        <time>2012-07-30T06:41:43Z</time>
      </trkpt>
      <trkpt lat="44.21478" lon="6.81404">
        <ele>2633.8</ele>
        <time>2012-07-30T06:41:44Z</time>
      </trkpt>
      <trkpt lat="44.21478" lon="6.81404">
        <ele>2633.6</ele>
        <time>2012-07-30T06:41:45Z</time>
      </trkpt>
      <trkpt lat="44.21478" lon="6.81405">
        <ele>2633.6</ele>
        <time>2012-07-30T06:41:46Z</time>
      </trkpt>
      <trkpt lat="44.21479" lon="6.81405">
        <ele>2634</ele>
        <time>2012-07-30T06:41:47Z</time>
      </trkpt>
      <trkpt lat="44.21479" lon="6.81405">
        <ele>2634.5</ele>
        <time>2012-07-30T06:41:48Z</time>
      </trkpt>
      <trkpt lat="44.21479" lon="6.81406">
        <ele>2635</ele>
        <time>2012-07-30T06:41:49Z</time>
      </trkpt>
      <trkpt lat="44.21479" lon="6.81406">
        <ele>2635.5</ele>
        <time>2012-07-30T06:41:50Z</time>
      </trkpt>
      <trkpt lat="44.21479" lon="6.81406">
        <ele>2635.8</ele>
        <time>2012-07-30T06:41:51Z</time>
      </trkpt>
      <trkpt lat="44.21479" lon="6.81406">
        <ele>2635.8</ele>
        <time>2012-07-30T06:41:52Z</time>
      </trkpt>
      <trkpt lat="44.2148" lon="6.81405">
        <ele>2636</ele>
        <time>2012-07-30T06:41:53Z</time>
      </trkpt>
      <trkpt lat="44.2148" lon="6.81404">
        <ele>2636</ele>
        <time>2012-07-30T06:41:54Z</time>
      </trkpt>
      <trkpt lat="44.21481" lon="6.81404">
        <ele>2636.1</ele>
        <time>2012-07-30T06:41:55Z</time>
      </trkpt>
      <trkpt lat="44.21481" lon="6.81403">
        <ele>2636.1</ele>
        <time>2012-07-30T06:41:56Z</time>
      </trkpt>
      <trkpt lat="44.21481" lon="6.81403">
        <ele>2635.8</ele>
        <time>2012-07-30T06:41:57Z</time>
      </trkpt>
      <trkpt lat="44.21481" lon="6.81403">
        <ele>2635.6</ele>
        <time>2012-07-30T06:41:58Z</time>
      </trkpt>
      <trkpt lat="44.21481" lon="6.81404">
        <ele>2635.8</ele>
        <time>2012-07-30T06:41:59Z</time>
      </trkpt>
      <trkpt lat="44.21481" lon="6.81404">
        <ele>2636</ele>
        <time>2012-07-30T06:42:00Z</time>
      </trkpt>
      <trkpt lat="44.21481" lon="6.81404">
        <ele>2635.8</ele>
        <time>2012-07-30T06:42:01Z</time>
      </trkpt>
      <trkpt lat="44.2148" lon="6.81406">
        <ele>2635.3</ele>
        <time>2012-07-30T06:42:02Z</time>
      </trkpt>
      <trkpt lat="44.2148" lon="6.81407">
        <ele>2634.8</ele>
        <time>2012-07-30T06:42:03Z</time>
      </trkpt>
      <trkpt lat="44.21479" lon="6.81409">
        <ele>2634.1</ele>
        <time>2012-07-30T06:42:04Z</time>
      </trkpt>
      <trkpt lat="44.21479" lon="6.8141">
        <ele>2633.3</ele>
        <time>2012-07-30T06:42:05Z</time>
      </trkpt>
      <trkpt lat="44.21479" lon="6.81412">
        <ele>2632.8</ele>
        <time>2012-07-30T06:42:06Z</time>
      </trkpt>
      <trkpt lat="44.21479" lon="6.81413">
        <ele>2632.3</ele>
        <time>2012-07-30T06:42:07Z</time>
      </trkpt>
      <trkpt lat="44.21479" lon="6.81419">
        <ele>2629.1</ele>
        <time>2012-07-30T06:42:11Z</time>
      </trkpt>
      <trkpt lat="44.21479" lon="6.8142">
        <ele>2628.8</ele>
        <time>2012-07-30T06:42:12Z</time>
      </trkpt>
      <trkpt lat="44.21478" lon="6.81424">
        <ele>2628.8</ele>
        <time>2012-07-30T06:42:15Z</time>
      </trkpt>
      <trkpt lat="44.21478" lon="6.81426">
        <ele>2628.8</ele>
        <time>2012-07-30T06:42:16Z</time>
      </trkpt>
      <trkpt lat="44.21478" lon="6.81427">
        <ele>2628.6</ele>
        <time>2012-07-30T06:42:17Z</time>
      </trkpt>
      <trkpt lat="44.21478" lon="6.81432">
        <ele>2628.5</ele>
        <time>2012-07-30T06:42:20Z</time>
      </trkpt>
      <trkpt lat="44.21478" lon="6.81434">
        <ele>2628.3</ele>
        <time>2012-07-30T06:42:21Z</time>
      </trkpt>
      <trkpt lat="44.21478" lon="6.81435">
        <ele>2628.3</ele>
        <time>2012-07-30T06:42:22Z</time>
      </trkpt>
      <trkpt lat="44.21478" lon="6.81435">
        <ele>2628.5</ele>
        <time>2012-07-30T06:42:23Z</time>
      </trkpt>
      <trkpt lat="44.21478" lon="6.81435">
        <ele>2628.6</ele>
        <time>2012-07-30T06:42:24Z</time>
      </trkpt>
      <trkpt lat="44.21478" lon="6.81435">
        <ele>2629</ele>
        <time>2012-07-30T06:42:25Z</time>
      </trkpt>
      <trkpt lat="44.21478" lon="6.81435">
        <ele>2628.8</ele>
        <time>2012-07-30T06:42:26Z</time>
      </trkpt>
      <trkpt lat="44.21478" lon="6.81435">
        <ele>2628.6</ele>
        <time>2012-07-30T06:42:27Z</time>
      </trkpt>
      <trkpt lat="44.21478" lon="6.81435">
        <ele>2628.5</ele>
        <time>2012-07-30T06:42:28Z</time>
      </trkpt>
      <trkpt lat="44.21478" lon="6.81436">
        <ele>2628.5</ele>
        <time>2012-07-30T06:42:29Z</time>
      </trkpt>
      <trkpt lat="44.21478" lon="6.81437">
        <ele>2628.8</ele>
        <time>2012-07-30T06:42:30Z</time>
      </trkpt>
      <trkpt lat="44.21479" lon="6.81447">
        <ele>2629.3</ele>
        <time>2012-07-30T06:42:39Z</time>
      </trkpt>
      <trkpt lat="44.21479" lon="6.81451">
        <ele>2629.1</ele>
        <time>2012-07-30T06:42:42Z</time>
      </trkpt>
      <trkpt lat="44.21479" lon="6.81469">
        <ele>2630</ele>
        <time>2012-07-30T06:43:01Z</time>
      </trkpt>
      <trkpt lat="44.21479" lon="6.8147">
        <ele>2629.5</ele>
        <time>2012-07-30T06:43:02Z</time>
      </trkpt>
      <trkpt lat="44.21479" lon="6.81471">
        <ele>2629.6</ele>
        <time>2012-07-30T06:43:03Z</time>
      </trkpt>
      <trkpt lat="44.21479" lon="6.81472">
        <ele>2629.5</ele>
        <time>2012-07-30T06:43:04Z</time>
      </trkpt>
      <trkpt lat="44.21479" lon="6.81473">
        <ele>2629.5</ele>
        <time>2012-07-30T06:43:05Z</time>
      </trkpt>
      <trkpt lat="44.21486" lon="6.81488">
        <ele>2625.8</ele>
        <time>2012-07-30T06:43:23Z</time>
      </trkpt>
      <trkpt lat="44.21486" lon="6.81489">
        <ele>2625.6</ele>
        <time>2012-07-30T06:43:24Z</time>
      </trkpt>
      <trkpt lat="44.21486" lon="6.81491">
        <ele>2625.5</ele>
        <time>2012-07-30T06:43:25Z</time>
      </trkpt>
      <trkpt lat="44.21487" lon="6.81496">
        <ele>2624.6</ele>
        <time>2012-07-30T06:43:30Z</time>
      </trkpt>
      <trkpt lat="44.21487" lon="6.81497">
        <ele>2624.3</ele>
        <time>2012-07-30T06:43:31Z</time>
      </trkpt>
      <trkpt lat="44.21487" lon="6.81498">
        <ele>2624</ele>
        <time>2012-07-30T06:43:32Z</time>
      </trkpt>
      <trkpt lat="44.21487" lon="6.81504">
        <ele>2622</ele>
        <time>2012-07-30T06:43:38Z</time>
      </trkpt>
      <trkpt lat="44.21486" lon="6.81505">
        <ele>2622.1</ele>
        <time>2012-07-30T06:43:39Z</time>
      </trkpt>
      <trkpt lat="44.21484" lon="6.81511">
        <ele>2621.3</ele>
        <time>2012-07-30T06:43:48Z</time>
      </trkpt>
      <trkpt lat="44.21484" lon="6.81513">
        <ele>2620.8</ele>
        <time>2012-07-30T06:43:49Z</time>
      </trkpt>
      <trkpt lat="44.21485" lon="6.81514">
        <ele>2620.6</ele>
        <time>2012-07-30T06:43:50Z</time>
      </trkpt>
      <trkpt lat="44.21485" lon="6.81518">
        <ele>2620.1</ele>
        <time>2012-07-30T06:43:52Z</time>
      </trkpt>
      <trkpt lat="44.21485" lon="6.81519">
        <ele>2619.6</ele>
        <time>2012-07-30T06:43:53Z</time>
      </trkpt>
      <trkpt lat="44.21485" lon="6.81521">
        <ele>2619.3</ele>
        <time>2012-07-30T06:43:54Z</time>
      </trkpt>
      <trkpt lat="44.21483" lon="6.81528">
        <ele>2617.6</ele>
        <time>2012-07-30T06:43:59Z</time>
      </trkpt>
      <trkpt lat="44.21483" lon="6.8153">
        <ele>2617.6</ele>
        <time>2012-07-30T06:44:00Z</time>
      </trkpt>
      <trkpt lat="44.21483" lon="6.81531">
        <ele>2617</ele>
        <time>2012-07-30T06:44:01Z</time>
      </trkpt>
      <trkpt lat="44.21483" lon="6.81535">
        <ele>2615.3</ele>
        <time>2012-07-30T06:44:04Z</time>
      </trkpt>
      <trkpt lat="44.21482" lon="6.81536">
        <ele>2614.8</ele>
        <time>2012-07-30T06:44:05Z</time>
      </trkpt>
      <trkpt lat="44.21482" lon="6.81538">
        <ele>2614.3</ele>
        <time>2012-07-30T06:44:06Z</time>
      </trkpt>
      <trkpt lat="44.21481" lon="6.81543">
        <ele>2612.8</ele>
        <time>2012-07-30T06:44:10Z</time>
      </trkpt>
      <trkpt lat="44.21481" lon="6.81545">
        <ele>2612.5</ele>
        <time>2012-07-30T06:44:11Z</time>
      </trkpt>
      <trkpt lat="44.21481" lon="6.81546">
        <ele>2612.1</ele>
        <time>2012-07-30T06:44:12Z</time>
      </trkpt>
      <trkpt lat="44.21481" lon="6.81547">
        <ele>2611.6</ele>
        <time>2012-07-30T06:44:13Z</time>
      </trkpt>
      <trkpt lat="44.21479" lon="6.81555">
        <ele>2610.6</ele>
        <time>2012-07-30T06:44:20Z</time>
      </trkpt>
      <trkpt lat="44.21479" lon="6.81556">
        <ele>2610.6</ele>
        <time>2012-07-30T06:44:21Z</time>
      </trkpt>
      <trkpt lat="44.21477" lon="6.81559">
        <ele>2617.6</ele>
        <time>2012-07-30T06:44:54Z</time>
      </trkpt>
      <trkpt lat="44.21477" lon="6.8156">
        <ele>2616.5</ele>
        <time>2012-07-30T06:44:55Z</time>
      </trkpt>
      <trkpt lat="44.21477" lon="6.81562">
        <ele>2616.1</ele>
        <time>2012-07-30T06:44:56Z</time>
      </trkpt>
      <trkpt lat="44.21477" lon="6.81563">
        <ele>2616.1</ele>
        <time>2012-07-30T06:44:57Z</time>
      </trkpt>
      <trkpt lat="44.21476" lon="6.81565">
        <ele>2616</ele>
        <time>2012-07-30T06:44:58Z</time>
      </trkpt>
      <trkpt lat="44.21476" lon="6.81566">
        <ele>2615.6</ele>
        <time>2012-07-30T06:44:59Z</time>
      </trkpt>
      <trkpt lat="44.21476" lon="6.81567">
        <ele>2615.3</ele>
        <time>2012-07-30T06:45:00Z</time>
      </trkpt>
      <trkpt lat="44.21475" lon="6.81569">
        <ele>2615.1</ele>
        <time>2012-07-30T06:45:01Z</time>
      </trkpt>
      <trkpt lat="44.21475" lon="6.8157">
        <ele>2614.8</ele>
        <time>2012-07-30T06:45:02Z</time>
      </trkpt>
      <trkpt lat="44.21475" lon="6.81571">
        <ele>2615.1</ele>
        <time>2012-07-30T06:45:03Z</time>
      </trkpt>
      <trkpt lat="44.21475" lon="6.81572">
        <ele>2614.6</ele>
        <time>2012-07-30T06:45:04Z</time>
      </trkpt>
      <trkpt lat="44.21475" lon="6.81573">
        <ele>2614.1</ele>
        <time>2012-07-30T06:45:05Z</time>
      </trkpt>
      <trkpt lat="44.21475" lon="6.81574">
        <ele>2613.6</ele>
        <time>2012-07-30T06:45:06Z</time>
      </trkpt>
      <trkpt lat="44.21474" lon="6.8158">
        <ele>2613.5</ele>
        <time>2012-07-30T06:45:10Z</time>
      </trkpt>
      <trkpt lat="44.21473" lon="6.81588">
        <ele>2611</ele>
        <time>2012-07-30T06:45:17Z</time>
      </trkpt>
      <trkpt lat="44.21474" lon="6.81596">
        <ele>2607.5</ele>
        <time>2012-07-30T06:45:23Z</time>
      </trkpt>
      <trkpt lat="44.21474" lon="6.81597">
        <ele>2607.3</ele>
        <time>2012-07-30T06:45:24Z</time>
      </trkpt>
      <trkpt lat="44.21474" lon="6.81603">
        <ele>2605</ele>
        <time>2012-07-30T06:45:28Z</time>
      </trkpt>
      <trkpt lat="44.21474" lon="6.81606">
        <ele>2603.8</ele>
        <time>2012-07-30T06:45:30Z</time>
      </trkpt>
      <trkpt lat="44.21474" lon="6.81607">
        <ele>2603.5</ele>
        <time>2012-07-30T06:45:31Z</time>
      </trkpt>
      <trkpt lat="44.21474" lon="6.81612">
        <ele>2601.3</ele>
        <time>2012-07-30T06:45:34Z</time>
      </trkpt>
      <trkpt lat="44.21475" lon="6.81613">
        <ele>2600.8</ele>
        <time>2012-07-30T06:45:35Z</time>
      </trkpt>
      <trkpt lat="44.21475" lon="6.81616">
        <ele>2600.3</ele>
        <time>2012-07-30T06:45:37Z</time>
      </trkpt>
      <trkpt lat="44.21475" lon="6.81618">
        <ele>2600</ele>
        <time>2012-07-30T06:45:38Z</time>
      </trkpt>
      <trkpt lat="44.21477" lon="6.81631">
        <ele>2597.6</ele>
        <time>2012-07-30T06:45:48Z</time>
      </trkpt>
      <trkpt lat="44.21478" lon="6.81634">
        <ele>2597.3</ele>
        <time>2012-07-30T06:45:50Z</time>
      </trkpt>
      <trkpt lat="44.21479" lon="6.81645">
        <ele>2596.3</ele>
        <time>2012-07-30T06:46:09Z</time>
      </trkpt>
      <trkpt lat="44.21479" lon="6.81647">
        <ele>2596.1</ele>
        <time>2012-07-30T06:46:10Z</time>
      </trkpt>
      <trkpt lat="44.2148" lon="6.81653">
        <ele>2595.1</ele>
        <time>2012-07-30T06:46:14Z</time>
      </trkpt>
      <trkpt lat="44.2148" lon="6.81654">
        <ele>2594.6</ele>
        <time>2012-07-30T06:46:15Z</time>
      </trkpt>
      <trkpt lat="44.2148" lon="6.8166">
        <ele>2593.5</ele>
        <time>2012-07-30T06:46:19Z</time>
      </trkpt>
      <trkpt lat="44.2148" lon="6.81662">
        <ele>2593.1</ele>
        <time>2012-07-30T06:46:20Z</time>
      </trkpt>
      <trkpt lat="44.21479" lon="6.81662">
        <ele>2593.1</ele>
        <time>2012-07-30T06:46:21Z</time>
      </trkpt>
      <trkpt lat="44.21479" lon="6.81663">
        <ele>2593.3</ele>
        <time>2012-07-30T06:46:22Z</time>
      </trkpt>
      <trkpt lat="44.21479" lon="6.81664">
        <ele>2593.1</ele>
        <time>2012-07-30T06:46:23Z</time>
      </trkpt>
      <trkpt lat="44.21479" lon="6.81665">
        <ele>2593.1</ele>
        <time>2012-07-30T06:46:24Z</time>
      </trkpt>
      <trkpt lat="44.21477" lon="6.8167">
        <ele>2593.1</ele>
        <time>2012-07-30T06:46:29Z</time>
      </trkpt>
      <trkpt lat="44.21477" lon="6.81673">
        <ele>2592.8</ele>
        <time>2012-07-30T06:46:31Z</time>
      </trkpt>
      <trkpt lat="44.21476" lon="6.81674">
        <ele>2592.6</ele>
        <time>2012-07-30T06:46:32Z</time>
      </trkpt>
      <trkpt lat="44.21475" lon="6.81685">
        <ele>2588.1</ele>
        <time>2012-07-30T06:46:43Z</time>
      </trkpt>
      <trkpt lat="44.21474" lon="6.81687">
        <ele>2587.3</ele>
        <time>2012-07-30T06:46:46Z</time>
      </trkpt>
      <trkpt lat="44.21473" lon="6.81688">
        <ele>2587.1</ele>
        <time>2012-07-30T06:46:47Z</time>
      </trkpt>
      <trkpt lat="44.21473" lon="6.81692">
        <ele>2586.5</ele>
        <time>2012-07-30T06:46:50Z</time>
      </trkpt>
      <trkpt lat="44.21472" lon="6.81694">
        <ele>2586.5</ele>
        <time>2012-07-30T06:46:51Z</time>
      </trkpt>
      <trkpt lat="44.21471" lon="6.81705">
        <ele>2584.3</ele>
        <time>2012-07-30T06:47:00Z</time>
      </trkpt>
      <trkpt lat="44.21471" lon="6.81706">
        <ele>2584.1</ele>
        <time>2012-07-30T06:47:01Z</time>
      </trkpt>
      <trkpt lat="44.2147" lon="6.8171">
        <ele>2583.3</ele>
        <time>2012-07-30T06:47:04Z</time>
      </trkpt>
      <trkpt lat="44.21468" lon="6.81718">
        <ele>2583.6</ele>
        <time>2012-07-30T06:47:11Z</time>
      </trkpt>
      <trkpt lat="44.21467" lon="6.81719">
        <ele>2583.8</ele>
        <time>2012-07-30T06:47:12Z</time>
      </trkpt>
      <trkpt lat="44.21467" lon="6.8172">
        <ele>2584.1</ele>
        <time>2012-07-30T06:47:13Z</time>
      </trkpt>
      <trkpt lat="44.21467" lon="6.81721">
        <ele>2584.3</ele>
        <time>2012-07-30T06:47:14Z</time>
      </trkpt>
      <trkpt lat="44.21462" lon="6.81747">
        <ele>2583.5</ele>
        <time>2012-07-30T06:47:38Z</time>
      </trkpt>
      <trkpt lat="44.21462" lon="6.81748">
        <ele>2583.3</ele>
        <time>2012-07-30T06:47:39Z</time>
      </trkpt>
      <trkpt lat="44.2146" lon="6.81767">
        <ele>2583.1</ele>
        <time>2012-07-30T06:47:57Z</time>
      </trkpt>
      <trkpt lat="44.21461" lon="6.81769">
        <ele>2583.1</ele>
        <time>2012-07-30T06:47:58Z</time>
      </trkpt>
      <trkpt lat="44.2146" lon="6.81775">
        <ele>2581.1</ele>
        <time>2012-07-30T06:48:04Z</time>
      </trkpt>
      <trkpt lat="44.21459" lon="6.81776">
        <ele>2580.6</ele>
        <time>2012-07-30T06:48:05Z</time>
      </trkpt>
      <trkpt lat="44.21458" lon="6.81777">
        <ele>2580.1</ele>
        <time>2012-07-30T06:48:06Z</time>
      </trkpt>
      <trkpt lat="44.21452" lon="6.81793">
        <ele>2578</ele>
        <time>2012-07-30T06:48:22Z</time>
      </trkpt>
      <trkpt lat="44.21452" lon="6.81794">
        <ele>2578</ele>
        <time>2012-07-30T06:48:23Z</time>
      </trkpt>
      <trkpt lat="44.21448" lon="6.81807">
        <ele>2576.6</ele>
        <time>2012-07-30T06:48:33Z</time>
      </trkpt>
      <trkpt lat="44.21445" lon="6.81822">
        <ele>2577.5</ele>
        <time>2012-07-30T06:48:46Z</time>
      </trkpt>
      <trkpt lat="44.21445" lon="6.81824">
        <ele>2577.8</ele>
        <time>2012-07-30T06:48:47Z</time>
      </trkpt>
      <trkpt lat="44.21441" lon="6.81829">
        <ele>2578.3</ele>
        <time>2012-07-30T06:48:54Z</time>
      </trkpt>
      <trkpt lat="44.21438" lon="6.81831">
        <ele>2579.1</ele>
        <time>2012-07-30T06:48:57Z</time>
      </trkpt>
      <trkpt lat="44.21438" lon="6.81832">
        <ele>2579.5</ele>
        <time>2012-07-30T06:48:58Z</time>
      </trkpt>
      <trkpt lat="44.21436" lon="6.81838">
        <ele>2579.3</ele>
        <time>2012-07-30T06:49:04Z</time>
      </trkpt>
      <trkpt lat="44.21435" lon="6.81841">
        <ele>2579.5</ele>
        <time>2012-07-30T06:49:06Z</time>
      </trkpt>
      <trkpt lat="44.21434" lon="6.81842">
        <ele>2579.8</ele>
        <time>2012-07-30T06:49:07Z</time>
      </trkpt>
      <trkpt lat="44.21427" lon="6.81853">
        <ele>2579.6</ele>
        <time>2012-07-30T06:49:18Z</time>
      </trkpt>
      <trkpt lat="44.21426" lon="6.81855">
        <ele>2579.8</ele>
        <time>2012-07-30T06:49:19Z</time>
      </trkpt>
      <trkpt lat="44.21419" lon="6.8187">
        <ele>2581</ele>
        <time>2012-07-30T06:49:37Z</time>
      </trkpt>
      <trkpt lat="44.21418" lon="6.81871">
        <ele>2581.3</ele>
        <time>2012-07-30T06:49:38Z</time>
      </trkpt>
      <trkpt lat="44.21403" lon="6.81881">
        <ele>2586.6</ele>
        <time>2012-07-30T06:50:00Z</time>
      </trkpt>
      <trkpt lat="44.21402" lon="6.8188">
        <ele>2586.8</ele>
        <time>2012-07-30T06:50:01Z</time>
      </trkpt>
      <trkpt lat="44.21402" lon="6.81881">
        <ele>2586.6</ele>
        <time>2012-07-30T06:50:02Z</time>
      </trkpt>
      <trkpt lat="44.21391" lon="6.8189">
        <ele>2591.3</ele>
        <time>2012-07-30T06:50:23Z</time>
      </trkpt>
      <trkpt lat="44.21391" lon="6.8189">
        <ele>2591.6</ele>
        <time>2012-07-30T06:50:24Z</time>
      </trkpt>
      <trkpt lat="44.2139" lon="6.8189">
        <ele>2591.8</ele>
        <time>2012-07-30T06:50:25Z</time>
      </trkpt>
      <trkpt lat="44.21331" lon="6.81913">
        <ele>2608.6</ele>
        <time>2012-07-30T06:51:56Z</time>
      </trkpt>
      <trkpt lat="44.2133" lon="6.81913">
        <ele>2609</ele>
        <time>2012-07-30T06:51:57Z</time>
      </trkpt>
      <trkpt lat="44.21312" lon="6.8193">
        <ele>2610.1</ele>
        <time>2012-07-30T06:52:42Z</time>
      </trkpt>
      <trkpt lat="44.21304" lon="6.81943">
        <ele>2612.8</ele>
        <time>2012-07-30T06:53:03Z</time>
      </trkpt>
      <trkpt lat="44.21303" lon="6.81944">
        <ele>2613</ele>
        <time>2012-07-30T06:53:04Z</time>
      </trkpt>
      <trkpt lat="44.21299" lon="6.81955">
        <ele>2616.1</ele>
        <time>2012-07-30T06:53:19Z</time>
      </trkpt>
      <trkpt lat="44.21299" lon="6.81956">
        <ele>2616.1</ele>
        <time>2012-07-30T06:53:20Z</time>
      </trkpt>
      <trkpt lat="44.21298" lon="6.81958">
        <ele>2616.1</ele>
        <time>2012-07-30T06:53:22Z</time>
      </trkpt>
      <trkpt lat="44.21294" lon="6.81967">
        <ele>2617</ele>
        <time>2012-07-30T06:53:31Z</time>
      </trkpt>
      <trkpt lat="44.21293" lon="6.81968">
        <ele>2617</ele>
        <time>2012-07-30T06:53:32Z</time>
      </trkpt>
      <trkpt lat="44.21286" lon="6.81977">
        <ele>2618.1</ele>
        <time>2012-07-30T06:53:44Z</time>
      </trkpt>
      <trkpt lat="44.21284" lon="6.81978">
        <ele>2619.1</ele>
        <time>2012-07-30T06:53:46Z</time>
      </trkpt>
      <trkpt lat="44.21281" lon="6.81981">
        <ele>2619.6</ele>
        <time>2012-07-30T06:53:49Z</time>
      </trkpt>
      <trkpt lat="44.21277" lon="6.81984">
        <ele>2620.8</ele>
        <time>2012-07-30T06:53:54Z</time>
      </trkpt>
      <trkpt lat="44.21266" lon="6.81996">
        <ele>2624.1</ele>
        <time>2012-07-30T06:54:10Z</time>
      </trkpt>
      <trkpt lat="44.21266" lon="6.81997">
        <ele>2624.6</ele>
        <time>2012-07-30T06:54:11Z</time>
      </trkpt>
      <trkpt lat="44.21265" lon="6.81998">
        <ele>2625.1</ele>
        <time>2012-07-30T06:54:12Z</time>
      </trkpt>
      <trkpt lat="44.21264" lon="6.82">
        <ele>2625.3</ele>
        <time>2012-07-30T06:54:14Z</time>
      </trkpt>
      <trkpt lat="44.21264" lon="6.82001">
        <ele>2625.3</ele>
        <time>2012-07-30T06:54:15Z</time>
      </trkpt>
      <trkpt lat="44.21263" lon="6.82004">
        <ele>2625.6</ele>
        <time>2012-07-30T06:54:17Z</time>
      </trkpt>
      <trkpt lat="44.21262" lon="6.82007">
        <ele>2625.8</ele>
        <time>2012-07-30T06:54:19Z</time>
      </trkpt>
      <trkpt lat="44.21262" lon="6.82008">
        <ele>2625.6</ele>
        <time>2012-07-30T06:54:20Z</time>
      </trkpt>
      <trkpt lat="44.21261" lon="6.8201">
        <ele>2625.8</ele>
        <time>2012-07-30T06:54:21Z</time>
      </trkpt>
      <trkpt lat="44.21259" lon="6.82021">
        <ele>2625.6</ele>
        <time>2012-07-30T06:54:30Z</time>
      </trkpt>
      <trkpt lat="44.21259" lon="6.82023">
        <ele>2626</ele>
        <time>2012-07-30T06:54:31Z</time>
      </trkpt>
      <trkpt lat="44.21259" lon="6.82026">
        <ele>2626.1</ele>
        <time>2012-07-30T06:54:33Z</time>
      </trkpt>
      <trkpt lat="44.21258" lon="6.82027">
        <ele>2626.3</ele>
        <time>2012-07-30T06:54:34Z</time>
      </trkpt>
      <trkpt lat="44.21258" lon="6.82029">
        <ele>2626.3</ele>
        <time>2012-07-30T06:54:35Z</time>
      </trkpt>
      <trkpt lat="44.21257" lon="6.82034">
        <ele>2626.3</ele>
        <time>2012-07-30T06:54:39Z</time>
      </trkpt>
      <trkpt lat="44.21257" lon="6.82037">
        <ele>2626</ele>
        <time>2012-07-30T06:54:41Z</time>
      </trkpt>
      <trkpt lat="44.21254" lon="6.82045">
        <ele>2626.5</ele>
        <time>2012-07-30T06:54:47Z</time>
      </trkpt>
      <trkpt lat="44.21254" lon="6.82046">
        <ele>2626.8</ele>
        <time>2012-07-30T06:54:48Z</time>
      </trkpt>
      <trkpt lat="44.21251" lon="6.82053">
        <ele>2627.1</ele>
        <time>2012-07-30T06:54:53Z</time>
      </trkpt>
      <trkpt lat="44.2125" lon="6.82054">
        <ele>2627.3</ele>
        <time>2012-07-30T06:54:54Z</time>
      </trkpt>
      <trkpt lat="44.2125" lon="6.82055">
        <ele>2627.6</ele>
        <time>2012-07-30T06:54:55Z</time>
      </trkpt>
      <trkpt lat="44.21251" lon="6.82082">
        <ele>2628.5</ele>
        <time>2012-07-30T06:55:19Z</time>
      </trkpt>
      <trkpt lat="44.21251" lon="6.82083">
        <ele>2628.8</ele>
        <time>2012-07-30T06:55:20Z</time>
      </trkpt>
      <trkpt lat="44.2125" lon="6.82084">
        <ele>2628.8</ele>
        <time>2012-07-30T06:55:21Z</time>
      </trkpt>
      <trkpt lat="44.2125" lon="6.82086">
        <ele>2629.3</ele>
        <time>2012-07-30T06:55:22Z</time>
      </trkpt>
      <trkpt lat="44.21246" lon="6.82109">
        <ele>2633.3</ele>
        <time>2012-07-30T06:56:03Z</time>
      </trkpt>
      <trkpt lat="44.21246" lon="6.8211">
        <ele>2633.3</ele>
        <time>2012-07-30T06:56:04Z</time>
      </trkpt>
      <trkpt lat="44.21243" lon="6.82116">
        <ele>2632.6</ele>
        <time>2012-07-30T06:56:09Z</time>
      </trkpt>
      <trkpt lat="44.21242" lon="6.82116">
        <ele>2633.1</ele>
        <time>2012-07-30T06:56:10Z</time>
      </trkpt>
      <trkpt lat="44.21241" lon="6.82117">
        <ele>2633.3</ele>
        <time>2012-07-30T06:56:11Z</time>
      </trkpt>
      <trkpt lat="44.21239" lon="6.82123">
        <ele>2634.3</ele>
        <time>2012-07-30T06:56:16Z</time>
      </trkpt>
      <trkpt lat="44.21239" lon="6.82124">
        <ele>2634.1</ele>
        <time>2012-07-30T06:56:17Z</time>
      </trkpt>
      <trkpt lat="44.21238" lon="6.82126">
        <ele>2634.1</ele>
        <time>2012-07-30T06:56:18Z</time>
      </trkpt>
      <trkpt lat="44.21237" lon="6.82128">
        <ele>2633.8</ele>
        <time>2012-07-30T06:56:20Z</time>
      </trkpt>
      <trkpt lat="44.21236" lon="6.82129">
        <ele>2633.5</ele>
        <time>2012-07-30T06:56:21Z</time>
      </trkpt>
      <trkpt lat="44.21236" lon="6.82129">
        <ele>2633.3</ele>
        <time>2012-07-30T06:56:22Z</time>
      </trkpt>
      <trkpt lat="44.21235" lon="6.8213">
        <ele>2633.5</ele>
        <time>2012-07-30T06:56:23Z</time>
      </trkpt>
      <trkpt lat="44.21234" lon="6.82131">
        <ele>2633.3</ele>
        <time>2012-07-30T06:56:24Z</time>
      </trkpt>
      <trkpt lat="44.21233" lon="6.82135">
        <ele>2633.3</ele>
        <time>2012-07-30T06:56:27Z</time>
      </trkpt>
      <trkpt lat="44.21233" lon="6.82136">
        <ele>2633.3</ele>
        <time>2012-07-30T06:56:28Z</time>
      </trkpt>
      <trkpt lat="44.21233" lon="6.82139">
        <ele>2633.6</ele>
        <time>2012-07-30T06:56:30Z</time>
      </trkpt>
      <trkpt lat="44.21233" lon="6.8214">
        <ele>2633.6</ele>
        <time>2012-07-30T06:56:31Z</time>
      </trkpt>
      <trkpt lat="44.21233" lon="6.82141">
        <ele>2633.8</ele>
        <time>2012-07-30T06:56:32Z</time>
      </trkpt>
      <trkpt lat="44.21232" lon="6.82149">
        <ele>2634.1</ele>
        <time>2012-07-30T06:56:38Z</time>
      </trkpt>
      <trkpt lat="44.21232" lon="6.8215">
        <ele>2634.3</ele>
        <time>2012-07-30T06:56:39Z</time>
      </trkpt>
      <trkpt lat="44.21233" lon="6.8215">
        <ele>2634.6</ele>
        <time>2012-07-30T06:56:40Z</time>
      </trkpt>
      <trkpt lat="44.21233" lon="6.82151">
        <ele>2635</ele>
        <time>2012-07-30T06:56:41Z</time>
      </trkpt>
      <trkpt lat="44.21233" lon="6.82151">
        <ele>2634.6</ele>
        <time>2012-07-30T06:56:42Z</time>
      </trkpt>
      <trkpt lat="44.21233" lon="6.8215">
        <ele>2635.6</ele>
        <time>2012-07-30T06:56:43Z</time>
      </trkpt>
      <trkpt lat="44.21233" lon="6.8215">
        <ele>2635.6</ele>
        <time>2012-07-30T06:56:44Z</time>
      </trkpt>
      <trkpt lat="44.21233" lon="6.8215">
        <ele>2635.6</ele>
        <time>2012-07-30T06:56:45Z</time>
      </trkpt>
      <trkpt lat="44.21233" lon="6.8215">
        <ele>2635.8</ele>
        <time>2012-07-30T06:56:46Z</time>
      </trkpt>
      <trkpt lat="44.21233" lon="6.8215">
        <ele>2636.1</ele>
        <time>2012-07-30T06:56:47Z</time>
      </trkpt>
      <trkpt lat="44.21233" lon="6.8215">
        <ele>2636.3</ele>
        <time>2012-07-30T06:56:48Z</time>
      </trkpt>
      <trkpt lat="44.21233" lon="6.8215">
        <ele>2636.3</ele>
        <time>2012-07-30T06:56:49Z</time>
      </trkpt>
      <trkpt lat="44.21233" lon="6.8215">
        <ele>2636.6</ele>
        <time>2012-07-30T06:56:50Z</time>
      </trkpt>
      <trkpt lat="44.21233" lon="6.8215">
        <ele>2636.8</ele>
        <time>2012-07-30T06:56:51Z</time>
      </trkpt>
      <trkpt lat="44.21233" lon="6.82149">
        <ele>2637.1</ele>
        <time>2012-07-30T06:56:52Z</time>
      </trkpt>
      <trkpt lat="44.21233" lon="6.82149">
        <ele>2637</ele>
        <time>2012-07-30T06:56:53Z</time>
      </trkpt>
      <trkpt lat="44.21233" lon="6.82149">
        <ele>2637</ele>
        <time>2012-07-30T06:56:54Z</time>
      </trkpt>
      <trkpt lat="44.21233" lon="6.82149">
        <ele>2636.8</ele>
        <time>2012-07-30T06:56:55Z</time>
      </trkpt>
      <trkpt lat="44.21233" lon="6.82149">
        <ele>2636.6</ele>
        <time>2012-07-30T06:56:56Z</time>
      </trkpt>
      <trkpt lat="44.21233" lon="6.82149">
        <ele>2636.6</ele>
        <time>2012-07-30T06:56:57Z</time>
      </trkpt>
      <trkpt lat="44.21234" lon="6.82149">
        <ele>2636.5</ele>
        <time>2012-07-30T06:56:58Z</time>
      </trkpt>
      <trkpt lat="44.21234" lon="6.82149">
        <ele>2636.5</ele>
        <time>2012-07-30T06:56:59Z</time>
      </trkpt>
      <trkpt lat="44.21233" lon="6.82149">
        <ele>2636.5</ele>
        <time>2012-07-30T06:57:00Z</time>
      </trkpt>
      <trkpt lat="44.21233" lon="6.82149">
        <ele>2636.6</ele>
        <time>2012-07-30T06:57:01Z</time>
      </trkpt>
      <trkpt lat="44.21233" lon="6.82149">
        <ele>2636.6</ele>
        <time>2012-07-30T06:57:02Z</time>
      </trkpt>
      <trkpt lat="44.21233" lon="6.82149">
        <ele>2636.6</ele>
        <time>2012-07-30T06:57:03Z</time>
      </trkpt>
      <trkpt lat="44.21234" lon="6.82149">
        <ele>2636.5</ele>
        <time>2012-07-30T06:57:04Z</time>
      </trkpt>
      <trkpt lat="44.21234" lon="6.82148">
        <ele>2636.1</ele>
        <time>2012-07-30T06:57:05Z</time>
      </trkpt>
      <trkpt lat="44.21234" lon="6.82149">
        <ele>2636</ele>
        <time>2012-07-30T06:57:06Z</time>
      </trkpt>
      <trkpt lat="44.21234" lon="6.82149">
        <ele>2635.6</ele>
        <time>2012-07-30T06:57:07Z</time>
      </trkpt>
      <trkpt lat="44.21234" lon="6.82149">
        <ele>2635.6</ele>
        <time>2012-07-30T06:57:08Z</time>
      </trkpt>
      <trkpt lat="44.21234" lon="6.82149">
        <ele>2635.5</ele>
        <time>2012-07-30T06:57:09Z</time>
      </trkpt>
      <trkpt lat="44.21234" lon="6.82149">
        <ele>2635.6</ele>
        <time>2012-07-30T06:57:10Z</time>
      </trkpt>
      <trkpt lat="44.21234" lon="6.82149">
        <ele>2635.8</ele>
        <time>2012-07-30T06:57:11Z</time>
      </trkpt>
      <trkpt lat="44.21234" lon="6.82149">
        <ele>2635.6</ele>
        <time>2012-07-30T06:57:12Z</time>
      </trkpt>
      <trkpt lat="44.21234" lon="6.8215">
        <ele>2635.1</ele>
        <time>2012-07-30T06:57:13Z</time>
      </trkpt>
      <trkpt lat="44.21234" lon="6.8215">
        <ele>2634.8</ele>
        <time>2012-07-30T06:57:14Z</time>
      </trkpt>
      <trkpt lat="44.21234" lon="6.82151">
        <ele>2634.8</ele>
        <time>2012-07-30T06:57:15Z</time>
      </trkpt>
      <trkpt lat="44.21234" lon="6.82151">
        <ele>2634.8</ele>
        <time>2012-07-30T06:57:16Z</time>
      </trkpt>
      <trkpt lat="44.21234" lon="6.82152">
        <ele>2634.6</ele>
        <time>2012-07-30T06:57:17Z</time>
      </trkpt>
      <trkpt lat="44.21234" lon="6.82154">
        <ele>2634.5</ele>
        <time>2012-07-30T06:57:18Z</time>
      </trkpt>
      <trkpt lat="44.21234" lon="6.82155">
        <ele>2634.5</ele>
        <time>2012-07-30T06:57:19Z</time>
      </trkpt>
      <trkpt lat="44.21233" lon="6.82157">
        <ele>2634.1</ele>
        <time>2012-07-30T06:57:20Z</time>
      </trkpt>
      <trkpt lat="44.21231" lon="6.82172">
        <ele>2632.5</ele>
        <time>2012-07-30T06:57:30Z</time>
      </trkpt>
      <trkpt lat="44.2123" lon="6.82173">
        <ele>2632.5</ele>
        <time>2012-07-30T06:57:31Z</time>
      </trkpt>
      <trkpt lat="44.2123" lon="6.82175">
        <ele>2632.8</ele>
        <time>2012-07-30T06:57:32Z</time>
      </trkpt>
      <trkpt lat="44.21229" lon="6.82176">
        <ele>2633.1</ele>
        <time>2012-07-30T06:57:33Z</time>
      </trkpt>
      <trkpt lat="44.21227" lon="6.82195">
        <ele>2636.3</ele>
        <time>2012-07-30T06:57:54Z</time>
      </trkpt>
      <trkpt lat="44.21227" lon="6.82196">
        <ele>2636.6</ele>
        <time>2012-07-30T06:57:55Z</time>
      </trkpt>
      <trkpt lat="44.21227" lon="6.82208">
        <ele>2635.1</ele>
        <time>2012-07-30T06:58:08Z</time>
      </trkpt>
      <trkpt lat="44.21227" lon="6.82209">
        <ele>2634.8</ele>
        <time>2012-07-30T06:58:09Z</time>
      </trkpt>
      <trkpt lat="44.21222" lon="6.82211">
        <ele>2635.3</ele>
        <time>2012-07-30T06:58:15Z</time>
      </trkpt>
      <trkpt lat="44.21222" lon="6.82212">
        <ele>2635.1</ele>
        <time>2012-07-30T06:58:16Z</time>
      </trkpt>
      <trkpt lat="44.21221" lon="6.82213">
        <ele>2635.1</ele>
        <time>2012-07-30T06:58:17Z</time>
      </trkpt>
      <trkpt lat="44.2122" lon="6.82214">
        <ele>2635.1</ele>
        <time>2012-07-30T06:58:19Z</time>
      </trkpt>
      <trkpt lat="44.21216" lon="6.82218">
        <ele>2635.1</ele>
        <time>2012-07-30T06:58:24Z</time>
      </trkpt>
      <trkpt lat="44.21216" lon="6.82219">
        <ele>2635.1</ele>
        <time>2012-07-30T06:58:25Z</time>
      </trkpt>
      <trkpt lat="44.21211" lon="6.82226">
        <ele>2635.8</ele>
        <time>2012-07-30T06:58:33Z</time>
      </trkpt>
      <trkpt lat="44.21211" lon="6.82227">
        <ele>2635.8</ele>
        <time>2012-07-30T06:58:34Z</time>
      </trkpt>
      <trkpt lat="44.21208" lon="6.82238">
        <ele>2637</ele>
        <time>2012-07-30T06:58:45Z</time>
      </trkpt>
      <trkpt lat="44.21207" lon="6.82239">
        <ele>2637</ele>
        <time>2012-07-30T06:58:46Z</time>
      </trkpt>
      <trkpt lat="44.21204" lon="6.82247">
        <ele>2636.6</ele>
        <time>2012-07-30T06:58:54Z</time>
      </trkpt>
      <trkpt lat="44.21204" lon="6.82248">
        <ele>2636.6</ele>
        <time>2012-07-30T06:58:55Z</time>
      </trkpt>
      <trkpt lat="44.21203" lon="6.82248">
        <ele>2636.5</ele>
        <time>2012-07-30T06:58:56Z</time>
      </trkpt>
      <trkpt lat="44.21204" lon="6.82247">
        <ele>2635.8</ele>
        <time>2012-07-30T06:58:57Z</time>
      </trkpt>
      <trkpt lat="44.21204" lon="6.82247">
        <ele>2635.6</ele>
        <time>2012-07-30T06:58:58Z</time>
      </trkpt>
      <trkpt lat="44.21204" lon="6.82247">
        <ele>2635.6</ele>
        <time>2012-07-30T06:58:59Z</time>
      </trkpt>
      <trkpt lat="44.21203" lon="6.82247">
        <ele>2635.3</ele>
        <time>2012-07-30T06:59:00Z</time>
      </trkpt>
      <trkpt lat="44.21203" lon="6.82246">
        <ele>2635.1</ele>
        <time>2012-07-30T06:59:01Z</time>
      </trkpt>
      <trkpt lat="44.21203" lon="6.82246">
        <ele>2634.8</ele>
        <time>2012-07-30T06:59:02Z</time>
      </trkpt>
      <trkpt lat="44.21202" lon="6.82246">
        <ele>2634.6</ele>
        <time>2012-07-30T06:59:03Z</time>
      </trkpt>
      <trkpt lat="44.21202" lon="6.82247">
        <ele>2634.3</ele>
        <time>2012-07-30T06:59:04Z</time>
      </trkpt>
      <trkpt lat="44.21202" lon="6.82247">
        <ele>2634.5</ele>
        <time>2012-07-30T06:59:05Z</time>
      </trkpt>
      <trkpt lat="44.21197" lon="6.82257">
        <ele>2634.6</ele>
        <time>2012-07-30T06:59:20Z</time>
      </trkpt>
      <trkpt lat="44.21192" lon="6.82268">
        <ele>2636.6</ele>
        <time>2012-07-30T06:59:34Z</time>
      </trkpt>
      <trkpt lat="44.21191" lon="6.82269">
        <ele>2637</ele>
        <time>2012-07-30T06:59:35Z</time>
      </trkpt>
      <trkpt lat="44.2119" lon="6.82271">
        <ele>2637.5</ele>
        <time>2012-07-30T06:59:37Z</time>
      </trkpt>
      <trkpt lat="44.21167" lon="6.82321">
        <ele>2644.3</ele>
        <time>2012-07-30T07:00:42Z</time>
      </trkpt>
      <trkpt lat="44.21166" lon="6.82322">
        <ele>2644.3</ele>
        <time>2012-07-30T07:00:43Z</time>
      </trkpt>
      <trkpt lat="44.21156" lon="6.82333">
        <ele>2644.5</ele>
        <time>2012-07-30T07:00:58Z</time>
      </trkpt>
      <trkpt lat="44.21156" lon="6.82334">
        <ele>2644.5</ele>
        <time>2012-07-30T07:00:59Z</time>
      </trkpt>
      <trkpt lat="44.21151" lon="6.8234">
        <ele>2645.1</ele>
        <time>2012-07-30T07:01:07Z</time>
      </trkpt>
      <trkpt lat="44.21146" lon="6.82347">
        <ele>2647.5</ele>
        <time>2012-07-30T07:01:16Z</time>
      </trkpt>
      <trkpt lat="44.21144" lon="6.8235">
        <ele>2648.1</ele>
        <time>2012-07-30T07:01:20Z</time>
      </trkpt>
      <trkpt lat="44.21142" lon="6.82353">
        <ele>2648.8</ele>
        <time>2012-07-30T07:01:23Z</time>
      </trkpt>
      <trkpt lat="44.21141" lon="6.82354">
        <ele>2649.1</ele>
        <time>2012-07-30T07:01:24Z</time>
      </trkpt>
      <trkpt lat="44.2114" lon="6.82355">
        <ele>2649.6</ele>
        <time>2012-07-30T07:01:26Z</time>
      </trkpt>
      <trkpt lat="44.21081" lon="6.82442">
        <ele>2673</ele>
        <time>2012-07-30T07:03:43Z</time>
      </trkpt>
      <trkpt lat="44.21081" lon="6.82442">
        <ele>2673.1</ele>
        <time>2012-07-30T07:03:44Z</time>
      </trkpt>
      <trkpt lat="44.21071" lon="6.8245">
        <ele>2674.8</ele>
        <time>2012-07-30T07:03:59Z</time>
      </trkpt>
      <trkpt lat="44.2107" lon="6.8245">
        <ele>2674.8</ele>
        <time>2012-07-30T07:04:00Z</time>
      </trkpt>
      <trkpt lat="44.21069" lon="6.82451">
        <ele>2674.5</ele>
        <time>2012-07-30T07:04:01Z</time>
      </trkpt>
      <trkpt lat="44.21066" lon="6.82456">
        <ele>2675.1</ele>
        <time>2012-07-30T07:04:07Z</time>
      </trkpt>
      <trkpt lat="44.21065" lon="6.82457">
        <ele>2675.1</ele>
        <time>2012-07-30T07:04:08Z</time>
      </trkpt>
      <trkpt lat="44.21065" lon="6.82457">
        <ele>2675.1</ele>
        <time>2012-07-30T07:04:09Z</time>
      </trkpt>
      <trkpt lat="44.21045" lon="6.82465">
        <ele>2678.8</ele>
        <time>2012-07-30T07:04:35Z</time>
      </trkpt>
      <trkpt lat="44.21045" lon="6.82465">
        <ele>2678.8</ele>
        <time>2012-07-30T07:04:36Z</time>
      </trkpt>
      <trkpt lat="44.21041" lon="6.82469">
        <ele>2679.1</ele>
        <time>2012-07-30T07:04:42Z</time>
      </trkpt>
      <trkpt lat="44.21033" lon="6.8248">
        <ele>2680.6</ele>
        <time>2012-07-30T07:04:56Z</time>
      </trkpt>
      <trkpt lat="44.21033" lon="6.82482">
        <ele>2680.8</ele>
        <time>2012-07-30T07:04:57Z</time>
      </trkpt>
      <trkpt lat="44.21031" lon="6.82484">
        <ele>2681.1</ele>
        <time>2012-07-30T07:05:00Z</time>
      </trkpt>
      <trkpt lat="44.21031" lon="6.82485">
        <ele>2681.1</ele>
        <time>2012-07-30T07:05:01Z</time>
      </trkpt>
      <trkpt lat="44.21025" lon="6.82493">
        <ele>2682.8</ele>
        <time>2012-07-30T07:05:12Z</time>
      </trkpt>
      <trkpt lat="44.21022" lon="6.82499">
        <ele>2684</ele>
        <time>2012-07-30T07:05:19Z</time>
      </trkpt>
      <trkpt lat="44.21019" lon="6.82505">
        <ele>2685.1</ele>
        <time>2012-07-30T07:05:25Z</time>
      </trkpt>
      <trkpt lat="44.21002" lon="6.82528">
        <ele>2689.3</ele>
        <time>2012-07-30T07:05:55Z</time>
      </trkpt>
      <trkpt lat="44.2098" lon="6.82552">
        <ele>2699.6</ele>
        <time>2012-07-30T07:06:57Z</time>
      </trkpt>
      <trkpt lat="44.2098" lon="6.82552">
        <ele>2699.8</ele>
        <time>2012-07-30T07:06:58Z</time>
      </trkpt>
      <trkpt lat="44.20977" lon="6.82555">
        <ele>2698.8</ele>
        <time>2012-07-30T07:07:02Z</time>
      </trkpt>
      <trkpt lat="44.20973" lon="6.8256">
        <ele>2698.5</ele>
        <time>2012-07-30T07:07:08Z</time>
      </trkpt>
      <trkpt lat="44.20972" lon="6.82561">
        <ele>2698.6</ele>
        <time>2012-07-30T07:07:09Z</time>
      </trkpt>
      <trkpt lat="44.20971" lon="6.82562">
        <ele>2698.5</ele>
        <time>2012-07-30T07:07:10Z</time>
      </trkpt>
      <trkpt lat="44.20971" lon="6.82562">
        <ele>2698.5</ele>
        <time>2012-07-30T07:07:11Z</time>
      </trkpt>
      <trkpt lat="44.2097" lon="6.82563">
        <ele>2698.3</ele>
        <time>2012-07-30T07:07:12Z</time>
      </trkpt>
      <trkpt lat="44.20939" lon="6.82652">
        <ele>2712.1</ele>
        <time>2012-07-30T07:09:58Z</time>
      </trkpt>
      <trkpt lat="44.20938" lon="6.82652">
        <ele>2712.3</ele>
        <time>2012-07-30T07:09:59Z</time>
      </trkpt>
      <trkpt lat="44.20938" lon="6.82653">
        <ele>2712.6</ele>
        <time>2012-07-30T07:10:00Z</time>
      </trkpt>
      <trkpt lat="44.20877" lon="6.82698">
        <ele>2730.3</ele>
        <time>2012-07-30T07:12:10Z</time>
      </trkpt>
      <trkpt lat="44.20877" lon="6.82698">
        <ele>2730.6</ele>
        <time>2012-07-30T07:12:11Z</time>
      </trkpt>
      <trkpt lat="44.20871" lon="6.82701">
        <ele>2731.1</ele>
        <time>2012-07-30T07:12:18Z</time>
      </trkpt>
      <trkpt lat="44.2087" lon="6.82701">
        <ele>2731.3</ele>
        <time>2012-07-30T07:12:19Z</time>
      </trkpt>
      <trkpt lat="44.20869" lon="6.82706">
        <ele>2741.6</ele>
        <time>2012-07-30T07:12:56Z</time>
      </trkpt>
      <trkpt lat="44.20868" lon="6.82706">
        <ele>2741.6</ele>
        <time>2012-07-30T07:12:57Z</time>
      </trkpt>
      <trkpt lat="44.20863" lon="6.82707">
        <ele>2741.1</ele>
        <time>2012-07-30T07:13:02Z</time>
      </trkpt>
      <trkpt lat="44.20862" lon="6.82707">
        <ele>2741</ele>
        <time>2012-07-30T07:13:03Z</time>
      </trkpt>
      <trkpt lat="44.20854" lon="6.8271">
        <ele>2739.6</ele>
        <time>2012-07-30T07:13:12Z</time>
      </trkpt>
      <trkpt lat="44.20853" lon="6.8271">
        <ele>2739.5</ele>
        <time>2012-07-30T07:13:13Z</time>
      </trkpt>
      <trkpt lat="44.20838" lon="6.82714">
        <ele>2739</ele>
        <time>2012-07-30T07:13:34Z</time>
      </trkpt>
      <trkpt lat="44.20838" lon="6.82715">
        <ele>2739.1</ele>
        <time>2012-07-30T07:13:35Z</time>
      </trkpt>
      <trkpt lat="44.20817" lon="6.82724">
        <ele>2743.6</ele>
        <time>2012-07-30T07:14:10Z</time>
      </trkpt>
      <trkpt lat="44.20816" lon="6.82724">
        <ele>2743.8</ele>
        <time>2012-07-30T07:14:11Z</time>
      </trkpt>
      <trkpt lat="44.20815" lon="6.82723">
        <ele>2744</ele>
        <time>2012-07-30T07:14:12Z</time>
      </trkpt>
      <trkpt lat="44.20814" lon="6.82723">
        <ele>2744.1</ele>
        <time>2012-07-30T07:14:13Z</time>
      </trkpt>
      <trkpt lat="44.20813" lon="6.82723">
        <ele>2744.3</ele>
        <time>2012-07-30T07:14:14Z</time>
      </trkpt>
      <trkpt lat="44.20747" lon="6.82737">
        <ele>2763.6</ele>
        <time>2012-07-30T07:16:06Z</time>
      </trkpt>
      <trkpt lat="44.20643" lon="6.82728">
        <ele>2790</ele>
        <time>2012-07-30T07:19:16Z</time>
      </trkpt>
      <trkpt lat="44.20642" lon="6.82728">
        <ele>2790.1</ele>
        <time>2012-07-30T07:19:17Z</time>
      </trkpt>
      <trkpt lat="44.20641" lon="6.82727">
        <ele>2790.1</ele>
        <time>2012-07-30T07:19:18Z</time>
      </trkpt>
      <trkpt lat="44.20636" lon="6.82726">
        <ele>2791.1</ele>
        <time>2012-07-30T07:19:25Z</time>
      </trkpt>
      <trkpt lat="44.20635" lon="6.82726">
        <ele>2791.1</ele>
        <time>2012-07-30T07:19:26Z</time>
      </trkpt>
      <trkpt lat="44.20625" lon="6.82729">
        <ele>2793.3</ele>
        <time>2012-07-30T07:19:40Z</time>
      </trkpt>
      <trkpt lat="44.20624" lon="6.82729">
        <ele>2793.5</ele>
        <time>2012-07-30T07:19:41Z</time>
      </trkpt>
      <trkpt lat="44.20598" lon="6.82798">
        <ele>2827</ele>
        <time>2012-07-30T07:24:45Z</time>
      </trkpt>
      <trkpt lat="44.20598" lon="6.82798">
        <ele>2827</ele>
        <time>2012-07-30T07:24:45Z</time>
      </trkpt>
      <trkpt lat="44.20598" lon="6.828">
        <ele>2822.6</ele>
        <time>2012-07-30T08:15:07Z</time>
      </trkpt>
      <trkpt lat="44.20598" lon="6.828">
        <ele>2822.6</ele>
        <time>2012-07-30T08:15:07Z</time>
      </trkpt>
      <trkpt lat="44.20598" lon="6.828">
        <ele>2822.8</ele>
        <time>2012-07-30T08:15:08Z</time>
      </trkpt>
      <trkpt lat="44.20598" lon="6.828">
        <ele>2822.8</ele>
        <time>2012-07-30T08:15:09Z</time>
      </trkpt>
      <trkpt lat="44.20598" lon="6.828">
        <ele>2822.8</ele>
        <time>2012-07-30T08:15:10Z</time>
      </trkpt>
      <trkpt lat="44.20598" lon="6.828">
        <ele>2823</ele>
        <time>2012-07-30T08:15:11Z</time>
      </trkpt>
      <trkpt lat="44.20598" lon="6.828">
        <ele>2823</ele>
        <time>2012-07-30T08:15:12Z</time>
      </trkpt>
      <trkpt lat="44.20598" lon="6.828">
        <ele>2823.1</ele>
        <time>2012-07-30T08:15:13Z</time>
      </trkpt>
      <trkpt lat="44.20598" lon="6.828">
        <ele>2823.1</ele>
        <time>2012-07-30T08:15:14Z</time>
      </trkpt>
      <trkpt lat="44.20598" lon="6.828">
        <ele>2823.3</ele>
        <time>2012-07-30T08:15:15Z</time>
      </trkpt>
      <trkpt lat="44.20598" lon="6.828">
        <ele>2823.3</ele>
        <time>2012-07-30T08:15:16Z</time>
      </trkpt>
      <trkpt lat="44.20598" lon="6.828">
        <ele>2823.3</ele>
        <time>2012-07-30T08:15:17Z</time>
      </trkpt>
      <trkpt lat="44.20598" lon="6.828">
        <ele>2823.5</ele>
        <time>2012-07-30T08:15:18Z</time>
      </trkpt>
      <trkpt lat="44.20598" lon="6.828">
        <ele>2823.6</ele>
        <time>2012-07-30T08:15:19Z</time>
      </trkpt>
      <trkpt lat="44.20599" lon="6.828">
        <ele>2823.6</ele>
        <time>2012-07-30T08:15:20Z</time>
      </trkpt>
      <trkpt lat="44.20599" lon="6.82799">
        <ele>2823.6</ele>
        <time>2012-07-30T08:15:21Z</time>
      </trkpt>
      <trkpt lat="44.20599" lon="6.82799">
        <ele>2823.8</ele>
        <time>2012-07-30T08:15:22Z</time>
      </trkpt>
      <trkpt lat="44.20599" lon="6.82799">
        <ele>2823.8</ele>
        <time>2012-07-30T08:15:23Z</time>
      </trkpt>
      <trkpt lat="44.20599" lon="6.82799">
        <ele>2823.8</ele>
        <time>2012-07-30T08:15:24Z</time>
      </trkpt>
      <trkpt lat="44.20599" lon="6.82799">
        <ele>2823.8</ele>
        <time>2012-07-30T08:15:25Z</time>
      </trkpt>
      <trkpt lat="44.20599" lon="6.82799">
        <ele>2824</ele>
        <time>2012-07-30T08:15:26Z</time>
      </trkpt>
      <trkpt lat="44.20599" lon="6.82799">
        <ele>2824</ele>
        <time>2012-07-30T08:15:27Z</time>
      </trkpt>
      <trkpt lat="44.20599" lon="6.82799">
        <ele>2824</ele>
        <time>2012-07-30T08:15:28Z</time>
      </trkpt>
      <trkpt lat="44.20599" lon="6.82799">
        <ele>2824</ele>
        <time>2012-07-30T08:15:29Z</time>
      </trkpt>
      <trkpt lat="44.20599" lon="6.82799">
        <ele>2824</ele>
        <time>2012-07-30T08:15:30Z</time>
      </trkpt>
      <trkpt lat="44.20599" lon="6.82799">
        <ele>2824.1</ele>
        <time>2012-07-30T08:15:31Z</time>
      </trkpt>
      <trkpt lat="44.20599" lon="6.82799">
        <ele>2824.1</ele>
        <time>2012-07-30T08:15:32Z</time>
      </trkpt>
      <trkpt lat="44.20599" lon="6.82799">
        <ele>2824.1</ele>
        <time>2012-07-30T08:15:33Z</time>
      </trkpt>
      <trkpt lat="44.20599" lon="6.82799">
        <ele>2824.1</ele>
        <time>2012-07-30T08:15:34Z</time>
      </trkpt>
      <trkpt lat="44.20599" lon="6.82799">
        <ele>2824.3</ele>
        <time>2012-07-30T08:15:35Z</time>
      </trkpt>
      <trkpt lat="44.20599" lon="6.82799">
        <ele>2824.3</ele>
        <time>2012-07-30T08:15:36Z</time>
      </trkpt>
      <trkpt lat="44.20599" lon="6.82799">
        <ele>2824.3</ele>
        <time>2012-07-30T08:15:37Z</time>
      </trkpt>
      <trkpt lat="44.20599" lon="6.82799">
        <ele>2824.3</ele>
        <time>2012-07-30T08:15:38Z</time>
      </trkpt>
      <trkpt lat="44.20599" lon="6.82799">
        <ele>2824.3</ele>
        <time>2012-07-30T08:15:39Z</time>
      </trkpt>
      <trkpt lat="44.20599" lon="6.82799">
        <ele>2824.6</ele>
        <time>2012-07-30T08:15:40Z</time>
      </trkpt>
      <trkpt lat="44.20599" lon="6.82799">
        <ele>2824.6</ele>
        <time>2012-07-30T08:15:41Z</time>
      </trkpt>
      <trkpt lat="44.20599" lon="6.82799">
        <ele>2824.5</ele>
        <time>2012-07-30T08:15:42Z</time>
      </trkpt>
      <trkpt lat="44.20599" lon="6.82799">
        <ele>2824.6</ele>
        <time>2012-07-30T08:15:43Z</time>
      </trkpt>
      <trkpt lat="44.20599" lon="6.82799">
        <ele>2824.6</ele>
        <time>2012-07-30T08:15:44Z</time>
      </trkpt>
      <trkpt lat="44.20599" lon="6.82799">
        <ele>2824.8</ele>
        <time>2012-07-30T08:15:45Z</time>
      </trkpt>
      <trkpt lat="44.20599" lon="6.82799">
        <ele>2824.8</ele>
        <time>2012-07-30T08:15:46Z</time>
      </trkpt>
      <trkpt lat="44.20599" lon="6.82799">
        <ele>2825.3</ele>
        <time>2012-07-30T08:15:47Z</time>
      </trkpt>
      <trkpt lat="44.20599" lon="6.828">
        <ele>2825.6</ele>
        <time>2012-07-30T08:15:48Z</time>
      </trkpt>
      <trkpt lat="44.20599" lon="6.828">
        <ele>2825.8</ele>
        <time>2012-07-30T08:15:49Z</time>
      </trkpt>
      <trkpt lat="44.20599" lon="6.828">
        <ele>2826.1</ele>
        <time>2012-07-30T08:15:50Z</time>
      </trkpt>
      <trkpt lat="44.20599" lon="6.828">
        <ele>2826.3</ele>
        <time>2012-07-30T08:15:51Z</time>
      </trkpt>
      <trkpt lat="44.20599" lon="6.828">
        <ele>2826.5</ele>
        <time>2012-07-30T08:15:52Z</time>
      </trkpt>
      <trkpt lat="44.20599" lon="6.828">
        <ele>2826.6</ele>
        <time>2012-07-30T08:15:53Z</time>
      </trkpt>
      <trkpt lat="44.20599" lon="6.828">
        <ele>2826.8</ele>
        <time>2012-07-30T08:15:54Z</time>
      </trkpt>
      <trkpt lat="44.20599" lon="6.828">
        <ele>2827</ele>
        <time>2012-07-30T08:15:55Z</time>
      </trkpt>
      <trkpt lat="44.20599" lon="6.828">
        <ele>2827.1</ele>
        <time>2012-07-30T08:15:56Z</time>
      </trkpt>
      <trkpt lat="44.20599" lon="6.828">
        <ele>2827.1</ele>
        <time>2012-07-30T08:15:57Z</time>
      </trkpt>
      <trkpt lat="44.20599" lon="6.828">
        <ele>2827.1</ele>
        <time>2012-07-30T08:15:58Z</time>
      </trkpt>
      <trkpt lat="44.20599" lon="6.828">
        <ele>2827.1</ele>
        <time>2012-07-30T08:15:59Z</time>
      </trkpt>
      <trkpt lat="44.20599" lon="6.828">
        <ele>2827.1</ele>
        <time>2012-07-30T08:16:00Z</time>
      </trkpt>
      <trkpt lat="44.20599" lon="6.828">
        <ele>2827</ele>
        <time>2012-07-30T08:16:01Z</time>
      </trkpt>
      <trkpt lat="44.20598" lon="6.828">
        <ele>2826.8</ele>
        <time>2012-07-30T08:16:02Z</time>
      </trkpt>
      <trkpt lat="44.20598" lon="6.828">
        <ele>2826.8</ele>
        <time>2012-07-30T08:16:03Z</time>
      </trkpt>
      <trkpt lat="44.20598" lon="6.828">
        <ele>2826.8</ele>
        <time>2012-07-30T08:16:04Z</time>
      </trkpt>
      <trkpt lat="44.20598" lon="6.828">
        <ele>2826.8</ele>
        <time>2012-07-30T08:16:05Z</time>
      </trkpt>
      <trkpt lat="44.20598" lon="6.828">
        <ele>2826.8</ele>
        <time>2012-07-30T08:16:06Z</time>
      </trkpt>
      <trkpt lat="44.20598" lon="6.828">
        <ele>2826.8</ele>
        <time>2012-07-30T08:16:07Z</time>
      </trkpt>
      <trkpt lat="44.20598" lon="6.828">
        <ele>2826.8</ele>
        <time>2012-07-30T08:16:08Z</time>
      </trkpt>
      <trkpt lat="44.20598" lon="6.828">
        <ele>2826.8</ele>
        <time>2012-07-30T08:16:09Z</time>
      </trkpt>
      <trkpt lat="44.20598" lon="6.828">
        <ele>2826.8</ele>
        <time>2012-07-30T08:16:10Z</time>
      </trkpt>
      <trkpt lat="44.20598" lon="6.828">
        <ele>2826.8</ele>
        <time>2012-07-30T08:16:11Z</time>
      </trkpt>
      <trkpt lat="44.20598" lon="6.828">
        <ele>2826.8</ele>
        <time>2012-07-30T08:16:12Z</time>
      </trkpt>
      <trkpt lat="44.20598" lon="6.828">
        <ele>2826.8</ele>
        <time>2012-07-30T08:16:13Z</time>
      </trkpt>
      <trkpt lat="44.20598" lon="6.828">
        <ele>2826.6</ele>
        <time>2012-07-30T08:16:14Z</time>
      </trkpt>
      <trkpt lat="44.20598" lon="6.828">
        <ele>2826.6</ele>
        <time>2012-07-30T08:16:15Z</time>
      </trkpt>
      <trkpt lat="44.20598" lon="6.828">
        <ele>2826.6</ele>
        <time>2012-07-30T08:16:16Z</time>
      </trkpt>
      <trkpt lat="44.20598" lon="6.828">
        <ele>2826.6</ele>
        <time>2012-07-30T08:16:17Z</time>
      </trkpt>
      <trkpt lat="44.20598" lon="6.828">
        <ele>2826.6</ele>
        <time>2012-07-30T08:16:18Z</time>
      </trkpt>
      <trkpt lat="44.20598" lon="6.828">
        <ele>2826.5</ele>
        <time>2012-07-30T08:16:19Z</time>
      </trkpt>
      <trkpt lat="44.20598" lon="6.828">
        <ele>2826.5</ele>
        <time>2012-07-30T08:16:20Z</time>
      </trkpt>
      <trkpt lat="44.20598" lon="6.828">
        <ele>2826.3</ele>
        <time>2012-07-30T08:16:21Z</time>
      </trkpt>
      <trkpt lat="44.20597" lon="6.828">
        <ele>2826.3</ele>
        <time>2012-07-30T08:16:22Z</time>
      </trkpt>
      <trkpt lat="44.20597" lon="6.828">
        <ele>2826.1</ele>
        <time>2012-07-30T08:16:23Z</time>
      </trkpt>
      <trkpt lat="44.20597" lon="6.828">
        <ele>2826.1</ele>
        <time>2012-07-30T08:16:24Z</time>
      </trkpt>
      <trkpt lat="44.20597" lon="6.828">
        <ele>2826.1</ele>
        <time>2012-07-30T08:16:25Z</time>
      </trkpt>
      <trkpt lat="44.20597" lon="6.828">
        <ele>2826.1</ele>
        <time>2012-07-30T08:16:26Z</time>
      </trkpt>
      <trkpt lat="44.20597" lon="6.828">
        <ele>2826.1</ele>
        <time>2012-07-30T08:16:27Z</time>
      </trkpt>
      <trkpt lat="44.20597" lon="6.828">
        <ele>2826.1</ele>
        <time>2012-07-30T08:16:28Z</time>
      </trkpt>
      <trkpt lat="44.20597" lon="6.828">
        <ele>2826</ele>
        <time>2012-07-30T08:16:29Z</time>
      </trkpt>
      <trkpt lat="44.20597" lon="6.828">
        <ele>2826.1</ele>
        <time>2012-07-30T08:16:30Z</time>
      </trkpt>
      <trkpt lat="44.20597" lon="6.828">
        <ele>2826.1</ele>
        <time>2012-07-30T08:16:31Z</time>
      </trkpt>
      <trkpt lat="44.20597" lon="6.828">
        <ele>2826.3</ele>
        <time>2012-07-30T08:16:32Z</time>
      </trkpt>
      <trkpt lat="44.20597" lon="6.828">
        <ele>2826.3</ele>
        <time>2012-07-30T08:16:33Z</time>
      </trkpt>
      <trkpt lat="44.20597" lon="6.828">
        <ele>2826.1</ele>
        <time>2012-07-30T08:16:35Z</time>
      </trkpt>
      <trkpt lat="44.20597" lon="6.828">
        <ele>2826.1</ele>
        <time>2012-07-30T08:16:36Z</time>
      </trkpt>
      <trkpt lat="44.20597" lon="6.828">
        <ele>2826.3</ele>
        <time>2012-07-30T08:16:37Z</time>
      </trkpt>
      <trkpt lat="44.20597" lon="6.828">
        <ele>2826.3</ele>
        <time>2012-07-30T08:16:38Z</time>
      </trkpt>
      <trkpt lat="44.20597" lon="6.82799">
        <ele>2826.6</ele>
        <time>2012-07-30T08:16:39Z</time>
      </trkpt>
      <trkpt lat="44.20597" lon="6.82799">
        <ele>2826.8</ele>
        <time>2012-07-30T08:16:40Z</time>
      </trkpt>
      <trkpt lat="44.20598" lon="6.82799">
        <ele>2826.8</ele>
        <time>2012-07-30T08:16:41Z</time>
      </trkpt>
      <trkpt lat="44.20598" lon="6.828">
        <ele>2826.6</ele>
        <time>2012-07-30T08:16:42Z</time>
      </trkpt>
      <trkpt lat="44.20598" lon="6.828">
        <ele>2826.6</ele>
        <time>2012-07-30T08:16:43Z</time>
      </trkpt>
      <trkpt lat="44.20598" lon="6.828">
        <ele>2826.6</ele>
        <time>2012-07-30T08:16:44Z</time>
      </trkpt>
      <trkpt lat="44.20598" lon="6.828">
        <ele>2826.3</ele>
        <time>2012-07-30T08:16:45Z</time>
      </trkpt>
      <trkpt lat="44.20598" lon="6.828">
        <ele>2826.5</ele>
        <time>2012-07-30T08:16:46Z</time>
      </trkpt>
      <trkpt lat="44.20598" lon="6.828">
        <ele>2826.5</ele>
        <time>2012-07-30T08:16:47Z</time>
      </trkpt>
      <trkpt lat="44.20598" lon="6.828">
        <ele>2826.3</ele>
        <time>2012-07-30T08:16:48Z</time>
      </trkpt>
      <trkpt lat="44.20598" lon="6.828">
        <ele>2826.3</ele>
        <time>2012-07-30T08:16:49Z</time>
      </trkpt>
      <trkpt lat="44.20598" lon="6.828">
        <ele>2826.3</ele>
        <time>2012-07-30T08:16:50Z</time>
      </trkpt>
      <trkpt lat="44.20598" lon="6.828">
        <ele>2826.3</ele>
        <time>2012-07-30T08:16:51Z</time>
      </trkpt>
      <trkpt lat="44.20598" lon="6.828">
        <ele>2826.6</ele>
        <time>2012-07-30T08:16:52Z</time>
      </trkpt>
      <trkpt lat="44.20598" lon="6.828">
        <ele>2826.6</ele>
        <time>2012-07-30T08:16:53Z</time>
      </trkpt>
      <trkpt lat="44.20598" lon="6.828">
        <ele>2826.6</ele>
        <time>2012-07-30T08:16:54Z</time>
      </trkpt>
      <trkpt lat="44.20598" lon="6.82799">
        <ele>2826.8</ele>
        <time>2012-07-30T08:16:55Z</time>
      </trkpt>
      <trkpt lat="44.20598" lon="6.82799">
        <ele>2826.8</ele>
        <time>2012-07-30T08:16:56Z</time>
      </trkpt>
      <trkpt lat="44.20598" lon="6.82799">
        <ele>2826.8</ele>
        <time>2012-07-30T08:16:57Z</time>
      </trkpt>
      <trkpt lat="44.20598" lon="6.82799">
        <ele>2826.8</ele>
        <time>2012-07-30T08:16:58Z</time>
      </trkpt>
      <trkpt lat="44.20598" lon="6.82799">
        <ele>2827</ele>
        <time>2012-07-30T08:16:59Z</time>
      </trkpt>
      <trkpt lat="44.20598" lon="6.82799">
        <ele>2827</ele>
        <time>2012-07-30T08:17:00Z</time>
      </trkpt>
      <trkpt lat="44.20598" lon="6.82799">
        <ele>2827.1</ele>
        <time>2012-07-30T08:17:01Z</time>
      </trkpt>
      <trkpt lat="44.20598" lon="6.82799">
        <ele>2827.1</ele>
        <time>2012-07-30T08:17:02Z</time>
      </trkpt>
      <trkpt lat="44.20598" lon="6.82799">
        <ele>2827.1</ele>
        <time>2012-07-30T08:17:03Z</time>
      </trkpt>
      <trkpt lat="44.20598" lon="6.82799">
        <ele>2827.1</ele>
        <time>2012-07-30T08:17:04Z</time>
      </trkpt>
      <trkpt lat="44.20598" lon="6.82799">
        <ele>2827.3</ele>
        <time>2012-07-30T08:17:05Z</time>
      </trkpt>
      <trkpt lat="44.20598" lon="6.82799">
        <ele>2827.1</ele>
        <time>2012-07-30T08:17:06Z</time>
      </trkpt>
      <trkpt lat="44.20598" lon="6.82799">
        <ele>2827</ele>
        <time>2012-07-30T08:17:07Z</time>
      </trkpt>
      <trkpt lat="44.20599" lon="6.82799">
        <ele>2826.8</ele>
        <time>2012-07-30T08:17:08Z</time>
      </trkpt>
      <trkpt lat="44.20599" lon="6.82799">
        <ele>2826.8</ele>
        <time>2012-07-30T08:17:09Z</time>
      </trkpt>
      <trkpt lat="44.20599" lon="6.82799">
        <ele>2826.6</ele>
        <time>2012-07-30T08:17:10Z</time>
      </trkpt>
      <trkpt lat="44.20599" lon="6.82799">
        <ele>2826.6</ele>
        <time>2012-07-30T08:17:11Z</time>
      </trkpt>
      <trkpt lat="44.20599" lon="6.82799">
        <ele>2826.6</ele>
        <time>2012-07-30T08:17:12Z</time>
      </trkpt>
      <trkpt lat="44.20599" lon="6.82799">
        <ele>2826.6</ele>
        <time>2012-07-30T08:17:13Z</time>
      </trkpt>
      <trkpt lat="44.20599" lon="6.82799">
        <ele>2826.5</ele>
        <time>2012-07-30T08:17:14Z</time>
      </trkpt>
      <trkpt lat="44.20599" lon="6.82799">
        <ele>2826.3</ele>
        <time>2012-07-30T08:17:15Z</time>
      </trkpt>
      <trkpt lat="44.20599" lon="6.82799">
        <ele>2826.3</ele>
        <time>2012-07-30T08:17:16Z</time>
      </trkpt>
      <trkpt lat="44.20599" lon="6.82799">
        <ele>2826.1</ele>
        <time>2012-07-30T08:17:17Z</time>
      </trkpt>
      <trkpt lat="44.206" lon="6.82799">
        <ele>2825.6</ele>
        <time>2012-07-30T08:17:18Z</time>
      </trkpt>
      <trkpt lat="44.206" lon="6.82799">
        <ele>2825.3</ele>
        <time>2012-07-30T08:17:19Z</time>
      </trkpt>
      <trkpt lat="44.206" lon="6.82798">
        <ele>2825.1</ele>
        <time>2012-07-30T08:17:20Z</time>
      </trkpt>
      <trkpt lat="44.206" lon="6.82798">
        <ele>2825</ele>
        <time>2012-07-30T08:17:21Z</time>
      </trkpt>
      <trkpt lat="44.206" lon="6.82798">
        <ele>2824.8</ele>
        <time>2012-07-30T08:17:22Z</time>
      </trkpt>
      <trkpt lat="44.206" lon="6.82798">
        <ele>2824.6</ele>
        <time>2012-07-30T08:17:23Z</time>
      </trkpt>
      <trkpt lat="44.206" lon="6.82798">
        <ele>2824.8</ele>
        <time>2012-07-30T08:17:24Z</time>
      </trkpt>
      <trkpt lat="44.206" lon="6.82798">
        <ele>2824.8</ele>
        <time>2012-07-30T08:17:25Z</time>
      </trkpt>
      <trkpt lat="44.20601" lon="6.82798">
        <ele>2824.8</ele>
        <time>2012-07-30T08:17:26Z</time>
      </trkpt>
      <trkpt lat="44.20601" lon="6.82798">
        <ele>2824.6</ele>
        <time>2012-07-30T08:17:27Z</time>
      </trkpt>
      <trkpt lat="44.20601" lon="6.82798">
        <ele>2824.8</ele>
        <time>2012-07-30T08:17:28Z</time>
      </trkpt>
      <trkpt lat="44.20601" lon="6.82798">
        <ele>2824.6</ele>
        <time>2012-07-30T08:17:29Z</time>
      </trkpt>
      <trkpt lat="44.20601" lon="6.82798">
        <ele>2824.8</ele>
        <time>2012-07-30T08:17:30Z</time>
      </trkpt>
      <trkpt lat="44.20601" lon="6.82798">
        <ele>2825.3</ele>
        <time>2012-07-30T08:17:31Z</time>
      </trkpt>
      <trkpt lat="44.206" lon="6.82798">
        <ele>2825.8</ele>
        <time>2012-07-30T08:17:32Z</time>
      </trkpt>
      <trkpt lat="44.206" lon="6.82798">
        <ele>2826.1</ele>
        <time>2012-07-30T08:17:33Z</time>
      </trkpt>
      <trkpt lat="44.206" lon="6.82798">
        <ele>2826.1</ele>
        <time>2012-07-30T08:17:34Z</time>
      </trkpt>
      <trkpt lat="44.206" lon="6.82798">
        <ele>2826.3</ele>
        <time>2012-07-30T08:17:35Z</time>
      </trkpt>
      <trkpt lat="44.206" lon="6.82797">
        <ele>2826.6</ele>
        <time>2012-07-30T08:17:36Z</time>
      </trkpt>
      <trkpt lat="44.206" lon="6.82798">
        <ele>2826.6</ele>
        <time>2012-07-30T08:17:37Z</time>
      </trkpt>
      <trkpt lat="44.20601" lon="6.82797">
        <ele>2826.6</ele>
        <time>2012-07-30T08:17:38Z</time>
      </trkpt>
      <trkpt lat="44.20601" lon="6.82797">
        <ele>2826.5</ele>
        <time>2012-07-30T08:17:39Z</time>
      </trkpt>
      <trkpt lat="44.20601" lon="6.82797">
        <ele>2826.3</ele>
        <time>2012-07-30T08:17:40Z</time>
      </trkpt>
      <trkpt lat="44.20601" lon="6.82797">
        <ele>2826.3</ele>
        <time>2012-07-30T08:17:41Z</time>
      </trkpt>
      <trkpt lat="44.20601" lon="6.82797">
        <ele>2826.1</ele>
        <time>2012-07-30T08:17:42Z</time>
      </trkpt>
      <trkpt lat="44.20602" lon="6.82797">
        <ele>2825.8</ele>
        <time>2012-07-30T08:17:43Z</time>
      </trkpt>
      <trkpt lat="44.20602" lon="6.82797">
        <ele>2825.8</ele>
        <time>2012-07-30T08:17:44Z</time>
      </trkpt>
      <trkpt lat="44.20602" lon="6.82797">
        <ele>2825.6</ele>
        <time>2012-07-30T08:17:45Z</time>
      </trkpt>
      <trkpt lat="44.20602" lon="6.82797">
        <ele>2825.6</ele>
        <time>2012-07-30T08:17:46Z</time>
      </trkpt>
      <trkpt lat="44.20602" lon="6.82797">
        <ele>2825.5</ele>
        <time>2012-07-30T08:17:47Z</time>
      </trkpt>
      <trkpt lat="44.20602" lon="6.82797">
        <ele>2825.6</ele>
        <time>2012-07-30T08:17:48Z</time>
      </trkpt>
      <trkpt lat="44.20602" lon="6.82797">
        <ele>2825.6</ele>
        <time>2012-07-30T08:17:49Z</time>
      </trkpt>
      <trkpt lat="44.20602" lon="6.82797">
        <ele>2825.6</ele>
        <time>2012-07-30T08:17:50Z</time>
      </trkpt>
      <trkpt lat="44.20602" lon="6.82797">
        <ele>2825.5</ele>
        <time>2012-07-30T08:17:51Z</time>
      </trkpt>
      <trkpt lat="44.20602" lon="6.82798">
        <ele>2825.5</ele>
        <time>2012-07-30T08:17:52Z</time>
      </trkpt>
      <trkpt lat="44.20602" lon="6.82798">
        <ele>2825.3</ele>
        <time>2012-07-30T08:17:53Z</time>
      </trkpt>
      <trkpt lat="44.20602" lon="6.82798">
        <ele>2825.1</ele>
        <time>2012-07-30T08:17:54Z</time>
      </trkpt>
      <trkpt lat="44.20602" lon="6.82798">
        <ele>2824.8</ele>
        <time>2012-07-30T08:17:55Z</time>
      </trkpt>
      <trkpt lat="44.20602" lon="6.82799">
        <ele>2824.6</ele>
        <time>2012-07-30T08:17:56Z</time>
      </trkpt>
      <trkpt lat="44.20603" lon="6.82799">
        <ele>2824.3</ele>
        <time>2012-07-30T08:17:57Z</time>
      </trkpt>
      <trkpt lat="44.20603" lon="6.82799">
        <ele>2824.3</ele>
        <time>2012-07-30T08:17:58Z</time>
      </trkpt>
      <trkpt lat="44.20603" lon="6.82799">
        <ele>2824.1</ele>
        <time>2012-07-30T08:17:59Z</time>
      </trkpt>
      <trkpt lat="44.20603" lon="6.828">
        <ele>2824</ele>
        <time>2012-07-30T08:18:00Z</time>
      </trkpt>
      <trkpt lat="44.20603" lon="6.828">
        <ele>2823.8</ele>
        <time>2012-07-30T08:18:01Z</time>
      </trkpt>
      <trkpt lat="44.20603" lon="6.828">
        <ele>2823.6</ele>
        <time>2012-07-30T08:18:02Z</time>
      </trkpt>
      <trkpt lat="44.20603" lon="6.828">
        <ele>2823.6</ele>
        <time>2012-07-30T08:18:03Z</time>
      </trkpt>
      <trkpt lat="44.20603" lon="6.828">
        <ele>2823.5</ele>
        <time>2012-07-30T08:18:04Z</time>
      </trkpt>
      <trkpt lat="44.20603" lon="6.828">
        <ele>2823.3</ele>
        <time>2012-07-30T08:18:05Z</time>
      </trkpt>
      <trkpt lat="44.20603" lon="6.828">
        <ele>2823.3</ele>
        <time>2012-07-30T08:18:06Z</time>
      </trkpt>
      <trkpt lat="44.20603" lon="6.828">
        <ele>2823.3</ele>
        <time>2012-07-30T08:18:07Z</time>
      </trkpt>
      <trkpt lat="44.20603" lon="6.82801">
        <ele>2823.1</ele>
        <time>2012-07-30T08:18:08Z</time>
      </trkpt>
      <trkpt lat="44.20603" lon="6.82801">
        <ele>2823.1</ele>
        <time>2012-07-30T08:18:09Z</time>
      </trkpt>
      <trkpt lat="44.20603" lon="6.82801">
        <ele>2823.1</ele>
        <time>2012-07-30T08:18:10Z</time>
      </trkpt>
      <trkpt lat="44.20603" lon="6.82801">
        <ele>2823</ele>
        <time>2012-07-30T08:18:11Z</time>
      </trkpt>
      <trkpt lat="44.20603" lon="6.82801">
        <ele>2823</ele>
        <time>2012-07-30T08:18:12Z</time>
      </trkpt>
      <trkpt lat="44.20603" lon="6.82801">
        <ele>2822.8</ele>
        <time>2012-07-30T08:18:13Z</time>
      </trkpt>
      <trkpt lat="44.20603" lon="6.82801">
        <ele>2822.8</ele>
        <time>2012-07-30T08:18:14Z</time>
      </trkpt>
      <trkpt lat="44.20603" lon="6.82801">
        <ele>2822.6</ele>
        <time>2012-07-30T08:18:15Z</time>
      </trkpt>
      <trkpt lat="44.20603" lon="6.82801">
        <ele>2822.5</ele>
        <time>2012-07-30T08:18:16Z</time>
      </trkpt>
      <trkpt lat="44.20603" lon="6.82801">
        <ele>2822.5</ele>
        <time>2012-07-30T08:18:17Z</time>
      </trkpt>
      <trkpt lat="44.20603" lon="6.82801">
        <ele>2822.5</ele>
        <time>2012-07-30T08:18:18Z</time>
      </trkpt>
      <trkpt lat="44.20603" lon="6.82801">
        <ele>2822.3</ele>
        <time>2012-07-30T08:18:19Z</time>
      </trkpt>
      <trkpt lat="44.20603" lon="6.82801">
        <ele>2822.3</ele>
        <time>2012-07-30T08:18:20Z</time>
      </trkpt>
      <trkpt lat="44.20603" lon="6.82801">
        <ele>2822.5</ele>
        <time>2012-07-30T08:18:21Z</time>
      </trkpt>
      <trkpt lat="44.20603" lon="6.82801">
        <ele>2822.6</ele>
        <time>2012-07-30T08:18:22Z</time>
      </trkpt>
      <trkpt lat="44.20603" lon="6.82801">
        <ele>2822.6</ele>
        <time>2012-07-30T08:18:23Z</time>
      </trkpt>
      <trkpt lat="44.20603" lon="6.82801">
        <ele>2822.8</ele>
        <time>2012-07-30T08:18:24Z</time>
      </trkpt>
      <trkpt lat="44.20603" lon="6.82801">
        <ele>2823</ele>
        <time>2012-07-30T08:18:25Z</time>
      </trkpt>
      <trkpt lat="44.20603" lon="6.82801">
        <ele>2823.1</ele>
        <time>2012-07-30T08:18:26Z</time>
      </trkpt>
      <trkpt lat="44.20603" lon="6.828">
        <ele>2823</ele>
        <time>2012-07-30T08:18:27Z</time>
      </trkpt>
      <trkpt lat="44.20603" lon="6.828">
        <ele>2823.1</ele>
        <time>2012-07-30T08:18:28Z</time>
      </trkpt>
      <trkpt lat="44.20604" lon="6.82799">
        <ele>2823.3</ele>
        <time>2012-07-30T08:18:29Z</time>
      </trkpt>
      <trkpt lat="44.20604" lon="6.82799">
        <ele>2823.5</ele>
        <time>2012-07-30T08:18:30Z</time>
      </trkpt>
      <trkpt lat="44.20604" lon="6.82798">
        <ele>2823.5</ele>
        <time>2012-07-30T08:18:31Z</time>
      </trkpt>
      <trkpt lat="44.20604" lon="6.82798">
        <ele>2823.3</ele>
        <time>2012-07-30T08:18:32Z</time>
      </trkpt>
      <trkpt lat="44.20605" lon="6.82797">
        <ele>2823.3</ele>
        <time>2012-07-30T08:18:33Z</time>
      </trkpt>
      <trkpt lat="44.20605" lon="6.82797">
        <ele>2823.1</ele>
        <time>2012-07-30T08:18:34Z</time>
      </trkpt>
      <trkpt lat="44.20605" lon="6.82796">
        <ele>2823</ele>
        <time>2012-07-30T08:18:35Z</time>
      </trkpt>
      <trkpt lat="44.20605" lon="6.82796">
        <ele>2823.1</ele>
        <time>2012-07-30T08:18:36Z</time>
      </trkpt>
      <trkpt lat="44.20605" lon="6.82795">
        <ele>2823.1</ele>
        <time>2012-07-30T08:18:37Z</time>
      </trkpt>
      <trkpt lat="44.20605" lon="6.82795">
        <ele>2823.1</ele>
        <time>2012-07-30T08:18:38Z</time>
      </trkpt>
      <trkpt lat="44.20606" lon="6.82794">
        <ele>2823.1</ele>
        <time>2012-07-30T08:18:39Z</time>
      </trkpt>
      <trkpt lat="44.20606" lon="6.82794">
        <ele>2823</ele>
        <time>2012-07-30T08:18:40Z</time>
      </trkpt>
      <trkpt lat="44.20606" lon="6.82793">
        <ele>2822.8</ele>
        <time>2012-07-30T08:18:41Z</time>
      </trkpt>
      <trkpt lat="44.20607" lon="6.82793">
        <ele>2822.8</ele>
        <time>2012-07-30T08:18:42Z</time>
      </trkpt>
      <trkpt lat="44.20607" lon="6.82792">
        <ele>2822.8</ele>
        <time>2012-07-30T08:18:43Z</time>
      </trkpt>
      <trkpt lat="44.20608" lon="6.82792">
        <ele>2822.5</ele>
        <time>2012-07-30T08:18:44Z</time>
      </trkpt>
      <trkpt lat="44.20608" lon="6.82791">
        <ele>2822.3</ele>
        <time>2012-07-30T08:18:45Z</time>
      </trkpt>
      <trkpt lat="44.20609" lon="6.82791">
        <ele>2822.3</ele>
        <time>2012-07-30T08:18:46Z</time>
      </trkpt>
      <trkpt lat="44.20609" lon="6.8279">
        <ele>2822.1</ele>
        <time>2012-07-30T08:18:47Z</time>
      </trkpt>
      <trkpt lat="44.2061" lon="6.8279">
        <ele>2821.8</ele>
        <time>2012-07-30T08:18:48Z</time>
      </trkpt>
      <trkpt lat="44.2061" lon="6.82789">
        <ele>2821.6</ele>
        <time>2012-07-30T08:18:49Z</time>
      </trkpt>
      <trkpt lat="44.2061" lon="6.82789">
        <ele>2821.6</ele>
        <time>2012-07-30T08:18:50Z</time>
      </trkpt>
      <trkpt lat="44.20609" lon="6.82788">
        <ele>2821.8</ele>
        <time>2012-07-30T08:18:51Z</time>
      </trkpt>
      <trkpt lat="44.20608" lon="6.82788">
        <ele>2821.8</ele>
        <time>2012-07-30T08:18:52Z</time>
      </trkpt>
      <trkpt lat="44.20608" lon="6.82788">
        <ele>2821.8</ele>
        <time>2012-07-30T08:18:53Z</time>
      </trkpt>
      <trkpt lat="44.20613" lon="6.82747">
        <ele>2798.8</ele>
        <time>2012-07-30T08:20:12Z</time>
      </trkpt>
      <trkpt lat="44.20614" lon="6.82747">
        <ele>2798.8</ele>
        <time>2012-07-30T08:20:13Z</time>
      </trkpt>
      <trkpt lat="44.2062" lon="6.82742">
        <ele>2795.8</ele>
        <time>2012-07-30T08:20:24Z</time>
      </trkpt>
      <trkpt lat="44.20628" lon="6.82735">
        <ele>2792.1</ele>
        <time>2012-07-30T08:20:34Z</time>
      </trkpt>
      <trkpt lat="44.2063" lon="6.82734">
        <ele>2791.8</ele>
        <time>2012-07-30T08:20:36Z</time>
      </trkpt>
      <trkpt lat="44.20631" lon="6.82734">
        <ele>2791.8</ele>
        <time>2012-07-30T08:20:37Z</time>
      </trkpt>
      <trkpt lat="44.20632" lon="6.82734">
        <ele>2791.6</ele>
        <time>2012-07-30T08:20:38Z</time>
      </trkpt>
      <trkpt lat="44.20633" lon="6.82734">
        <ele>2791.1</ele>
        <time>2012-07-30T08:20:39Z</time>
      </trkpt>
      <trkpt lat="44.20634" lon="6.82733">
        <ele>2790.8</ele>
        <time>2012-07-30T08:20:41Z</time>
      </trkpt>
      <trkpt lat="44.20635" lon="6.82733">
        <ele>2790.6</ele>
        <time>2012-07-30T08:20:42Z</time>
      </trkpt>
      <trkpt lat="44.20638" lon="6.82734">
        <ele>2790.3</ele>
        <time>2012-07-30T08:20:45Z</time>
      </trkpt>
      <trkpt lat="44.20639" lon="6.82734">
        <ele>2790.3</ele>
        <time>2012-07-30T08:20:46Z</time>
      </trkpt>
      <trkpt lat="44.20644" lon="6.82736">
        <ele>2789.5</ele>
        <time>2012-07-30T08:20:52Z</time>
      </trkpt>
      <trkpt lat="44.20645" lon="6.82736">
        <ele>2789.5</ele>
        <time>2012-07-30T08:20:53Z</time>
      </trkpt>
      <trkpt lat="44.20662" lon="6.82731">
        <ele>2786.5</ele>
        <time>2012-07-30T08:21:31Z</time>
      </trkpt>
      <trkpt lat="44.20663" lon="6.82731">
        <ele>2786.1</ele>
        <time>2012-07-30T08:21:32Z</time>
      </trkpt>
      <trkpt lat="44.20667" lon="6.82732">
        <ele>2785.1</ele>
        <time>2012-07-30T08:21:36Z</time>
      </trkpt>
      <trkpt lat="44.20667" lon="6.82732">
        <ele>2785.1</ele>
        <time>2012-07-30T08:21:37Z</time>
      </trkpt>
      <trkpt lat="44.20675" lon="6.82735">
        <ele>2783</ele>
        <time>2012-07-30T08:21:46Z</time>
      </trkpt>
      <trkpt lat="44.20676" lon="6.82735">
        <ele>2782.6</ele>
        <time>2012-07-30T08:21:47Z</time>
      </trkpt>
      <trkpt lat="44.20678" lon="6.82735">
        <ele>2781.8</ele>
        <time>2012-07-30T08:21:50Z</time>
      </trkpt>
      <trkpt lat="44.20679" lon="6.82735">
        <ele>2781.6</ele>
        <time>2012-07-30T08:21:51Z</time>
      </trkpt>
      <trkpt lat="44.20684" lon="6.82736">
        <ele>2780.5</ele>
        <time>2012-07-30T08:21:56Z</time>
      </trkpt>
      <trkpt lat="44.2069" lon="6.82738">
        <ele>2778.6</ele>
        <time>2012-07-30T08:22:03Z</time>
      </trkpt>
      <trkpt lat="44.20694" lon="6.8274">
        <ele>2777.6</ele>
        <time>2012-07-30T08:22:07Z</time>
      </trkpt>
      <trkpt lat="44.20695" lon="6.8274">
        <ele>2777.5</ele>
        <time>2012-07-30T08:22:08Z</time>
      </trkpt>
      <trkpt lat="44.20696" lon="6.8274">
        <ele>2777.3</ele>
        <time>2012-07-30T08:22:09Z</time>
      </trkpt>
      <trkpt lat="44.20706" lon="6.82741">
        <ele>2776.5</ele>
        <time>2012-07-30T08:22:35Z</time>
      </trkpt>
      <trkpt lat="44.20707" lon="6.82741">
        <ele>2776.1</ele>
        <time>2012-07-30T08:22:36Z</time>
      </trkpt>
      <trkpt lat="44.20708" lon="6.82742">
        <ele>2776</ele>
        <time>2012-07-30T08:22:37Z</time>
      </trkpt>
      <trkpt lat="44.20711" lon="6.82743">
        <ele>2775.1</ele>
        <time>2012-07-30T08:22:40Z</time>
      </trkpt>
      <trkpt lat="44.20713" lon="6.82745">
        <ele>2774.3</ele>
        <time>2012-07-30T08:22:43Z</time>
      </trkpt>
      <trkpt lat="44.20714" lon="6.82745">
        <ele>2774.1</ele>
        <time>2012-07-30T08:22:44Z</time>
      </trkpt>
      <trkpt lat="44.20716" lon="6.82746">
        <ele>2773.3</ele>
        <time>2012-07-30T08:22:46Z</time>
      </trkpt>
      <trkpt lat="44.20728" lon="6.82745">
        <ele>2768.8</ele>
        <time>2012-07-30T08:23:02Z</time>
      </trkpt>
      <trkpt lat="44.20729" lon="6.82745">
        <ele>2768.6</ele>
        <time>2012-07-30T08:23:03Z</time>
      </trkpt>
      <trkpt lat="44.20733" lon="6.82746">
        <ele>2767.5</ele>
        <time>2012-07-30T08:23:07Z</time>
      </trkpt>
      <trkpt lat="44.20734" lon="6.82746">
        <ele>2767.1</ele>
        <time>2012-07-30T08:23:08Z</time>
      </trkpt>
      <trkpt lat="44.20739" lon="6.82745">
        <ele>2765.8</ele>
        <time>2012-07-30T08:23:13Z</time>
      </trkpt>
      <trkpt lat="44.2074" lon="6.82745">
        <ele>2765.6</ele>
        <time>2012-07-30T08:23:14Z</time>
      </trkpt>
      <trkpt lat="44.20741" lon="6.82745">
        <ele>2765.5</ele>
        <time>2012-07-30T08:23:15Z</time>
      </trkpt>
      <trkpt lat="44.20742" lon="6.82745">
        <ele>2765.3</ele>
        <time>2012-07-30T08:23:16Z</time>
      </trkpt>
      <trkpt lat="44.20748" lon="6.82744">
        <ele>2763.8</ele>
        <time>2012-07-30T08:23:23Z</time>
      </trkpt>
      <trkpt lat="44.20749" lon="6.82744">
        <ele>2763.6</ele>
        <time>2012-07-30T08:23:24Z</time>
      </trkpt>
      <trkpt lat="44.20756" lon="6.82744">
        <ele>2762.8</ele>
        <time>2012-07-30T08:23:32Z</time>
      </trkpt>
      <trkpt lat="44.20757" lon="6.82744">
        <ele>2762.6</ele>
        <time>2012-07-30T08:23:33Z</time>
      </trkpt>
      <trkpt lat="44.20763" lon="6.82743">
        <ele>2761.1</ele>
        <time>2012-07-30T08:23:39Z</time>
      </trkpt>
      <trkpt lat="44.20764" lon="6.82743">
        <ele>2761</ele>
        <time>2012-07-30T08:23:40Z</time>
      </trkpt>
      <trkpt lat="44.20765" lon="6.82743">
        <ele>2760.8</ele>
        <time>2012-07-30T08:23:41Z</time>
      </trkpt>
      <trkpt lat="44.20767" lon="6.82743">
        <ele>2760.8</ele>
        <time>2012-07-30T08:23:43Z</time>
      </trkpt>
      <trkpt lat="44.20768" lon="6.82743">
        <ele>2760.6</ele>
        <time>2012-07-30T08:23:44Z</time>
      </trkpt>
      <trkpt lat="44.20769" lon="6.82743">
        <ele>2760.3</ele>
        <time>2012-07-30T08:23:46Z</time>
      </trkpt>
      <trkpt lat="44.2077" lon="6.82743">
        <ele>2760.3</ele>
        <time>2012-07-30T08:23:47Z</time>
      </trkpt>
      <trkpt lat="44.20774" lon="6.82741">
        <ele>2758.3</ele>
        <time>2012-07-30T08:23:54Z</time>
      </trkpt>
      <trkpt lat="44.20786" lon="6.82736">
        <ele>2754.1</ele>
        <time>2012-07-30T08:24:13Z</time>
      </trkpt>
      <trkpt lat="44.20787" lon="6.82736">
        <ele>2754.1</ele>
        <time>2012-07-30T08:24:14Z</time>
      </trkpt>
      <trkpt lat="44.20796" lon="6.82733">
        <ele>2752.1</ele>
        <time>2012-07-30T08:24:26Z</time>
      </trkpt>
      <trkpt lat="44.20797" lon="6.82733">
        <ele>2751.8</ele>
        <time>2012-07-30T08:24:27Z</time>
      </trkpt>
      <trkpt lat="44.20804" lon="6.82731">
        <ele>2750.3</ele>
        <time>2012-07-30T08:24:36Z</time>
      </trkpt>
      <trkpt lat="44.20816" lon="6.82731">
        <ele>2747.8</ele>
        <time>2012-07-30T08:24:48Z</time>
      </trkpt>
      <trkpt lat="44.20817" lon="6.82731">
        <ele>2747.5</ele>
        <time>2012-07-30T08:24:49Z</time>
      </trkpt>
      <trkpt lat="44.20818" lon="6.82731">
        <ele>2747.3</ele>
        <time>2012-07-30T08:24:50Z</time>
      </trkpt>
      <trkpt lat="44.2082" lon="6.82731">
        <ele>2746.8</ele>
        <time>2012-07-30T08:24:52Z</time>
      </trkpt>
      <trkpt lat="44.2082" lon="6.8273">
        <ele>2746.6</ele>
        <time>2012-07-30T08:24:53Z</time>
      </trkpt>
      <trkpt lat="44.20821" lon="6.82729">
        <ele>2746.3</ele>
        <time>2012-07-30T08:24:54Z</time>
      </trkpt>
      <trkpt lat="44.20827" lon="6.82725">
        <ele>2743.3</ele>
        <time>2012-07-30T08:25:05Z</time>
      </trkpt>
      <trkpt lat="44.20828" lon="6.82725">
        <ele>2743.1</ele>
        <time>2012-07-30T08:25:06Z</time>
      </trkpt>
      <trkpt lat="44.20829" lon="6.82724">
        <ele>2742.8</ele>
        <time>2012-07-30T08:25:07Z</time>
      </trkpt>
      <trkpt lat="44.20831" lon="6.82723">
        <ele>2742.3</ele>
        <time>2012-07-30T08:25:09Z</time>
      </trkpt>
      <trkpt lat="44.20834" lon="6.82722">
        <ele>2741.8</ele>
        <time>2012-07-30T08:25:12Z</time>
      </trkpt>
      <trkpt lat="44.20835" lon="6.82722">
        <ele>2741.8</ele>
        <time>2012-07-30T08:25:13Z</time>
      </trkpt>
      <trkpt lat="44.20836" lon="6.82721">
        <ele>2741.8</ele>
        <time>2012-07-30T08:25:14Z</time>
      </trkpt>
      <trkpt lat="44.20844" lon="6.82719">
        <ele>2740</ele>
        <time>2012-07-30T08:25:22Z</time>
      </trkpt>
      <trkpt lat="44.2085" lon="6.82717">
        <ele>2738.8</ele>
        <time>2012-07-30T08:25:29Z</time>
      </trkpt>
      <trkpt lat="44.20868" lon="6.82712">
        <ele>2737.1</ele>
        <time>2012-07-30T08:25:51Z</time>
      </trkpt>
      <trkpt lat="44.20869" lon="6.82711">
        <ele>2737</ele>
        <time>2012-07-30T08:25:52Z</time>
      </trkpt>
      <trkpt lat="44.20871" lon="6.82711">
        <ele>2736.8</ele>
        <time>2012-07-30T08:25:53Z</time>
      </trkpt>
      <trkpt lat="44.20872" lon="6.8271">
        <ele>2736.6</ele>
        <time>2012-07-30T08:25:54Z</time>
      </trkpt>
      <trkpt lat="44.20873" lon="6.8271">
        <ele>2736.5</ele>
        <time>2012-07-30T08:25:55Z</time>
      </trkpt>
      <trkpt lat="44.20876" lon="6.82708">
        <ele>2736</ele>
        <time>2012-07-30T08:25:58Z</time>
      </trkpt>
      <trkpt lat="44.20878" lon="6.82708">
        <ele>2735.5</ele>
        <time>2012-07-30T08:26:00Z</time>
      </trkpt>
      <trkpt lat="44.20881" lon="6.82706">
        <ele>2734.8</ele>
        <time>2012-07-30T08:26:03Z</time>
      </trkpt>
      <trkpt lat="44.20881" lon="6.82705">
        <ele>2734.5</ele>
        <time>2012-07-30T08:26:04Z</time>
      </trkpt>
      <trkpt lat="44.20893" lon="6.82698">
        <ele>2731.6</ele>
        <time>2012-07-30T08:26:22Z</time>
      </trkpt>
      <trkpt lat="44.20894" lon="6.82698">
        <ele>2731.5</ele>
        <time>2012-07-30T08:26:23Z</time>
      </trkpt>
      <trkpt lat="44.20895" lon="6.82699">
        <ele>2731.5</ele>
        <time>2012-07-30T08:26:24Z</time>
      </trkpt>
      <trkpt lat="44.20897" lon="6.82699">
        <ele>2731.3</ele>
        <time>2012-07-30T08:26:26Z</time>
      </trkpt>
      <trkpt lat="44.20898" lon="6.82699">
        <ele>2731.1</ele>
        <time>2012-07-30T08:26:27Z</time>
      </trkpt>
      <trkpt lat="44.20906" lon="6.827">
        <ele>2730.1</ele>
        <time>2012-07-30T08:26:35Z</time>
      </trkpt>
      <trkpt lat="44.20907" lon="6.827">
        <ele>2729.8</ele>
        <time>2012-07-30T08:26:36Z</time>
      </trkpt>
      <trkpt lat="44.20908" lon="6.82701">
        <ele>2729.6</ele>
        <time>2012-07-30T08:26:37Z</time>
      </trkpt>
      <trkpt lat="44.2091" lon="6.82701">
        <ele>2729.3</ele>
        <time>2012-07-30T08:26:39Z</time>
      </trkpt>
      <trkpt lat="44.20911" lon="6.82701">
        <ele>2729.1</ele>
        <time>2012-07-30T08:26:40Z</time>
      </trkpt>
      <trkpt lat="44.20912" lon="6.827">
        <ele>2728.8</ele>
        <time>2012-07-30T08:26:41Z</time>
      </trkpt>
      <trkpt lat="44.20913" lon="6.827">
        <ele>2728.6</ele>
        <time>2012-07-30T08:26:42Z</time>
      </trkpt>
      <trkpt lat="44.20922" lon="6.82687">
        <ele>2723.8</ele>
        <time>2012-07-30T08:28:08Z</time>
      </trkpt>
      <trkpt lat="44.20923" lon="6.82686">
        <ele>2723.6</ele>
        <time>2012-07-30T08:28:09Z</time>
      </trkpt>
      <trkpt lat="44.20926" lon="6.82678">
        <ele>2721.8</ele>
        <time>2012-07-30T08:28:18Z</time>
      </trkpt>
      <trkpt lat="44.20928" lon="6.82673">
        <ele>2720.6</ele>
        <time>2012-07-30T08:28:23Z</time>
      </trkpt>
      <trkpt lat="44.20929" lon="6.82673">
        <ele>2720.3</ele>
        <time>2012-07-30T08:28:24Z</time>
      </trkpt>
      <trkpt lat="44.2093" lon="6.8267">
        <ele>2719.6</ele>
        <time>2012-07-30T08:28:27Z</time>
      </trkpt>
      <trkpt lat="44.20931" lon="6.82669">
        <ele>2719.3</ele>
        <time>2012-07-30T08:28:28Z</time>
      </trkpt>
      <trkpt lat="44.20931" lon="6.82667">
        <ele>2719</ele>
        <time>2012-07-30T08:28:29Z</time>
      </trkpt>
      <trkpt lat="44.20932" lon="6.82665">
        <ele>2718.6</ele>
        <time>2012-07-30T08:28:31Z</time>
      </trkpt>
      <trkpt lat="44.20932" lon="6.82663">
        <ele>2718.1</ele>
        <time>2012-07-30T08:28:33Z</time>
      </trkpt>
      <trkpt lat="44.20933" lon="6.82662">
        <ele>2717.8</ele>
        <time>2012-07-30T08:28:34Z</time>
      </trkpt>
      <trkpt lat="44.20934" lon="6.82661">
        <ele>2717.6</ele>
        <time>2012-07-30T08:28:35Z</time>
      </trkpt>
      <trkpt lat="44.20936" lon="6.82659">
        <ele>2717.3</ele>
        <time>2012-07-30T08:28:37Z</time>
      </trkpt>
      <trkpt lat="44.20936" lon="6.82658">
        <ele>2717.3</ele>
        <time>2012-07-30T08:28:38Z</time>
      </trkpt>
      <trkpt lat="44.20937" lon="6.82657">
        <ele>2717.1</ele>
        <time>2012-07-30T08:28:39Z</time>
      </trkpt>
      <trkpt lat="44.20938" lon="6.82656">
        <ele>2717.1</ele>
        <time>2012-07-30T08:28:40Z</time>
      </trkpt>
      <trkpt lat="44.20942" lon="6.82653">
        <ele>2716.3</ele>
        <time>2012-07-30T08:28:44Z</time>
      </trkpt>
      <trkpt lat="44.20943" lon="6.82652">
        <ele>2716.1</ele>
        <time>2012-07-30T08:28:45Z</time>
      </trkpt>
      <trkpt lat="44.20943" lon="6.8265">
        <ele>2715.8</ele>
        <time>2012-07-30T08:28:46Z</time>
      </trkpt>
      <trkpt lat="44.20944" lon="6.82648">
        <ele>2715.3</ele>
        <time>2012-07-30T08:28:48Z</time>
      </trkpt>
      <trkpt lat="44.20946" lon="6.82645">
        <ele>2714.8</ele>
        <time>2012-07-30T08:28:51Z</time>
      </trkpt>
      <trkpt lat="44.20948" lon="6.82643">
        <ele>2714.3</ele>
        <time>2012-07-30T08:28:53Z</time>
      </trkpt>
      <trkpt lat="44.20949" lon="6.82642">
        <ele>2714.1</ele>
        <time>2012-07-30T08:28:54Z</time>
      </trkpt>
      <trkpt lat="44.20954" lon="6.8264">
        <ele>2713.5</ele>
        <time>2012-07-30T08:28:59Z</time>
      </trkpt>
      <trkpt lat="44.20955" lon="6.82639">
        <ele>2713.1</ele>
        <time>2012-07-30T08:29:00Z</time>
      </trkpt>
      <trkpt lat="44.20956" lon="6.82638">
        <ele>2712.8</ele>
        <time>2012-07-30T08:29:01Z</time>
      </trkpt>
      <trkpt lat="44.20957" lon="6.82635">
        <ele>2712.5</ele>
        <time>2012-07-30T08:29:03Z</time>
      </trkpt>
      <trkpt lat="44.20958" lon="6.82634">
        <ele>2712.3</ele>
        <time>2012-07-30T08:29:04Z</time>
      </trkpt>
      <trkpt lat="44.20958" lon="6.82633">
        <ele>2712.1</ele>
        <time>2012-07-30T08:29:05Z</time>
      </trkpt>
      <trkpt lat="44.20965" lon="6.82624">
        <ele>2710.8</ele>
        <time>2012-07-30T08:29:12Z</time>
      </trkpt>
      <trkpt lat="44.20966" lon="6.82623">
        <ele>2710.6</ele>
        <time>2012-07-30T08:29:13Z</time>
      </trkpt>
      <trkpt lat="44.20971" lon="6.82615">
        <ele>2709.6</ele>
        <time>2012-07-30T08:29:19Z</time>
      </trkpt>
      <trkpt lat="44.20976" lon="6.82608">
        <ele>2708.5</ele>
        <time>2012-07-30T08:29:25Z</time>
      </trkpt>
      <trkpt lat="44.20977" lon="6.82608">
        <ele>2708.3</ele>
        <time>2012-07-30T08:29:26Z</time>
      </trkpt>
      <trkpt lat="44.20978" lon="6.82607">
        <ele>2708.1</ele>
        <time>2012-07-30T08:29:27Z</time>
      </trkpt>
      <trkpt lat="44.20978" lon="6.82605">
        <ele>2707.8</ele>
        <time>2012-07-30T08:29:28Z</time>
      </trkpt>
      <trkpt lat="44.2098" lon="6.82603">
        <ele>2707.3</ele>
        <time>2012-07-30T08:29:30Z</time>
      </trkpt>
      <trkpt lat="44.20981" lon="6.82602">
        <ele>2707</ele>
        <time>2012-07-30T08:29:31Z</time>
      </trkpt>
      <trkpt lat="44.20982" lon="6.82602">
        <ele>2706.8</ele>
        <time>2012-07-30T08:29:32Z</time>
      </trkpt>
      <trkpt lat="44.20984" lon="6.826">
        <ele>2706.3</ele>
        <time>2012-07-30T08:29:34Z</time>
      </trkpt>
      <trkpt lat="44.20985" lon="6.82599">
        <ele>2706.1</ele>
        <time>2012-07-30T08:29:35Z</time>
      </trkpt>
      <trkpt lat="44.20987" lon="6.82597">
        <ele>2705.6</ele>
        <time>2012-07-30T08:29:37Z</time>
      </trkpt>
      <trkpt lat="44.20988" lon="6.82596">
        <ele>2705.3</ele>
        <time>2012-07-30T08:29:38Z</time>
      </trkpt>
      <trkpt lat="44.2099" lon="6.82594">
        <ele>2704.6</ele>
        <time>2012-07-30T08:29:40Z</time>
      </trkpt>
      <trkpt lat="44.20993" lon="6.82592">
        <ele>2703.8</ele>
        <time>2012-07-30T08:29:43Z</time>
      </trkpt>
      <trkpt lat="44.21001" lon="6.82584">
        <ele>2701.6</ele>
        <time>2012-07-30T08:29:51Z</time>
      </trkpt>
      <trkpt lat="44.21004" lon="6.82581">
        <ele>2701</ele>
        <time>2012-07-30T08:29:54Z</time>
      </trkpt>
      <trkpt lat="44.21007" lon="6.82577">
        <ele>2700.3</ele>
        <time>2012-07-30T08:29:58Z</time>
      </trkpt>
      <trkpt lat="44.21009" lon="6.82576">
        <ele>2700.1</ele>
        <time>2012-07-30T08:29:59Z</time>
      </trkpt>
      <trkpt lat="44.21014" lon="6.82572">
        <ele>2699.1</ele>
        <time>2012-07-30T08:30:04Z</time>
      </trkpt>
      <trkpt lat="44.21014" lon="6.82571">
        <ele>2698.8</ele>
        <time>2012-07-30T08:30:05Z</time>
      </trkpt>
      <trkpt lat="44.21017" lon="6.82567">
        <ele>2698.6</ele>
        <time>2012-07-30T08:30:08Z</time>
      </trkpt>
      <trkpt lat="44.21019" lon="6.82566">
        <ele>2698.6</ele>
        <time>2012-07-30T08:30:09Z</time>
      </trkpt>
      <trkpt lat="44.21025" lon="6.8256">
        <ele>2697.3</ele>
        <time>2012-07-30T08:30:15Z</time>
      </trkpt>
      <trkpt lat="44.21026" lon="6.82559">
        <ele>2697.1</ele>
        <time>2012-07-30T08:30:16Z</time>
      </trkpt>
      <trkpt lat="44.21032" lon="6.8255">
        <ele>2695.5</ele>
        <time>2012-07-30T08:30:23Z</time>
      </trkpt>
      <trkpt lat="44.21043" lon="6.82539">
        <ele>2693.8</ele>
        <time>2012-07-30T08:30:34Z</time>
      </trkpt>
      <trkpt lat="44.21044" lon="6.82539">
        <ele>2693.6</ele>
        <time>2012-07-30T08:30:35Z</time>
      </trkpt>
      <trkpt lat="44.21047" lon="6.82538">
        <ele>2693.5</ele>
        <time>2012-07-30T08:30:38Z</time>
      </trkpt>
      <trkpt lat="44.21055" lon="6.82531">
        <ele>2691.8</ele>
        <time>2012-07-30T08:31:47Z</time>
      </trkpt>
      <trkpt lat="44.21055" lon="6.8253">
        <ele>2691.6</ele>
        <time>2012-07-30T08:31:48Z</time>
      </trkpt>
      <trkpt lat="44.21056" lon="6.82527">
        <ele>2691.3</ele>
        <time>2012-07-30T08:31:50Z</time>
      </trkpt>
      <trkpt lat="44.21056" lon="6.82526">
        <ele>2691.3</ele>
        <time>2012-07-30T08:31:51Z</time>
      </trkpt>
      <trkpt lat="44.21057" lon="6.82525">
        <ele>2691.1</ele>
        <time>2012-07-30T08:31:52Z</time>
      </trkpt>
      <trkpt lat="44.21058" lon="6.82524">
        <ele>2691</ele>
        <time>2012-07-30T08:31:53Z</time>
      </trkpt>
      <trkpt lat="44.21059" lon="6.82524">
        <ele>2690.8</ele>
        <time>2012-07-30T08:31:54Z</time>
      </trkpt>
      <trkpt lat="44.21061" lon="6.82524">
        <ele>2690.8</ele>
        <time>2012-07-30T08:31:55Z</time>
      </trkpt>
      <trkpt lat="44.21062" lon="6.82524">
        <ele>2690.6</ele>
        <time>2012-07-30T08:31:56Z</time>
      </trkpt>
      <trkpt lat="44.21063" lon="6.82524">
        <ele>2690.6</ele>
        <time>2012-07-30T08:31:57Z</time>
      </trkpt>
      <trkpt lat="44.21068" lon="6.82521">
        <ele>2690.8</ele>
        <time>2012-07-30T08:32:33Z</time>
      </trkpt>
      <trkpt lat="44.21068" lon="6.82519">
        <ele>2690.6</ele>
        <time>2012-07-30T08:32:34Z</time>
      </trkpt>
      <trkpt lat="44.21068" lon="6.82518">
        <ele>2690.5</ele>
        <time>2012-07-30T08:32:35Z</time>
      </trkpt>
      <trkpt lat="44.2107" lon="6.82514">
        <ele>2689.8</ele>
        <time>2012-07-30T08:32:39Z</time>
      </trkpt>
      <trkpt lat="44.21071" lon="6.82513">
        <ele>2689.8</ele>
        <time>2012-07-30T08:32:40Z</time>
      </trkpt>
      <trkpt lat="44.21072" lon="6.82513">
        <ele>2689.6</ele>
        <time>2012-07-30T08:32:41Z</time>
      </trkpt>
      <trkpt lat="44.21073" lon="6.82512">
        <ele>2689.6</ele>
        <time>2012-07-30T08:32:42Z</time>
      </trkpt>
      <trkpt lat="44.21075" lon="6.8251">
        <ele>2689.3</ele>
        <time>2012-07-30T08:32:44Z</time>
      </trkpt>
      <trkpt lat="44.21079" lon="6.82505">
        <ele>2688.6</ele>
        <time>2012-07-30T08:32:49Z</time>
      </trkpt>
      <trkpt lat="44.2108" lon="6.82504">
        <ele>2688.3</ele>
        <time>2012-07-30T08:32:50Z</time>
      </trkpt>
      <trkpt lat="44.21081" lon="6.82503">
        <ele>2688.3</ele>
        <time>2012-07-30T08:32:51Z</time>
      </trkpt>
      <trkpt lat="44.21082" lon="6.82502">
        <ele>2688.1</ele>
        <time>2012-07-30T08:32:52Z</time>
      </trkpt>
      <trkpt lat="44.21086" lon="6.82496">
        <ele>2688.1</ele>
        <time>2012-07-30T08:32:57Z</time>
      </trkpt>
      <trkpt lat="44.21086" lon="6.82495">
        <ele>2688.1</ele>
        <time>2012-07-30T08:32:58Z</time>
      </trkpt>
      <trkpt lat="44.21089" lon="6.82491">
        <ele>2687.8</ele>
        <time>2012-07-30T08:33:03Z</time>
      </trkpt>
      <trkpt lat="44.2109" lon="6.8249">
        <ele>2687.8</ele>
        <time>2012-07-30T08:33:04Z</time>
      </trkpt>
      <trkpt lat="44.21092" lon="6.8249">
        <ele>2686.8</ele>
        <time>2012-07-30T08:33:06Z</time>
      </trkpt>
      <trkpt lat="44.21093" lon="6.8249">
        <ele>2686.5</ele>
        <time>2012-07-30T08:33:07Z</time>
      </trkpt>
      <trkpt lat="44.21095" lon="6.82489">
        <ele>2685.8</ele>
        <time>2012-07-30T08:33:09Z</time>
      </trkpt>
      <trkpt lat="44.21096" lon="6.82488">
        <ele>2685.6</ele>
        <time>2012-07-30T08:33:10Z</time>
      </trkpt>
      <trkpt lat="44.21112" lon="6.82477">
        <ele>2682.3</ele>
        <time>2012-07-30T08:33:25Z</time>
      </trkpt>
      <trkpt lat="44.21113" lon="6.82476">
        <ele>2682.1</ele>
        <time>2012-07-30T08:33:26Z</time>
      </trkpt>
      <trkpt lat="44.2112" lon="6.8247">
        <ele>2680.8</ele>
        <time>2012-07-30T08:33:32Z</time>
      </trkpt>
      <trkpt lat="44.21126" lon="6.82465">
        <ele>2680.5</ele>
        <time>2012-07-30T08:33:38Z</time>
      </trkpt>
      <trkpt lat="44.21129" lon="6.82463">
        <ele>2680.5</ele>
        <time>2012-07-30T08:33:41Z</time>
      </trkpt>
      <trkpt lat="44.21136" lon="6.82459">
        <ele>2680.8</ele>
        <time>2012-07-30T08:33:48Z</time>
      </trkpt>
      <trkpt lat="44.21137" lon="6.82459">
        <ele>2681</ele>
        <time>2012-07-30T08:33:49Z</time>
      </trkpt>
      <trkpt lat="44.21138" lon="6.82458">
        <ele>2681.1</ele>
        <time>2012-07-30T08:33:50Z</time>
      </trkpt>
      <trkpt lat="44.21139" lon="6.82458">
        <ele>2681</ele>
        <time>2012-07-30T08:33:51Z</time>
      </trkpt>
      <trkpt lat="44.21141" lon="6.82459">
        <ele>2681.1</ele>
        <time>2012-07-30T08:33:53Z</time>
      </trkpt>
      <trkpt lat="44.21142" lon="6.82459">
        <ele>2681.1</ele>
        <time>2012-07-30T08:33:54Z</time>
      </trkpt>
      <trkpt lat="44.21143" lon="6.82458">
        <ele>2681</ele>
        <time>2012-07-30T08:33:55Z</time>
      </trkpt>
      <trkpt lat="44.2115" lon="6.82456">
        <ele>2681.3</ele>
        <time>2012-07-30T08:34:01Z</time>
      </trkpt>
      <trkpt lat="44.21159" lon="6.82454">
        <ele>2682.1</ele>
        <time>2012-07-30T08:34:10Z</time>
      </trkpt>
      <trkpt lat="44.2116" lon="6.82454">
        <ele>2682</ele>
        <time>2012-07-30T08:34:11Z</time>
      </trkpt>
      <trkpt lat="44.21162" lon="6.82453">
        <ele>2681.8</ele>
        <time>2012-07-30T08:34:13Z</time>
      </trkpt>
      <trkpt lat="44.21165" lon="6.82452">
        <ele>2681.6</ele>
        <time>2012-07-30T08:34:16Z</time>
      </trkpt>
      <trkpt lat="44.21167" lon="6.82452">
        <ele>2681.6</ele>
        <time>2012-07-30T08:34:18Z</time>
      </trkpt>
      <trkpt lat="44.21183" lon="6.82447">
        <ele>2679.6</ele>
        <time>2012-07-30T08:34:31Z</time>
      </trkpt>
      <trkpt lat="44.21184" lon="6.82447">
        <ele>2679.6</ele>
        <time>2012-07-30T08:34:32Z</time>
      </trkpt>
      <trkpt lat="44.21189" lon="6.82444">
        <ele>2679.6</ele>
        <time>2012-07-30T08:34:37Z</time>
      </trkpt>
      <trkpt lat="44.21196" lon="6.82441">
        <ele>2679.8</ele>
        <time>2012-07-30T08:34:43Z</time>
      </trkpt>
      <trkpt lat="44.21211" lon="6.82433">
        <ele>2680.3</ele>
        <time>2012-07-30T08:34:56Z</time>
      </trkpt>
      <trkpt lat="44.21212" lon="6.82432">
        <ele>2680.3</ele>
        <time>2012-07-30T08:34:57Z</time>
      </trkpt>
      <trkpt lat="44.21214" lon="6.8243">
        <ele>2680.6</ele>
        <time>2012-07-30T08:34:59Z</time>
      </trkpt>
      <trkpt lat="44.21223" lon="6.82423">
        <ele>2681.5</ele>
        <time>2012-07-30T08:35:07Z</time>
      </trkpt>
      <trkpt lat="44.21225" lon="6.82422">
        <ele>2681.8</ele>
        <time>2012-07-30T08:35:09Z</time>
      </trkpt>
      <trkpt lat="44.21231" lon="6.82419">
        <ele>2682.6</ele>
        <time>2012-07-30T08:35:16Z</time>
      </trkpt>
      <trkpt lat="44.21234" lon="6.82417">
        <ele>2682.6</ele>
        <time>2012-07-30T08:35:19Z</time>
      </trkpt>
      <trkpt lat="44.21243" lon="6.82412">
        <ele>2683.6</ele>
        <time>2012-07-30T08:35:30Z</time>
      </trkpt>
      <trkpt lat="44.21244" lon="6.82412">
        <ele>2683.8</ele>
        <time>2012-07-30T08:35:31Z</time>
      </trkpt>
      <trkpt lat="44.21245" lon="6.82412">
        <ele>2683.8</ele>
        <time>2012-07-30T08:35:32Z</time>
      </trkpt>
      <trkpt lat="44.21256" lon="6.8241">
        <ele>2685</ele>
        <time>2012-07-30T08:35:45Z</time>
      </trkpt>
      <trkpt lat="44.21258" lon="6.82409">
        <ele>2685.1</ele>
        <time>2012-07-30T08:35:47Z</time>
      </trkpt>
      <trkpt lat="44.21276" lon="6.82399">
        <ele>2688</ele>
        <time>2012-07-30T08:36:10Z</time>
      </trkpt>
      <trkpt lat="44.21277" lon="6.82398">
        <ele>2688.3</ele>
        <time>2012-07-30T08:36:11Z</time>
      </trkpt>
      <trkpt lat="44.21286" lon="6.82391">
        <ele>2689.8</ele>
        <time>2012-07-30T08:36:22Z</time>
      </trkpt>
      <trkpt lat="44.21287" lon="6.8239">
        <ele>2690</ele>
        <time>2012-07-30T08:36:23Z</time>
      </trkpt>
      <trkpt lat="44.21289" lon="6.82389">
        <ele>2690.1</ele>
        <time>2012-07-30T08:36:25Z</time>
      </trkpt>
      <trkpt lat="44.21292" lon="6.82388">
        <ele>2690.3</ele>
        <time>2012-07-30T08:36:28Z</time>
      </trkpt>
      <trkpt lat="44.21293" lon="6.82387">
        <ele>2690.3</ele>
        <time>2012-07-30T08:36:29Z</time>
      </trkpt>
      <trkpt lat="44.21295" lon="6.82387">
        <ele>2690.6</ele>
        <time>2012-07-30T08:36:31Z</time>
      </trkpt>
      <trkpt lat="44.21296" lon="6.82386">
        <ele>2690.6</ele>
        <time>2012-07-30T08:36:32Z</time>
      </trkpt>
      <trkpt lat="44.21298" lon="6.82384">
        <ele>2690.8</ele>
        <time>2012-07-30T08:36:35Z</time>
      </trkpt>
      <trkpt lat="44.21306" lon="6.82379">
        <ele>2692.3</ele>
        <time>2012-07-30T08:36:43Z</time>
      </trkpt>
      <trkpt lat="44.21307" lon="6.82379">
        <ele>2692.6</ele>
        <time>2012-07-30T08:36:44Z</time>
      </trkpt>
      <trkpt lat="44.21311" lon="6.82376">
        <ele>2693.3</ele>
        <time>2012-07-30T08:36:49Z</time>
      </trkpt>
      <trkpt lat="44.21312" lon="6.82375">
        <ele>2693.3</ele>
        <time>2012-07-30T08:36:50Z</time>
      </trkpt>
      <trkpt lat="44.21313" lon="6.82374">
        <ele>2693.6</ele>
        <time>2012-07-30T08:36:52Z</time>
      </trkpt>
      <trkpt lat="44.21315" lon="6.82372">
        <ele>2693.8</ele>
        <time>2012-07-30T08:36:55Z</time>
      </trkpt>
      <trkpt lat="44.21316" lon="6.82371">
        <ele>2694.1</ele>
        <time>2012-07-30T08:36:56Z</time>
      </trkpt>
      <trkpt lat="44.21319" lon="6.82368">
        <ele>2694.6</ele>
        <time>2012-07-30T08:36:59Z</time>
      </trkpt>
      <trkpt lat="44.2132" lon="6.82368">
        <ele>2694.8</ele>
        <time>2012-07-30T08:37:00Z</time>
      </trkpt>
      <trkpt lat="44.21321" lon="6.82367">
        <ele>2695</ele>
        <time>2012-07-30T08:37:01Z</time>
      </trkpt>
      <trkpt lat="44.21322" lon="6.82367">
        <ele>2695.1</ele>
        <time>2012-07-30T08:37:02Z</time>
      </trkpt>
      <trkpt lat="44.21326" lon="6.82365">
        <ele>2695.5</ele>
        <time>2012-07-30T08:37:06Z</time>
      </trkpt>
      <trkpt lat="44.21329" lon="6.82363">
        <ele>2695.5</ele>
        <time>2012-07-30T08:37:09Z</time>
      </trkpt>
      <trkpt lat="44.2133" lon="6.82362">
        <ele>2695.3</ele>
        <time>2012-07-30T08:37:10Z</time>
      </trkpt>
      <trkpt lat="44.21331" lon="6.8236">
        <ele>2695.3</ele>
        <time>2012-07-30T08:37:12Z</time>
      </trkpt>
      <trkpt lat="44.21332" lon="6.8236">
        <ele>2695.1</ele>
        <time>2012-07-30T08:37:13Z</time>
      </trkpt>
      <trkpt lat="44.21345" lon="6.82351">
        <ele>2694.8</ele>
        <time>2012-07-30T08:37:25Z</time>
      </trkpt>
      <trkpt lat="44.21346" lon="6.8235">
        <ele>2694.8</ele>
        <time>2012-07-30T08:37:26Z</time>
      </trkpt>
      <trkpt lat="44.21369" lon="6.82328">
        <ele>2697.1</ele>
        <time>2012-07-30T08:37:51Z</time>
      </trkpt>
      <trkpt lat="44.21379" lon="6.82317">
        <ele>2699.1</ele>
        <time>2012-07-30T08:38:06Z</time>
      </trkpt>
      <trkpt lat="44.2138" lon="6.82316">
        <ele>2699.1</ele>
        <time>2012-07-30T08:38:07Z</time>
      </trkpt>
      <trkpt lat="44.21385" lon="6.8231">
        <ele>2700</ele>
        <time>2012-07-30T08:38:15Z</time>
      </trkpt>
      <trkpt lat="44.21386" lon="6.82309">
        <ele>2700.1</ele>
        <time>2012-07-30T08:38:16Z</time>
      </trkpt>
      <trkpt lat="44.21391" lon="6.82303">
        <ele>2700.6</ele>
        <time>2012-07-30T08:38:23Z</time>
      </trkpt>
      <trkpt lat="44.21392" lon="6.82302">
        <ele>2701.1</ele>
        <time>2012-07-30T08:38:25Z</time>
      </trkpt>
      <trkpt lat="44.21393" lon="6.82301">
        <ele>2701.3</ele>
        <time>2012-07-30T08:38:26Z</time>
      </trkpt>
      <trkpt lat="44.21395" lon="6.823">
        <ele>2701.6</ele>
        <time>2012-07-30T08:38:28Z</time>
      </trkpt>
      <trkpt lat="44.21395" lon="6.823">
        <ele>2701.8</ele>
        <time>2012-07-30T08:38:29Z</time>
      </trkpt>
      <trkpt lat="44.21397" lon="6.82299">
        <ele>2702.1</ele>
        <time>2012-07-30T08:38:31Z</time>
      </trkpt>
      <trkpt lat="44.214" lon="6.82295">
        <ele>2702.3</ele>
        <time>2012-07-30T08:38:36Z</time>
      </trkpt>
      <trkpt lat="44.21401" lon="6.82295">
        <ele>2702.6</ele>
        <time>2012-07-30T08:38:37Z</time>
      </trkpt>
      <trkpt lat="44.21418" lon="6.82306">
        <ele>2706.8</ele>
        <time>2012-07-30T08:39:02Z</time>
      </trkpt>
      <trkpt lat="44.21435" lon="6.82318">
        <ele>2707.1</ele>
        <time>2012-07-30T08:39:25Z</time>
      </trkpt>
      <trkpt lat="44.21436" lon="6.82319">
        <ele>2707.1</ele>
        <time>2012-07-30T08:39:26Z</time>
      </trkpt>
      <trkpt lat="44.21558" lon="6.82304">
        <ele>2744.8</ele>
        <time>2012-07-30T08:44:44Z</time>
      </trkpt>
      <trkpt lat="44.21559" lon="6.82305">
        <ele>2744.8</ele>
        <time>2012-07-30T08:44:45Z</time>
      </trkpt>
      <trkpt lat="44.2156" lon="6.82305">
        <ele>2744.6</ele>
        <time>2012-07-30T08:44:46Z</time>
      </trkpt>
      <trkpt lat="44.21564" lon="6.82308">
        <ele>2743.3</ele>
        <time>2012-07-30T08:44:51Z</time>
      </trkpt>
      <trkpt lat="44.21565" lon="6.82308">
        <ele>2743</ele>
        <time>2012-07-30T08:44:52Z</time>
      </trkpt>
      <trkpt lat="44.21574" lon="6.82314">
        <ele>2741.3</ele>
        <time>2012-07-30T08:45:32Z</time>
      </trkpt>
      <trkpt lat="44.21575" lon="6.82314">
        <ele>2741.3</ele>
        <time>2012-07-30T08:45:33Z</time>
      </trkpt>
      <trkpt lat="44.21582" lon="6.82319">
        <ele>2740.1</ele>
        <time>2012-07-30T08:45:58Z</time>
      </trkpt>
      <trkpt lat="44.21583" lon="6.8232">
        <ele>2739.8</ele>
        <time>2012-07-30T08:45:59Z</time>
      </trkpt>
      <trkpt lat="44.21584" lon="6.82321">
        <ele>2739.8</ele>
        <time>2012-07-30T08:46:00Z</time>
      </trkpt>
      <trkpt lat="44.21585" lon="6.82323">
        <ele>2739.3</ele>
        <time>2012-07-30T08:46:02Z</time>
      </trkpt>
      <trkpt lat="44.21586" lon="6.82323">
        <ele>2739.3</ele>
        <time>2012-07-30T08:46:03Z</time>
      </trkpt>
      <trkpt lat="44.21587" lon="6.82323">
        <ele>2739.1</ele>
        <time>2012-07-30T08:46:04Z</time>
      </trkpt>
      <trkpt lat="44.21596" lon="6.82326">
        <ele>2736.3</ele>
        <time>2012-07-30T08:46:15Z</time>
      </trkpt>
      <trkpt lat="44.21597" lon="6.82327">
        <ele>2736.1</ele>
        <time>2012-07-30T08:46:16Z</time>
      </trkpt>
      <trkpt lat="44.21598" lon="6.82328">
        <ele>2735.8</ele>
        <time>2012-07-30T08:46:17Z</time>
      </trkpt>
      <trkpt lat="44.21599" lon="6.82329">
        <ele>2735.6</ele>
        <time>2012-07-30T08:46:18Z</time>
      </trkpt>
      <trkpt lat="44.21601" lon="6.82333">
        <ele>2735</ele>
        <time>2012-07-30T08:46:21Z</time>
      </trkpt>
      <trkpt lat="44.21602" lon="6.82334">
        <ele>2734.6</ele>
        <time>2012-07-30T08:46:22Z</time>
      </trkpt>
      <trkpt lat="44.21604" lon="6.82336">
        <ele>2734.3</ele>
        <time>2012-07-30T08:46:24Z</time>
      </trkpt>
      <trkpt lat="44.21605" lon="6.82336">
        <ele>2734.3</ele>
        <time>2012-07-30T08:46:25Z</time>
      </trkpt>
      <trkpt lat="44.21606" lon="6.82337">
        <ele>2734.1</ele>
        <time>2012-07-30T08:46:27Z</time>
      </trkpt>
      <trkpt lat="44.21607" lon="6.82338">
        <ele>2734.1</ele>
        <time>2012-07-30T08:46:28Z</time>
      </trkpt>
      <trkpt lat="44.21609" lon="6.8234">
        <ele>2734.1</ele>
        <time>2012-07-30T08:46:30Z</time>
      </trkpt>
      <trkpt lat="44.2161" lon="6.82341">
        <ele>2734.1</ele>
        <time>2012-07-30T08:46:31Z</time>
      </trkpt>
      <trkpt lat="44.2161" lon="6.82342">
        <ele>2734</ele>
        <time>2012-07-30T08:46:32Z</time>
      </trkpt>
      <trkpt lat="44.21614" lon="6.82349">
        <ele>2733.1</ele>
        <time>2012-07-30T08:46:40Z</time>
      </trkpt>
      <trkpt lat="44.21614" lon="6.82351">
        <ele>2733.1</ele>
        <time>2012-07-30T08:46:41Z</time>
      </trkpt>
      <trkpt lat="44.21615" lon="6.82352">
        <ele>2733</ele>
        <time>2012-07-30T08:46:42Z</time>
      </trkpt>
      <trkpt lat="44.21615" lon="6.82353">
        <ele>2732.8</ele>
        <time>2012-07-30T08:46:43Z</time>
      </trkpt>
      <trkpt lat="44.21617" lon="6.82355">
        <ele>2732.8</ele>
        <time>2012-07-30T08:46:45Z</time>
      </trkpt>
      <trkpt lat="44.21615" lon="6.82363">
        <ele>2726.8</ele>
        <time>2012-07-30T08:47:18Z</time>
      </trkpt>
      <trkpt lat="44.21616" lon="6.82363">
        <ele>2726.6</ele>
        <time>2012-07-30T08:47:19Z</time>
      </trkpt>
      <trkpt lat="44.21623" lon="6.82372">
        <ele>2724.1</ele>
        <time>2012-07-30T08:47:33Z</time>
      </trkpt>
      <trkpt lat="44.21624" lon="6.82373">
        <ele>2724.3</ele>
        <time>2012-07-30T08:47:34Z</time>
      </trkpt>
      <trkpt lat="44.21628" lon="6.82376">
        <ele>2724.6</ele>
        <time>2012-07-30T08:47:39Z</time>
      </trkpt>
      <trkpt lat="44.21629" lon="6.82377">
        <ele>2724.8</ele>
        <time>2012-07-30T08:47:40Z</time>
      </trkpt>
      <trkpt lat="44.21643" lon="6.82396">
        <ele>2723.1</ele>
        <time>2012-07-30T08:48:16Z</time>
      </trkpt>
      <trkpt lat="44.21643" lon="6.82397">
        <ele>2723.3</ele>
        <time>2012-07-30T08:48:17Z</time>
      </trkpt>
      <trkpt lat="44.21644" lon="6.82399">
        <ele>2723.8</ele>
        <time>2012-07-30T08:48:19Z</time>
      </trkpt>
      <trkpt lat="44.21645" lon="6.824">
        <ele>2723.5</ele>
        <time>2012-07-30T08:48:20Z</time>
      </trkpt>
      <trkpt lat="44.21646" lon="6.82401">
        <ele>2723.1</ele>
        <time>2012-07-30T08:48:21Z</time>
      </trkpt>
      <trkpt lat="44.21647" lon="6.82401">
        <ele>2723</ele>
        <time>2012-07-30T08:48:22Z</time>
      </trkpt>
      <trkpt lat="44.21648" lon="6.82402">
        <ele>2722.8</ele>
        <time>2012-07-30T08:48:23Z</time>
      </trkpt>
      <trkpt lat="44.21648" lon="6.82403">
        <ele>2722.6</ele>
        <time>2012-07-30T08:48:24Z</time>
      </trkpt>
      <trkpt lat="44.21651" lon="6.82405">
        <ele>2721.8</ele>
        <time>2012-07-30T08:48:27Z</time>
      </trkpt>
      <trkpt lat="44.21651" lon="6.82407">
        <ele>2721.3</ele>
        <time>2012-07-30T08:48:28Z</time>
      </trkpt>
      <trkpt lat="44.21653" lon="6.82409">
        <ele>2720.8</ele>
        <time>2012-07-30T08:48:30Z</time>
      </trkpt>
      <trkpt lat="44.2166" lon="6.82418">
        <ele>2722.1</ele>
        <time>2012-07-30T08:48:40Z</time>
      </trkpt>
      <trkpt lat="44.21661" lon="6.82419">
        <ele>2722.5</ele>
        <time>2012-07-30T08:48:41Z</time>
      </trkpt>
      <trkpt lat="44.21666" lon="6.82425">
        <ele>2724.1</ele>
        <time>2012-07-30T08:48:48Z</time>
      </trkpt>
      <trkpt lat="44.21667" lon="6.82426">
        <ele>2724.1</ele>
        <time>2012-07-30T08:48:49Z</time>
      </trkpt>
      <trkpt lat="44.21668" lon="6.82429">
        <ele>2724.3</ele>
        <time>2012-07-30T08:48:51Z</time>
      </trkpt>
      <trkpt lat="44.21671" lon="6.82432">
        <ele>2724.3</ele>
        <time>2012-07-30T08:48:54Z</time>
      </trkpt>
      <trkpt lat="44.21671" lon="6.82433">
        <ele>2724.5</ele>
        <time>2012-07-30T08:48:55Z</time>
      </trkpt>
      <trkpt lat="44.21672" lon="6.82435">
        <ele>2724.6</ele>
        <time>2012-07-30T08:48:56Z</time>
      </trkpt>
      <trkpt lat="44.21675" lon="6.82438">
        <ele>2724.8</ele>
        <time>2012-07-30T08:48:59Z</time>
      </trkpt>
      <trkpt lat="44.21679" lon="6.82444">
        <ele>2725.1</ele>
        <time>2012-07-30T08:49:04Z</time>
      </trkpt>
      <trkpt lat="44.21679" lon="6.82445">
        <ele>2724.8</ele>
        <time>2012-07-30T08:49:05Z</time>
      </trkpt>
      <trkpt lat="44.2168" lon="6.82451">
        <ele>2724</ele>
        <time>2012-07-30T08:49:09Z</time>
      </trkpt>
      <trkpt lat="44.21681" lon="6.82453">
        <ele>2724</ele>
        <time>2012-07-30T08:49:10Z</time>
      </trkpt>
      <trkpt lat="44.21681" lon="6.82454">
        <ele>2723.8</ele>
        <time>2012-07-30T08:49:11Z</time>
      </trkpt>
      <trkpt lat="44.21682" lon="6.82459">
        <ele>2723.1</ele>
        <time>2012-07-30T08:49:16Z</time>
      </trkpt>
      <trkpt lat="44.21682" lon="6.82461">
        <ele>2723.1</ele>
        <time>2012-07-30T08:49:17Z</time>
      </trkpt>
      <trkpt lat="44.21683" lon="6.82466">
        <ele>2722.8</ele>
        <time>2012-07-30T08:49:21Z</time>
      </trkpt>
      <trkpt lat="44.21683" lon="6.82467">
        <ele>2722.6</ele>
        <time>2012-07-30T08:49:22Z</time>
      </trkpt>
      <trkpt lat="44.21683" lon="6.82468">
        <ele>2722.6</ele>
        <time>2012-07-30T08:49:23Z</time>
      </trkpt>
      <trkpt lat="44.21684" lon="6.82469">
        <ele>2722.5</ele>
        <time>2012-07-30T08:49:24Z</time>
      </trkpt>
      <trkpt lat="44.21686" lon="6.8248">
        <ele>2721.1</ele>
        <time>2012-07-30T08:49:34Z</time>
      </trkpt>
      <trkpt lat="44.21687" lon="6.82482">
        <ele>2721</ele>
        <time>2012-07-30T08:49:35Z</time>
      </trkpt>
      <trkpt lat="44.21687" lon="6.82483">
        <ele>2720.8</ele>
        <time>2012-07-30T08:49:36Z</time>
      </trkpt>
      <trkpt lat="44.21687" lon="6.82484">
        <ele>2720.6</ele>
        <time>2012-07-30T08:49:37Z</time>
      </trkpt>
      <trkpt lat="44.21687" lon="6.82485">
        <ele>2720.3</ele>
        <time>2012-07-30T08:49:38Z</time>
      </trkpt>
      <trkpt lat="44.21688" lon="6.82486">
        <ele>2720.1</ele>
        <time>2012-07-30T08:49:39Z</time>
      </trkpt>
      <trkpt lat="44.21688" lon="6.82487">
        <ele>2720</ele>
        <time>2012-07-30T08:49:40Z</time>
      </trkpt>
      <trkpt lat="44.21694" lon="6.82508">
        <ele>2713.1</ele>
        <time>2012-07-30T08:50:06Z</time>
      </trkpt>
      <trkpt lat="44.21694" lon="6.82511">
        <ele>2712.3</ele>
        <time>2012-07-30T08:50:08Z</time>
      </trkpt>
      <trkpt lat="44.21694" lon="6.82512">
        <ele>2711.8</ele>
        <time>2012-07-30T08:50:09Z</time>
      </trkpt>
      <trkpt lat="44.21694" lon="6.82513">
        <ele>2711.6</ele>
        <time>2012-07-30T08:50:10Z</time>
      </trkpt>
      <trkpt lat="44.21694" lon="6.82514">
        <ele>2711.6</ele>
        <time>2012-07-30T08:50:11Z</time>
      </trkpt>
      <trkpt lat="44.21694" lon="6.82515">
        <ele>2711.1</ele>
        <time>2012-07-30T08:50:12Z</time>
      </trkpt>
      <trkpt lat="44.21695" lon="6.82515">
        <ele>2711</ele>
        <time>2012-07-30T08:50:13Z</time>
      </trkpt>
      <trkpt lat="44.21695" lon="6.82516">
        <ele>2710.8</ele>
        <time>2012-07-30T08:50:14Z</time>
      </trkpt>
      <trkpt lat="44.21696" lon="6.82517">
        <ele>2710.6</ele>
        <time>2012-07-30T08:50:15Z</time>
      </trkpt>
      <trkpt lat="44.21696" lon="6.82517">
        <ele>2710.3</ele>
        <time>2012-07-30T08:50:16Z</time>
      </trkpt>
      <trkpt lat="44.21697" lon="6.82518">
        <ele>2710.1</ele>
        <time>2012-07-30T08:50:17Z</time>
      </trkpt>
      <trkpt lat="44.21697" lon="6.82519">
        <ele>2710</ele>
        <time>2012-07-30T08:50:18Z</time>
      </trkpt>
      <trkpt lat="44.21698" lon="6.8252">
        <ele>2709.8</ele>
        <time>2012-07-30T08:50:19Z</time>
      </trkpt>
      <trkpt lat="44.21698" lon="6.82521">
        <ele>2709.8</ele>
        <time>2012-07-30T08:50:20Z</time>
      </trkpt>
      <trkpt lat="44.21699" lon="6.82522">
        <ele>2709.6</ele>
        <time>2012-07-30T08:50:21Z</time>
      </trkpt>
      <trkpt lat="44.21699" lon="6.82523">
        <ele>2709.3</ele>
        <time>2012-07-30T08:50:22Z</time>
      </trkpt>
      <trkpt lat="44.217" lon="6.82524">
        <ele>2709.3</ele>
        <time>2012-07-30T08:50:23Z</time>
      </trkpt>
      <trkpt lat="44.21702" lon="6.82525">
        <ele>2709</ele>
        <time>2012-07-30T08:50:25Z</time>
      </trkpt>
      <trkpt lat="44.21703" lon="6.82525">
        <ele>2708.5</ele>
        <time>2012-07-30T08:50:27Z</time>
      </trkpt>
      <trkpt lat="44.2171" lon="6.82529">
        <ele>2707.5</ele>
        <time>2012-07-30T08:50:36Z</time>
      </trkpt>
      <trkpt lat="44.21711" lon="6.8253">
        <ele>2707.1</ele>
        <time>2012-07-30T08:50:37Z</time>
      </trkpt>
      <trkpt lat="44.21711" lon="6.8253">
        <ele>2707</ele>
        <time>2012-07-30T08:50:38Z</time>
      </trkpt>
      <trkpt lat="44.21712" lon="6.82531">
        <ele>2706.6</ele>
        <time>2012-07-30T08:50:39Z</time>
      </trkpt>
      <trkpt lat="44.21713" lon="6.82531">
        <ele>2706.3</ele>
        <time>2012-07-30T08:50:40Z</time>
      </trkpt>
      <trkpt lat="44.21713" lon="6.82532">
        <ele>2706.1</ele>
        <time>2012-07-30T08:50:41Z</time>
      </trkpt>
      <trkpt lat="44.21714" lon="6.82532">
        <ele>2705.8</ele>
        <time>2012-07-30T08:50:42Z</time>
      </trkpt>
      <trkpt lat="44.21714" lon="6.82533">
        <ele>2705.6</ele>
        <time>2012-07-30T08:50:43Z</time>
      </trkpt>
      <trkpt lat="44.21715" lon="6.82533">
        <ele>2705.3</ele>
        <time>2012-07-30T08:50:44Z</time>
      </trkpt>
      <trkpt lat="44.21716" lon="6.82534">
        <ele>2705.1</ele>
        <time>2012-07-30T08:50:45Z</time>
      </trkpt>
      <trkpt lat="44.21716" lon="6.82534">
        <ele>2704.8</ele>
        <time>2012-07-30T08:50:46Z</time>
      </trkpt>
      <trkpt lat="44.21717" lon="6.82535">
        <ele>2704.3</ele>
        <time>2012-07-30T08:50:47Z</time>
      </trkpt>
      <trkpt lat="44.21717" lon="6.82535">
        <ele>2704.1</ele>
        <time>2012-07-30T08:50:48Z</time>
      </trkpt>
      <trkpt lat="44.21718" lon="6.82536">
        <ele>2703.8</ele>
        <time>2012-07-30T08:50:49Z</time>
      </trkpt>
      <trkpt lat="44.21718" lon="6.82537">
        <ele>2703.6</ele>
        <time>2012-07-30T08:50:50Z</time>
      </trkpt>
      <trkpt lat="44.21718" lon="6.82538">
        <ele>2703.3</ele>
        <time>2012-07-30T08:50:51Z</time>
      </trkpt>
      <trkpt lat="44.21718" lon="6.82539">
        <ele>2703.1</ele>
        <time>2012-07-30T08:50:52Z</time>
      </trkpt>
      <trkpt lat="44.21718" lon="6.8254">
        <ele>2703</ele>
        <time>2012-07-30T08:50:53Z</time>
      </trkpt>
      <trkpt lat="44.21718" lon="6.8254">
        <ele>2702.8</ele>
        <time>2012-07-30T08:50:54Z</time>
      </trkpt>
      <trkpt lat="44.21719" lon="6.8254">
        <ele>2702.6</ele>
        <time>2012-07-30T08:50:55Z</time>
      </trkpt>
      <trkpt lat="44.21719" lon="6.82541">
        <ele>2702.3</ele>
        <time>2012-07-30T08:50:56Z</time>
      </trkpt>
      <trkpt lat="44.2172" lon="6.82541">
        <ele>2702.1</ele>
        <time>2012-07-30T08:50:57Z</time>
      </trkpt>
      <trkpt lat="44.21737" lon="6.8256">
        <ele>2694.6</ele>
        <time>2012-07-30T08:51:26Z</time>
      </trkpt>
      <trkpt lat="44.21738" lon="6.82561">
        <ele>2694.5</ele>
        <time>2012-07-30T08:51:27Z</time>
      </trkpt>
      <trkpt lat="44.2174" lon="6.82562">
        <ele>2694</ele>
        <time>2012-07-30T08:51:29Z</time>
      </trkpt>
      <trkpt lat="44.21742" lon="6.82564">
        <ele>2693.3</ele>
        <time>2012-07-30T08:51:31Z</time>
      </trkpt>
      <trkpt lat="44.21819" lon="6.82688">
        <ele>2636.1</ele>
        <time>2012-07-30T08:55:38Z</time>
      </trkpt>
      <trkpt lat="44.2182" lon="6.82688">
        <ele>2635.8</ele>
        <time>2012-07-30T08:55:39Z</time>
      </trkpt>
      <trkpt lat="44.21827" lon="6.82699">
        <ele>2631.5</ele>
        <time>2012-07-30T08:55:57Z</time>
      </trkpt>
      <trkpt lat="44.21828" lon="6.827">
        <ele>2631.1</ele>
        <time>2012-07-30T08:55:58Z</time>
      </trkpt>
      <trkpt lat="44.21831" lon="6.82703">
        <ele>2630</ele>
        <time>2012-07-30T08:56:02Z</time>
      </trkpt>
      <trkpt lat="44.21831" lon="6.82704">
        <ele>2629.6</ele>
        <time>2012-07-30T08:56:03Z</time>
      </trkpt>
      <trkpt lat="44.21833" lon="6.82706">
        <ele>2628.8</ele>
        <time>2012-07-30T08:56:06Z</time>
      </trkpt>
      <trkpt lat="44.21834" lon="6.82707">
        <ele>2628.6</ele>
        <time>2012-07-30T08:56:07Z</time>
      </trkpt>
      <trkpt lat="44.21841" lon="6.82714">
        <ele>2625.6</ele>
        <time>2012-07-30T08:56:18Z</time>
      </trkpt>
      <trkpt lat="44.21857" lon="6.82737">
        <ele>2617.6</ele>
        <time>2012-07-30T08:56:50Z</time>
      </trkpt>
      <trkpt lat="44.21857" lon="6.82738">
        <ele>2617.3</ele>
        <time>2012-07-30T08:56:51Z</time>
      </trkpt>
      <trkpt lat="44.2186" lon="6.82742">
        <ele>2615.6</ele>
        <time>2012-07-30T08:56:56Z</time>
      </trkpt>
      <trkpt lat="44.21861" lon="6.82743">
        <ele>2615.1</ele>
        <time>2012-07-30T08:56:57Z</time>
      </trkpt>
      <trkpt lat="44.21864" lon="6.82748">
        <ele>2614.3</ele>
        <time>2012-07-30T08:57:01Z</time>
      </trkpt>
      <trkpt lat="44.21864" lon="6.82749">
        <ele>2614.1</ele>
        <time>2012-07-30T08:57:02Z</time>
      </trkpt>
      <trkpt lat="44.21867" lon="6.82753">
        <ele>2613</ele>
        <time>2012-07-30T08:57:06Z</time>
      </trkpt>
      <trkpt lat="44.21868" lon="6.82753">
        <ele>2612.8</ele>
        <time>2012-07-30T08:57:07Z</time>
      </trkpt>
      <trkpt lat="44.21869" lon="6.82754">
        <ele>2612.6</ele>
        <time>2012-07-30T08:57:08Z</time>
      </trkpt>
      <trkpt lat="44.2187" lon="6.82756">
        <ele>2612.1</ele>
        <time>2012-07-30T08:57:10Z</time>
      </trkpt>
      <trkpt lat="44.21873" lon="6.82759">
        <ele>2611</ele>
        <time>2012-07-30T08:57:14Z</time>
      </trkpt>
      <trkpt lat="44.21874" lon="6.8276">
        <ele>2610.8</ele>
        <time>2012-07-30T08:57:15Z</time>
      </trkpt>
      <trkpt lat="44.21875" lon="6.82762">
        <ele>2610.3</ele>
        <time>2012-07-30T08:57:17Z</time>
      </trkpt>
      <trkpt lat="44.21876" lon="6.82763">
        <ele>2610.3</ele>
        <time>2012-07-30T08:57:18Z</time>
      </trkpt>
      <trkpt lat="44.2188" lon="6.82767">
        <ele>2609.5</ele>
        <time>2012-07-30T08:57:23Z</time>
      </trkpt>
      <trkpt lat="44.21881" lon="6.82769">
        <ele>2609</ele>
        <time>2012-07-30T08:57:25Z</time>
      </trkpt>
      <trkpt lat="44.21882" lon="6.82771">
        <ele>2608.6</ele>
        <time>2012-07-30T08:57:26Z</time>
      </trkpt>
      <trkpt lat="44.21885" lon="6.82779">
        <ele>2607.3</ele>
        <time>2012-07-30T08:57:33Z</time>
      </trkpt>
      <trkpt lat="44.21885" lon="6.8278">
        <ele>2607.1</ele>
        <time>2012-07-30T08:57:34Z</time>
      </trkpt>
      <trkpt lat="44.21894" lon="6.82786">
        <ele>2609.6</ele>
        <time>2012-07-30T08:58:29Z</time>
      </trkpt>
      <trkpt lat="44.21895" lon="6.82788">
        <ele>2609.6</ele>
        <time>2012-07-30T08:58:30Z</time>
      </trkpt>
      <trkpt lat="44.21896" lon="6.82792">
        <ele>2609.3</ele>
        <time>2012-07-30T08:58:34Z</time>
      </trkpt>
      <trkpt lat="44.21937" lon="6.82863">
        <ele>2622.3</ele>
        <time>2012-07-30T09:00:33Z</time>
      </trkpt>
      <trkpt lat="44.21937" lon="6.82864">
        <ele>2622.8</ele>
        <time>2012-07-30T09:00:34Z</time>
      </trkpt>
      <trkpt lat="44.21997" lon="6.83013">
        <ele>2656.8</ele>
        <time>2012-07-30T09:04:07Z</time>
      </trkpt>
      <trkpt lat="44.21997" lon="6.83014">
        <ele>2656.6</ele>
        <time>2012-07-30T09:04:08Z</time>
      </trkpt>
      <trkpt lat="44.21996" lon="6.83015">
        <ele>2656.6</ele>
        <time>2012-07-30T09:04:09Z</time>
      </trkpt>
      <trkpt lat="44.21996" lon="6.83016">
        <ele>2656.8</ele>
        <time>2012-07-30T09:04:10Z</time>
      </trkpt>
      <trkpt lat="44.21996" lon="6.83017">
        <ele>2656.8</ele>
        <time>2012-07-30T09:04:11Z</time>
      </trkpt>
      <trkpt lat="44.21996" lon="6.83018">
        <ele>2656.8</ele>
        <time>2012-07-30T09:04:12Z</time>
      </trkpt>
      <trkpt lat="44.21996" lon="6.83019">
        <ele>2657.1</ele>
        <time>2012-07-30T09:04:13Z</time>
      </trkpt>
      <trkpt lat="44.21995" lon="6.8302">
        <ele>2657.3</ele>
        <time>2012-07-30T09:04:14Z</time>
      </trkpt>
      <trkpt lat="44.21995" lon="6.83021">
        <ele>2657.3</ele>
        <time>2012-07-30T09:04:15Z</time>
      </trkpt>
      <trkpt lat="44.21995" lon="6.83022">
        <ele>2657.3</ele>
        <time>2012-07-30T09:04:16Z</time>
      </trkpt>
      <trkpt lat="44.21995" lon="6.83023">
        <ele>2657.3</ele>
        <time>2012-07-30T09:04:17Z</time>
      </trkpt>
      <trkpt lat="44.21995" lon="6.83024">
        <ele>2657.3</ele>
        <time>2012-07-30T09:04:18Z</time>
      </trkpt>
      <trkpt lat="44.21995" lon="6.83025">
        <ele>2657.3</ele>
        <time>2012-07-30T09:04:19Z</time>
      </trkpt>
      <trkpt lat="44.21995" lon="6.83026">
        <ele>2657.5</ele>
        <time>2012-07-30T09:04:20Z</time>
      </trkpt>
      <trkpt lat="44.21995" lon="6.83027">
        <ele>2657.5</ele>
        <time>2012-07-30T09:04:21Z</time>
      </trkpt>
      <trkpt lat="44.21996" lon="6.83031">
        <ele>2657.6</ele>
        <time>2012-07-30T09:04:24Z</time>
      </trkpt>
      <trkpt lat="44.21995" lon="6.8304">
        <ele>2657.8</ele>
        <time>2012-07-30T09:04:33Z</time>
      </trkpt>
      <trkpt lat="44.21995" lon="6.8305">
        <ele>2660.5</ele>
        <time>2012-07-30T09:04:42Z</time>
      </trkpt>
      <trkpt lat="44.21995" lon="6.83051">
        <ele>2660.6</ele>
        <time>2012-07-30T09:04:43Z</time>
      </trkpt>
      <trkpt lat="44.21994" lon="6.83053">
        <ele>2661.5</ele>
        <time>2012-07-30T09:04:45Z</time>
      </trkpt>
      <trkpt lat="44.21994" lon="6.83054">
        <ele>2661.3</ele>
        <time>2012-07-30T09:04:46Z</time>
      </trkpt>
      <trkpt lat="44.2199" lon="6.83058">
        <ele>2661.3</ele>
        <time>2012-07-30T09:05:15Z</time>
      </trkpt>
      <trkpt lat="44.2199" lon="6.83059">
        <ele>2661.5</ele>
        <time>2012-07-30T09:05:16Z</time>
      </trkpt>
      <trkpt lat="44.21991" lon="6.83073">
        <ele>2661.3</ele>
        <time>2012-07-30T09:05:30Z</time>
      </trkpt>
      <trkpt lat="44.21991" lon="6.83074">
        <ele>2661.3</ele>
        <time>2012-07-30T09:05:31Z</time>
      </trkpt>
      <trkpt lat="44.21991" lon="6.83077">
        <ele>2661.3</ele>
        <time>2012-07-30T09:05:33Z</time>
      </trkpt>
      <trkpt lat="44.21992" lon="6.83084">
        <ele>2661.1</ele>
        <time>2012-07-30T09:05:39Z</time>
      </trkpt>
      <trkpt lat="44.21992" lon="6.83085">
        <ele>2661.3</ele>
        <time>2012-07-30T09:05:40Z</time>
      </trkpt>
      <trkpt lat="44.21992" lon="6.83086">
        <ele>2661.6</ele>
        <time>2012-07-30T09:05:41Z</time>
      </trkpt>
      <trkpt lat="44.21992" lon="6.83087">
        <ele>2661.6</ele>
        <time>2012-07-30T09:05:42Z</time>
      </trkpt>
      <trkpt lat="44.21993" lon="6.83089">
        <ele>2661.6</ele>
        <time>2012-07-30T09:05:43Z</time>
      </trkpt>
      <trkpt lat="44.21993" lon="6.8309">
        <ele>2661.8</ele>
        <time>2012-07-30T09:05:44Z</time>
      </trkpt>
      <trkpt lat="44.21993" lon="6.83091">
        <ele>2661.8</ele>
        <time>2012-07-30T09:05:45Z</time>
      </trkpt>
      <trkpt lat="44.21993" lon="6.83092">
        <ele>2662</ele>
        <time>2012-07-30T09:05:46Z</time>
      </trkpt>
      <trkpt lat="44.21993" lon="6.83093">
        <ele>2662.1</ele>
        <time>2012-07-30T09:05:47Z</time>
      </trkpt>
      <trkpt lat="44.21993" lon="6.83094">
        <ele>2662.1</ele>
        <time>2012-07-30T09:05:48Z</time>
      </trkpt>
      <trkpt lat="44.21993" lon="6.83095">
        <ele>2662.5</ele>
        <time>2012-07-30T09:05:49Z</time>
      </trkpt>
      <trkpt lat="44.21993" lon="6.83096">
        <ele>2662.3</ele>
        <time>2012-07-30T09:05:50Z</time>
      </trkpt>
      <trkpt lat="44.21993" lon="6.83097">
        <ele>2662.1</ele>
        <time>2012-07-30T09:05:51Z</time>
      </trkpt>
      <trkpt lat="44.21994" lon="6.83121">
        <ele>2665</ele>
        <time>2012-07-30T09:06:12Z</time>
      </trkpt>
      <trkpt lat="44.22093" lon="6.83457">
        <ele>2772.3</ele>
        <time>2012-07-30T09:16:32Z</time>
      </trkpt>
      <trkpt lat="44.22094" lon="6.83458">
        <ele>2772.3</ele>
        <time>2012-07-30T09:16:33Z</time>
      </trkpt>
      <trkpt lat="44.22221" lon="6.83485">
        <ele>2826.1</ele>
        <time>2012-07-30T09:23:11Z</time>
      </trkpt>
      <trkpt lat="44.22222" lon="6.83484">
        <ele>2826.3</ele>
        <time>2012-07-30T09:23:12Z</time>
      </trkpt>
    </trkseg>
  </trk>
</gpx>